<?xml version="1.0" encoding="UTF-8" standalone="no" ?>
<gpx xmlns="http://www.topografix.com/GPX/1/1" xmlns:xsi="http://www.w3.org/2001/XMLSchema-instance" xsi:schemaLocation="http://www.topografix.com/GPX/1/1 http://www.topografix.com/GPX/1/1/gpx.xsd" version="1.1" creator="VisuGPX - https://www.visugpx.com">
  <metadata>
    <name>VTT du mercredi 24 janvier 2018 (fin d'inondation)</name>
    <desc><![CDATA[Ciel bleu, soleil et température clémente, on en avait besoin.
Le parcours nous a permis de voir les inondations (en baisse) et nous a creusé l'appétit.
NB : Appétit comblé au 6 rue Liautey ]]></desc>
  </metadata>
  <trk>
    <name><![CDATA[2018-01-24 09:43]]></name>
    <desc><![CDATA[<p>Heure de départ: 01/24/2018 09:43<br/>Heure d'arrivée: 01/24/2018 11:52<br/>Distance: 26,2 km (02:09)<br/>Temps déplacement: 01:51<br/>Vitesse moyenne: 12,15 km/h<br/>Vitesse moyenne mouv.: 14,15 km/h<br/>Vitesse Max.: 37,88 km/h<br/>Altitude minimale: 203 m<br/>Altitude maximale: 265 m<br/>Vitesse de montée: 166,8 m/h<br/>Vitesse de descente: -273,2 m/h<br/>Gain d'altitude: 116 m<br/>Perte d'altitude: -131 m<br/>Temps de montée: 00:41<br/>Temps de descente: 00:28<br/></p><hr align="center" width="480" style="height: 2px; width: 517px"/>]]></desc>
    <trkseg>
      <trkpt lat="47.68647" lon="6.04538">
        <ele>244.5</ele>
        <time>2018-01-24T08:43:21Z</time>
      </trkpt>
      <trkpt lat="47.68631" lon="6.04533">
        <ele>238.41</ele>
        <time>2018-01-24T08:43:23Z</time>
      </trkpt>
      <trkpt lat="47.6863" lon="6.04541">
        <ele>228.23</ele>
        <time>2018-01-24T08:43:35Z</time>
      </trkpt>
      <trkpt lat="47.68628" lon="6.04532">
        <ele>227.7</ele>
        <time>2018-01-24T08:43:51Z</time>
      </trkpt>
      <trkpt lat="47.68623" lon="6.04525">
        <ele>227.74</ele>
        <time>2018-01-24T08:43:53Z</time>
      </trkpt>
      <trkpt lat="47.68617" lon="6.04521">
        <ele>227.85</ele>
        <time>2018-01-24T08:43:55Z</time>
      </trkpt>
      <trkpt lat="47.68612" lon="6.04516">
        <ele>227.96</ele>
        <time>2018-01-24T08:43:57Z</time>
      </trkpt>
      <trkpt lat="47.68606" lon="6.04511">
        <ele>228.06</ele>
        <time>2018-01-24T08:43:59Z</time>
      </trkpt>
      <trkpt lat="47.68599" lon="6.04506">
        <ele>228.5</ele>
        <time>2018-01-24T08:44:01Z</time>
      </trkpt>
      <trkpt lat="47.68592" lon="6.04501">
        <ele>228.96</ele>
        <time>2018-01-24T08:44:03Z</time>
      </trkpt>
      <trkpt lat="47.68585" lon="6.04494">
        <ele>229.19</ele>
        <time>2018-01-24T08:44:05Z</time>
      </trkpt>
      <trkpt lat="47.68578" lon="6.04488">
        <ele>229.13</ele>
        <time>2018-01-24T08:44:07Z</time>
      </trkpt>
      <trkpt lat="47.68569" lon="6.04483">
        <ele>228.85</ele>
        <time>2018-01-24T08:44:09Z</time>
      </trkpt>
      <trkpt lat="47.68565" lon="6.0448">
        <ele>228.65</ele>
        <time>2018-01-24T08:44:10Z</time>
      </trkpt>
      <trkpt lat="47.6856" lon="6.04477">
        <ele>228.44</ele>
        <time>2018-01-24T08:44:11Z</time>
      </trkpt>
      <trkpt lat="47.68556" lon="6.04473">
        <ele>228.23</ele>
        <time>2018-01-24T08:44:12Z</time>
      </trkpt>
      <trkpt lat="47.68551" lon="6.0447">
        <ele>228.02</ele>
        <time>2018-01-24T08:44:13Z</time>
      </trkpt>
      <trkpt lat="47.68547" lon="6.04467">
        <ele>227.82</ele>
        <time>2018-01-24T08:44:14Z</time>
      </trkpt>
      <trkpt lat="47.68542" lon="6.04464">
        <ele>227.62</ele>
        <time>2018-01-24T08:44:15Z</time>
      </trkpt>
      <trkpt lat="47.68537" lon="6.04461">
        <ele>227.38</ele>
        <time>2018-01-24T08:44:16Z</time>
      </trkpt>
      <trkpt lat="47.68533" lon="6.04458">
        <ele>227.15</ele>
        <time>2018-01-24T08:44:17Z</time>
      </trkpt>
      <trkpt lat="47.68529" lon="6.04455">
        <ele>226.92</ele>
        <time>2018-01-24T08:44:18Z</time>
      </trkpt>
      <trkpt lat="47.68524" lon="6.04451">
        <ele>226.72</ele>
        <time>2018-01-24T08:44:19Z</time>
      </trkpt>
      <trkpt lat="47.6852" lon="6.04448">
        <ele>226.52</ele>
        <time>2018-01-24T08:44:20Z</time>
      </trkpt>
      <trkpt lat="47.68515" lon="6.04445">
        <ele>226.35</ele>
        <time>2018-01-24T08:44:21Z</time>
      </trkpt>
      <trkpt lat="47.6851" lon="6.04442">
        <ele>226.19</ele>
        <time>2018-01-24T08:44:22Z</time>
      </trkpt>
      <trkpt lat="47.68505" lon="6.04439">
        <ele>226.04</ele>
        <time>2018-01-24T08:44:23Z</time>
      </trkpt>
      <trkpt lat="47.685" lon="6.04435">
        <ele>225.9</ele>
        <time>2018-01-24T08:44:24Z</time>
      </trkpt>
      <trkpt lat="47.68495" lon="6.04433">
        <ele>225.75</ele>
        <time>2018-01-24T08:44:25Z</time>
      </trkpt>
      <trkpt lat="47.6849" lon="6.04432">
        <ele>225.6</ele>
        <time>2018-01-24T08:44:26Z</time>
      </trkpt>
      <trkpt lat="47.68484" lon="6.04431">
        <ele>225.46</ele>
        <time>2018-01-24T08:44:27Z</time>
      </trkpt>
      <trkpt lat="47.68477" lon="6.04431">
        <ele>225.33</ele>
        <time>2018-01-24T08:44:28Z</time>
      </trkpt>
      <trkpt lat="47.68471" lon="6.04431">
        <ele>225.21</ele>
        <time>2018-01-24T08:44:29Z</time>
      </trkpt>
      <trkpt lat="47.68465" lon="6.04431">
        <ele>225.11</ele>
        <time>2018-01-24T08:44:30Z</time>
      </trkpt>
      <trkpt lat="47.68459" lon="6.04431">
        <ele>225.01</ele>
        <time>2018-01-24T08:44:31Z</time>
      </trkpt>
      <trkpt lat="47.68454" lon="6.04431">
        <ele>224.91</ele>
        <time>2018-01-24T08:44:32Z</time>
      </trkpt>
      <trkpt lat="47.68448" lon="6.0443">
        <ele>224.78</ele>
        <time>2018-01-24T08:44:33Z</time>
      </trkpt>
      <trkpt lat="47.68443" lon="6.0443">
        <ele>224.67</ele>
        <time>2018-01-24T08:44:34Z</time>
      </trkpt>
      <trkpt lat="47.68438" lon="6.0443">
        <ele>224.55</ele>
        <time>2018-01-24T08:44:35Z</time>
      </trkpt>
      <trkpt lat="47.68433" lon="6.0443">
        <ele>224.43</ele>
        <time>2018-01-24T08:44:36Z</time>
      </trkpt>
      <trkpt lat="47.68428" lon="6.0443">
        <ele>224.32</ele>
        <time>2018-01-24T08:44:37Z</time>
      </trkpt>
      <trkpt lat="47.68423" lon="6.0443">
        <ele>224.22</ele>
        <time>2018-01-24T08:44:38Z</time>
      </trkpt>
      <trkpt lat="47.68415" lon="6.04429">
        <ele>224.11</ele>
        <time>2018-01-24T08:44:40Z</time>
      </trkpt>
      <trkpt lat="47.68408" lon="6.0443">
        <ele>224.07</ele>
        <time>2018-01-24T08:44:42Z</time>
      </trkpt>
      <trkpt lat="47.68401" lon="6.04429">
        <ele>224.03</ele>
        <time>2018-01-24T08:44:44Z</time>
      </trkpt>
      <trkpt lat="47.68394" lon="6.04429">
        <ele>223.61</ele>
        <time>2018-01-24T08:44:46Z</time>
      </trkpt>
      <trkpt lat="47.68389" lon="6.04429">
        <ele>223.4</ele>
        <time>2018-01-24T08:44:47Z</time>
      </trkpt>
      <trkpt lat="47.68384" lon="6.04429">
        <ele>223.22</ele>
        <time>2018-01-24T08:44:48Z</time>
      </trkpt>
      <trkpt lat="47.68379" lon="6.04429">
        <ele>223.07</ele>
        <time>2018-01-24T08:44:49Z</time>
      </trkpt>
      <trkpt lat="47.68374" lon="6.04429">
        <ele>222.94</ele>
        <time>2018-01-24T08:44:50Z</time>
      </trkpt>
      <trkpt lat="47.68369" lon="6.04429">
        <ele>222.84</ele>
        <time>2018-01-24T08:44:51Z</time>
      </trkpt>
      <trkpt lat="47.68364" lon="6.04429">
        <ele>222.75</ele>
        <time>2018-01-24T08:44:52Z</time>
      </trkpt>
      <trkpt lat="47.68359" lon="6.04428">
        <ele>222.63</ele>
        <time>2018-01-24T08:44:53Z</time>
      </trkpt>
      <trkpt lat="47.68353" lon="6.04428">
        <ele>222.47</ele>
        <time>2018-01-24T08:44:54Z</time>
      </trkpt>
      <trkpt lat="47.68348" lon="6.04428">
        <ele>222.32</ele>
        <time>2018-01-24T08:44:55Z</time>
      </trkpt>
      <trkpt lat="47.68342" lon="6.04427">
        <ele>222.19</ele>
        <time>2018-01-24T08:44:56Z</time>
      </trkpt>
      <trkpt lat="47.68337" lon="6.04427">
        <ele>222.08</ele>
        <time>2018-01-24T08:44:57Z</time>
      </trkpt>
      <trkpt lat="47.68331" lon="6.04427">
        <ele>221.99</ele>
        <time>2018-01-24T08:44:58Z</time>
      </trkpt>
      <trkpt lat="47.68325" lon="6.04427">
        <ele>221.87</ele>
        <time>2018-01-24T08:44:59Z</time>
      </trkpt>
      <trkpt lat="47.6832" lon="6.04426">
        <ele>221.76</ele>
        <time>2018-01-24T08:45:00Z</time>
      </trkpt>
      <trkpt lat="47.68314" lon="6.04425">
        <ele>221.67</ele>
        <time>2018-01-24T08:45:01Z</time>
      </trkpt>
      <trkpt lat="47.68309" lon="6.04424">
        <ele>221.55</ele>
        <time>2018-01-24T08:45:02Z</time>
      </trkpt>
      <trkpt lat="47.68304" lon="6.04423">
        <ele>221.43</ele>
        <time>2018-01-24T08:45:03Z</time>
      </trkpt>
      <trkpt lat="47.68299" lon="6.04422">
        <ele>221.29</ele>
        <time>2018-01-24T08:45:04Z</time>
      </trkpt>
      <trkpt lat="47.68294" lon="6.04421">
        <ele>221.13</ele>
        <time>2018-01-24T08:45:05Z</time>
      </trkpt>
      <trkpt lat="47.68289" lon="6.04421">
        <ele>220.95</ele>
        <time>2018-01-24T08:45:06Z</time>
      </trkpt>
      <trkpt lat="47.68284" lon="6.0442">
        <ele>220.79</ele>
        <time>2018-01-24T08:45:07Z</time>
      </trkpt>
      <trkpt lat="47.68276" lon="6.04418">
        <ele>220.46</ele>
        <time>2018-01-24T08:45:09Z</time>
      </trkpt>
      <trkpt lat="47.68267" lon="6.04416">
        <ele>220.18</ele>
        <time>2018-01-24T08:45:11Z</time>
      </trkpt>
      <trkpt lat="47.68262" lon="6.04414">
        <ele>220.03</ele>
        <time>2018-01-24T08:45:12Z</time>
      </trkpt>
      <trkpt lat="47.68257" lon="6.04413">
        <ele>219.9</ele>
        <time>2018-01-24T08:45:13Z</time>
      </trkpt>
      <trkpt lat="47.68249" lon="6.04408">
        <ele>219.64</ele>
        <time>2018-01-24T08:45:15Z</time>
      </trkpt>
      <trkpt lat="47.68242" lon="6.04403">
        <ele>219.36</ele>
        <time>2018-01-24T08:45:17Z</time>
      </trkpt>
      <trkpt lat="47.68235" lon="6.04399">
        <ele>219.07</ele>
        <time>2018-01-24T08:45:19Z</time>
      </trkpt>
      <trkpt lat="47.68227" lon="6.04394">
        <ele>218.76</ele>
        <time>2018-01-24T08:45:21Z</time>
      </trkpt>
      <trkpt lat="47.68221" lon="6.0439">
        <ele>218.57</ele>
        <time>2018-01-24T08:45:23Z</time>
      </trkpt>
      <trkpt lat="47.68214" lon="6.04385">
        <ele>218.25</ele>
        <time>2018-01-24T08:45:25Z</time>
      </trkpt>
      <trkpt lat="47.68206" lon="6.04379">
        <ele>218.06</ele>
        <time>2018-01-24T08:45:27Z</time>
      </trkpt>
      <trkpt lat="47.682" lon="6.04374">
        <ele>217.91</ele>
        <time>2018-01-24T08:45:29Z</time>
      </trkpt>
      <trkpt lat="47.68192" lon="6.04368">
        <ele>217.66</ele>
        <time>2018-01-24T08:45:31Z</time>
      </trkpt>
      <trkpt lat="47.68184" lon="6.04364">
        <ele>217.46</ele>
        <time>2018-01-24T08:45:33Z</time>
      </trkpt>
      <trkpt lat="47.68176" lon="6.04361">
        <ele>217.31</ele>
        <time>2018-01-24T08:45:35Z</time>
      </trkpt>
      <trkpt lat="47.68167" lon="6.04362">
        <ele>217.19</ele>
        <time>2018-01-24T08:45:37Z</time>
      </trkpt>
      <trkpt lat="47.68159" lon="6.04364">
        <ele>217.1</ele>
        <time>2018-01-24T08:45:39Z</time>
      </trkpt>
      <trkpt lat="47.68154" lon="6.04366">
        <ele>217.06</ele>
        <time>2018-01-24T08:45:40Z</time>
      </trkpt>
      <trkpt lat="47.68146" lon="6.04369">
        <ele>216.97</ele>
        <time>2018-01-24T08:45:42Z</time>
      </trkpt>
      <trkpt lat="47.68141" lon="6.04371">
        <ele>216.93</ele>
        <time>2018-01-24T08:45:43Z</time>
      </trkpt>
      <trkpt lat="47.68137" lon="6.04373">
        <ele>216.88</ele>
        <time>2018-01-24T08:45:44Z</time>
      </trkpt>
      <trkpt lat="47.68132" lon="6.04374">
        <ele>216.83</ele>
        <time>2018-01-24T08:45:45Z</time>
      </trkpt>
      <trkpt lat="47.68128" lon="6.04376">
        <ele>216.79</ele>
        <time>2018-01-24T08:45:46Z</time>
      </trkpt>
      <trkpt lat="47.68124" lon="6.04377">
        <ele>216.74</ele>
        <time>2018-01-24T08:45:47Z</time>
      </trkpt>
      <trkpt lat="47.68119" lon="6.04379">
        <ele>216.7</ele>
        <time>2018-01-24T08:45:48Z</time>
      </trkpt>
      <trkpt lat="47.68111" lon="6.04382">
        <ele>216.62</ele>
        <time>2018-01-24T08:45:50Z</time>
      </trkpt>
      <trkpt lat="47.68102" lon="6.04386">
        <ele>216.54</ele>
        <time>2018-01-24T08:45:52Z</time>
      </trkpt>
      <trkpt lat="47.68094" lon="6.0439">
        <ele>216.46</ele>
        <time>2018-01-24T08:45:54Z</time>
      </trkpt>
      <trkpt lat="47.68086" lon="6.04393">
        <ele>216.38</ele>
        <time>2018-01-24T08:45:56Z</time>
      </trkpt>
      <trkpt lat="47.68079" lon="6.04397">
        <ele>216.31</ele>
        <time>2018-01-24T08:45:58Z</time>
      </trkpt>
      <trkpt lat="47.68071" lon="6.04401">
        <ele>216.23</ele>
        <time>2018-01-24T08:46:00Z</time>
      </trkpt>
      <trkpt lat="47.68063" lon="6.04404">
        <ele>216.13</ele>
        <time>2018-01-24T08:46:02Z</time>
      </trkpt>
      <trkpt lat="47.68056" lon="6.04409">
        <ele>216.03</ele>
        <time>2018-01-24T08:46:04Z</time>
      </trkpt>
      <trkpt lat="47.68049" lon="6.04416">
        <ele>215.97</ele>
        <time>2018-01-24T08:46:06Z</time>
      </trkpt>
      <trkpt lat="47.68043" lon="6.04423">
        <ele>215.95</ele>
        <time>2018-01-24T08:46:08Z</time>
      </trkpt>
      <trkpt lat="47.68037" lon="6.04432">
        <ele>215.85</ele>
        <time>2018-01-24T08:46:10Z</time>
      </trkpt>
      <trkpt lat="47.68031" lon="6.04439">
        <ele>215.75</ele>
        <time>2018-01-24T08:46:12Z</time>
      </trkpt>
      <trkpt lat="47.68025" lon="6.04448">
        <ele>215.67</ele>
        <time>2018-01-24T08:46:14Z</time>
      </trkpt>
      <trkpt lat="47.68022" lon="6.04453">
        <ele>215.63</ele>
        <time>2018-01-24T08:46:15Z</time>
      </trkpt>
      <trkpt lat="47.6802" lon="6.04466">
        <ele>215.58</ele>
        <time>2018-01-24T08:46:17Z</time>
      </trkpt>
      <trkpt lat="47.68018" lon="6.04478">
        <ele>215.53</ele>
        <time>2018-01-24T08:46:19Z</time>
      </trkpt>
      <trkpt lat="47.68016" lon="6.04484">
        <ele>215.51</ele>
        <time>2018-01-24T08:46:20Z</time>
      </trkpt>
      <trkpt lat="47.68013" lon="6.04495">
        <ele>215.5</ele>
        <time>2018-01-24T08:46:22Z</time>
      </trkpt>
      <trkpt lat="47.68011" lon="6.04505">
        <ele>215.49</ele>
        <time>2018-01-24T08:46:24Z</time>
      </trkpt>
      <trkpt lat="47.68009" lon="6.04515">
        <ele>215.49</ele>
        <time>2018-01-24T08:46:26Z</time>
      </trkpt>
      <trkpt lat="47.68007" lon="6.04525">
        <ele>215.48</ele>
        <time>2018-01-24T08:46:28Z</time>
      </trkpt>
      <trkpt lat="47.68005" lon="6.04535">
        <ele>215.47</ele>
        <time>2018-01-24T08:46:30Z</time>
      </trkpt>
      <trkpt lat="47.68003" lon="6.04544">
        <ele>215.45</ele>
        <time>2018-01-24T08:46:32Z</time>
      </trkpt>
      <trkpt lat="47.68001" lon="6.04553">
        <ele>215.44</ele>
        <time>2018-01-24T08:46:34Z</time>
      </trkpt>
      <trkpt lat="47.67999" lon="6.04562">
        <ele>215.43</ele>
        <time>2018-01-24T08:46:36Z</time>
      </trkpt>
      <trkpt lat="47.67997" lon="6.04571">
        <ele>215.42</ele>
        <time>2018-01-24T08:46:38Z</time>
      </trkpt>
      <trkpt lat="47.67995" lon="6.0458">
        <ele>215.41</ele>
        <time>2018-01-24T08:46:40Z</time>
      </trkpt>
      <trkpt lat="47.67993" lon="6.04589">
        <ele>215.4</ele>
        <time>2018-01-24T08:46:42Z</time>
      </trkpt>
      <trkpt lat="47.67991" lon="6.04598">
        <ele>215.39</ele>
        <time>2018-01-24T08:46:44Z</time>
      </trkpt>
      <trkpt lat="47.67989" lon="6.04606">
        <ele>215.38</ele>
        <time>2018-01-24T08:46:46Z</time>
      </trkpt>
      <trkpt lat="47.67987" lon="6.04615">
        <ele>215.37</ele>
        <time>2018-01-24T08:46:48Z</time>
      </trkpt>
      <trkpt lat="47.67986" lon="6.04623">
        <ele>215.37</ele>
        <time>2018-01-24T08:46:50Z</time>
      </trkpt>
      <trkpt lat="47.67984" lon="6.04632">
        <ele>215.36</ele>
        <time>2018-01-24T08:46:52Z</time>
      </trkpt>
      <trkpt lat="47.67982" lon="6.04642">
        <ele>215.35</ele>
        <time>2018-01-24T08:46:54Z</time>
      </trkpt>
      <trkpt lat="47.6798" lon="6.0465">
        <ele>215.34</ele>
        <time>2018-01-24T08:46:56Z</time>
      </trkpt>
      <trkpt lat="47.67979" lon="6.04659">
        <ele>215.33</ele>
        <time>2018-01-24T08:46:58Z</time>
      </trkpt>
      <trkpt lat="47.67977" lon="6.04668">
        <ele>215.33</ele>
        <time>2018-01-24T08:47:00Z</time>
      </trkpt>
      <trkpt lat="47.67975" lon="6.04677">
        <ele>215.32</ele>
        <time>2018-01-24T08:47:02Z</time>
      </trkpt>
      <trkpt lat="47.67973" lon="6.04686">
        <ele>215.32</ele>
        <time>2018-01-24T08:47:04Z</time>
      </trkpt>
      <trkpt lat="47.67971" lon="6.04695">
        <ele>215.32</ele>
        <time>2018-01-24T08:47:06Z</time>
      </trkpt>
      <trkpt lat="47.67969" lon="6.04703">
        <ele>215.32</ele>
        <time>2018-01-24T08:47:08Z</time>
      </trkpt>
      <trkpt lat="47.67967" lon="6.04711">
        <ele>215.32</ele>
        <time>2018-01-24T08:47:10Z</time>
      </trkpt>
      <trkpt lat="47.67964" lon="6.0472">
        <ele>215.33</ele>
        <time>2018-01-24T08:47:12Z</time>
      </trkpt>
      <trkpt lat="47.67962" lon="6.04727">
        <ele>215.34</ele>
        <time>2018-01-24T08:47:14Z</time>
      </trkpt>
      <trkpt lat="47.67958" lon="6.04734">
        <ele>215.35</ele>
        <time>2018-01-24T08:47:16Z</time>
      </trkpt>
      <trkpt lat="47.67956" lon="6.04741">
        <ele>215.37</ele>
        <time>2018-01-24T08:47:18Z</time>
      </trkpt>
      <trkpt lat="47.67953" lon="6.04747">
        <ele>215.39</ele>
        <time>2018-01-24T08:47:20Z</time>
      </trkpt>
      <trkpt lat="47.6795" lon="6.04755">
        <ele>215.43</ele>
        <time>2018-01-24T08:47:23Z</time>
      </trkpt>
      <trkpt lat="47.67947" lon="6.04762">
        <ele>215.45</ele>
        <time>2018-01-24T08:47:25Z</time>
      </trkpt>
      <trkpt lat="47.67944" lon="6.04767">
        <ele>215.49</ele>
        <time>2018-01-24T08:47:27Z</time>
      </trkpt>
      <trkpt lat="47.67941" lon="6.04773">
        <ele>215.52</ele>
        <time>2018-01-24T08:47:29Z</time>
      </trkpt>
      <trkpt lat="47.67938" lon="6.04779">
        <ele>215.57</ele>
        <time>2018-01-24T08:47:31Z</time>
      </trkpt>
      <trkpt lat="47.67935" lon="6.04788">
        <ele>215.63</ele>
        <time>2018-01-24T08:47:34Z</time>
      </trkpt>
      <trkpt lat="47.67933" lon="6.04796">
        <ele>215.71</ele>
        <time>2018-01-24T08:47:37Z</time>
      </trkpt>
      <trkpt lat="47.6793" lon="6.04804">
        <ele>215.79</ele>
        <time>2018-01-24T08:47:40Z</time>
      </trkpt>
      <trkpt lat="47.67928" lon="6.0481">
        <ele>215.87</ele>
        <time>2018-01-24T08:47:43Z</time>
      </trkpt>
      <trkpt lat="47.67925" lon="6.04819">
        <ele>215.97</ele>
        <time>2018-01-24T08:47:46Z</time>
      </trkpt>
      <trkpt lat="47.67923" lon="6.04825">
        <ele>216.03</ele>
        <time>2018-01-24T08:47:48Z</time>
      </trkpt>
      <trkpt lat="47.67917" lon="6.04832">
        <ele>216.14</ele>
        <time>2018-01-24T08:47:51Z</time>
      </trkpt>
      <trkpt lat="47.67913" lon="6.04838">
        <ele>216.21</ele>
        <time>2018-01-24T08:47:53Z</time>
      </trkpt>
      <trkpt lat="47.67909" lon="6.04844">
        <ele>216.28</ele>
        <time>2018-01-24T08:47:55Z</time>
      </trkpt>
      <trkpt lat="47.67906" lon="6.04849">
        <ele>216.35</ele>
        <time>2018-01-24T08:47:57Z</time>
      </trkpt>
      <trkpt lat="47.67902" lon="6.04854">
        <ele>216.43</ele>
        <time>2018-01-24T08:47:59Z</time>
      </trkpt>
      <trkpt lat="47.67896" lon="6.04863">
        <ele>216.5</ele>
        <time>2018-01-24T08:48:01Z</time>
      </trkpt>
      <trkpt lat="47.67891" lon="6.04869">
        <ele>216.58</ele>
        <time>2018-01-24T08:48:03Z</time>
      </trkpt>
      <trkpt lat="47.67887" lon="6.04873">
        <ele>216.66</ele>
        <time>2018-01-24T08:48:05Z</time>
      </trkpt>
      <trkpt lat="47.67883" lon="6.04877">
        <ele>216.73</ele>
        <time>2018-01-24T08:48:07Z</time>
      </trkpt>
      <trkpt lat="47.67878" lon="6.0488">
        <ele>216.85</ele>
        <time>2018-01-24T08:48:10Z</time>
      </trkpt>
      <trkpt lat="47.67873" lon="6.04884">
        <ele>216.97</ele>
        <time>2018-01-24T08:48:13Z</time>
      </trkpt>
      <trkpt lat="47.67868" lon="6.04887">
        <ele>217.09</ele>
        <time>2018-01-24T08:48:16Z</time>
      </trkpt>
      <trkpt lat="47.67863" lon="6.0489">
        <ele>217.16</ele>
        <time>2018-01-24T08:48:18Z</time>
      </trkpt>
      <trkpt lat="47.67858" lon="6.04895">
        <ele>217.24</ele>
        <time>2018-01-24T08:48:20Z</time>
      </trkpt>
      <trkpt lat="47.67853" lon="6.04898">
        <ele>217.32</ele>
        <time>2018-01-24T08:48:22Z</time>
      </trkpt>
      <trkpt lat="47.67849" lon="6.049">
        <ele>217.4</ele>
        <time>2018-01-24T08:48:24Z</time>
      </trkpt>
      <trkpt lat="47.67842" lon="6.04902">
        <ele>217.51</ele>
        <time>2018-01-24T08:48:27Z</time>
      </trkpt>
      <trkpt lat="47.67836" lon="6.04905">
        <ele>217.59</ele>
        <time>2018-01-24T08:48:29Z</time>
      </trkpt>
      <trkpt lat="47.67831" lon="6.04908">
        <ele>217.67</ele>
        <time>2018-01-24T08:48:31Z</time>
      </trkpt>
      <trkpt lat="47.67826" lon="6.04909">
        <ele>217.75</ele>
        <time>2018-01-24T08:48:33Z</time>
      </trkpt>
      <trkpt lat="47.67819" lon="6.0491">
        <ele>217.87</ele>
        <time>2018-01-24T08:48:36Z</time>
      </trkpt>
      <trkpt lat="47.67815" lon="6.0491">
        <ele>217.95</ele>
        <time>2018-01-24T08:48:38Z</time>
      </trkpt>
      <trkpt lat="47.6781" lon="6.0491">
        <ele>218.03</ele>
        <time>2018-01-24T08:48:40Z</time>
      </trkpt>
      <trkpt lat="47.67806" lon="6.04911">
        <ele>218.1</ele>
        <time>2018-01-24T08:48:42Z</time>
      </trkpt>
      <trkpt lat="47.67801" lon="6.04912">
        <ele>218.18</ele>
        <time>2018-01-24T08:48:44Z</time>
      </trkpt>
      <trkpt lat="47.67796" lon="6.04913">
        <ele>218.25</ele>
        <time>2018-01-24T08:48:46Z</time>
      </trkpt>
      <trkpt lat="47.6779" lon="6.04916">
        <ele>218.33</ele>
        <time>2018-01-24T08:48:48Z</time>
      </trkpt>
      <trkpt lat="47.67785" lon="6.04918">
        <ele>218.41</ele>
        <time>2018-01-24T08:48:50Z</time>
      </trkpt>
      <trkpt lat="47.67779" lon="6.04919">
        <ele>218.52</ele>
        <time>2018-01-24T08:48:53Z</time>
      </trkpt>
      <trkpt lat="47.67773" lon="6.04918">
        <ele>218.63</ele>
        <time>2018-01-24T08:48:56Z</time>
      </trkpt>
      <trkpt lat="47.67768" lon="6.0492">
        <ele>218.7</ele>
        <time>2018-01-24T08:48:58Z</time>
      </trkpt>
      <trkpt lat="47.67762" lon="6.04922">
        <ele>218.81</ele>
        <time>2018-01-24T08:49:01Z</time>
      </trkpt>
      <trkpt lat="47.67757" lon="6.04924">
        <ele>218.88</ele>
        <time>2018-01-24T08:49:03Z</time>
      </trkpt>
      <trkpt lat="47.67752" lon="6.04925">
        <ele>218.94</ele>
        <time>2018-01-24T08:49:05Z</time>
      </trkpt>
      <trkpt lat="47.67746" lon="6.04925">
        <ele>219.01</ele>
        <time>2018-01-24T08:49:07Z</time>
      </trkpt>
      <trkpt lat="47.67741" lon="6.04925">
        <ele>219.08</ele>
        <time>2018-01-24T08:49:09Z</time>
      </trkpt>
      <trkpt lat="47.67735" lon="6.04926">
        <ele>219.14</ele>
        <time>2018-01-24T08:49:11Z</time>
      </trkpt>
      <trkpt lat="47.6773" lon="6.04926">
        <ele>219.25</ele>
        <time>2018-01-24T08:49:14Z</time>
      </trkpt>
      <trkpt lat="47.67724" lon="6.04926">
        <ele>219.35</ele>
        <time>2018-01-24T08:49:17Z</time>
      </trkpt>
      <trkpt lat="47.67719" lon="6.04928">
        <ele>219.42</ele>
        <time>2018-01-24T08:49:19Z</time>
      </trkpt>
      <trkpt lat="47.67714" lon="6.04929">
        <ele>219.48</ele>
        <time>2018-01-24T08:49:21Z</time>
      </trkpt>
      <trkpt lat="47.67709" lon="6.0493">
        <ele>219.55</ele>
        <time>2018-01-24T08:49:23Z</time>
      </trkpt>
      <trkpt lat="47.67704" lon="6.04931">
        <ele>219.61</ele>
        <time>2018-01-24T08:49:25Z</time>
      </trkpt>
      <trkpt lat="47.67698" lon="6.04933">
        <ele>219.71</ele>
        <time>2018-01-24T08:49:28Z</time>
      </trkpt>
      <trkpt lat="47.67693" lon="6.04935">
        <ele>219.78</ele>
        <time>2018-01-24T08:49:30Z</time>
      </trkpt>
      <trkpt lat="47.67688" lon="6.04937">
        <ele>219.86</ele>
        <time>2018-01-24T08:49:33Z</time>
      </trkpt>
      <trkpt lat="47.67683" lon="6.04939">
        <ele>219.85</ele>
        <time>2018-01-24T08:49:36Z</time>
      </trkpt>
      <trkpt lat="47.67677" lon="6.0494">
        <ele>219.82</ele>
        <time>2018-01-24T08:49:39Z</time>
      </trkpt>
      <trkpt lat="47.67671" lon="6.04941">
        <ele>219.8</ele>
        <time>2018-01-24T08:49:42Z</time>
      </trkpt>
      <trkpt lat="47.67666" lon="6.04944">
        <ele>219.82</ele>
        <time>2018-01-24T08:49:45Z</time>
      </trkpt>
      <trkpt lat="47.67662" lon="6.04948">
        <ele>219.86</ele>
        <time>2018-01-24T08:49:48Z</time>
      </trkpt>
      <trkpt lat="47.67656" lon="6.04954">
        <ele>219.92</ele>
        <time>2018-01-24T08:49:51Z</time>
      </trkpt>
      <trkpt lat="47.67652" lon="6.04959">
        <ele>219.98</ele>
        <time>2018-01-24T08:49:53Z</time>
      </trkpt>
      <trkpt lat="47.67648" lon="6.04962">
        <ele>220.06</ele>
        <time>2018-01-24T08:49:55Z</time>
      </trkpt>
      <trkpt lat="47.67643" lon="6.04965">
        <ele>220.15</ele>
        <time>2018-01-24T08:49:57Z</time>
      </trkpt>
      <trkpt lat="47.67638" lon="6.04968">
        <ele>220.25</ele>
        <time>2018-01-24T08:49:59Z</time>
      </trkpt>
      <trkpt lat="47.67634" lon="6.04971">
        <ele>220.36</ele>
        <time>2018-01-24T08:50:01Z</time>
      </trkpt>
      <trkpt lat="47.6763" lon="6.04974">
        <ele>220.47</ele>
        <time>2018-01-24T08:50:03Z</time>
      </trkpt>
      <trkpt lat="47.67624" lon="6.04978">
        <ele>220.65</ele>
        <time>2018-01-24T08:50:06Z</time>
      </trkpt>
      <trkpt lat="47.6762" lon="6.04982">
        <ele>220.77</ele>
        <time>2018-01-24T08:50:08Z</time>
      </trkpt>
      <trkpt lat="47.67614" lon="6.04988">
        <ele>220.9</ele>
        <time>2018-01-24T08:50:10Z</time>
      </trkpt>
      <trkpt lat="47.67609" lon="6.04993">
        <ele>221.03</ele>
        <time>2018-01-24T08:50:12Z</time>
      </trkpt>
      <trkpt lat="47.67605" lon="6.04996">
        <ele>221.16</ele>
        <time>2018-01-24T08:50:14Z</time>
      </trkpt>
      <trkpt lat="47.67601" lon="6.05">
        <ele>221.37</ele>
        <time>2018-01-24T08:50:17Z</time>
      </trkpt>
      <trkpt lat="47.67596" lon="6.05004">
        <ele>221.67</ele>
        <time>2018-01-24T08:50:21Z</time>
      </trkpt>
      <trkpt lat="47.67592" lon="6.05008">
        <ele>222.05</ele>
        <time>2018-01-24T08:50:25Z</time>
      </trkpt>
      <trkpt lat="47.67587" lon="6.0501">
        <ele>222.36</ele>
        <time>2018-01-24T08:50:28Z</time>
      </trkpt>
      <trkpt lat="47.67582" lon="6.05015">
        <ele>222.69</ele>
        <time>2018-01-24T08:50:31Z</time>
      </trkpt>
      <trkpt lat="47.67578" lon="6.05021">
        <ele>223.08</ele>
        <time>2018-01-24T08:50:34Z</time>
      </trkpt>
      <trkpt lat="47.67573" lon="6.05027">
        <ele>223.37</ele>
        <time>2018-01-24T08:50:36Z</time>
      </trkpt>
      <trkpt lat="47.67568" lon="6.05031">
        <ele>223.69</ele>
        <time>2018-01-24T08:50:38Z</time>
      </trkpt>
      <trkpt lat="47.67563" lon="6.05035">
        <ele>224.25</ele>
        <time>2018-01-24T08:50:41Z</time>
      </trkpt>
      <trkpt lat="47.67558" lon="6.05038">
        <ele>224.69</ele>
        <time>2018-01-24T08:50:43Z</time>
      </trkpt>
      <trkpt lat="47.67554" lon="6.05045">
        <ele>225.68</ele>
        <time>2018-01-24T08:50:47Z</time>
      </trkpt>
      <trkpt lat="47.6755" lon="6.05051">
        <ele>226.51</ele>
        <time>2018-01-24T08:50:50Z</time>
      </trkpt>
      <trkpt lat="47.67545" lon="6.05055">
        <ele>227.4</ele>
        <time>2018-01-24T08:50:53Z</time>
      </trkpt>
      <trkpt lat="47.6754" lon="6.05058">
        <ele>228.3</ele>
        <time>2018-01-24T08:50:56Z</time>
      </trkpt>
      <trkpt lat="47.67535" lon="6.05061">
        <ele>228.91</ele>
        <time>2018-01-24T08:50:58Z</time>
      </trkpt>
      <trkpt lat="47.6753" lon="6.05064">
        <ele>229.82</ele>
        <time>2018-01-24T08:51:01Z</time>
      </trkpt>
      <trkpt lat="47.67526" lon="6.05069">
        <ele>230.71</ele>
        <time>2018-01-24T08:51:04Z</time>
      </trkpt>
      <trkpt lat="47.67524" lon="6.05075">
        <ele>231.59</ele>
        <time>2018-01-24T08:51:07Z</time>
      </trkpt>
      <trkpt lat="47.67519" lon="6.05082">
        <ele>232.73</ele>
        <time>2018-01-24T08:51:11Z</time>
      </trkpt>
      <trkpt lat="47.67516" lon="6.05089">
        <ele>233.58</ele>
        <time>2018-01-24T08:51:14Z</time>
      </trkpt>
      <trkpt lat="47.67511" lon="6.05092">
        <ele>234.7</ele>
        <time>2018-01-24T08:51:18Z</time>
      </trkpt>
      <trkpt lat="47.67507" lon="6.05098">
        <ele>236.05</ele>
        <time>2018-01-24T08:51:23Z</time>
      </trkpt>
      <trkpt lat="47.67505" lon="6.05104">
        <ele>237.34</ele>
        <time>2018-01-24T08:51:28Z</time>
      </trkpt>
      <trkpt lat="47.67502" lon="6.05111">
        <ele>238.57</ele>
        <time>2018-01-24T08:51:34Z</time>
      </trkpt>
      <trkpt lat="47.67499" lon="6.05116">
        <ele>239.02</ele>
        <time>2018-01-24T08:51:36Z</time>
      </trkpt>
      <trkpt lat="47.67495" lon="6.05124">
        <ele>239.46</ele>
        <time>2018-01-24T08:51:38Z</time>
      </trkpt>
      <trkpt lat="47.67493" lon="6.05131">
        <ele>240.13</ele>
        <time>2018-01-24T08:51:41Z</time>
      </trkpt>
      <trkpt lat="47.6749" lon="6.05138">
        <ele>240.98</ele>
        <time>2018-01-24T08:51:45Z</time>
      </trkpt>
      <trkpt lat="47.67487" lon="6.05146">
        <ele>241.6</ele>
        <time>2018-01-24T08:51:48Z</time>
      </trkpt>
      <trkpt lat="47.67484" lon="6.05153">
        <ele>242.22</ele>
        <time>2018-01-24T08:51:51Z</time>
      </trkpt>
      <trkpt lat="47.6748" lon="6.05158">
        <ele>242.83</ele>
        <time>2018-01-24T08:51:54Z</time>
      </trkpt>
      <trkpt lat="47.67477" lon="6.05163">
        <ele>243.43</ele>
        <time>2018-01-24T08:51:57Z</time>
      </trkpt>
      <trkpt lat="47.67473" lon="6.05171">
        <ele>244.21</ele>
        <time>2018-01-24T08:52:01Z</time>
      </trkpt>
      <trkpt lat="47.67469" lon="6.05177">
        <ele>244.94</ele>
        <time>2018-01-24T08:52:05Z</time>
      </trkpt>
      <trkpt lat="47.67465" lon="6.05181">
        <ele>245.29</ele>
        <time>2018-01-24T08:52:07Z</time>
      </trkpt>
      <trkpt lat="47.67461" lon="6.05186">
        <ele>245.63</ele>
        <time>2018-01-24T08:52:09Z</time>
      </trkpt>
      <trkpt lat="47.67457" lon="6.05192">
        <ele>246.12</ele>
        <time>2018-01-24T08:52:12Z</time>
      </trkpt>
      <trkpt lat="47.67452" lon="6.05197">
        <ele>246.61</ele>
        <time>2018-01-24T08:52:15Z</time>
      </trkpt>
      <trkpt lat="47.67448" lon="6.05201">
        <ele>246.93</ele>
        <time>2018-01-24T08:52:17Z</time>
      </trkpt>
      <trkpt lat="47.67443" lon="6.05206">
        <ele>247.24</ele>
        <time>2018-01-24T08:52:19Z</time>
      </trkpt>
      <trkpt lat="47.67439" lon="6.0521">
        <ele>247.56</ele>
        <time>2018-01-24T08:52:21Z</time>
      </trkpt>
      <trkpt lat="47.67433" lon="6.05216">
        <ele>248.03</ele>
        <time>2018-01-24T08:52:24Z</time>
      </trkpt>
      <trkpt lat="47.67428" lon="6.0522">
        <ele>248.51</ele>
        <time>2018-01-24T08:52:27Z</time>
      </trkpt>
      <trkpt lat="47.67424" lon="6.05225">
        <ele>248.99</ele>
        <time>2018-01-24T08:52:30Z</time>
      </trkpt>
      <trkpt lat="47.67419" lon="6.0523">
        <ele>249.47</ele>
        <time>2018-01-24T08:52:33Z</time>
      </trkpt>
      <trkpt lat="47.67414" lon="6.05235">
        <ele>249.94</ele>
        <time>2018-01-24T08:52:36Z</time>
      </trkpt>
      <trkpt lat="47.67409" lon="6.05239">
        <ele>250.4</ele>
        <time>2018-01-24T08:52:39Z</time>
      </trkpt>
      <trkpt lat="47.67405" lon="6.05242">
        <ele>250.71</ele>
        <time>2018-01-24T08:52:41Z</time>
      </trkpt>
      <trkpt lat="47.67399" lon="6.05245">
        <ele>251</ele>
        <time>2018-01-24T08:52:43Z</time>
      </trkpt>
      <trkpt lat="47.67394" lon="6.05248">
        <ele>251.3</ele>
        <time>2018-01-24T08:52:45Z</time>
      </trkpt>
      <trkpt lat="47.67388" lon="6.0525">
        <ele>251.6</ele>
        <time>2018-01-24T08:52:47Z</time>
      </trkpt>
      <trkpt lat="47.67383" lon="6.05252">
        <ele>251.88</ele>
        <time>2018-01-24T08:52:49Z</time>
      </trkpt>
      <trkpt lat="47.67376" lon="6.05255">
        <ele>252.16</ele>
        <time>2018-01-24T08:52:51Z</time>
      </trkpt>
      <trkpt lat="47.67372" lon="6.05259">
        <ele>252.3</ele>
        <time>2018-01-24T08:52:52Z</time>
      </trkpt>
      <trkpt lat="47.67364" lon="6.05265">
        <ele>253.39</ele>
        <time>2018-01-24T08:52:54Z</time>
      </trkpt>
      <trkpt lat="47.67359" lon="6.05268">
        <ele>253.75</ele>
        <time>2018-01-24T08:52:55Z</time>
      </trkpt>
      <trkpt lat="47.67355" lon="6.05271">
        <ele>253.93</ele>
        <time>2018-01-24T08:52:56Z</time>
      </trkpt>
      <trkpt lat="47.6735" lon="6.05274">
        <ele>254.68</ele>
        <time>2018-01-24T08:52:57Z</time>
      </trkpt>
      <trkpt lat="47.67344" lon="6.05277">
        <ele>255.47</ele>
        <time>2018-01-24T08:52:58Z</time>
      </trkpt>
      <trkpt lat="47.67338" lon="6.0528">
        <ele>256.15</ele>
        <time>2018-01-24T08:52:59Z</time>
      </trkpt>
      <trkpt lat="47.67332" lon="6.05285">
        <ele>256.72</ele>
        <time>2018-01-24T08:53:00Z</time>
      </trkpt>
      <trkpt lat="47.67325" lon="6.05288">
        <ele>257.18</ele>
        <time>2018-01-24T08:53:01Z</time>
      </trkpt>
      <trkpt lat="47.67319" lon="6.05291">
        <ele>257.57</ele>
        <time>2018-01-24T08:53:02Z</time>
      </trkpt>
      <trkpt lat="47.67313" lon="6.05294">
        <ele>257.89</ele>
        <time>2018-01-24T08:53:03Z</time>
      </trkpt>
      <trkpt lat="47.67306" lon="6.05297">
        <ele>258.17</ele>
        <time>2018-01-24T08:53:04Z</time>
      </trkpt>
      <trkpt lat="47.673" lon="6.053">
        <ele>258.41</ele>
        <time>2018-01-24T08:53:05Z</time>
      </trkpt>
      <trkpt lat="47.67294" lon="6.05302">
        <ele>258.62</ele>
        <time>2018-01-24T08:53:06Z</time>
      </trkpt>
      <trkpt lat="47.67289" lon="6.05305">
        <ele>258.8</ele>
        <time>2018-01-24T08:53:07Z</time>
      </trkpt>
      <trkpt lat="47.67284" lon="6.05307">
        <ele>258.96</ele>
        <time>2018-01-24T08:53:08Z</time>
      </trkpt>
      <trkpt lat="47.67279" lon="6.05309">
        <ele>259.1</ele>
        <time>2018-01-24T08:53:09Z</time>
      </trkpt>
      <trkpt lat="47.67271" lon="6.05311">
        <ele>259.31</ele>
        <time>2018-01-24T08:53:11Z</time>
      </trkpt>
      <trkpt lat="47.67265" lon="6.05311">
        <ele>259.36</ele>
        <time>2018-01-24T08:53:13Z</time>
      </trkpt>
      <trkpt lat="47.67258" lon="6.05309">
        <ele>259.39</ele>
        <time>2018-01-24T08:53:15Z</time>
      </trkpt>
      <trkpt lat="47.67251" lon="6.05306">
        <ele>259.42</ele>
        <time>2018-01-24T08:53:17Z</time>
      </trkpt>
      <trkpt lat="47.67243" lon="6.05304">
        <ele>259.46</ele>
        <time>2018-01-24T08:53:19Z</time>
      </trkpt>
      <trkpt lat="47.67236" lon="6.05302">
        <ele>259.5</ele>
        <time>2018-01-24T08:53:21Z</time>
      </trkpt>
      <trkpt lat="47.67231" lon="6.05301">
        <ele>259.54</ele>
        <time>2018-01-24T08:53:23Z</time>
      </trkpt>
      <trkpt lat="47.67224" lon="6.05302">
        <ele>259.59</ele>
        <time>2018-01-24T08:53:25Z</time>
      </trkpt>
      <trkpt lat="47.67217" lon="6.05302">
        <ele>259.64</ele>
        <time>2018-01-24T08:53:27Z</time>
      </trkpt>
      <trkpt lat="47.67212" lon="6.05302">
        <ele>259.69</ele>
        <time>2018-01-24T08:53:29Z</time>
      </trkpt>
      <trkpt lat="47.67205" lon="6.05302">
        <ele>259.76</ele>
        <time>2018-01-24T08:53:32Z</time>
      </trkpt>
      <trkpt lat="47.67201" lon="6.05303">
        <ele>259.81</ele>
        <time>2018-01-24T08:53:34Z</time>
      </trkpt>
      <trkpt lat="47.67194" lon="6.05305">
        <ele>259.88</ele>
        <time>2018-01-24T08:53:37Z</time>
      </trkpt>
      <trkpt lat="47.67184" lon="6.05316">
        <ele>259.93</ele>
        <time>2018-01-24T08:53:39Z</time>
      </trkpt>
      <trkpt lat="47.6718" lon="6.0532">
        <ele>259.96</ele>
        <time>2018-01-24T08:53:40Z</time>
      </trkpt>
      <trkpt lat="47.67173" lon="6.05325">
        <ele>260.02</ele>
        <time>2018-01-24T08:53:42Z</time>
      </trkpt>
      <trkpt lat="47.67167" lon="6.05328">
        <ele>260.08</ele>
        <time>2018-01-24T08:53:44Z</time>
      </trkpt>
      <trkpt lat="47.6716" lon="6.05335">
        <ele>260.15</ele>
        <time>2018-01-24T08:53:46Z</time>
      </trkpt>
      <trkpt lat="47.67154" lon="6.05339">
        <ele>260.22</ele>
        <time>2018-01-24T08:53:48Z</time>
      </trkpt>
      <trkpt lat="47.67149" lon="6.05342">
        <ele>260.3</ele>
        <time>2018-01-24T08:53:50Z</time>
      </trkpt>
      <trkpt lat="47.67145" lon="6.05345">
        <ele>260.38</ele>
        <time>2018-01-24T08:53:52Z</time>
      </trkpt>
      <trkpt lat="47.67141" lon="6.05349">
        <ele>260.52</ele>
        <time>2018-01-24T08:53:55Z</time>
      </trkpt>
      <trkpt lat="47.67135" lon="6.05352">
        <ele>260.61</ele>
        <time>2018-01-24T08:53:57Z</time>
      </trkpt>
      <trkpt lat="47.67128" lon="6.05356">
        <ele>260.7</ele>
        <time>2018-01-24T08:53:59Z</time>
      </trkpt>
      <trkpt lat="47.67121" lon="6.0536">
        <ele>260.8</ele>
        <time>2018-01-24T08:54:01Z</time>
      </trkpt>
      <trkpt lat="47.67115" lon="6.05363">
        <ele>260.9</ele>
        <time>2018-01-24T08:54:03Z</time>
      </trkpt>
      <trkpt lat="47.67109" lon="6.05367">
        <ele>261</ele>
        <time>2018-01-24T08:54:05Z</time>
      </trkpt>
      <trkpt lat="47.67103" lon="6.05369">
        <ele>261.11</ele>
        <time>2018-01-24T08:54:07Z</time>
      </trkpt>
      <trkpt lat="47.67098" lon="6.05372">
        <ele>261.21</ele>
        <time>2018-01-24T08:54:09Z</time>
      </trkpt>
      <trkpt lat="47.67093" lon="6.05377">
        <ele>261.31</ele>
        <time>2018-01-24T08:54:11Z</time>
      </trkpt>
      <trkpt lat="47.67087" lon="6.05381">
        <ele>261.41</ele>
        <time>2018-01-24T08:54:13Z</time>
      </trkpt>
      <trkpt lat="47.67081" lon="6.05382">
        <ele>261.51</ele>
        <time>2018-01-24T08:54:15Z</time>
      </trkpt>
      <trkpt lat="47.67072" lon="6.05386">
        <ele>262.33</ele>
        <time>2018-01-24T08:54:17Z</time>
      </trkpt>
      <trkpt lat="47.67067" lon="6.05388">
        <ele>262.71</ele>
        <time>2018-01-24T08:54:18Z</time>
      </trkpt>
      <trkpt lat="47.67062" lon="6.0539">
        <ele>263.03</ele>
        <time>2018-01-24T08:54:19Z</time>
      </trkpt>
      <trkpt lat="47.67052" lon="6.05393">
        <ele>263.52</ele>
        <time>2018-01-24T08:54:21Z</time>
      </trkpt>
      <trkpt lat="47.67047" lon="6.05396">
        <ele>263.7</ele>
        <time>2018-01-24T08:54:22Z</time>
      </trkpt>
      <trkpt lat="47.67041" lon="6.05399">
        <ele>263.84</ele>
        <time>2018-01-24T08:54:23Z</time>
      </trkpt>
      <trkpt lat="47.67036" lon="6.05401">
        <ele>263.95</ele>
        <time>2018-01-24T08:54:24Z</time>
      </trkpt>
      <trkpt lat="47.6703" lon="6.05404">
        <ele>264.04</ele>
        <time>2018-01-24T08:54:25Z</time>
      </trkpt>
      <trkpt lat="47.67022" lon="6.05409">
        <ele>264.11</ele>
        <time>2018-01-24T08:54:26Z</time>
      </trkpt>
      <trkpt lat="47.67016" lon="6.0541">
        <ele>264.17</ele>
        <time>2018-01-24T08:54:27Z</time>
      </trkpt>
      <trkpt lat="47.67009" lon="6.05413">
        <ele>264.22</ele>
        <time>2018-01-24T08:54:28Z</time>
      </trkpt>
      <trkpt lat="47.67003" lon="6.05416">
        <ele>264.26</ele>
        <time>2018-01-24T08:54:29Z</time>
      </trkpt>
      <trkpt lat="47.66997" lon="6.0542">
        <ele>264.31</ele>
        <time>2018-01-24T08:54:30Z</time>
      </trkpt>
      <trkpt lat="47.66991" lon="6.05424">
        <ele>264.36</ele>
        <time>2018-01-24T08:54:31Z</time>
      </trkpt>
      <trkpt lat="47.66985" lon="6.05426">
        <ele>264.4</ele>
        <time>2018-01-24T08:54:32Z</time>
      </trkpt>
      <trkpt lat="47.66978" lon="6.05428">
        <ele>264.44</ele>
        <time>2018-01-24T08:54:33Z</time>
      </trkpt>
      <trkpt lat="47.66972" lon="6.05431">
        <ele>264.48</ele>
        <time>2018-01-24T08:54:34Z</time>
      </trkpt>
      <trkpt lat="47.66967" lon="6.05433">
        <ele>264.53</ele>
        <time>2018-01-24T08:54:35Z</time>
      </trkpt>
      <trkpt lat="47.66962" lon="6.05434">
        <ele>264.57</ele>
        <time>2018-01-24T08:54:36Z</time>
      </trkpt>
      <trkpt lat="47.66957" lon="6.05435">
        <ele>264.61</ele>
        <time>2018-01-24T08:54:37Z</time>
      </trkpt>
      <trkpt lat="47.66952" lon="6.05436">
        <ele>264.64</ele>
        <time>2018-01-24T08:54:38Z</time>
      </trkpt>
      <trkpt lat="47.66947" lon="6.05438">
        <ele>264.67</ele>
        <time>2018-01-24T08:54:39Z</time>
      </trkpt>
      <trkpt lat="47.66939" lon="6.05441">
        <ele>264.69</ele>
        <time>2018-01-24T08:54:41Z</time>
      </trkpt>
      <trkpt lat="47.66935" lon="6.05444">
        <ele>264.71</ele>
        <time>2018-01-24T08:54:42Z</time>
      </trkpt>
      <trkpt lat="47.6693" lon="6.05447">
        <ele>264.73</ele>
        <time>2018-01-24T08:54:43Z</time>
      </trkpt>
      <trkpt lat="47.66925" lon="6.0545">
        <ele>264.74</ele>
        <time>2018-01-24T08:54:44Z</time>
      </trkpt>
      <trkpt lat="47.6692" lon="6.05453">
        <ele>264.75</ele>
        <time>2018-01-24T08:54:45Z</time>
      </trkpt>
      <trkpt lat="47.66915" lon="6.05456">
        <ele>264.75</ele>
        <time>2018-01-24T08:54:46Z</time>
      </trkpt>
      <trkpt lat="47.6691" lon="6.05461">
        <ele>264.76</ele>
        <time>2018-01-24T08:54:47Z</time>
      </trkpt>
      <trkpt lat="47.66905" lon="6.05465">
        <ele>264.77</ele>
        <time>2018-01-24T08:54:48Z</time>
      </trkpt>
      <trkpt lat="47.66899" lon="6.0547">
        <ele>264.78</ele>
        <time>2018-01-24T08:54:49Z</time>
      </trkpt>
      <trkpt lat="47.66894" lon="6.05474">
        <ele>264.78</ele>
        <time>2018-01-24T08:54:50Z</time>
      </trkpt>
      <trkpt lat="47.66889" lon="6.05478">
        <ele>264.79</ele>
        <time>2018-01-24T08:54:51Z</time>
      </trkpt>
      <trkpt lat="47.66883" lon="6.05482">
        <ele>264.8</ele>
        <time>2018-01-24T08:54:52Z</time>
      </trkpt>
      <trkpt lat="47.66878" lon="6.05487">
        <ele>264.82</ele>
        <time>2018-01-24T08:54:53Z</time>
      </trkpt>
      <trkpt lat="47.66873" lon="6.05491">
        <ele>264.83</ele>
        <time>2018-01-24T08:54:54Z</time>
      </trkpt>
      <trkpt lat="47.66867" lon="6.05495">
        <ele>264.84</ele>
        <time>2018-01-24T08:54:55Z</time>
      </trkpt>
      <trkpt lat="47.66862" lon="6.05499">
        <ele>264.85</ele>
        <time>2018-01-24T08:54:56Z</time>
      </trkpt>
      <trkpt lat="47.66857" lon="6.05502">
        <ele>264.86</ele>
        <time>2018-01-24T08:54:57Z</time>
      </trkpt>
      <trkpt lat="47.66852" lon="6.05505">
        <ele>264.86</ele>
        <time>2018-01-24T08:54:58Z</time>
      </trkpt>
      <trkpt lat="47.66846" lon="6.05507">
        <ele>264.86</ele>
        <time>2018-01-24T08:54:59Z</time>
      </trkpt>
      <trkpt lat="47.66841" lon="6.05509">
        <ele>264.85</ele>
        <time>2018-01-24T08:55:00Z</time>
      </trkpt>
      <trkpt lat="47.66836" lon="6.05511">
        <ele>264.84</ele>
        <time>2018-01-24T08:55:01Z</time>
      </trkpt>
      <trkpt lat="47.6683" lon="6.05513">
        <ele>264.83</ele>
        <time>2018-01-24T08:55:02Z</time>
      </trkpt>
      <trkpt lat="47.66825" lon="6.05515">
        <ele>264.81</ele>
        <time>2018-01-24T08:55:03Z</time>
      </trkpt>
      <trkpt lat="47.6682" lon="6.05516">
        <ele>264.79</ele>
        <time>2018-01-24T08:55:04Z</time>
      </trkpt>
      <trkpt lat="47.66815" lon="6.05518">
        <ele>264.77</ele>
        <time>2018-01-24T08:55:05Z</time>
      </trkpt>
      <trkpt lat="47.6681" lon="6.05521">
        <ele>264.76</ele>
        <time>2018-01-24T08:55:06Z</time>
      </trkpt>
      <trkpt lat="47.66805" lon="6.05522">
        <ele>264.74</ele>
        <time>2018-01-24T08:55:07Z</time>
      </trkpt>
      <trkpt lat="47.668" lon="6.05523">
        <ele>264.71</ele>
        <time>2018-01-24T08:55:08Z</time>
      </trkpt>
      <trkpt lat="47.66795" lon="6.05526">
        <ele>264.69</ele>
        <time>2018-01-24T08:55:09Z</time>
      </trkpt>
      <trkpt lat="47.6679" lon="6.05528">
        <ele>264.66</ele>
        <time>2018-01-24T08:55:10Z</time>
      </trkpt>
      <trkpt lat="47.66786" lon="6.05529">
        <ele>264.64</ele>
        <time>2018-01-24T08:55:11Z</time>
      </trkpt>
      <trkpt lat="47.66778" lon="6.05531">
        <ele>264.58</ele>
        <time>2018-01-24T08:55:13Z</time>
      </trkpt>
      <trkpt lat="47.66769" lon="6.05531">
        <ele>264.55</ele>
        <time>2018-01-24T08:55:15Z</time>
      </trkpt>
      <trkpt lat="47.6676" lon="6.05532">
        <ele>264.53</ele>
        <time>2018-01-24T08:55:17Z</time>
      </trkpt>
      <trkpt lat="47.66756" lon="6.05533">
        <ele>264.53</ele>
        <time>2018-01-24T08:55:18Z</time>
      </trkpt>
      <trkpt lat="47.66747" lon="6.05535">
        <ele>264.57</ele>
        <time>2018-01-24T08:55:20Z</time>
      </trkpt>
      <trkpt lat="47.66743" lon="6.05538">
        <ele>264.59</ele>
        <time>2018-01-24T08:55:21Z</time>
      </trkpt>
      <trkpt lat="47.66734" lon="6.05543">
        <ele>264.62</ele>
        <time>2018-01-24T08:55:23Z</time>
      </trkpt>
      <trkpt lat="47.66727" lon="6.05545">
        <ele>264.67</ele>
        <time>2018-01-24T08:55:25Z</time>
      </trkpt>
      <trkpt lat="47.66722" lon="6.05547">
        <ele>264.69</ele>
        <time>2018-01-24T08:55:26Z</time>
      </trkpt>
      <trkpt lat="47.66716" lon="6.05549">
        <ele>264.7</ele>
        <time>2018-01-24T08:55:27Z</time>
      </trkpt>
      <trkpt lat="47.6671" lon="6.05551">
        <ele>264.72</ele>
        <time>2018-01-24T08:55:28Z</time>
      </trkpt>
      <trkpt lat="47.66704" lon="6.05552">
        <ele>264.74</ele>
        <time>2018-01-24T08:55:29Z</time>
      </trkpt>
      <trkpt lat="47.66698" lon="6.05554">
        <ele>264.76</ele>
        <time>2018-01-24T08:55:30Z</time>
      </trkpt>
      <trkpt lat="47.66694" lon="6.05554">
        <ele>264.78</ele>
        <time>2018-01-24T08:55:31Z</time>
      </trkpt>
      <trkpt lat="47.66688" lon="6.05556">
        <ele>264.8</ele>
        <time>2018-01-24T08:55:32Z</time>
      </trkpt>
      <trkpt lat="47.66683" lon="6.05557">
        <ele>264.83</ele>
        <time>2018-01-24T08:55:33Z</time>
      </trkpt>
      <trkpt lat="47.66678" lon="6.05557">
        <ele>264.87</ele>
        <time>2018-01-24T08:55:34Z</time>
      </trkpt>
      <trkpt lat="47.66673" lon="6.05558">
        <ele>264.91</ele>
        <time>2018-01-24T08:55:35Z</time>
      </trkpt>
      <trkpt lat="47.66668" lon="6.0556">
        <ele>264.95</ele>
        <time>2018-01-24T08:55:36Z</time>
      </trkpt>
      <trkpt lat="47.66663" lon="6.0556">
        <ele>264.98</ele>
        <time>2018-01-24T08:55:37Z</time>
      </trkpt>
      <trkpt lat="47.66658" lon="6.0556">
        <ele>265.01</ele>
        <time>2018-01-24T08:55:38Z</time>
      </trkpt>
      <trkpt lat="47.66653" lon="6.05561">
        <ele>265.03</ele>
        <time>2018-01-24T08:55:39Z</time>
      </trkpt>
      <trkpt lat="47.66648" lon="6.05562">
        <ele>265.05</ele>
        <time>2018-01-24T08:55:40Z</time>
      </trkpt>
      <trkpt lat="47.66644" lon="6.05563">
        <ele>265.06</ele>
        <time>2018-01-24T08:55:41Z</time>
      </trkpt>
      <trkpt lat="47.66636" lon="6.05564">
        <ele>265.06</ele>
        <time>2018-01-24T08:55:43Z</time>
      </trkpt>
      <trkpt lat="47.66627" lon="6.05565">
        <ele>265.06</ele>
        <time>2018-01-24T08:55:45Z</time>
      </trkpt>
      <trkpt lat="47.6662" lon="6.0557">
        <ele>265.06</ele>
        <time>2018-01-24T08:55:47Z</time>
      </trkpt>
      <trkpt lat="47.66613" lon="6.05574">
        <ele>265.06</ele>
        <time>2018-01-24T08:55:49Z</time>
      </trkpt>
      <trkpt lat="47.66607" lon="6.05577">
        <ele>265.06</ele>
        <time>2018-01-24T08:55:51Z</time>
      </trkpt>
      <trkpt lat="47.666" lon="6.05578">
        <ele>265.06</ele>
        <time>2018-01-24T08:55:53Z</time>
      </trkpt>
      <trkpt lat="47.66593" lon="6.0558">
        <ele>265.06</ele>
        <time>2018-01-24T08:55:55Z</time>
      </trkpt>
      <trkpt lat="47.66586" lon="6.05581">
        <ele>265.07</ele>
        <time>2018-01-24T08:55:57Z</time>
      </trkpt>
      <trkpt lat="47.66579" lon="6.05582">
        <ele>265.07</ele>
        <time>2018-01-24T08:55:59Z</time>
      </trkpt>
      <trkpt lat="47.66572" lon="6.05583">
        <ele>265.07</ele>
        <time>2018-01-24T08:56:01Z</time>
      </trkpt>
      <trkpt lat="47.66564" lon="6.05584">
        <ele>265.08</ele>
        <time>2018-01-24T08:56:03Z</time>
      </trkpt>
      <trkpt lat="47.66555" lon="6.05585">
        <ele>265.13</ele>
        <time>2018-01-24T08:56:05Z</time>
      </trkpt>
      <trkpt lat="47.6655" lon="6.05586">
        <ele>265.14</ele>
        <time>2018-01-24T08:56:06Z</time>
      </trkpt>
      <trkpt lat="47.66541" lon="6.05587">
        <ele>265.19</ele>
        <time>2018-01-24T08:56:08Z</time>
      </trkpt>
      <trkpt lat="47.66536" lon="6.05588">
        <ele>265.23</ele>
        <time>2018-01-24T08:56:09Z</time>
      </trkpt>
      <trkpt lat="47.6653" lon="6.05588">
        <ele>265.25</ele>
        <time>2018-01-24T08:56:10Z</time>
      </trkpt>
      <trkpt lat="47.66526" lon="6.05589">
        <ele>265.29</ele>
        <time>2018-01-24T08:56:11Z</time>
      </trkpt>
      <trkpt lat="47.6652" lon="6.0559">
        <ele>265.34</ele>
        <time>2018-01-24T08:56:12Z</time>
      </trkpt>
      <trkpt lat="47.66515" lon="6.05591">
        <ele>265.39</ele>
        <time>2018-01-24T08:56:13Z</time>
      </trkpt>
      <trkpt lat="47.6651" lon="6.05592">
        <ele>265.42</ele>
        <time>2018-01-24T08:56:14Z</time>
      </trkpt>
      <trkpt lat="47.66506" lon="6.05592">
        <ele>265.45</ele>
        <time>2018-01-24T08:56:15Z</time>
      </trkpt>
      <trkpt lat="47.66501" lon="6.05592">
        <ele>265.48</ele>
        <time>2018-01-24T08:56:16Z</time>
      </trkpt>
      <trkpt lat="47.66495" lon="6.05591">
        <ele>265.5</ele>
        <time>2018-01-24T08:56:17Z</time>
      </trkpt>
      <trkpt lat="47.6649" lon="6.05591">
        <ele>265.52</ele>
        <time>2018-01-24T08:56:18Z</time>
      </trkpt>
      <trkpt lat="47.66485" lon="6.05591">
        <ele>265.53</ele>
        <time>2018-01-24T08:56:19Z</time>
      </trkpt>
      <trkpt lat="47.66479" lon="6.05591">
        <ele>265.54</ele>
        <time>2018-01-24T08:56:20Z</time>
      </trkpt>
      <trkpt lat="47.66474" lon="6.05591">
        <ele>265.55</ele>
        <time>2018-01-24T08:56:21Z</time>
      </trkpt>
      <trkpt lat="47.66468" lon="6.05593">
        <ele>265.56</ele>
        <time>2018-01-24T08:56:22Z</time>
      </trkpt>
      <trkpt lat="47.66462" lon="6.05594">
        <ele>265.56</ele>
        <time>2018-01-24T08:56:23Z</time>
      </trkpt>
      <trkpt lat="47.66456" lon="6.05596">
        <ele>265.57</ele>
        <time>2018-01-24T08:56:24Z</time>
      </trkpt>
      <trkpt lat="47.6645" lon="6.05598">
        <ele>265.57</ele>
        <time>2018-01-24T08:56:25Z</time>
      </trkpt>
      <trkpt lat="47.66444" lon="6.05599">
        <ele>265.58</ele>
        <time>2018-01-24T08:56:26Z</time>
      </trkpt>
      <trkpt lat="47.66438" lon="6.056">
        <ele>265.58</ele>
        <time>2018-01-24T08:56:27Z</time>
      </trkpt>
      <trkpt lat="47.66432" lon="6.05601">
        <ele>265.58</ele>
        <time>2018-01-24T08:56:28Z</time>
      </trkpt>
      <trkpt lat="47.66426" lon="6.05601">
        <ele>265.58</ele>
        <time>2018-01-24T08:56:29Z</time>
      </trkpt>
      <trkpt lat="47.6642" lon="6.05602">
        <ele>265.58</ele>
        <time>2018-01-24T08:56:30Z</time>
      </trkpt>
      <trkpt lat="47.66414" lon="6.05603">
        <ele>265.58</ele>
        <time>2018-01-24T08:56:31Z</time>
      </trkpt>
      <trkpt lat="47.66409" lon="6.05603">
        <ele>265.57</ele>
        <time>2018-01-24T08:56:32Z</time>
      </trkpt>
      <trkpt lat="47.66403" lon="6.05603">
        <ele>265.56</ele>
        <time>2018-01-24T08:56:33Z</time>
      </trkpt>
      <trkpt lat="47.66398" lon="6.05602">
        <ele>265.56</ele>
        <time>2018-01-24T08:56:34Z</time>
      </trkpt>
      <trkpt lat="47.6639" lon="6.05607">
        <ele>265.55</ele>
        <time>2018-01-24T08:56:35Z</time>
      </trkpt>
      <trkpt lat="47.66382" lon="6.05612">
        <ele>265.54</ele>
        <time>2018-01-24T08:56:36Z</time>
      </trkpt>
      <trkpt lat="47.66376" lon="6.05615">
        <ele>265.54</ele>
        <time>2018-01-24T08:56:37Z</time>
      </trkpt>
      <trkpt lat="47.6637" lon="6.05622">
        <ele>265.54</ele>
        <time>2018-01-24T08:56:38Z</time>
      </trkpt>
      <trkpt lat="47.66364" lon="6.05624">
        <ele>265.54</ele>
        <time>2018-01-24T08:56:39Z</time>
      </trkpt>
      <trkpt lat="47.66358" lon="6.05625">
        <ele>265.54</ele>
        <time>2018-01-24T08:56:40Z</time>
      </trkpt>
      <trkpt lat="47.66352" lon="6.05625">
        <ele>265.53</ele>
        <time>2018-01-24T08:56:41Z</time>
      </trkpt>
      <trkpt lat="47.66346" lon="6.05624">
        <ele>265.52</ele>
        <time>2018-01-24T08:56:42Z</time>
      </trkpt>
      <trkpt lat="47.66341" lon="6.05624">
        <ele>265.51</ele>
        <time>2018-01-24T08:56:43Z</time>
      </trkpt>
      <trkpt lat="47.66335" lon="6.05624">
        <ele>265.48</ele>
        <time>2018-01-24T08:56:44Z</time>
      </trkpt>
      <trkpt lat="47.6633" lon="6.05625">
        <ele>265.46</ele>
        <time>2018-01-24T08:56:45Z</time>
      </trkpt>
      <trkpt lat="47.66321" lon="6.05629">
        <ele>265.4</ele>
        <time>2018-01-24T08:56:47Z</time>
      </trkpt>
      <trkpt lat="47.66316" lon="6.0563">
        <ele>265.39</ele>
        <time>2018-01-24T08:56:48Z</time>
      </trkpt>
      <trkpt lat="47.6631" lon="6.05632">
        <ele>265.38</ele>
        <time>2018-01-24T08:56:50Z</time>
      </trkpt>
      <trkpt lat="47.66304" lon="6.0563">
        <ele>265.37</ele>
        <time>2018-01-24T08:56:52Z</time>
      </trkpt>
      <trkpt lat="47.66297" lon="6.05628">
        <ele>265.36</ele>
        <time>2018-01-24T08:56:54Z</time>
      </trkpt>
      <trkpt lat="47.66288" lon="6.05628">
        <ele>265.35</ele>
        <time>2018-01-24T08:56:56Z</time>
      </trkpt>
      <trkpt lat="47.66283" lon="6.05628">
        <ele>265.34</ele>
        <time>2018-01-24T08:56:57Z</time>
      </trkpt>
      <trkpt lat="47.66277" lon="6.05628">
        <ele>265.26</ele>
        <time>2018-01-24T08:56:58Z</time>
      </trkpt>
      <trkpt lat="47.66272" lon="6.05629">
        <ele>265.18</ele>
        <time>2018-01-24T08:56:59Z</time>
      </trkpt>
      <trkpt lat="47.66266" lon="6.05629">
        <ele>265.15</ele>
        <time>2018-01-24T08:57:00Z</time>
      </trkpt>
      <trkpt lat="47.66261" lon="6.05628">
        <ele>265.13</ele>
        <time>2018-01-24T08:57:01Z</time>
      </trkpt>
      <trkpt lat="47.66256" lon="6.05627">
        <ele>265.12</ele>
        <time>2018-01-24T08:57:02Z</time>
      </trkpt>
      <trkpt lat="47.66251" lon="6.05626">
        <ele>265.11</ele>
        <time>2018-01-24T08:57:03Z</time>
      </trkpt>
      <trkpt lat="47.66242" lon="6.05626">
        <ele>265.09</ele>
        <time>2018-01-24T08:57:05Z</time>
      </trkpt>
      <trkpt lat="47.66233" lon="6.05626">
        <ele>265.06</ele>
        <time>2018-01-24T08:57:07Z</time>
      </trkpt>
      <trkpt lat="47.66228" lon="6.05625">
        <ele>265.04</ele>
        <time>2018-01-24T08:57:08Z</time>
      </trkpt>
      <trkpt lat="47.66219" lon="6.05623">
        <ele>265.01</ele>
        <time>2018-01-24T08:57:10Z</time>
      </trkpt>
      <trkpt lat="47.66214" lon="6.05621">
        <ele>264.99</ele>
        <time>2018-01-24T08:57:11Z</time>
      </trkpt>
      <trkpt lat="47.66206" lon="6.05619">
        <ele>264.95</ele>
        <time>2018-01-24T08:57:13Z</time>
      </trkpt>
      <trkpt lat="47.66202" lon="6.05617">
        <ele>264.93</ele>
        <time>2018-01-24T08:57:14Z</time>
      </trkpt>
      <trkpt lat="47.66195" lon="6.05616">
        <ele>264.88</ele>
        <time>2018-01-24T08:57:16Z</time>
      </trkpt>
      <trkpt lat="47.66187" lon="6.05615">
        <ele>264.84</ele>
        <time>2018-01-24T08:57:18Z</time>
      </trkpt>
      <trkpt lat="47.66179" lon="6.05615">
        <ele>264.8</ele>
        <time>2018-01-24T08:57:20Z</time>
      </trkpt>
      <trkpt lat="47.66171" lon="6.05614">
        <ele>264.75</ele>
        <time>2018-01-24T08:57:22Z</time>
      </trkpt>
      <trkpt lat="47.66164" lon="6.05615">
        <ele>264.71</ele>
        <time>2018-01-24T08:57:24Z</time>
      </trkpt>
      <trkpt lat="47.66157" lon="6.05615">
        <ele>264.66</ele>
        <time>2018-01-24T08:57:26Z</time>
      </trkpt>
      <trkpt lat="47.66149" lon="6.05616">
        <ele>264.62</ele>
        <time>2018-01-24T08:57:28Z</time>
      </trkpt>
      <trkpt lat="47.66141" lon="6.05616">
        <ele>264.57</ele>
        <time>2018-01-24T08:57:30Z</time>
      </trkpt>
      <trkpt lat="47.66136" lon="6.05615">
        <ele>264.55</ele>
        <time>2018-01-24T08:57:31Z</time>
      </trkpt>
      <trkpt lat="47.6613" lon="6.05614">
        <ele>264.38</ele>
        <time>2018-01-24T08:57:32Z</time>
      </trkpt>
      <trkpt lat="47.66125" lon="6.05613">
        <ele>264.19</ele>
        <time>2018-01-24T08:57:33Z</time>
      </trkpt>
      <trkpt lat="47.66116" lon="6.05612">
        <ele>263.85</ele>
        <time>2018-01-24T08:57:35Z</time>
      </trkpt>
      <trkpt lat="47.6611" lon="6.05613">
        <ele>263.71</ele>
        <time>2018-01-24T08:57:36Z</time>
      </trkpt>
      <trkpt lat="47.66104" lon="6.05613">
        <ele>263.6</ele>
        <time>2018-01-24T08:57:37Z</time>
      </trkpt>
      <trkpt lat="47.66098" lon="6.05615">
        <ele>263.5</ele>
        <time>2018-01-24T08:57:38Z</time>
      </trkpt>
      <trkpt lat="47.66092" lon="6.05616">
        <ele>263.4</ele>
        <time>2018-01-24T08:57:39Z</time>
      </trkpt>
      <trkpt lat="47.66086" lon="6.05617">
        <ele>263.37</ele>
        <time>2018-01-24T08:57:40Z</time>
      </trkpt>
      <trkpt lat="47.6608" lon="6.05617">
        <ele>263.35</ele>
        <time>2018-01-24T08:57:41Z</time>
      </trkpt>
      <trkpt lat="47.66073" lon="6.05616">
        <ele>263.34</ele>
        <time>2018-01-24T08:57:42Z</time>
      </trkpt>
      <trkpt lat="47.66066" lon="6.05616">
        <ele>263.32</ele>
        <time>2018-01-24T08:57:43Z</time>
      </trkpt>
      <trkpt lat="47.66061" lon="6.05615">
        <ele>263.31</ele>
        <time>2018-01-24T08:57:44Z</time>
      </trkpt>
      <trkpt lat="47.66055" lon="6.05617">
        <ele>263.3</ele>
        <time>2018-01-24T08:57:45Z</time>
      </trkpt>
      <trkpt lat="47.66051" lon="6.05621">
        <ele>263.29</ele>
        <time>2018-01-24T08:57:46Z</time>
      </trkpt>
      <trkpt lat="47.66047" lon="6.05624">
        <ele>263.27</ele>
        <time>2018-01-24T08:57:47Z</time>
      </trkpt>
      <trkpt lat="47.66037" lon="6.05626">
        <ele>263.18</ele>
        <time>2018-01-24T08:57:48Z</time>
      </trkpt>
      <trkpt lat="47.66028" lon="6.0563">
        <ele>263.07</ele>
        <time>2018-01-24T08:57:49Z</time>
      </trkpt>
      <trkpt lat="47.66021" lon="6.05634">
        <ele>262.98</ele>
        <time>2018-01-24T08:57:50Z</time>
      </trkpt>
      <trkpt lat="47.66014" lon="6.05641">
        <ele>262.91</ele>
        <time>2018-01-24T08:57:51Z</time>
      </trkpt>
      <trkpt lat="47.66005" lon="6.05647">
        <ele>262.84</ele>
        <time>2018-01-24T08:57:52Z</time>
      </trkpt>
      <trkpt lat="47.65999" lon="6.05653">
        <ele>262.78</ele>
        <time>2018-01-24T08:57:53Z</time>
      </trkpt>
      <trkpt lat="47.65993" lon="6.05658">
        <ele>262.72</ele>
        <time>2018-01-24T08:57:54Z</time>
      </trkpt>
      <trkpt lat="47.65987" lon="6.05662">
        <ele>262.67</ele>
        <time>2018-01-24T08:57:55Z</time>
      </trkpt>
      <trkpt lat="47.65981" lon="6.05666">
        <ele>262.63</ele>
        <time>2018-01-24T08:57:56Z</time>
      </trkpt>
      <trkpt lat="47.65975" lon="6.0567">
        <ele>262.58</ele>
        <time>2018-01-24T08:57:57Z</time>
      </trkpt>
      <trkpt lat="47.65968" lon="6.05674">
        <ele>262.55</ele>
        <time>2018-01-24T08:57:58Z</time>
      </trkpt>
      <trkpt lat="47.65962" lon="6.05675">
        <ele>262.51</ele>
        <time>2018-01-24T08:57:59Z</time>
      </trkpt>
      <trkpt lat="47.65956" lon="6.05675">
        <ele>262.47</ele>
        <time>2018-01-24T08:58:00Z</time>
      </trkpt>
      <trkpt lat="47.65951" lon="6.05674">
        <ele>262.42</ele>
        <time>2018-01-24T08:58:01Z</time>
      </trkpt>
      <trkpt lat="47.65945" lon="6.05675">
        <ele>262.37</ele>
        <time>2018-01-24T08:58:02Z</time>
      </trkpt>
      <trkpt lat="47.6594" lon="6.05675">
        <ele>262.29</ele>
        <time>2018-01-24T08:58:03Z</time>
      </trkpt>
      <trkpt lat="47.65935" lon="6.05676">
        <ele>262.17</ele>
        <time>2018-01-24T08:58:04Z</time>
      </trkpt>
      <trkpt lat="47.6593" lon="6.05675">
        <ele>262.06</ele>
        <time>2018-01-24T08:58:05Z</time>
      </trkpt>
      <trkpt lat="47.65924" lon="6.05675">
        <ele>261.99</ele>
        <time>2018-01-24T08:58:06Z</time>
      </trkpt>
      <trkpt lat="47.65918" lon="6.05675">
        <ele>261.91</ele>
        <time>2018-01-24T08:58:07Z</time>
      </trkpt>
      <trkpt lat="47.65912" lon="6.05675">
        <ele>261.81</ele>
        <time>2018-01-24T08:58:08Z</time>
      </trkpt>
      <trkpt lat="47.65906" lon="6.05675">
        <ele>261.64</ele>
        <time>2018-01-24T08:58:09Z</time>
      </trkpt>
      <trkpt lat="47.659" lon="6.05675">
        <ele>261.46</ele>
        <time>2018-01-24T08:58:10Z</time>
      </trkpt>
      <trkpt lat="47.65894" lon="6.05675">
        <ele>261.28</ele>
        <time>2018-01-24T08:58:11Z</time>
      </trkpt>
      <trkpt lat="47.65888" lon="6.05676">
        <ele>261.05</ele>
        <time>2018-01-24T08:58:12Z</time>
      </trkpt>
      <trkpt lat="47.65882" lon="6.05676">
        <ele>260.82</ele>
        <time>2018-01-24T08:58:13Z</time>
      </trkpt>
      <trkpt lat="47.65875" lon="6.05677">
        <ele>260.54</ele>
        <time>2018-01-24T08:58:14Z</time>
      </trkpt>
      <trkpt lat="47.65869" lon="6.05677">
        <ele>260.22</ele>
        <time>2018-01-24T08:58:15Z</time>
      </trkpt>
      <trkpt lat="47.65863" lon="6.05678">
        <ele>259.94</ele>
        <time>2018-01-24T08:58:16Z</time>
      </trkpt>
      <trkpt lat="47.65857" lon="6.05679">
        <ele>259.7</ele>
        <time>2018-01-24T08:58:17Z</time>
      </trkpt>
      <trkpt lat="47.65852" lon="6.05681">
        <ele>259.49</ele>
        <time>2018-01-24T08:58:18Z</time>
      </trkpt>
      <trkpt lat="47.65846" lon="6.05685">
        <ele>259.28</ele>
        <time>2018-01-24T08:58:19Z</time>
      </trkpt>
      <trkpt lat="47.65841" lon="6.0569">
        <ele>259.08</ele>
        <time>2018-01-24T08:58:20Z</time>
      </trkpt>
      <trkpt lat="47.65835" lon="6.05695">
        <ele>258.89</ele>
        <time>2018-01-24T08:58:21Z</time>
      </trkpt>
      <trkpt lat="47.6583" lon="6.057">
        <ele>258.67</ele>
        <time>2018-01-24T08:58:22Z</time>
      </trkpt>
      <trkpt lat="47.65825" lon="6.05704">
        <ele>258.42</ele>
        <time>2018-01-24T08:58:23Z</time>
      </trkpt>
      <trkpt lat="47.6582" lon="6.05707">
        <ele>258.18</ele>
        <time>2018-01-24T08:58:24Z</time>
      </trkpt>
      <trkpt lat="47.65816" lon="6.05711">
        <ele>257.96</ele>
        <time>2018-01-24T08:58:25Z</time>
      </trkpt>
      <trkpt lat="47.65811" lon="6.05714">
        <ele>257.79</ele>
        <time>2018-01-24T08:58:26Z</time>
      </trkpt>
      <trkpt lat="47.65804" lon="6.05719">
        <ele>257.57</ele>
        <time>2018-01-24T08:58:28Z</time>
      </trkpt>
      <trkpt lat="47.65797" lon="6.05724">
        <ele>257.42</ele>
        <time>2018-01-24T08:58:30Z</time>
      </trkpt>
      <trkpt lat="47.65792" lon="6.05727">
        <ele>257.34</ele>
        <time>2018-01-24T08:58:31Z</time>
      </trkpt>
      <trkpt lat="47.65787" lon="6.0573">
        <ele>257.27</ele>
        <time>2018-01-24T08:58:32Z</time>
      </trkpt>
      <trkpt lat="47.65782" lon="6.05734">
        <ele>257.23</ele>
        <time>2018-01-24T08:58:33Z</time>
      </trkpt>
      <trkpt lat="47.65777" lon="6.05738">
        <ele>257.22</ele>
        <time>2018-01-24T08:58:34Z</time>
      </trkpt>
      <trkpt lat="47.65772" lon="6.05741">
        <ele>257.24</ele>
        <time>2018-01-24T08:58:35Z</time>
      </trkpt>
      <trkpt lat="47.65767" lon="6.05745">
        <ele>257.28</ele>
        <time>2018-01-24T08:58:36Z</time>
      </trkpt>
      <trkpt lat="47.65763" lon="6.05749">
        <ele>257.41</ele>
        <time>2018-01-24T08:58:37Z</time>
      </trkpt>
      <trkpt lat="47.65759" lon="6.05754">
        <ele>257.56</ele>
        <time>2018-01-24T08:58:38Z</time>
      </trkpt>
      <trkpt lat="47.65754" lon="6.0576">
        <ele>257.79</ele>
        <time>2018-01-24T08:58:39Z</time>
      </trkpt>
      <trkpt lat="47.6575" lon="6.05765">
        <ele>257.94</ele>
        <time>2018-01-24T08:58:40Z</time>
      </trkpt>
      <trkpt lat="47.65746" lon="6.05769">
        <ele>258.03</ele>
        <time>2018-01-24T08:58:41Z</time>
      </trkpt>
      <trkpt lat="47.65743" lon="6.05774">
        <ele>258.04</ele>
        <time>2018-01-24T08:58:42Z</time>
      </trkpt>
      <trkpt lat="47.65738" lon="6.05777">
        <ele>257.91</ele>
        <time>2018-01-24T08:58:43Z</time>
      </trkpt>
      <trkpt lat="47.65732" lon="6.05779">
        <ele>257.75</ele>
        <time>2018-01-24T08:58:44Z</time>
      </trkpt>
      <trkpt lat="47.65726" lon="6.05779">
        <ele>257.67</ele>
        <time>2018-01-24T08:58:45Z</time>
      </trkpt>
      <trkpt lat="47.65719" lon="6.0578">
        <ele>257.58</ele>
        <time>2018-01-24T08:58:46Z</time>
      </trkpt>
      <trkpt lat="47.65713" lon="6.05779">
        <ele>257.46</ele>
        <time>2018-01-24T08:58:47Z</time>
      </trkpt>
      <trkpt lat="47.65705" lon="6.05779">
        <ele>256.64</ele>
        <time>2018-01-24T08:58:48Z</time>
      </trkpt>
      <trkpt lat="47.65699" lon="6.05779">
        <ele>255.46</ele>
        <time>2018-01-24T08:58:49Z</time>
      </trkpt>
      <trkpt lat="47.65694" lon="6.0578">
        <ele>253.96</ele>
        <time>2018-01-24T08:58:50Z</time>
      </trkpt>
      <trkpt lat="47.65689" lon="6.0578">
        <ele>252.49</ele>
        <time>2018-01-24T08:58:51Z</time>
      </trkpt>
      <trkpt lat="47.6568" lon="6.05779">
        <ele>250.07</ele>
        <time>2018-01-24T08:58:53Z</time>
      </trkpt>
      <trkpt lat="47.65671" lon="6.0578">
        <ele>248.12</ele>
        <time>2018-01-24T08:58:55Z</time>
      </trkpt>
      <trkpt lat="47.65663" lon="6.0578">
        <ele>246.55</ele>
        <time>2018-01-24T08:58:57Z</time>
      </trkpt>
      <trkpt lat="47.65655" lon="6.05781">
        <ele>245.48</ele>
        <time>2018-01-24T08:58:58Z</time>
      </trkpt>
      <trkpt lat="47.65647" lon="6.05783">
        <ele>244.73</ele>
        <time>2018-01-24T08:59:00Z</time>
      </trkpt>
      <trkpt lat="47.65641" lon="6.05791">
        <ele>244.22</ele>
        <time>2018-01-24T08:59:02Z</time>
      </trkpt>
      <trkpt lat="47.65636" lon="6.058">
        <ele>244.12</ele>
        <time>2018-01-24T08:59:04Z</time>
      </trkpt>
      <trkpt lat="47.65632" lon="6.05808">
        <ele>244.1</ele>
        <time>2018-01-24T08:59:06Z</time>
      </trkpt>
      <trkpt lat="47.65627" lon="6.05814">
        <ele>244.09</ele>
        <time>2018-01-24T08:59:08Z</time>
      </trkpt>
      <trkpt lat="47.65623" lon="6.05822">
        <ele>244.06</ele>
        <time>2018-01-24T08:59:10Z</time>
      </trkpt>
      <trkpt lat="47.65621" lon="6.05828">
        <ele>243.99</ele>
        <time>2018-01-24T08:59:12Z</time>
      </trkpt>
      <trkpt lat="47.65618" lon="6.05837">
        <ele>243.79</ele>
        <time>2018-01-24T08:59:15Z</time>
      </trkpt>
      <trkpt lat="47.65619" lon="6.05844">
        <ele>243.67</ele>
        <time>2018-01-24T08:59:17Z</time>
      </trkpt>
      <trkpt lat="47.6562" lon="6.0585">
        <ele>243.57</ele>
        <time>2018-01-24T08:59:19Z</time>
      </trkpt>
      <trkpt lat="47.65622" lon="6.05857">
        <ele>243.47</ele>
        <time>2018-01-24T08:59:21Z</time>
      </trkpt>
      <trkpt lat="47.65626" lon="6.05863">
        <ele>243.39</ele>
        <time>2018-01-24T08:59:23Z</time>
      </trkpt>
      <trkpt lat="47.65631" lon="6.05867">
        <ele>243.33</ele>
        <time>2018-01-24T08:59:25Z</time>
      </trkpt>
      <trkpt lat="47.65635" lon="6.05871">
        <ele>243.26</ele>
        <time>2018-01-24T08:59:27Z</time>
      </trkpt>
      <trkpt lat="47.65639" lon="6.05875">
        <ele>243.18</ele>
        <time>2018-01-24T08:59:29Z</time>
      </trkpt>
      <trkpt lat="47.65644" lon="6.05881">
        <ele>243.1</ele>
        <time>2018-01-24T08:59:31Z</time>
      </trkpt>
      <trkpt lat="47.65648" lon="6.05885">
        <ele>243.02</ele>
        <time>2018-01-24T08:59:33Z</time>
      </trkpt>
      <trkpt lat="47.65653" lon="6.05889">
        <ele>242.93</ele>
        <time>2018-01-24T08:59:35Z</time>
      </trkpt>
      <trkpt lat="47.65658" lon="6.05894">
        <ele>242.81</ele>
        <time>2018-01-24T08:59:37Z</time>
      </trkpt>
      <trkpt lat="47.65664" lon="6.05899">
        <ele>242.68</ele>
        <time>2018-01-24T08:59:39Z</time>
      </trkpt>
      <trkpt lat="47.65669" lon="6.05904">
        <ele>242.49</ele>
        <time>2018-01-24T08:59:41Z</time>
      </trkpt>
      <trkpt lat="47.65674" lon="6.05911">
        <ele>242.26</ele>
        <time>2018-01-24T08:59:43Z</time>
      </trkpt>
      <trkpt lat="47.6568" lon="6.05916">
        <ele>242</ele>
        <time>2018-01-24T08:59:45Z</time>
      </trkpt>
      <trkpt lat="47.65686" lon="6.05921">
        <ele>241.71</ele>
        <time>2018-01-24T08:59:47Z</time>
      </trkpt>
      <trkpt lat="47.65692" lon="6.05927">
        <ele>241.41</ele>
        <time>2018-01-24T08:59:49Z</time>
      </trkpt>
      <trkpt lat="47.65699" lon="6.05933">
        <ele>241.1</ele>
        <time>2018-01-24T08:59:51Z</time>
      </trkpt>
      <trkpt lat="47.65704" lon="6.05939">
        <ele>240.78</ele>
        <time>2018-01-24T08:59:53Z</time>
      </trkpt>
      <trkpt lat="47.65709" lon="6.05944">
        <ele>240.47</ele>
        <time>2018-01-24T08:59:55Z</time>
      </trkpt>
      <trkpt lat="47.65714" lon="6.05949">
        <ele>240.14</ele>
        <time>2018-01-24T08:59:57Z</time>
      </trkpt>
      <trkpt lat="47.65719" lon="6.05953">
        <ele>239.82</ele>
        <time>2018-01-24T08:59:59Z</time>
      </trkpt>
      <trkpt lat="47.65724" lon="6.05957">
        <ele>239.5</ele>
        <time>2018-01-24T09:00:01Z</time>
      </trkpt>
      <trkpt lat="47.65729" lon="6.05961">
        <ele>239.18</ele>
        <time>2018-01-24T09:00:03Z</time>
      </trkpt>
      <trkpt lat="47.65734" lon="6.05965">
        <ele>238.88</ele>
        <time>2018-01-24T09:00:05Z</time>
      </trkpt>
      <trkpt lat="47.65739" lon="6.05969">
        <ele>238.58</ele>
        <time>2018-01-24T09:00:07Z</time>
      </trkpt>
      <trkpt lat="47.65744" lon="6.05974">
        <ele>238.29</ele>
        <time>2018-01-24T09:00:09Z</time>
      </trkpt>
      <trkpt lat="47.6575" lon="6.05979">
        <ele>238</ele>
        <time>2018-01-24T09:00:11Z</time>
      </trkpt>
      <trkpt lat="47.65755" lon="6.05984">
        <ele>237.72</ele>
        <time>2018-01-24T09:00:13Z</time>
      </trkpt>
      <trkpt lat="47.65759" lon="6.05992">
        <ele>237.45</ele>
        <time>2018-01-24T09:00:15Z</time>
      </trkpt>
      <trkpt lat="47.65762" lon="6.05999">
        <ele>237.19</ele>
        <time>2018-01-24T09:00:17Z</time>
      </trkpt>
      <trkpt lat="47.65766" lon="6.06005">
        <ele>236.94</ele>
        <time>2018-01-24T09:00:19Z</time>
      </trkpt>
      <trkpt lat="47.6577" lon="6.06011">
        <ele>236.71</ele>
        <time>2018-01-24T09:00:21Z</time>
      </trkpt>
      <trkpt lat="47.65775" lon="6.06016">
        <ele>236.48</ele>
        <time>2018-01-24T09:00:23Z</time>
      </trkpt>
      <trkpt lat="47.6578" lon="6.06021">
        <ele>236.26</ele>
        <time>2018-01-24T09:00:25Z</time>
      </trkpt>
      <trkpt lat="47.65785" lon="6.06027">
        <ele>236.06</ele>
        <time>2018-01-24T09:00:27Z</time>
      </trkpt>
      <trkpt lat="47.65791" lon="6.06033">
        <ele>235.88</ele>
        <time>2018-01-24T09:00:29Z</time>
      </trkpt>
      <trkpt lat="47.65796" lon="6.06038">
        <ele>235.71</ele>
        <time>2018-01-24T09:00:31Z</time>
      </trkpt>
      <trkpt lat="47.65801" lon="6.06044">
        <ele>235.56</ele>
        <time>2018-01-24T09:00:33Z</time>
      </trkpt>
      <trkpt lat="47.65807" lon="6.06048">
        <ele>235.43</ele>
        <time>2018-01-24T09:00:35Z</time>
      </trkpt>
      <trkpt lat="47.65812" lon="6.06052">
        <ele>235.3</ele>
        <time>2018-01-24T09:00:37Z</time>
      </trkpt>
      <trkpt lat="47.65817" lon="6.06058">
        <ele>235.18</ele>
        <time>2018-01-24T09:00:39Z</time>
      </trkpt>
      <trkpt lat="47.65822" lon="6.06063">
        <ele>235.07</ele>
        <time>2018-01-24T09:00:41Z</time>
      </trkpt>
      <trkpt lat="47.65829" lon="6.06069">
        <ele>234.92</ele>
        <time>2018-01-24T09:00:44Z</time>
      </trkpt>
      <trkpt lat="47.65833" lon="6.06073">
        <ele>234.81</ele>
        <time>2018-01-24T09:00:46Z</time>
      </trkpt>
      <trkpt lat="47.65838" lon="6.06077">
        <ele>234.72</ele>
        <time>2018-01-24T09:00:48Z</time>
      </trkpt>
      <trkpt lat="47.65842" lon="6.06082">
        <ele>234.63</ele>
        <time>2018-01-24T09:00:50Z</time>
      </trkpt>
      <trkpt lat="47.65846" lon="6.06086">
        <ele>234.55</ele>
        <time>2018-01-24T09:00:52Z</time>
      </trkpt>
      <trkpt lat="47.6585" lon="6.0609">
        <ele>234.47</ele>
        <time>2018-01-24T09:00:54Z</time>
      </trkpt>
      <trkpt lat="47.65854" lon="6.06095">
        <ele>234.39</ele>
        <time>2018-01-24T09:00:56Z</time>
      </trkpt>
      <trkpt lat="47.65858" lon="6.06099">
        <ele>234.32</ele>
        <time>2018-01-24T09:00:58Z</time>
      </trkpt>
      <trkpt lat="47.65862" lon="6.06102">
        <ele>234.25</ele>
        <time>2018-01-24T09:01:00Z</time>
      </trkpt>
      <trkpt lat="47.65866" lon="6.06107">
        <ele>234.18</ele>
        <time>2018-01-24T09:01:02Z</time>
      </trkpt>
      <trkpt lat="47.65872" lon="6.06112">
        <ele>234.12</ele>
        <time>2018-01-24T09:01:04Z</time>
      </trkpt>
      <trkpt lat="47.65875" lon="6.06118">
        <ele>234.06</ele>
        <time>2018-01-24T09:01:06Z</time>
      </trkpt>
      <trkpt lat="47.6588" lon="6.06124">
        <ele>234</ele>
        <time>2018-01-24T09:01:08Z</time>
      </trkpt>
      <trkpt lat="47.65884" lon="6.0613">
        <ele>233.94</ele>
        <time>2018-01-24T09:01:10Z</time>
      </trkpt>
      <trkpt lat="47.65888" lon="6.06135">
        <ele>233.89</ele>
        <time>2018-01-24T09:01:12Z</time>
      </trkpt>
      <trkpt lat="47.65893" lon="6.06141">
        <ele>233.84</ele>
        <time>2018-01-24T09:01:14Z</time>
      </trkpt>
      <trkpt lat="47.65896" lon="6.06146">
        <ele>233.8</ele>
        <time>2018-01-24T09:01:16Z</time>
      </trkpt>
      <trkpt lat="47.659" lon="6.06153">
        <ele>233.75</ele>
        <time>2018-01-24T09:01:19Z</time>
      </trkpt>
      <trkpt lat="47.65902" lon="6.0616">
        <ele>233.69</ele>
        <time>2018-01-24T09:01:22Z</time>
      </trkpt>
      <trkpt lat="47.65907" lon="6.06173">
        <ele>233.6</ele>
        <time>2018-01-24T09:01:26Z</time>
      </trkpt>
      <trkpt lat="47.6591" lon="6.06181">
        <ele>233.54</ele>
        <time>2018-01-24T09:01:28Z</time>
      </trkpt>
      <trkpt lat="47.65913" lon="6.06188">
        <ele>233.48</ele>
        <time>2018-01-24T09:01:30Z</time>
      </trkpt>
      <trkpt lat="47.65916" lon="6.06195">
        <ele>233.43</ele>
        <time>2018-01-24T09:01:32Z</time>
      </trkpt>
      <trkpt lat="47.65918" lon="6.06202">
        <ele>233.38</ele>
        <time>2018-01-24T09:01:34Z</time>
      </trkpt>
      <trkpt lat="47.6592" lon="6.0621">
        <ele>233.34</ele>
        <time>2018-01-24T09:01:36Z</time>
      </trkpt>
      <trkpt lat="47.65923" lon="6.06217">
        <ele>233.3</ele>
        <time>2018-01-24T09:01:38Z</time>
      </trkpt>
      <trkpt lat="47.65927" lon="6.06227">
        <ele>233.26</ele>
        <time>2018-01-24T09:01:40Z</time>
      </trkpt>
      <trkpt lat="47.6593" lon="6.06237">
        <ele>233.13</ele>
        <time>2018-01-24T09:01:42Z</time>
      </trkpt>
      <trkpt lat="47.65932" lon="6.06244">
        <ele>233</ele>
        <time>2018-01-24T09:01:43Z</time>
      </trkpt>
      <trkpt lat="47.65934" lon="6.06251">
        <ele>232.88</ele>
        <time>2018-01-24T09:01:44Z</time>
      </trkpt>
      <trkpt lat="47.65935" lon="6.06258">
        <ele>232.77</ele>
        <time>2018-01-24T09:01:45Z</time>
      </trkpt>
      <trkpt lat="47.65936" lon="6.06266">
        <ele>232.67</ele>
        <time>2018-01-24T09:01:46Z</time>
      </trkpt>
      <trkpt lat="47.65936" lon="6.06275">
        <ele>232.58</ele>
        <time>2018-01-24T09:01:47Z</time>
      </trkpt>
      <trkpt lat="47.65936" lon="6.06285">
        <ele>232.48</ele>
        <time>2018-01-24T09:01:48Z</time>
      </trkpt>
      <trkpt lat="47.65935" lon="6.06295">
        <ele>232.39</ele>
        <time>2018-01-24T09:01:49Z</time>
      </trkpt>
      <trkpt lat="47.65933" lon="6.06306">
        <ele>232.32</ele>
        <time>2018-01-24T09:01:50Z</time>
      </trkpt>
      <trkpt lat="47.65932" lon="6.06316">
        <ele>232.25</ele>
        <time>2018-01-24T09:01:51Z</time>
      </trkpt>
      <trkpt lat="47.65931" lon="6.06325">
        <ele>232.18</ele>
        <time>2018-01-24T09:01:52Z</time>
      </trkpt>
      <trkpt lat="47.65929" lon="6.06334">
        <ele>232.11</ele>
        <time>2018-01-24T09:01:53Z</time>
      </trkpt>
      <trkpt lat="47.65928" lon="6.06342">
        <ele>232.04</ele>
        <time>2018-01-24T09:01:54Z</time>
      </trkpt>
      <trkpt lat="47.65927" lon="6.06351">
        <ele>231.98</ele>
        <time>2018-01-24T09:01:55Z</time>
      </trkpt>
      <trkpt lat="47.65926" lon="6.0636">
        <ele>231.94</ele>
        <time>2018-01-24T09:01:56Z</time>
      </trkpt>
      <trkpt lat="47.65925" lon="6.06368">
        <ele>231.9</ele>
        <time>2018-01-24T09:01:57Z</time>
      </trkpt>
      <trkpt lat="47.65925" lon="6.06376">
        <ele>231.86</ele>
        <time>2018-01-24T09:01:58Z</time>
      </trkpt>
      <trkpt lat="47.65925" lon="6.06384">
        <ele>231.85</ele>
        <time>2018-01-24T09:01:59Z</time>
      </trkpt>
      <trkpt lat="47.65926" lon="6.06393">
        <ele>231.83</ele>
        <time>2018-01-24T09:02:00Z</time>
      </trkpt>
      <trkpt lat="47.65928" lon="6.064">
        <ele>231.8</ele>
        <time>2018-01-24T09:02:01Z</time>
      </trkpt>
      <trkpt lat="47.6593" lon="6.06408">
        <ele>231.78</ele>
        <time>2018-01-24T09:02:02Z</time>
      </trkpt>
      <trkpt lat="47.65931" lon="6.06415">
        <ele>231.74</ele>
        <time>2018-01-24T09:02:03Z</time>
      </trkpt>
      <trkpt lat="47.65933" lon="6.06422">
        <ele>231.69</ele>
        <time>2018-01-24T09:02:04Z</time>
      </trkpt>
      <trkpt lat="47.65935" lon="6.06429">
        <ele>231.62</ele>
        <time>2018-01-24T09:02:05Z</time>
      </trkpt>
      <trkpt lat="47.65938" lon="6.06436">
        <ele>231.54</ele>
        <time>2018-01-24T09:02:06Z</time>
      </trkpt>
      <trkpt lat="47.65939" lon="6.06449">
        <ele>231.43</ele>
        <time>2018-01-24T09:02:08Z</time>
      </trkpt>
      <trkpt lat="47.65941" lon="6.06461">
        <ele>231.38</ele>
        <time>2018-01-24T09:02:10Z</time>
      </trkpt>
      <trkpt lat="47.65943" lon="6.06473">
        <ele>231.41</ele>
        <time>2018-01-24T09:02:12Z</time>
      </trkpt>
      <trkpt lat="47.65942" lon="6.06485">
        <ele>231.47</ele>
        <time>2018-01-24T09:02:14Z</time>
      </trkpt>
      <trkpt lat="47.65939" lon="6.06496">
        <ele>231.53</ele>
        <time>2018-01-24T09:02:16Z</time>
      </trkpt>
      <trkpt lat="47.65936" lon="6.06505">
        <ele>231.54</ele>
        <time>2018-01-24T09:02:18Z</time>
      </trkpt>
      <trkpt lat="47.65931" lon="6.06512">
        <ele>231.48</ele>
        <time>2018-01-24T09:02:20Z</time>
      </trkpt>
      <trkpt lat="47.65925" lon="6.06519">
        <ele>231.38</ele>
        <time>2018-01-24T09:02:22Z</time>
      </trkpt>
      <trkpt lat="47.65919" lon="6.06525">
        <ele>231.24</ele>
        <time>2018-01-24T09:02:24Z</time>
      </trkpt>
      <trkpt lat="47.65912" lon="6.06532">
        <ele>231.15</ele>
        <time>2018-01-24T09:02:26Z</time>
      </trkpt>
      <trkpt lat="47.65906" lon="6.06539">
        <ele>231.13</ele>
        <time>2018-01-24T09:02:28Z</time>
      </trkpt>
      <trkpt lat="47.659" lon="6.06545">
        <ele>231.12</ele>
        <time>2018-01-24T09:02:30Z</time>
      </trkpt>
      <trkpt lat="47.65894" lon="6.06552">
        <ele>231.12</ele>
        <time>2018-01-24T09:02:32Z</time>
      </trkpt>
      <trkpt lat="47.65888" lon="6.06558">
        <ele>231.1</ele>
        <time>2018-01-24T09:02:34Z</time>
      </trkpt>
      <trkpt lat="47.65883" lon="6.06565">
        <ele>231.08</ele>
        <time>2018-01-24T09:02:36Z</time>
      </trkpt>
      <trkpt lat="47.65878" lon="6.06572">
        <ele>231.05</ele>
        <time>2018-01-24T09:02:38Z</time>
      </trkpt>
      <trkpt lat="47.65872" lon="6.06578">
        <ele>231.02</ele>
        <time>2018-01-24T09:02:40Z</time>
      </trkpt>
      <trkpt lat="47.65867" lon="6.06583">
        <ele>230.98</ele>
        <time>2018-01-24T09:02:42Z</time>
      </trkpt>
      <trkpt lat="47.65862" lon="6.06589">
        <ele>230.94</ele>
        <time>2018-01-24T09:02:44Z</time>
      </trkpt>
      <trkpt lat="47.65857" lon="6.06595">
        <ele>230.89</ele>
        <time>2018-01-24T09:02:46Z</time>
      </trkpt>
      <trkpt lat="47.65852" lon="6.066">
        <ele>230.84</ele>
        <time>2018-01-24T09:02:48Z</time>
      </trkpt>
      <trkpt lat="47.65848" lon="6.06605">
        <ele>230.8</ele>
        <time>2018-01-24T09:02:50Z</time>
      </trkpt>
      <trkpt lat="47.65844" lon="6.06609">
        <ele>230.75</ele>
        <time>2018-01-24T09:02:52Z</time>
      </trkpt>
      <trkpt lat="47.6584" lon="6.06614">
        <ele>230.72</ele>
        <time>2018-01-24T09:02:54Z</time>
      </trkpt>
      <trkpt lat="47.65836" lon="6.06619">
        <ele>230.7</ele>
        <time>2018-01-24T09:02:56Z</time>
      </trkpt>
      <trkpt lat="47.65832" lon="6.06625">
        <ele>230.68</ele>
        <time>2018-01-24T09:02:58Z</time>
      </trkpt>
      <trkpt lat="47.65828" lon="6.06631">
        <ele>230.66</ele>
        <time>2018-01-24T09:03:00Z</time>
      </trkpt>
      <trkpt lat="47.65823" lon="6.06637">
        <ele>230.65</ele>
        <time>2018-01-24T09:03:02Z</time>
      </trkpt>
      <trkpt lat="47.65818" lon="6.06644">
        <ele>230.64</ele>
        <time>2018-01-24T09:03:04Z</time>
      </trkpt>
      <trkpt lat="47.65813" lon="6.06651">
        <ele>230.63</ele>
        <time>2018-01-24T09:03:06Z</time>
      </trkpt>
      <trkpt lat="47.65808" lon="6.06658">
        <ele>230.62</ele>
        <time>2018-01-24T09:03:08Z</time>
      </trkpt>
      <trkpt lat="47.65803" lon="6.06663">
        <ele>230.62</ele>
        <time>2018-01-24T09:03:10Z</time>
      </trkpt>
      <trkpt lat="47.65798" lon="6.0667">
        <ele>230.61</ele>
        <time>2018-01-24T09:03:12Z</time>
      </trkpt>
      <trkpt lat="47.65793" lon="6.06676">
        <ele>230.6</ele>
        <time>2018-01-24T09:03:14Z</time>
      </trkpt>
      <trkpt lat="47.65788" lon="6.06682">
        <ele>230.58</ele>
        <time>2018-01-24T09:03:16Z</time>
      </trkpt>
      <trkpt lat="47.65783" lon="6.06688">
        <ele>230.57</ele>
        <time>2018-01-24T09:03:18Z</time>
      </trkpt>
      <trkpt lat="47.65778" lon="6.06694">
        <ele>230.55</ele>
        <time>2018-01-24T09:03:20Z</time>
      </trkpt>
      <trkpt lat="47.65774" lon="6.067">
        <ele>230.54</ele>
        <time>2018-01-24T09:03:22Z</time>
      </trkpt>
      <trkpt lat="47.6577" lon="6.06706">
        <ele>230.53</ele>
        <time>2018-01-24T09:03:24Z</time>
      </trkpt>
      <trkpt lat="47.65766" lon="6.06712">
        <ele>230.53</ele>
        <time>2018-01-24T09:03:26Z</time>
      </trkpt>
      <trkpt lat="47.65762" lon="6.0672">
        <ele>230.53</ele>
        <time>2018-01-24T09:03:28Z</time>
      </trkpt>
      <trkpt lat="47.65761" lon="6.06729">
        <ele>230.53</ele>
        <time>2018-01-24T09:03:30Z</time>
      </trkpt>
      <trkpt lat="47.65762" lon="6.06738">
        <ele>230.54</ele>
        <time>2018-01-24T09:03:32Z</time>
      </trkpt>
      <trkpt lat="47.65763" lon="6.06747">
        <ele>230.56</ele>
        <time>2018-01-24T09:03:34Z</time>
      </trkpt>
      <trkpt lat="47.65764" lon="6.06756">
        <ele>230.57</ele>
        <time>2018-01-24T09:03:36Z</time>
      </trkpt>
      <trkpt lat="47.65765" lon="6.06764">
        <ele>230.6</ele>
        <time>2018-01-24T09:03:38Z</time>
      </trkpt>
      <trkpt lat="47.65766" lon="6.06771">
        <ele>230.63</ele>
        <time>2018-01-24T09:03:40Z</time>
      </trkpt>
      <trkpt lat="47.65768" lon="6.06778">
        <ele>230.67</ele>
        <time>2018-01-24T09:03:42Z</time>
      </trkpt>
      <trkpt lat="47.65769" lon="6.06785">
        <ele>230.71</ele>
        <time>2018-01-24T09:03:44Z</time>
      </trkpt>
      <trkpt lat="47.65771" lon="6.06794">
        <ele>230.79</ele>
        <time>2018-01-24T09:03:47Z</time>
      </trkpt>
      <trkpt lat="47.65773" lon="6.06803">
        <ele>230.87</ele>
        <time>2018-01-24T09:03:50Z</time>
      </trkpt>
      <trkpt lat="47.65774" lon="6.06813">
        <ele>230.96</ele>
        <time>2018-01-24T09:03:53Z</time>
      </trkpt>
      <trkpt lat="47.65775" lon="6.06822">
        <ele>231.06</ele>
        <time>2018-01-24T09:03:56Z</time>
      </trkpt>
      <trkpt lat="47.65776" lon="6.06831">
        <ele>231.16</ele>
        <time>2018-01-24T09:03:59Z</time>
      </trkpt>
      <trkpt lat="47.65778" lon="6.06841">
        <ele>231.28</ele>
        <time>2018-01-24T09:04:02Z</time>
      </trkpt>
      <trkpt lat="47.6578" lon="6.06847">
        <ele>231.35</ele>
        <time>2018-01-24T09:04:04Z</time>
      </trkpt>
      <trkpt lat="47.65781" lon="6.06854">
        <ele>231.44</ele>
        <time>2018-01-24T09:04:06Z</time>
      </trkpt>
      <trkpt lat="47.65782" lon="6.06863">
        <ele>231.56</ele>
        <time>2018-01-24T09:04:09Z</time>
      </trkpt>
      <trkpt lat="47.65783" lon="6.06871">
        <ele>231.69</ele>
        <time>2018-01-24T09:04:12Z</time>
      </trkpt>
      <trkpt lat="47.65784" lon="6.0688">
        <ele>231.83</ele>
        <time>2018-01-24T09:04:15Z</time>
      </trkpt>
      <trkpt lat="47.65786" lon="6.06888">
        <ele>231.97</ele>
        <time>2018-01-24T09:04:18Z</time>
      </trkpt>
      <trkpt lat="47.65788" lon="6.06895">
        <ele>232.11</ele>
        <time>2018-01-24T09:04:21Z</time>
      </trkpt>
      <trkpt lat="47.65788" lon="6.06903">
        <ele>232.29</ele>
        <time>2018-01-24T09:04:25Z</time>
      </trkpt>
      <trkpt lat="47.6579" lon="6.06911">
        <ele>232.49</ele>
        <time>2018-01-24T09:04:29Z</time>
      </trkpt>
      <trkpt lat="47.65791" lon="6.06918">
        <ele>232.68</ele>
        <time>2018-01-24T09:04:33Z</time>
      </trkpt>
      <trkpt lat="47.65792" lon="6.06924">
        <ele>232.88</ele>
        <time>2018-01-24T09:04:37Z</time>
      </trkpt>
      <trkpt lat="47.65793" lon="6.06931">
        <ele>233.07</ele>
        <time>2018-01-24T09:04:41Z</time>
      </trkpt>
      <trkpt lat="47.65794" lon="6.06938">
        <ele>233.26</ele>
        <time>2018-01-24T09:04:45Z</time>
      </trkpt>
      <trkpt lat="47.65795" lon="6.06946">
        <ele>233.45</ele>
        <time>2018-01-24T09:04:49Z</time>
      </trkpt>
      <trkpt lat="47.65796" lon="6.06953">
        <ele>233.68</ele>
        <time>2018-01-24T09:04:54Z</time>
      </trkpt>
      <trkpt lat="47.65797" lon="6.0696">
        <ele>233.87</ele>
        <time>2018-01-24T09:04:58Z</time>
      </trkpt>
      <trkpt lat="47.65799" lon="6.06967">
        <ele>234.05</ele>
        <time>2018-01-24T09:05:02Z</time>
      </trkpt>
      <trkpt lat="47.65801" lon="6.06973">
        <ele>234.19</ele>
        <time>2018-01-24T09:05:05Z</time>
      </trkpt>
      <trkpt lat="47.65802" lon="6.06982">
        <ele>234.32</ele>
        <time>2018-01-24T09:05:08Z</time>
      </trkpt>
      <trkpt lat="47.65804" lon="6.06992">
        <ele>234.46</ele>
        <time>2018-01-24T09:05:11Z</time>
      </trkpt>
      <trkpt lat="47.65805" lon="6.06999">
        <ele>234.56</ele>
        <time>2018-01-24T09:05:13Z</time>
      </trkpt>
      <trkpt lat="47.65806" lon="6.07007">
        <ele>234.65</ele>
        <time>2018-01-24T09:05:15Z</time>
      </trkpt>
      <trkpt lat="47.65808" lon="6.07016">
        <ele>234.74</ele>
        <time>2018-01-24T09:05:17Z</time>
      </trkpt>
      <trkpt lat="47.65809" lon="6.07026">
        <ele>234.83</ele>
        <time>2018-01-24T09:05:19Z</time>
      </trkpt>
      <trkpt lat="47.65811" lon="6.07035">
        <ele>234.93</ele>
        <time>2018-01-24T09:05:21Z</time>
      </trkpt>
      <trkpt lat="47.65812" lon="6.07044">
        <ele>235.02</ele>
        <time>2018-01-24T09:05:23Z</time>
      </trkpt>
      <trkpt lat="47.65813" lon="6.07055">
        <ele>235.12</ele>
        <time>2018-01-24T09:05:25Z</time>
      </trkpt>
      <trkpt lat="47.65815" lon="6.07064">
        <ele>235.21</ele>
        <time>2018-01-24T09:05:27Z</time>
      </trkpt>
      <trkpt lat="47.65816" lon="6.07073">
        <ele>235.31</ele>
        <time>2018-01-24T09:05:29Z</time>
      </trkpt>
      <trkpt lat="47.65818" lon="6.07082">
        <ele>235.41</ele>
        <time>2018-01-24T09:05:31Z</time>
      </trkpt>
      <trkpt lat="47.65819" lon="6.07092">
        <ele>235.5</ele>
        <time>2018-01-24T09:05:33Z</time>
      </trkpt>
      <trkpt lat="47.65821" lon="6.07102">
        <ele>235.6</ele>
        <time>2018-01-24T09:05:35Z</time>
      </trkpt>
      <trkpt lat="47.65822" lon="6.07111">
        <ele>235.7</ele>
        <time>2018-01-24T09:05:37Z</time>
      </trkpt>
      <trkpt lat="47.65823" lon="6.0712">
        <ele>235.8</ele>
        <time>2018-01-24T09:05:39Z</time>
      </trkpt>
      <trkpt lat="47.65825" lon="6.07128">
        <ele>235.9</ele>
        <time>2018-01-24T09:05:41Z</time>
      </trkpt>
      <trkpt lat="47.65826" lon="6.07135">
        <ele>236.01</ele>
        <time>2018-01-24T09:05:43Z</time>
      </trkpt>
      <trkpt lat="47.65829" lon="6.07144">
        <ele>236.16</ele>
        <time>2018-01-24T09:05:46Z</time>
      </trkpt>
      <trkpt lat="47.6583" lon="6.07152">
        <ele>236.32</ele>
        <time>2018-01-24T09:05:49Z</time>
      </trkpt>
      <trkpt lat="47.65832" lon="6.07162">
        <ele>236.47</ele>
        <time>2018-01-24T09:05:52Z</time>
      </trkpt>
      <trkpt lat="47.65834" lon="6.07171">
        <ele>236.62</ele>
        <time>2018-01-24T09:05:55Z</time>
      </trkpt>
      <trkpt lat="47.65836" lon="6.0718">
        <ele>236.76</ele>
        <time>2018-01-24T09:05:58Z</time>
      </trkpt>
      <trkpt lat="47.65838" lon="6.07189">
        <ele>236.91</ele>
        <time>2018-01-24T09:06:01Z</time>
      </trkpt>
      <trkpt lat="47.65839" lon="6.07199">
        <ele>237.06</ele>
        <time>2018-01-24T09:06:04Z</time>
      </trkpt>
      <trkpt lat="47.6584" lon="6.07208">
        <ele>237.21</ele>
        <time>2018-01-24T09:06:07Z</time>
      </trkpt>
      <trkpt lat="47.6584" lon="6.07216">
        <ele>237.36</ele>
        <time>2018-01-24T09:06:10Z</time>
      </trkpt>
      <trkpt lat="47.65842" lon="6.07224">
        <ele>237.51</ele>
        <time>2018-01-24T09:06:13Z</time>
      </trkpt>
      <trkpt lat="47.65844" lon="6.07232">
        <ele>237.66</ele>
        <time>2018-01-24T09:06:16Z</time>
      </trkpt>
      <trkpt lat="47.65845" lon="6.0724">
        <ele>237.82</ele>
        <time>2018-01-24T09:06:19Z</time>
      </trkpt>
      <trkpt lat="47.65845" lon="6.0725">
        <ele>237.97</ele>
        <time>2018-01-24T09:06:22Z</time>
      </trkpt>
      <trkpt lat="47.65847" lon="6.07258">
        <ele>238.13</ele>
        <time>2018-01-24T09:06:25Z</time>
      </trkpt>
      <trkpt lat="47.65848" lon="6.07267">
        <ele>238.29</ele>
        <time>2018-01-24T09:06:28Z</time>
      </trkpt>
      <trkpt lat="47.6585" lon="6.07274">
        <ele>238.39</ele>
        <time>2018-01-24T09:06:30Z</time>
      </trkpt>
      <trkpt lat="47.65851" lon="6.07282">
        <ele>238.55</ele>
        <time>2018-01-24T09:06:33Z</time>
      </trkpt>
      <trkpt lat="47.65853" lon="6.07291">
        <ele>238.71</ele>
        <time>2018-01-24T09:06:36Z</time>
      </trkpt>
      <trkpt lat="47.65855" lon="6.07299">
        <ele>238.87</ele>
        <time>2018-01-24T09:06:39Z</time>
      </trkpt>
      <trkpt lat="47.65856" lon="6.07306">
        <ele>239.02</ele>
        <time>2018-01-24T09:06:42Z</time>
      </trkpt>
      <trkpt lat="47.65858" lon="6.07313">
        <ele>239.17</ele>
        <time>2018-01-24T09:06:45Z</time>
      </trkpt>
      <trkpt lat="47.65858" lon="6.0732">
        <ele>239.26</ele>
        <time>2018-01-24T09:06:47Z</time>
      </trkpt>
      <trkpt lat="47.65859" lon="6.07329">
        <ele>239.42</ele>
        <time>2018-01-24T09:06:50Z</time>
      </trkpt>
      <trkpt lat="47.65859" lon="6.07336">
        <ele>239.52</ele>
        <time>2018-01-24T09:06:52Z</time>
      </trkpt>
      <trkpt lat="47.6586" lon="6.07343">
        <ele>239.63</ele>
        <time>2018-01-24T09:06:54Z</time>
      </trkpt>
      <trkpt lat="47.65862" lon="6.07352">
        <ele>239.79</ele>
        <time>2018-01-24T09:06:57Z</time>
      </trkpt>
      <trkpt lat="47.65864" lon="6.07362">
        <ele>239.94</ele>
        <time>2018-01-24T09:07:00Z</time>
      </trkpt>
      <trkpt lat="47.65865" lon="6.07369">
        <ele>240.05</ele>
        <time>2018-01-24T09:07:02Z</time>
      </trkpt>
      <trkpt lat="47.65866" lon="6.07377">
        <ele>240.16</ele>
        <time>2018-01-24T09:07:04Z</time>
      </trkpt>
      <trkpt lat="47.65867" lon="6.07384">
        <ele>240.27</ele>
        <time>2018-01-24T09:07:06Z</time>
      </trkpt>
      <trkpt lat="47.65868" lon="6.07391">
        <ele>240.38</ele>
        <time>2018-01-24T09:07:08Z</time>
      </trkpt>
      <trkpt lat="47.65871" lon="6.07397">
        <ele>240.49</ele>
        <time>2018-01-24T09:07:10Z</time>
      </trkpt>
      <trkpt lat="47.65874" lon="6.07403">
        <ele>240.66</ele>
        <time>2018-01-24T09:07:13Z</time>
      </trkpt>
      <trkpt lat="47.6588" lon="6.07407">
        <ele>240.91</ele>
        <time>2018-01-24T09:07:17Z</time>
      </trkpt>
      <trkpt lat="47.65884" lon="6.07412">
        <ele>241.72</ele>
        <time>2018-01-24T09:08:17Z</time>
      </trkpt>
      <trkpt lat="47.6589" lon="6.07414">
        <ele>241.9</ele>
        <time>2018-01-24T09:08:20Z</time>
      </trkpt>
      <trkpt lat="47.65896" lon="6.07416">
        <ele>242.07</ele>
        <time>2018-01-24T09:08:23Z</time>
      </trkpt>
      <trkpt lat="47.65902" lon="6.07417">
        <ele>242.23</ele>
        <time>2018-01-24T09:08:26Z</time>
      </trkpt>
      <trkpt lat="47.65907" lon="6.07417">
        <ele>242.34</ele>
        <time>2018-01-24T09:08:28Z</time>
      </trkpt>
      <trkpt lat="47.65913" lon="6.07416">
        <ele>242.44</ele>
        <time>2018-01-24T09:08:30Z</time>
      </trkpt>
      <trkpt lat="47.65919" lon="6.07417">
        <ele>242.55</ele>
        <time>2018-01-24T09:08:32Z</time>
      </trkpt>
      <trkpt lat="47.65925" lon="6.07416">
        <ele>242.65</ele>
        <time>2018-01-24T09:08:34Z</time>
      </trkpt>
      <trkpt lat="47.65932" lon="6.07415">
        <ele>242.75</ele>
        <time>2018-01-24T09:08:36Z</time>
      </trkpt>
      <trkpt lat="47.65939" lon="6.07414">
        <ele>242.85</ele>
        <time>2018-01-24T09:08:38Z</time>
      </trkpt>
      <trkpt lat="47.65946" lon="6.07413">
        <ele>242.95</ele>
        <time>2018-01-24T09:08:40Z</time>
      </trkpt>
      <trkpt lat="47.65952" lon="6.07411">
        <ele>243.06</ele>
        <time>2018-01-24T09:08:42Z</time>
      </trkpt>
      <trkpt lat="47.65957" lon="6.07411">
        <ele>243.16</ele>
        <time>2018-01-24T09:08:44Z</time>
      </trkpt>
      <trkpt lat="47.65963" lon="6.07411">
        <ele>243.27</ele>
        <time>2018-01-24T09:08:46Z</time>
      </trkpt>
      <trkpt lat="47.65968" lon="6.0741">
        <ele>243.37</ele>
        <time>2018-01-24T09:08:48Z</time>
      </trkpt>
      <trkpt lat="47.65974" lon="6.07409">
        <ele>243.48</ele>
        <time>2018-01-24T09:08:50Z</time>
      </trkpt>
      <trkpt lat="47.65981" lon="6.07407">
        <ele>243.59</ele>
        <time>2018-01-24T09:08:52Z</time>
      </trkpt>
      <trkpt lat="47.65988" lon="6.07407">
        <ele>243.69</ele>
        <time>2018-01-24T09:08:54Z</time>
      </trkpt>
      <trkpt lat="47.65994" lon="6.07408">
        <ele>243.79</ele>
        <time>2018-01-24T09:08:56Z</time>
      </trkpt>
      <trkpt lat="47.66002" lon="6.07408">
        <ele>244.55</ele>
        <time>2018-01-24T09:08:58Z</time>
      </trkpt>
      <trkpt lat="47.66011" lon="6.07408">
        <ele>245.18</ele>
        <time>2018-01-24T09:09:00Z</time>
      </trkpt>
      <trkpt lat="47.66016" lon="6.07409">
        <ele>245.42</ele>
        <time>2018-01-24T09:09:01Z</time>
      </trkpt>
      <trkpt lat="47.66021" lon="6.07411">
        <ele>245.62</ele>
        <time>2018-01-24T09:09:02Z</time>
      </trkpt>
      <trkpt lat="47.66026" lon="6.07412">
        <ele>245.79</ele>
        <time>2018-01-24T09:09:03Z</time>
      </trkpt>
      <trkpt lat="47.66031" lon="6.07414">
        <ele>245.92</ele>
        <time>2018-01-24T09:09:04Z</time>
      </trkpt>
      <trkpt lat="47.66036" lon="6.07415">
        <ele>246.04</ele>
        <time>2018-01-24T09:09:05Z</time>
      </trkpt>
      <trkpt lat="47.66041" lon="6.07417">
        <ele>246.14</ele>
        <time>2018-01-24T09:09:06Z</time>
      </trkpt>
      <trkpt lat="47.66046" lon="6.07417">
        <ele>246.23</ele>
        <time>2018-01-24T09:09:07Z</time>
      </trkpt>
      <trkpt lat="47.66051" lon="6.07418">
        <ele>246.3</ele>
        <time>2018-01-24T09:09:08Z</time>
      </trkpt>
      <trkpt lat="47.66056" lon="6.07418">
        <ele>246.37</ele>
        <time>2018-01-24T09:09:09Z</time>
      </trkpt>
      <trkpt lat="47.66062" lon="6.07419">
        <ele>246.44</ele>
        <time>2018-01-24T09:09:10Z</time>
      </trkpt>
      <trkpt lat="47.66066" lon="6.07418">
        <ele>246.49</ele>
        <time>2018-01-24T09:09:11Z</time>
      </trkpt>
      <trkpt lat="47.66071" lon="6.07418">
        <ele>246.54</ele>
        <time>2018-01-24T09:09:12Z</time>
      </trkpt>
      <trkpt lat="47.66079" lon="6.07417">
        <ele>246.64</ele>
        <time>2018-01-24T09:09:14Z</time>
      </trkpt>
      <trkpt lat="47.66087" lon="6.07418">
        <ele>246.74</ele>
        <time>2018-01-24T09:09:16Z</time>
      </trkpt>
      <trkpt lat="47.66095" lon="6.07418">
        <ele>246.84</ele>
        <time>2018-01-24T09:09:18Z</time>
      </trkpt>
      <trkpt lat="47.66103" lon="6.07418">
        <ele>246.93</ele>
        <time>2018-01-24T09:09:20Z</time>
      </trkpt>
      <trkpt lat="47.66112" lon="6.07418">
        <ele>247</ele>
        <time>2018-01-24T09:09:22Z</time>
      </trkpt>
      <trkpt lat="47.6612" lon="6.07419">
        <ele>247.07</ele>
        <time>2018-01-24T09:09:24Z</time>
      </trkpt>
      <trkpt lat="47.66128" lon="6.07419">
        <ele>247.13</ele>
        <time>2018-01-24T09:09:26Z</time>
      </trkpt>
      <trkpt lat="47.66136" lon="6.0742">
        <ele>247.17</ele>
        <time>2018-01-24T09:09:28Z</time>
      </trkpt>
      <trkpt lat="47.66145" lon="6.07421">
        <ele>247.19</ele>
        <time>2018-01-24T09:09:30Z</time>
      </trkpt>
      <trkpt lat="47.66153" lon="6.07421">
        <ele>247.22</ele>
        <time>2018-01-24T09:09:32Z</time>
      </trkpt>
      <trkpt lat="47.6616" lon="6.07424">
        <ele>247.25</ele>
        <time>2018-01-24T09:09:34Z</time>
      </trkpt>
      <trkpt lat="47.66168" lon="6.07426">
        <ele>247.27</ele>
        <time>2018-01-24T09:09:36Z</time>
      </trkpt>
      <trkpt lat="47.66172" lon="6.07431">
        <ele>247.28</ele>
        <time>2018-01-24T09:09:38Z</time>
      </trkpt>
      <trkpt lat="47.66175" lon="6.07437">
        <ele>247.29</ele>
        <time>2018-01-24T09:09:40Z</time>
      </trkpt>
      <trkpt lat="47.66176" lon="6.07446">
        <ele>247.31</ele>
        <time>2018-01-24T09:09:42Z</time>
      </trkpt>
      <trkpt lat="47.66178" lon="6.07455">
        <ele>247.32</ele>
        <time>2018-01-24T09:09:44Z</time>
      </trkpt>
      <trkpt lat="47.66179" lon="6.07462">
        <ele>247.34</ele>
        <time>2018-01-24T09:09:46Z</time>
      </trkpt>
      <trkpt lat="47.66181" lon="6.07472">
        <ele>247.37</ele>
        <time>2018-01-24T09:09:49Z</time>
      </trkpt>
      <trkpt lat="47.66183" lon="6.07478">
        <ele>247.39</ele>
        <time>2018-01-24T09:09:51Z</time>
      </trkpt>
      <trkpt lat="47.66184" lon="6.07485">
        <ele>247.42</ele>
        <time>2018-01-24T09:09:53Z</time>
      </trkpt>
      <trkpt lat="47.66186" lon="6.07492">
        <ele>247.44</ele>
        <time>2018-01-24T09:09:55Z</time>
      </trkpt>
      <trkpt lat="47.66187" lon="6.07499">
        <ele>247.46</ele>
        <time>2018-01-24T09:09:57Z</time>
      </trkpt>
      <trkpt lat="47.66188" lon="6.07506">
        <ele>247.49</ele>
        <time>2018-01-24T09:09:59Z</time>
      </trkpt>
      <trkpt lat="47.66189" lon="6.07513">
        <ele>247.51</ele>
        <time>2018-01-24T09:10:01Z</time>
      </trkpt>
      <trkpt lat="47.66191" lon="6.07519">
        <ele>247.54</ele>
        <time>2018-01-24T09:10:03Z</time>
      </trkpt>
      <trkpt lat="47.66193" lon="6.07527">
        <ele>247.56</ele>
        <time>2018-01-24T09:10:05Z</time>
      </trkpt>
      <trkpt lat="47.66195" lon="6.07535">
        <ele>247.59</ele>
        <time>2018-01-24T09:10:07Z</time>
      </trkpt>
      <trkpt lat="47.66197" lon="6.07542">
        <ele>247.62</ele>
        <time>2018-01-24T09:10:09Z</time>
      </trkpt>
      <trkpt lat="47.66198" lon="6.07549">
        <ele>247.65</ele>
        <time>2018-01-24T09:10:11Z</time>
      </trkpt>
      <trkpt lat="47.662" lon="6.07556">
        <ele>247.68</ele>
        <time>2018-01-24T09:10:13Z</time>
      </trkpt>
      <trkpt lat="47.66203" lon="6.07563">
        <ele>247.71</ele>
        <time>2018-01-24T09:10:15Z</time>
      </trkpt>
      <trkpt lat="47.66205" lon="6.0757">
        <ele>247.74</ele>
        <time>2018-01-24T09:10:17Z</time>
      </trkpt>
      <trkpt lat="47.66206" lon="6.07576">
        <ele>247.78</ele>
        <time>2018-01-24T09:10:19Z</time>
      </trkpt>
      <trkpt lat="47.66209" lon="6.07583">
        <ele>247.82</ele>
        <time>2018-01-24T09:10:21Z</time>
      </trkpt>
      <trkpt lat="47.6621" lon="6.07591">
        <ele>247.86</ele>
        <time>2018-01-24T09:10:23Z</time>
      </trkpt>
      <trkpt lat="47.66211" lon="6.07598">
        <ele>247.91</ele>
        <time>2018-01-24T09:10:25Z</time>
      </trkpt>
      <trkpt lat="47.66212" lon="6.07605">
        <ele>247.95</ele>
        <time>2018-01-24T09:10:27Z</time>
      </trkpt>
      <trkpt lat="47.66212" lon="6.07613">
        <ele>247.99</ele>
        <time>2018-01-24T09:10:29Z</time>
      </trkpt>
      <trkpt lat="47.66213" lon="6.0762">
        <ele>248.03</ele>
        <time>2018-01-24T09:10:31Z</time>
      </trkpt>
      <trkpt lat="47.66215" lon="6.07626">
        <ele>248.08</ele>
        <time>2018-01-24T09:10:33Z</time>
      </trkpt>
      <trkpt lat="47.66218" lon="6.07633">
        <ele>248.12</ele>
        <time>2018-01-24T09:10:35Z</time>
      </trkpt>
      <trkpt lat="47.66219" lon="6.07639">
        <ele>248.17</ele>
        <time>2018-01-24T09:10:37Z</time>
      </trkpt>
      <trkpt lat="47.66221" lon="6.07646">
        <ele>248.21</ele>
        <time>2018-01-24T09:10:39Z</time>
      </trkpt>
      <trkpt lat="47.66223" lon="6.07652">
        <ele>248.26</ele>
        <time>2018-01-24T09:10:41Z</time>
      </trkpt>
      <trkpt lat="47.66225" lon="6.07659">
        <ele>248.31</ele>
        <time>2018-01-24T09:10:43Z</time>
      </trkpt>
      <trkpt lat="47.66227" lon="6.07666">
        <ele>248.36</ele>
        <time>2018-01-24T09:10:45Z</time>
      </trkpt>
      <trkpt lat="47.66229" lon="6.07673">
        <ele>248.41</ele>
        <time>2018-01-24T09:10:47Z</time>
      </trkpt>
      <trkpt lat="47.66231" lon="6.07679">
        <ele>248.46</ele>
        <time>2018-01-24T09:10:49Z</time>
      </trkpt>
      <trkpt lat="47.66232" lon="6.07686">
        <ele>248.52</ele>
        <time>2018-01-24T09:10:51Z</time>
      </trkpt>
      <trkpt lat="47.66235" lon="6.07695">
        <ele>248.6</ele>
        <time>2018-01-24T09:10:54Z</time>
      </trkpt>
      <trkpt lat="47.66237" lon="6.07702">
        <ele>248.66</ele>
        <time>2018-01-24T09:10:56Z</time>
      </trkpt>
      <trkpt lat="47.66239" lon="6.07708">
        <ele>248.71</ele>
        <time>2018-01-24T09:10:58Z</time>
      </trkpt>
      <trkpt lat="47.66242" lon="6.07717">
        <ele>248.8</ele>
        <time>2018-01-24T09:11:01Z</time>
      </trkpt>
      <trkpt lat="47.66246" lon="6.07726">
        <ele>248.88</ele>
        <time>2018-01-24T09:11:04Z</time>
      </trkpt>
      <trkpt lat="47.66248" lon="6.07733">
        <ele>248.94</ele>
        <time>2018-01-24T09:11:06Z</time>
      </trkpt>
      <trkpt lat="47.66249" lon="6.0774">
        <ele>249</ele>
        <time>2018-01-24T09:11:08Z</time>
      </trkpt>
      <trkpt lat="47.66251" lon="6.07748">
        <ele>249.06</ele>
        <time>2018-01-24T09:11:10Z</time>
      </trkpt>
      <trkpt lat="47.66253" lon="6.07755">
        <ele>249.12</ele>
        <time>2018-01-24T09:11:12Z</time>
      </trkpt>
      <trkpt lat="47.66255" lon="6.07763">
        <ele>249.18</ele>
        <time>2018-01-24T09:11:14Z</time>
      </trkpt>
      <trkpt lat="47.66258" lon="6.07769">
        <ele>249.24</ele>
        <time>2018-01-24T09:11:16Z</time>
      </trkpt>
      <trkpt lat="47.6626" lon="6.07777">
        <ele>249.33</ele>
        <time>2018-01-24T09:11:19Z</time>
      </trkpt>
      <trkpt lat="47.66263" lon="6.07785">
        <ele>249.45</ele>
        <time>2018-01-24T09:11:23Z</time>
      </trkpt>
      <trkpt lat="47.66265" lon="6.07793">
        <ele>249.54</ele>
        <time>2018-01-24T09:11:26Z</time>
      </trkpt>
      <trkpt lat="47.66267" lon="6.07801">
        <ele>249.63</ele>
        <time>2018-01-24T09:11:29Z</time>
      </trkpt>
      <trkpt lat="47.66268" lon="6.0781">
        <ele>249.73</ele>
        <time>2018-01-24T09:11:32Z</time>
      </trkpt>
      <trkpt lat="47.66268" lon="6.07817">
        <ele>249.8</ele>
        <time>2018-01-24T09:11:34Z</time>
      </trkpt>
      <trkpt lat="47.66269" lon="6.07826">
        <ele>249.9</ele>
        <time>2018-01-24T09:11:37Z</time>
      </trkpt>
      <trkpt lat="47.66271" lon="6.07833">
        <ele>250</ele>
        <time>2018-01-24T09:11:40Z</time>
      </trkpt>
      <trkpt lat="47.66272" lon="6.0784">
        <ele>250.09</ele>
        <time>2018-01-24T09:11:43Z</time>
      </trkpt>
      <trkpt lat="47.66273" lon="6.0785">
        <ele>250.22</ele>
        <time>2018-01-24T09:11:47Z</time>
      </trkpt>
      <trkpt lat="47.66275" lon="6.07859">
        <ele>250.31</ele>
        <time>2018-01-24T09:11:50Z</time>
      </trkpt>
      <trkpt lat="47.66275" lon="6.07868">
        <ele>250.36</ele>
        <time>2018-01-24T09:11:52Z</time>
      </trkpt>
      <trkpt lat="47.66276" lon="6.07876">
        <ele>250.42</ele>
        <time>2018-01-24T09:11:54Z</time>
      </trkpt>
      <trkpt lat="47.66278" lon="6.07885">
        <ele>250.5</ele>
        <time>2018-01-24T09:11:57Z</time>
      </trkpt>
      <trkpt lat="47.66279" lon="6.07893">
        <ele>250.56</ele>
        <time>2018-01-24T09:11:59Z</time>
      </trkpt>
      <trkpt lat="47.6628" lon="6.07902">
        <ele>250.64</ele>
        <time>2018-01-24T09:12:02Z</time>
      </trkpt>
      <trkpt lat="47.6628" lon="6.0791">
        <ele>250.73</ele>
        <time>2018-01-24T09:12:05Z</time>
      </trkpt>
      <trkpt lat="47.66283" lon="6.07918">
        <ele>250.82</ele>
        <time>2018-01-24T09:12:08Z</time>
      </trkpt>
      <trkpt lat="47.66285" lon="6.07925">
        <ele>250.91</ele>
        <time>2018-01-24T09:12:11Z</time>
      </trkpt>
      <trkpt lat="47.66288" lon="6.07933">
        <ele>251</ele>
        <time>2018-01-24T09:12:14Z</time>
      </trkpt>
      <trkpt lat="47.66292" lon="6.07939">
        <ele>251.11</ele>
        <time>2018-01-24T09:12:18Z</time>
      </trkpt>
      <trkpt lat="47.66294" lon="6.07947">
        <ele>251.24</ele>
        <time>2018-01-24T09:12:23Z</time>
      </trkpt>
      <trkpt lat="47.66295" lon="6.07954">
        <ele>251.32</ele>
        <time>2018-01-24T09:12:26Z</time>
      </trkpt>
      <trkpt lat="47.66296" lon="6.07963">
        <ele>251.4</ele>
        <time>2018-01-24T09:12:29Z</time>
      </trkpt>
      <trkpt lat="47.66297" lon="6.0797">
        <ele>251.48</ele>
        <time>2018-01-24T09:12:32Z</time>
      </trkpt>
      <trkpt lat="47.66297" lon="6.07979">
        <ele>251.56</ele>
        <time>2018-01-24T09:12:35Z</time>
      </trkpt>
      <trkpt lat="47.66299" lon="6.07987">
        <ele>251.63</ele>
        <time>2018-01-24T09:12:38Z</time>
      </trkpt>
      <trkpt lat="47.66302" lon="6.07993">
        <ele>251.68</ele>
        <time>2018-01-24T09:12:40Z</time>
      </trkpt>
      <trkpt lat="47.66305" lon="6.07999">
        <ele>251.73</ele>
        <time>2018-01-24T09:12:42Z</time>
      </trkpt>
      <trkpt lat="47.66306" lon="6.08006">
        <ele>251.78</ele>
        <time>2018-01-24T09:12:44Z</time>
      </trkpt>
      <trkpt lat="47.66308" lon="6.08013">
        <ele>251.84</ele>
        <time>2018-01-24T09:12:46Z</time>
      </trkpt>
      <trkpt lat="47.6631" lon="6.08019">
        <ele>251.89</ele>
        <time>2018-01-24T09:12:48Z</time>
      </trkpt>
      <trkpt lat="47.66313" lon="6.08026">
        <ele>251.97</ele>
        <time>2018-01-24T09:12:51Z</time>
      </trkpt>
      <trkpt lat="47.66316" lon="6.08034">
        <ele>252.05</ele>
        <time>2018-01-24T09:12:54Z</time>
      </trkpt>
      <trkpt lat="47.66319" lon="6.0804">
        <ele>252.13</ele>
        <time>2018-01-24T09:12:57Z</time>
      </trkpt>
      <trkpt lat="47.66322" lon="6.08047">
        <ele>252.23</ele>
        <time>2018-01-24T09:13:01Z</time>
      </trkpt>
      <trkpt lat="47.66326" lon="6.08054">
        <ele>252.31</ele>
        <time>2018-01-24T09:13:04Z</time>
      </trkpt>
      <trkpt lat="47.66328" lon="6.0806">
        <ele>252.36</ele>
        <time>2018-01-24T09:13:06Z</time>
      </trkpt>
      <trkpt lat="47.66331" lon="6.08068">
        <ele>252.44</ele>
        <time>2018-01-24T09:13:09Z</time>
      </trkpt>
      <trkpt lat="47.66334" lon="6.08075">
        <ele>252.52</ele>
        <time>2018-01-24T09:13:12Z</time>
      </trkpt>
      <trkpt lat="47.66336" lon="6.08081">
        <ele>252.6</ele>
        <time>2018-01-24T09:13:15Z</time>
      </trkpt>
      <trkpt lat="47.66339" lon="6.08087">
        <ele>252.67</ele>
        <time>2018-01-24T09:13:18Z</time>
      </trkpt>
      <trkpt lat="47.66343" lon="6.08093">
        <ele>252.75</ele>
        <time>2018-01-24T09:13:21Z</time>
      </trkpt>
      <trkpt lat="47.66346" lon="6.08098">
        <ele>252.89</ele>
        <time>2018-01-24T09:13:36Z</time>
      </trkpt>
      <trkpt lat="47.66348" lon="6.08105">
        <ele>252.96</ele>
        <time>2018-01-24T09:13:39Z</time>
      </trkpt>
      <trkpt lat="47.6635" lon="6.08113">
        <ele>253.05</ele>
        <time>2018-01-24T09:13:43Z</time>
      </trkpt>
      <trkpt lat="47.66353" lon="6.08121">
        <ele>253.14</ele>
        <time>2018-01-24T09:13:47Z</time>
      </trkpt>
      <trkpt lat="47.66356" lon="6.08129">
        <ele>253.2</ele>
        <time>2018-01-24T09:13:50Z</time>
      </trkpt>
      <trkpt lat="47.66357" lon="6.08137">
        <ele>253.24</ele>
        <time>2018-01-24T09:13:52Z</time>
      </trkpt>
      <trkpt lat="47.66356" lon="6.08145">
        <ele>253.28</ele>
        <time>2018-01-24T09:13:54Z</time>
      </trkpt>
      <trkpt lat="47.66355" lon="6.08152">
        <ele>253.34</ele>
        <time>2018-01-24T09:13:57Z</time>
      </trkpt>
      <trkpt lat="47.66351" lon="6.08159">
        <ele>253.42</ele>
        <time>2018-01-24T09:14:02Z</time>
      </trkpt>
      <trkpt lat="47.66348" lon="6.08174">
        <ele>253.47</ele>
        <time>2018-01-24T09:14:05Z</time>
      </trkpt>
      <trkpt lat="47.66345" lon="6.08182">
        <ele>253.51</ele>
        <time>2018-01-24T09:14:07Z</time>
      </trkpt>
      <trkpt lat="47.66342" lon="6.08191">
        <ele>253.56</ele>
        <time>2018-01-24T09:14:10Z</time>
      </trkpt>
      <trkpt lat="47.66339" lon="6.08196">
        <ele>253.59</ele>
        <time>2018-01-24T09:14:12Z</time>
      </trkpt>
      <trkpt lat="47.66336" lon="6.08202">
        <ele>253.62</ele>
        <time>2018-01-24T09:14:14Z</time>
      </trkpt>
      <trkpt lat="47.66334" lon="6.08207">
        <ele>253.65</ele>
        <time>2018-01-24T09:14:16Z</time>
      </trkpt>
      <trkpt lat="47.66332" lon="6.08217">
        <ele>253.7</ele>
        <time>2018-01-24T09:14:19Z</time>
      </trkpt>
      <trkpt lat="47.66329" lon="6.08224">
        <ele>253.73</ele>
        <time>2018-01-24T09:14:21Z</time>
      </trkpt>
      <trkpt lat="47.66326" lon="6.08232">
        <ele>253.77</ele>
        <time>2018-01-24T09:14:24Z</time>
      </trkpt>
      <trkpt lat="47.66323" lon="6.08237">
        <ele>253.8</ele>
        <time>2018-01-24T09:14:26Z</time>
      </trkpt>
      <trkpt lat="47.66318" lon="6.08247">
        <ele>253.84</ele>
        <time>2018-01-24T09:14:29Z</time>
      </trkpt>
      <trkpt lat="47.66313" lon="6.08257">
        <ele>253.86</ele>
        <time>2018-01-24T09:14:31Z</time>
      </trkpt>
      <trkpt lat="47.66309" lon="6.08265">
        <ele>253.88</ele>
        <time>2018-01-24T09:14:33Z</time>
      </trkpt>
      <trkpt lat="47.66305" lon="6.08271">
        <ele>253.89</ele>
        <time>2018-01-24T09:14:35Z</time>
      </trkpt>
      <trkpt lat="47.66303" lon="6.08278">
        <ele>253.91</ele>
        <time>2018-01-24T09:14:37Z</time>
      </trkpt>
      <trkpt lat="47.663" lon="6.08286">
        <ele>253.92</ele>
        <time>2018-01-24T09:14:39Z</time>
      </trkpt>
      <trkpt lat="47.66298" lon="6.08296">
        <ele>253.92</ele>
        <time>2018-01-24T09:14:41Z</time>
      </trkpt>
      <trkpt lat="47.66296" lon="6.08307">
        <ele>253.93</ele>
        <time>2018-01-24T09:14:42Z</time>
      </trkpt>
      <trkpt lat="47.66294" lon="6.08314">
        <ele>253.94</ele>
        <time>2018-01-24T09:14:44Z</time>
      </trkpt>
      <trkpt lat="47.66291" lon="6.08325">
        <ele>253.95</ele>
        <time>2018-01-24T09:14:46Z</time>
      </trkpt>
      <trkpt lat="47.66288" lon="6.08333">
        <ele>253.95</ele>
        <time>2018-01-24T09:14:47Z</time>
      </trkpt>
      <trkpt lat="47.66286" lon="6.08339">
        <ele>253.96</ele>
        <time>2018-01-24T09:14:48Z</time>
      </trkpt>
      <trkpt lat="47.66282" lon="6.0835">
        <ele>253.97</ele>
        <time>2018-01-24T09:14:50Z</time>
      </trkpt>
      <trkpt lat="47.66279" lon="6.08359">
        <ele>253.99</ele>
        <time>2018-01-24T09:14:52Z</time>
      </trkpt>
      <trkpt lat="47.66277" lon="6.08367">
        <ele>254</ele>
        <time>2018-01-24T09:14:54Z</time>
      </trkpt>
      <trkpt lat="47.66275" lon="6.08374">
        <ele>254.02</ele>
        <time>2018-01-24T09:14:56Z</time>
      </trkpt>
      <trkpt lat="47.66273" lon="6.08382">
        <ele>254.04</ele>
        <time>2018-01-24T09:14:58Z</time>
      </trkpt>
      <trkpt lat="47.66272" lon="6.08389">
        <ele>254.06</ele>
        <time>2018-01-24T09:15:00Z</time>
      </trkpt>
      <trkpt lat="47.66271" lon="6.08398">
        <ele>254.08</ele>
        <time>2018-01-24T09:15:02Z</time>
      </trkpt>
      <trkpt lat="47.6627" lon="6.08411">
        <ele>254.25</ele>
        <time>2018-01-24T09:15:04Z</time>
      </trkpt>
      <trkpt lat="47.66271" lon="6.08418">
        <ele>254.33</ele>
        <time>2018-01-24T09:15:05Z</time>
      </trkpt>
      <trkpt lat="47.66273" lon="6.08425">
        <ele>254.4</ele>
        <time>2018-01-24T09:15:06Z</time>
      </trkpt>
      <trkpt lat="47.66275" lon="6.08431">
        <ele>254.46</ele>
        <time>2018-01-24T09:15:07Z</time>
      </trkpt>
      <trkpt lat="47.66278" lon="6.08437">
        <ele>254.51</ele>
        <time>2018-01-24T09:15:08Z</time>
      </trkpt>
      <trkpt lat="47.66281" lon="6.08443">
        <ele>254.55</ele>
        <time>2018-01-24T09:15:09Z</time>
      </trkpt>
      <trkpt lat="47.66285" lon="6.0845">
        <ele>254.59</ele>
        <time>2018-01-24T09:15:10Z</time>
      </trkpt>
      <trkpt lat="47.66287" lon="6.08459">
        <ele>254.61</ele>
        <time>2018-01-24T09:15:11Z</time>
      </trkpt>
      <trkpt lat="47.66291" lon="6.08468">
        <ele>254.64</ele>
        <time>2018-01-24T09:15:12Z</time>
      </trkpt>
      <trkpt lat="47.66294" lon="6.08478">
        <ele>254.65</ele>
        <time>2018-01-24T09:15:13Z</time>
      </trkpt>
      <trkpt lat="47.66297" lon="6.08487">
        <ele>254.65</ele>
        <time>2018-01-24T09:15:14Z</time>
      </trkpt>
      <trkpt lat="47.66299" lon="6.08495">
        <ele>254.66</ele>
        <time>2018-01-24T09:15:15Z</time>
      </trkpt>
      <trkpt lat="47.66302" lon="6.08501">
        <ele>254.66</ele>
        <time>2018-01-24T09:15:16Z</time>
      </trkpt>
      <trkpt lat="47.66305" lon="6.08511">
        <ele>254.66</ele>
        <time>2018-01-24T09:15:18Z</time>
      </trkpt>
      <trkpt lat="47.6631" lon="6.08515">
        <ele>254.65</ele>
        <time>2018-01-24T09:15:20Z</time>
      </trkpt>
      <trkpt lat="47.66315" lon="6.08512">
        <ele>254.65</ele>
        <time>2018-01-24T09:15:22Z</time>
      </trkpt>
      <trkpt lat="47.66319" lon="6.08506">
        <ele>254.65</ele>
        <time>2018-01-24T09:15:24Z</time>
      </trkpt>
      <trkpt lat="47.66324" lon="6.08499">
        <ele>254.65</ele>
        <time>2018-01-24T09:15:26Z</time>
      </trkpt>
      <trkpt lat="47.66329" lon="6.08493">
        <ele>254.65</ele>
        <time>2018-01-24T09:15:28Z</time>
      </trkpt>
      <trkpt lat="47.66333" lon="6.08487">
        <ele>254.65</ele>
        <time>2018-01-24T09:15:30Z</time>
      </trkpt>
      <trkpt lat="47.66337" lon="6.08481">
        <ele>254.65</ele>
        <time>2018-01-24T09:15:32Z</time>
      </trkpt>
      <trkpt lat="47.6634" lon="6.08475">
        <ele>254.66</ele>
        <time>2018-01-24T09:15:34Z</time>
      </trkpt>
      <trkpt lat="47.66343" lon="6.08469">
        <ele>254.67</ele>
        <time>2018-01-24T09:15:36Z</time>
      </trkpt>
      <trkpt lat="47.66346" lon="6.08464">
        <ele>254.68</ele>
        <time>2018-01-24T09:15:38Z</time>
      </trkpt>
      <trkpt lat="47.66349" lon="6.08457">
        <ele>254.71</ele>
        <time>2018-01-24T09:15:41Z</time>
      </trkpt>
      <trkpt lat="47.66351" lon="6.0845">
        <ele>254.75</ele>
        <time>2018-01-24T09:15:44Z</time>
      </trkpt>
      <trkpt lat="47.66353" lon="6.0844">
        <ele>254.79</ele>
        <time>2018-01-24T09:15:47Z</time>
      </trkpt>
      <trkpt lat="47.66353" lon="6.08432">
        <ele>254.82</ele>
        <time>2018-01-24T09:15:49Z</time>
      </trkpt>
      <trkpt lat="47.66353" lon="6.08422">
        <ele>254.85</ele>
        <time>2018-01-24T09:15:51Z</time>
      </trkpt>
      <trkpt lat="47.66354" lon="6.08413">
        <ele>254.88</ele>
        <time>2018-01-24T09:15:53Z</time>
      </trkpt>
      <trkpt lat="47.66355" lon="6.08402">
        <ele>254.91</ele>
        <time>2018-01-24T09:15:55Z</time>
      </trkpt>
      <trkpt lat="47.66357" lon="6.08394">
        <ele>254.94</ele>
        <time>2018-01-24T09:15:57Z</time>
      </trkpt>
      <trkpt lat="47.6636" lon="6.08386">
        <ele>254.97</ele>
        <time>2018-01-24T09:15:59Z</time>
      </trkpt>
      <trkpt lat="47.66363" lon="6.0838">
        <ele>255.01</ele>
        <time>2018-01-24T09:16:01Z</time>
      </trkpt>
      <trkpt lat="47.66366" lon="6.08376">
        <ele>255.04</ele>
        <time>2018-01-24T09:16:03Z</time>
      </trkpt>
      <trkpt lat="47.66372" lon="6.08371">
        <ele>255.1</ele>
        <time>2018-01-24T09:16:06Z</time>
      </trkpt>
      <trkpt lat="47.66377" lon="6.08368">
        <ele>255.15</ele>
        <time>2018-01-24T09:16:09Z</time>
      </trkpt>
      <trkpt lat="47.66382" lon="6.08366">
        <ele>255.2</ele>
        <time>2018-01-24T09:16:12Z</time>
      </trkpt>
      <trkpt lat="47.66389" lon="6.08364">
        <ele>255.25</ele>
        <time>2018-01-24T09:16:15Z</time>
      </trkpt>
      <trkpt lat="47.66394" lon="6.08364">
        <ele>255.32</ele>
        <time>2018-01-24T09:16:18Z</time>
      </trkpt>
      <trkpt lat="47.664" lon="6.08363">
        <ele>255.41</ele>
        <time>2018-01-24T09:16:21Z</time>
      </trkpt>
      <trkpt lat="47.66406" lon="6.08362">
        <ele>255.51</ele>
        <time>2018-01-24T09:16:24Z</time>
      </trkpt>
      <trkpt lat="47.66412" lon="6.0836">
        <ele>255.64</ele>
        <time>2018-01-24T09:16:27Z</time>
      </trkpt>
      <trkpt lat="47.66418" lon="6.0836">
        <ele>255.76</ele>
        <time>2018-01-24T09:16:30Z</time>
      </trkpt>
      <trkpt lat="47.66424" lon="6.08359">
        <ele>255.88</ele>
        <time>2018-01-24T09:16:33Z</time>
      </trkpt>
      <trkpt lat="47.6643" lon="6.08358">
        <ele>256</ele>
        <time>2018-01-24T09:16:36Z</time>
      </trkpt>
      <trkpt lat="47.66436" lon="6.08358">
        <ele>256.13</ele>
        <time>2018-01-24T09:16:39Z</time>
      </trkpt>
      <trkpt lat="47.66441" lon="6.08357">
        <ele>256.25</ele>
        <time>2018-01-24T09:16:42Z</time>
      </trkpt>
      <trkpt lat="47.66447" lon="6.08358">
        <ele>256.35</ele>
        <time>2018-01-24T09:16:45Z</time>
      </trkpt>
      <trkpt lat="47.66454" lon="6.08358">
        <ele>256.44</ele>
        <time>2018-01-24T09:16:48Z</time>
      </trkpt>
      <trkpt lat="47.66458" lon="6.08359">
        <ele>256.5</ele>
        <time>2018-01-24T09:16:50Z</time>
      </trkpt>
      <trkpt lat="47.66465" lon="6.0836">
        <ele>256.57</ele>
        <time>2018-01-24T09:16:53Z</time>
      </trkpt>
      <trkpt lat="47.6647" lon="6.08361">
        <ele>256.63</ele>
        <time>2018-01-24T09:16:55Z</time>
      </trkpt>
      <trkpt lat="47.66475" lon="6.08361">
        <ele>256.68</ele>
        <time>2018-01-24T09:16:57Z</time>
      </trkpt>
      <trkpt lat="47.6648" lon="6.08362">
        <ele>256.74</ele>
        <time>2018-01-24T09:16:59Z</time>
      </trkpt>
      <trkpt lat="47.66486" lon="6.08365">
        <ele>256.8</ele>
        <time>2018-01-24T09:17:01Z</time>
      </trkpt>
      <trkpt lat="47.66493" lon="6.08368">
        <ele>256.86</ele>
        <time>2018-01-24T09:17:03Z</time>
      </trkpt>
      <trkpt lat="47.66499" lon="6.0837">
        <ele>256.92</ele>
        <time>2018-01-24T09:17:05Z</time>
      </trkpt>
      <trkpt lat="47.66504" lon="6.08371">
        <ele>256.98</ele>
        <time>2018-01-24T09:17:07Z</time>
      </trkpt>
      <trkpt lat="47.6651" lon="6.08373">
        <ele>257.05</ele>
        <time>2018-01-24T09:17:09Z</time>
      </trkpt>
      <trkpt lat="47.66516" lon="6.08376">
        <ele>257.11</ele>
        <time>2018-01-24T09:17:11Z</time>
      </trkpt>
      <trkpt lat="47.66521" lon="6.08378">
        <ele>257.18</ele>
        <time>2018-01-24T09:17:13Z</time>
      </trkpt>
      <trkpt lat="47.66527" lon="6.08382">
        <ele>257.23</ele>
        <time>2018-01-24T09:17:15Z</time>
      </trkpt>
      <trkpt lat="47.66532" lon="6.08385">
        <ele>257.29</ele>
        <time>2018-01-24T09:17:17Z</time>
      </trkpt>
      <trkpt lat="47.66538" lon="6.08389">
        <ele>257.35</ele>
        <time>2018-01-24T09:17:19Z</time>
      </trkpt>
      <trkpt lat="47.66544" lon="6.08393">
        <ele>257.4</ele>
        <time>2018-01-24T09:17:21Z</time>
      </trkpt>
      <trkpt lat="47.6655" lon="6.08397">
        <ele>257.46</ele>
        <time>2018-01-24T09:17:23Z</time>
      </trkpt>
      <trkpt lat="47.66555" lon="6.084">
        <ele>257.52</ele>
        <time>2018-01-24T09:17:25Z</time>
      </trkpt>
      <trkpt lat="47.66561" lon="6.08404">
        <ele>257.58</ele>
        <time>2018-01-24T09:17:27Z</time>
      </trkpt>
      <trkpt lat="47.66566" lon="6.08407">
        <ele>257.64</ele>
        <time>2018-01-24T09:17:29Z</time>
      </trkpt>
      <trkpt lat="47.66572" lon="6.0841">
        <ele>257.69</ele>
        <time>2018-01-24T09:17:31Z</time>
      </trkpt>
      <trkpt lat="47.66578" lon="6.08413">
        <ele>257.75</ele>
        <time>2018-01-24T09:17:33Z</time>
      </trkpt>
      <trkpt lat="47.66585" lon="6.08416">
        <ele>257.81</ele>
        <time>2018-01-24T09:17:35Z</time>
      </trkpt>
      <trkpt lat="47.66592" lon="6.08418">
        <ele>258.01</ele>
        <time>2018-01-24T09:17:37Z</time>
      </trkpt>
      <trkpt lat="47.66601" lon="6.08418">
        <ele>258.36</ele>
        <time>2018-01-24T09:17:39Z</time>
      </trkpt>
      <trkpt lat="47.6661" lon="6.08415">
        <ele>258.6</ele>
        <time>2018-01-24T09:17:41Z</time>
      </trkpt>
      <trkpt lat="47.66614" lon="6.08413">
        <ele>258.68</ele>
        <time>2018-01-24T09:17:42Z</time>
      </trkpt>
      <trkpt lat="47.66619" lon="6.08409">
        <ele>258.74</ele>
        <time>2018-01-24T09:17:43Z</time>
      </trkpt>
      <trkpt lat="47.66625" lon="6.08405">
        <ele>258.79</ele>
        <time>2018-01-24T09:17:44Z</time>
      </trkpt>
      <trkpt lat="47.6663" lon="6.08401">
        <ele>258.81</ele>
        <time>2018-01-24T09:17:45Z</time>
      </trkpt>
      <trkpt lat="47.66636" lon="6.08396">
        <ele>258.81</ele>
        <time>2018-01-24T09:17:46Z</time>
      </trkpt>
      <trkpt lat="47.66641" lon="6.0839">
        <ele>258.81</ele>
        <time>2018-01-24T09:17:47Z</time>
      </trkpt>
      <trkpt lat="47.66646" lon="6.08385">
        <ele>258.79</ele>
        <time>2018-01-24T09:17:48Z</time>
      </trkpt>
      <trkpt lat="47.66651" lon="6.0838">
        <ele>258.76</ele>
        <time>2018-01-24T09:17:49Z</time>
      </trkpt>
      <trkpt lat="47.66656" lon="6.08374">
        <ele>258.72</ele>
        <time>2018-01-24T09:17:50Z</time>
      </trkpt>
      <trkpt lat="47.66661" lon="6.08369">
        <ele>258.67</ele>
        <time>2018-01-24T09:17:51Z</time>
      </trkpt>
      <trkpt lat="47.66666" lon="6.08363">
        <ele>258.6</ele>
        <time>2018-01-24T09:17:52Z</time>
      </trkpt>
      <trkpt lat="47.66672" lon="6.08358">
        <ele>258.48</ele>
        <time>2018-01-24T09:17:53Z</time>
      </trkpt>
      <trkpt lat="47.66677" lon="6.08352">
        <ele>258.37</ele>
        <time>2018-01-24T09:17:54Z</time>
      </trkpt>
      <trkpt lat="47.66683" lon="6.08346">
        <ele>258.26</ele>
        <time>2018-01-24T09:17:55Z</time>
      </trkpt>
      <trkpt lat="47.66688" lon="6.0834">
        <ele>258.15</ele>
        <time>2018-01-24T09:17:56Z</time>
      </trkpt>
      <trkpt lat="47.66693" lon="6.08333">
        <ele>258.06</ele>
        <time>2018-01-24T09:17:57Z</time>
      </trkpt>
      <trkpt lat="47.66698" lon="6.08327">
        <ele>257.97</ele>
        <time>2018-01-24T09:17:58Z</time>
      </trkpt>
      <trkpt lat="47.66703" lon="6.08321">
        <ele>257.88</ele>
        <time>2018-01-24T09:17:59Z</time>
      </trkpt>
      <trkpt lat="47.66706" lon="6.08313">
        <ele>257.77</ele>
        <time>2018-01-24T09:18:00Z</time>
      </trkpt>
      <trkpt lat="47.66711" lon="6.08307">
        <ele>257.65</ele>
        <time>2018-01-24T09:18:01Z</time>
      </trkpt>
      <trkpt lat="47.66716" lon="6.083">
        <ele>257.53</ele>
        <time>2018-01-24T09:18:02Z</time>
      </trkpt>
      <trkpt lat="47.66721" lon="6.08294">
        <ele>257.36</ele>
        <time>2018-01-24T09:18:03Z</time>
      </trkpt>
      <trkpt lat="47.66726" lon="6.08286">
        <ele>257.19</ele>
        <time>2018-01-24T09:18:04Z</time>
      </trkpt>
      <trkpt lat="47.66732" lon="6.0828">
        <ele>256.98</ele>
        <time>2018-01-24T09:18:05Z</time>
      </trkpt>
      <trkpt lat="47.66738" lon="6.08273">
        <ele>256.74</ele>
        <time>2018-01-24T09:18:06Z</time>
      </trkpt>
      <trkpt lat="47.66744" lon="6.08265">
        <ele>256.46</ele>
        <time>2018-01-24T09:18:07Z</time>
      </trkpt>
      <trkpt lat="47.6675" lon="6.08257">
        <ele>256.13</ele>
        <time>2018-01-24T09:18:08Z</time>
      </trkpt>
      <trkpt lat="47.66757" lon="6.08249">
        <ele>255.8</ele>
        <time>2018-01-24T09:18:09Z</time>
      </trkpt>
      <trkpt lat="47.66764" lon="6.08242">
        <ele>255.47</ele>
        <time>2018-01-24T09:18:10Z</time>
      </trkpt>
      <trkpt lat="47.66771" lon="6.08234">
        <ele>255.12</ele>
        <time>2018-01-24T09:18:11Z</time>
      </trkpt>
      <trkpt lat="47.66779" lon="6.08228">
        <ele>254.78</ele>
        <time>2018-01-24T09:18:12Z</time>
      </trkpt>
      <trkpt lat="47.66788" lon="6.08224">
        <ele>254.46</ele>
        <time>2018-01-24T09:18:13Z</time>
      </trkpt>
      <trkpt lat="47.66796" lon="6.0822">
        <ele>254.24</ele>
        <time>2018-01-24T09:18:14Z</time>
      </trkpt>
      <trkpt lat="47.66805" lon="6.08217">
        <ele>254.09</ele>
        <time>2018-01-24T09:18:15Z</time>
      </trkpt>
      <trkpt lat="47.66814" lon="6.08215">
        <ele>253.97</ele>
        <time>2018-01-24T09:18:16Z</time>
      </trkpt>
      <trkpt lat="47.66823" lon="6.08213">
        <ele>253.84</ele>
        <time>2018-01-24T09:18:17Z</time>
      </trkpt>
      <trkpt lat="47.66831" lon="6.08213">
        <ele>253.61</ele>
        <time>2018-01-24T09:18:18Z</time>
      </trkpt>
      <trkpt lat="47.6684" lon="6.08216">
        <ele>253.33</ele>
        <time>2018-01-24T09:18:19Z</time>
      </trkpt>
      <trkpt lat="47.66849" lon="6.08218">
        <ele>253.02</ele>
        <time>2018-01-24T09:18:20Z</time>
      </trkpt>
      <trkpt lat="47.66857" lon="6.0822">
        <ele>252.71</ele>
        <time>2018-01-24T09:18:21Z</time>
      </trkpt>
      <trkpt lat="47.66865" lon="6.08226">
        <ele>252.41</ele>
        <time>2018-01-24T09:18:22Z</time>
      </trkpt>
      <trkpt lat="47.66872" lon="6.08232">
        <ele>252.1</ele>
        <time>2018-01-24T09:18:23Z</time>
      </trkpt>
      <trkpt lat="47.66877" lon="6.08239">
        <ele>251.81</ele>
        <time>2018-01-24T09:18:24Z</time>
      </trkpt>
      <trkpt lat="47.66883" lon="6.08243">
        <ele>251.54</ele>
        <time>2018-01-24T09:18:25Z</time>
      </trkpt>
      <trkpt lat="47.66888" lon="6.08247">
        <ele>251.28</ele>
        <time>2018-01-24T09:18:26Z</time>
      </trkpt>
      <trkpt lat="47.66892" lon="6.08251">
        <ele>250.9</ele>
        <time>2018-01-24T09:18:27Z</time>
      </trkpt>
      <trkpt lat="47.66901" lon="6.08249">
        <ele>250.11</ele>
        <time>2018-01-24T09:18:29Z</time>
      </trkpt>
      <trkpt lat="47.66905" lon="6.08246">
        <ele>249.81</ele>
        <time>2018-01-24T09:18:30Z</time>
      </trkpt>
      <trkpt lat="47.66909" lon="6.08241">
        <ele>249.5</ele>
        <time>2018-01-24T09:18:31Z</time>
      </trkpt>
      <trkpt lat="47.66912" lon="6.08234">
        <ele>249.28</ele>
        <time>2018-01-24T09:18:32Z</time>
      </trkpt>
      <trkpt lat="47.66912" lon="6.08227">
        <ele>249.19</ele>
        <time>2018-01-24T09:18:33Z</time>
      </trkpt>
      <trkpt lat="47.66914" lon="6.08219">
        <ele>249.14</ele>
        <time>2018-01-24T09:18:35Z</time>
      </trkpt>
      <trkpt lat="47.6692" lon="6.08222">
        <ele>249.08</ele>
        <time>2018-01-24T09:18:38Z</time>
      </trkpt>
      <trkpt lat="47.66923" lon="6.08229">
        <ele>249.05</ele>
        <time>2018-01-24T09:18:41Z</time>
      </trkpt>
      <trkpt lat="47.66924" lon="6.08239">
        <ele>249.56</ele>
        <time>2018-01-24T09:18:53Z</time>
      </trkpt>
      <trkpt lat="47.66921" lon="6.08247">
        <ele>249.65</ele>
        <time>2018-01-24T09:18:55Z</time>
      </trkpt>
      <trkpt lat="47.66919" lon="6.08254">
        <ele>249.69</ele>
        <time>2018-01-24T09:18:57Z</time>
      </trkpt>
      <trkpt lat="47.66916" lon="6.08263">
        <ele>249.67</ele>
        <time>2018-01-24T09:18:59Z</time>
      </trkpt>
      <trkpt lat="47.66912" lon="6.08273">
        <ele>249.62</ele>
        <time>2018-01-24T09:19:01Z</time>
      </trkpt>
      <trkpt lat="47.66909" lon="6.08281">
        <ele>249.54</ele>
        <time>2018-01-24T09:19:03Z</time>
      </trkpt>
      <trkpt lat="47.66906" lon="6.08289">
        <ele>249.45</ele>
        <time>2018-01-24T09:19:05Z</time>
      </trkpt>
      <trkpt lat="47.66902" lon="6.08297">
        <ele>249.36</ele>
        <time>2018-01-24T09:19:07Z</time>
      </trkpt>
      <trkpt lat="47.66897" lon="6.08306">
        <ele>249.27</ele>
        <time>2018-01-24T09:19:09Z</time>
      </trkpt>
      <trkpt lat="47.66893" lon="6.08315">
        <ele>249.18</ele>
        <time>2018-01-24T09:19:11Z</time>
      </trkpt>
      <trkpt lat="47.66888" lon="6.08323">
        <ele>249.1</ele>
        <time>2018-01-24T09:19:13Z</time>
      </trkpt>
      <trkpt lat="47.66883" lon="6.08333">
        <ele>249.03</ele>
        <time>2018-01-24T09:19:15Z</time>
      </trkpt>
      <trkpt lat="47.66879" lon="6.08339">
        <ele>248.98</ele>
        <time>2018-01-24T09:19:17Z</time>
      </trkpt>
      <trkpt lat="47.66875" lon="6.08345">
        <ele>248.94</ele>
        <time>2018-01-24T09:19:19Z</time>
      </trkpt>
      <trkpt lat="47.66871" lon="6.08351">
        <ele>248.91</ele>
        <time>2018-01-24T09:19:21Z</time>
      </trkpt>
      <trkpt lat="47.66867" lon="6.08358">
        <ele>248.89</ele>
        <time>2018-01-24T09:19:23Z</time>
      </trkpt>
      <trkpt lat="47.6686" lon="6.08363">
        <ele>248.85</ele>
        <time>2018-01-24T09:19:26Z</time>
      </trkpt>
      <trkpt lat="47.66854" lon="6.08369">
        <ele>248.83</ele>
        <time>2018-01-24T09:19:28Z</time>
      </trkpt>
      <trkpt lat="47.66849" lon="6.0837">
        <ele>248.77</ele>
        <time>2018-01-24T09:19:29Z</time>
      </trkpt>
      <trkpt lat="47.66845" lon="6.0837">
        <ele>248.74</ele>
        <time>2018-01-24T09:19:30Z</time>
      </trkpt>
      <trkpt lat="47.6684" lon="6.0837">
        <ele>248.73</ele>
        <time>2018-01-24T09:19:31Z</time>
      </trkpt>
      <trkpt lat="47.66835" lon="6.0837">
        <ele>248.71</ele>
        <time>2018-01-24T09:19:32Z</time>
      </trkpt>
      <trkpt lat="47.6683" lon="6.0837">
        <ele>248.7</ele>
        <time>2018-01-24T09:19:33Z</time>
      </trkpt>
      <trkpt lat="47.66819" lon="6.08373">
        <ele>248.69</ele>
        <time>2018-01-24T09:19:34Z</time>
      </trkpt>
      <trkpt lat="47.66809" lon="6.08369">
        <ele>248.62</ele>
        <time>2018-01-24T09:19:35Z</time>
      </trkpt>
      <trkpt lat="47.668" lon="6.08367">
        <ele>248.54</ele>
        <time>2018-01-24T09:19:36Z</time>
      </trkpt>
      <trkpt lat="47.66794" lon="6.08367">
        <ele>248.46</ele>
        <time>2018-01-24T09:19:37Z</time>
      </trkpt>
      <trkpt lat="47.66789" lon="6.08365">
        <ele>248.39</ele>
        <time>2018-01-24T09:19:38Z</time>
      </trkpt>
      <trkpt lat="47.66784" lon="6.08368">
        <ele>248.37</ele>
        <time>2018-01-24T09:19:39Z</time>
      </trkpt>
      <trkpt lat="47.6678" lon="6.08372">
        <ele>248.37</ele>
        <time>2018-01-24T09:19:40Z</time>
      </trkpt>
      <trkpt lat="47.66773" lon="6.08379">
        <ele>248.38</ele>
        <time>2018-01-24T09:19:42Z</time>
      </trkpt>
      <trkpt lat="47.66768" lon="6.08383">
        <ele>248.38</ele>
        <time>2018-01-24T09:19:43Z</time>
      </trkpt>
      <trkpt lat="47.66764" lon="6.08386">
        <ele>248.39</ele>
        <time>2018-01-24T09:19:44Z</time>
      </trkpt>
      <trkpt lat="47.66757" lon="6.0839">
        <ele>248.4</ele>
        <time>2018-01-24T09:19:46Z</time>
      </trkpt>
      <trkpt lat="47.66752" lon="6.08394">
        <ele>248.4</ele>
        <time>2018-01-24T09:19:48Z</time>
      </trkpt>
      <trkpt lat="47.66748" lon="6.08399">
        <ele>248.39</ele>
        <time>2018-01-24T09:19:50Z</time>
      </trkpt>
      <trkpt lat="47.66743" lon="6.08405">
        <ele>248.36</ele>
        <time>2018-01-24T09:19:53Z</time>
      </trkpt>
      <trkpt lat="47.66739" lon="6.08412">
        <ele>248.32</ele>
        <time>2018-01-24T09:19:56Z</time>
      </trkpt>
      <trkpt lat="47.66735" lon="6.08419">
        <ele>248.29</ele>
        <time>2018-01-24T09:19:59Z</time>
      </trkpt>
      <trkpt lat="47.6673" lon="6.08424">
        <ele>248.23</ele>
        <time>2018-01-24T09:20:03Z</time>
      </trkpt>
      <trkpt lat="47.66726" lon="6.08432">
        <ele>248.18</ele>
        <time>2018-01-24T09:20:05Z</time>
      </trkpt>
      <trkpt lat="47.66723" lon="6.08442">
        <ele>248.14</ele>
        <time>2018-01-24T09:20:07Z</time>
      </trkpt>
      <trkpt lat="47.6672" lon="6.0845">
        <ele>248.09</ele>
        <time>2018-01-24T09:20:09Z</time>
      </trkpt>
      <trkpt lat="47.66715" lon="6.0846">
        <ele>248.05</ele>
        <time>2018-01-24T09:20:11Z</time>
      </trkpt>
      <trkpt lat="47.66709" lon="6.08466">
        <ele>248.01</ele>
        <time>2018-01-24T09:20:13Z</time>
      </trkpt>
      <trkpt lat="47.66705" lon="6.08472">
        <ele>247.97</ele>
        <time>2018-01-24T09:20:15Z</time>
      </trkpt>
      <trkpt lat="47.66702" lon="6.08478">
        <ele>247.94</ele>
        <time>2018-01-24T09:20:17Z</time>
      </trkpt>
      <trkpt lat="47.66699" lon="6.08489">
        <ele>247.9</ele>
        <time>2018-01-24T09:20:19Z</time>
      </trkpt>
      <trkpt lat="47.66695" lon="6.08495">
        <ele>247.86</ele>
        <time>2018-01-24T09:20:21Z</time>
      </trkpt>
      <trkpt lat="47.66692" lon="6.08503">
        <ele>247.83</ele>
        <time>2018-01-24T09:20:23Z</time>
      </trkpt>
      <trkpt lat="47.66689" lon="6.0851">
        <ele>247.8</ele>
        <time>2018-01-24T09:20:25Z</time>
      </trkpt>
      <trkpt lat="47.66687" lon="6.08518">
        <ele>247.76</ele>
        <time>2018-01-24T09:20:27Z</time>
      </trkpt>
      <trkpt lat="47.66686" lon="6.08527">
        <ele>247.74</ele>
        <time>2018-01-24T09:20:29Z</time>
      </trkpt>
      <trkpt lat="47.66685" lon="6.08536">
        <ele>247.71</ele>
        <time>2018-01-24T09:20:31Z</time>
      </trkpt>
      <trkpt lat="47.66682" lon="6.08544">
        <ele>247.68</ele>
        <time>2018-01-24T09:20:33Z</time>
      </trkpt>
      <trkpt lat="47.66681" lon="6.08554">
        <ele>247.66</ele>
        <time>2018-01-24T09:20:35Z</time>
      </trkpt>
      <trkpt lat="47.66679" lon="6.08563">
        <ele>247.62</ele>
        <time>2018-01-24T09:20:37Z</time>
      </trkpt>
      <trkpt lat="47.66678" lon="6.08573">
        <ele>247.57</ele>
        <time>2018-01-24T09:20:39Z</time>
      </trkpt>
      <trkpt lat="47.66678" lon="6.08585">
        <ele>247.52</ele>
        <time>2018-01-24T09:20:41Z</time>
      </trkpt>
      <trkpt lat="47.66677" lon="6.08596">
        <ele>247.46</ele>
        <time>2018-01-24T09:20:43Z</time>
      </trkpt>
      <trkpt lat="47.66677" lon="6.08607">
        <ele>247.4</ele>
        <time>2018-01-24T09:20:45Z</time>
      </trkpt>
      <trkpt lat="47.66678" lon="6.08617">
        <ele>247.32</ele>
        <time>2018-01-24T09:20:47Z</time>
      </trkpt>
      <trkpt lat="47.66679" lon="6.08626">
        <ele>247.25</ele>
        <time>2018-01-24T09:20:49Z</time>
      </trkpt>
      <trkpt lat="47.6668" lon="6.08636">
        <ele>247.16</ele>
        <time>2018-01-24T09:20:51Z</time>
      </trkpt>
      <trkpt lat="47.66682" lon="6.08647">
        <ele>247.08</ele>
        <time>2018-01-24T09:20:53Z</time>
      </trkpt>
      <trkpt lat="47.66684" lon="6.08659">
        <ele>246.74</ele>
        <time>2018-01-24T09:20:55Z</time>
      </trkpt>
      <trkpt lat="47.66685" lon="6.08666">
        <ele>246.4</ele>
        <time>2018-01-24T09:20:56Z</time>
      </trkpt>
      <trkpt lat="47.66688" lon="6.08677">
        <ele>245.81</ele>
        <time>2018-01-24T09:20:58Z</time>
      </trkpt>
      <trkpt lat="47.66691" lon="6.08688">
        <ele>245.36</ele>
        <time>2018-01-24T09:21:00Z</time>
      </trkpt>
      <trkpt lat="47.66694" lon="6.08699">
        <ele>245.02</ele>
        <time>2018-01-24T09:21:02Z</time>
      </trkpt>
      <trkpt lat="47.66697" lon="6.08709">
        <ele>244.75</ele>
        <time>2018-01-24T09:21:04Z</time>
      </trkpt>
      <trkpt lat="47.66699" lon="6.0872">
        <ele>244.54</ele>
        <time>2018-01-24T09:21:06Z</time>
      </trkpt>
      <trkpt lat="47.66701" lon="6.08731">
        <ele>244.49</ele>
        <time>2018-01-24T09:21:08Z</time>
      </trkpt>
      <trkpt lat="47.66704" lon="6.08742">
        <ele>244.46</ele>
        <time>2018-01-24T09:21:10Z</time>
      </trkpt>
      <trkpt lat="47.66706" lon="6.08752">
        <ele>244.43</ele>
        <time>2018-01-24T09:21:12Z</time>
      </trkpt>
      <trkpt lat="47.66708" lon="6.08763">
        <ele>244.39</ele>
        <time>2018-01-24T09:21:14Z</time>
      </trkpt>
      <trkpt lat="47.6671" lon="6.08773">
        <ele>244.36</ele>
        <time>2018-01-24T09:21:16Z</time>
      </trkpt>
      <trkpt lat="47.66712" lon="6.08783">
        <ele>244.32</ele>
        <time>2018-01-24T09:21:18Z</time>
      </trkpt>
      <trkpt lat="47.66714" lon="6.08793">
        <ele>244.28</ele>
        <time>2018-01-24T09:21:20Z</time>
      </trkpt>
      <trkpt lat="47.66717" lon="6.08802">
        <ele>244.23</ele>
        <time>2018-01-24T09:21:22Z</time>
      </trkpt>
      <trkpt lat="47.6672" lon="6.08812">
        <ele>244.19</ele>
        <time>2018-01-24T09:21:24Z</time>
      </trkpt>
      <trkpt lat="47.66724" lon="6.08821">
        <ele>244.15</ele>
        <time>2018-01-24T09:21:26Z</time>
      </trkpt>
      <trkpt lat="47.66728" lon="6.08829">
        <ele>244.1</ele>
        <time>2018-01-24T09:21:28Z</time>
      </trkpt>
      <trkpt lat="47.66733" lon="6.08838">
        <ele>243.75</ele>
        <time>2018-01-24T09:21:30Z</time>
      </trkpt>
      <trkpt lat="47.66737" lon="6.08848">
        <ele>243.45</ele>
        <time>2018-01-24T09:21:32Z</time>
      </trkpt>
      <trkpt lat="47.66742" lon="6.08856">
        <ele>243.38</ele>
        <time>2018-01-24T09:21:34Z</time>
      </trkpt>
      <trkpt lat="47.66746" lon="6.08865">
        <ele>243.36</ele>
        <time>2018-01-24T09:21:36Z</time>
      </trkpt>
      <trkpt lat="47.66749" lon="6.08874">
        <ele>243.33</ele>
        <time>2018-01-24T09:21:38Z</time>
      </trkpt>
      <trkpt lat="47.66748" lon="6.08883">
        <ele>243.31</ele>
        <time>2018-01-24T09:21:40Z</time>
      </trkpt>
      <trkpt lat="47.66746" lon="6.08892">
        <ele>243.28</ele>
        <time>2018-01-24T09:21:43Z</time>
      </trkpt>
      <trkpt lat="47.66742" lon="6.08901">
        <ele>243.25</ele>
        <time>2018-01-24T09:21:45Z</time>
      </trkpt>
      <trkpt lat="47.66739" lon="6.0891">
        <ele>243.22</ele>
        <time>2018-01-24T09:21:47Z</time>
      </trkpt>
      <trkpt lat="47.66736" lon="6.08921">
        <ele>243.19</ele>
        <time>2018-01-24T09:21:49Z</time>
      </trkpt>
      <trkpt lat="47.66733" lon="6.08931">
        <ele>243.16</ele>
        <time>2018-01-24T09:21:51Z</time>
      </trkpt>
      <trkpt lat="47.66729" lon="6.08941">
        <ele>243.13</ele>
        <time>2018-01-24T09:21:53Z</time>
      </trkpt>
      <trkpt lat="47.66726" lon="6.08951">
        <ele>243.1</ele>
        <time>2018-01-24T09:21:55Z</time>
      </trkpt>
      <trkpt lat="47.66723" lon="6.08961">
        <ele>243.07</ele>
        <time>2018-01-24T09:21:57Z</time>
      </trkpt>
      <trkpt lat="47.6672" lon="6.0897">
        <ele>243.04</ele>
        <time>2018-01-24T09:21:59Z</time>
      </trkpt>
      <trkpt lat="47.66718" lon="6.0898">
        <ele>243.01</ele>
        <time>2018-01-24T09:22:01Z</time>
      </trkpt>
      <trkpt lat="47.66714" lon="6.08989">
        <ele>242.98</ele>
        <time>2018-01-24T09:22:03Z</time>
      </trkpt>
      <trkpt lat="47.66711" lon="6.08998">
        <ele>242.95</ele>
        <time>2018-01-24T09:22:05Z</time>
      </trkpt>
      <trkpt lat="47.66706" lon="6.09006">
        <ele>242.92</ele>
        <time>2018-01-24T09:22:07Z</time>
      </trkpt>
      <trkpt lat="47.66701" lon="6.09011">
        <ele>242.89</ele>
        <time>2018-01-24T09:22:09Z</time>
      </trkpt>
      <trkpt lat="47.66696" lon="6.09017">
        <ele>242.85</ele>
        <time>2018-01-24T09:22:11Z</time>
      </trkpt>
      <trkpt lat="47.6669" lon="6.09022">
        <ele>242.82</ele>
        <time>2018-01-24T09:22:13Z</time>
      </trkpt>
      <trkpt lat="47.66685" lon="6.09027">
        <ele>242.79</ele>
        <time>2018-01-24T09:22:15Z</time>
      </trkpt>
      <trkpt lat="47.66679" lon="6.09033">
        <ele>242.75</ele>
        <time>2018-01-24T09:22:17Z</time>
      </trkpt>
      <trkpt lat="47.66674" lon="6.09038">
        <ele>242.72</ele>
        <time>2018-01-24T09:22:19Z</time>
      </trkpt>
      <trkpt lat="47.66668" lon="6.09043">
        <ele>242.69</ele>
        <time>2018-01-24T09:22:21Z</time>
      </trkpt>
      <trkpt lat="47.66663" lon="6.09049">
        <ele>242.65</ele>
        <time>2018-01-24T09:22:23Z</time>
      </trkpt>
      <trkpt lat="47.66658" lon="6.09053">
        <ele>242.62</ele>
        <time>2018-01-24T09:22:25Z</time>
      </trkpt>
      <trkpt lat="47.66652" lon="6.09057">
        <ele>242.58</ele>
        <time>2018-01-24T09:22:27Z</time>
      </trkpt>
      <trkpt lat="47.66646" lon="6.09058">
        <ele>242.54</ele>
        <time>2018-01-24T09:22:29Z</time>
      </trkpt>
      <trkpt lat="47.66639" lon="6.09058">
        <ele>242.51</ele>
        <time>2018-01-24T09:22:31Z</time>
      </trkpt>
      <trkpt lat="47.66633" lon="6.09056">
        <ele>242.47</ele>
        <time>2018-01-24T09:22:33Z</time>
      </trkpt>
      <trkpt lat="47.66627" lon="6.09055">
        <ele>242.44</ele>
        <time>2018-01-24T09:22:35Z</time>
      </trkpt>
      <trkpt lat="47.66621" lon="6.09054">
        <ele>242.4</ele>
        <time>2018-01-24T09:22:37Z</time>
      </trkpt>
      <trkpt lat="47.66615" lon="6.09052">
        <ele>242.36</ele>
        <time>2018-01-24T09:22:39Z</time>
      </trkpt>
      <trkpt lat="47.66609" lon="6.0905">
        <ele>242.33</ele>
        <time>2018-01-24T09:22:41Z</time>
      </trkpt>
      <trkpt lat="47.66603" lon="6.09048">
        <ele>242.29</ele>
        <time>2018-01-24T09:22:43Z</time>
      </trkpt>
      <trkpt lat="47.66597" lon="6.09047">
        <ele>242.26</ele>
        <time>2018-01-24T09:22:45Z</time>
      </trkpt>
      <trkpt lat="47.66591" lon="6.09046">
        <ele>242.22</ele>
        <time>2018-01-24T09:22:47Z</time>
      </trkpt>
      <trkpt lat="47.66585" lon="6.09045">
        <ele>242.18</ele>
        <time>2018-01-24T09:22:49Z</time>
      </trkpt>
      <trkpt lat="47.66579" lon="6.09044">
        <ele>242.15</ele>
        <time>2018-01-24T09:22:51Z</time>
      </trkpt>
      <trkpt lat="47.66572" lon="6.09043">
        <ele>242.11</ele>
        <time>2018-01-24T09:22:53Z</time>
      </trkpt>
      <trkpt lat="47.66566" lon="6.09041">
        <ele>242.07</ele>
        <time>2018-01-24T09:22:55Z</time>
      </trkpt>
      <trkpt lat="47.66559" lon="6.09039">
        <ele>242.03</ele>
        <time>2018-01-24T09:22:57Z</time>
      </trkpt>
      <trkpt lat="47.66551" lon="6.09038">
        <ele>241.99</ele>
        <time>2018-01-24T09:22:59Z</time>
      </trkpt>
      <trkpt lat="47.66544" lon="6.09036">
        <ele>241.94</ele>
        <time>2018-01-24T09:23:01Z</time>
      </trkpt>
      <trkpt lat="47.66538" lon="6.09035">
        <ele>241.9</ele>
        <time>2018-01-24T09:23:03Z</time>
      </trkpt>
      <trkpt lat="47.66531" lon="6.09034">
        <ele>241.86</ele>
        <time>2018-01-24T09:23:05Z</time>
      </trkpt>
      <trkpt lat="47.66524" lon="6.09034">
        <ele>241.82</ele>
        <time>2018-01-24T09:23:07Z</time>
      </trkpt>
      <trkpt lat="47.66518" lon="6.09035">
        <ele>241.77</ele>
        <time>2018-01-24T09:23:09Z</time>
      </trkpt>
      <trkpt lat="47.66511" lon="6.09035">
        <ele>241.73</ele>
        <time>2018-01-24T09:23:11Z</time>
      </trkpt>
      <trkpt lat="47.66504" lon="6.09036">
        <ele>241.69</ele>
        <time>2018-01-24T09:23:13Z</time>
      </trkpt>
      <trkpt lat="47.66497" lon="6.09036">
        <ele>241.64</ele>
        <time>2018-01-24T09:23:15Z</time>
      </trkpt>
      <trkpt lat="47.66491" lon="6.09037">
        <ele>241.6</ele>
        <time>2018-01-24T09:23:17Z</time>
      </trkpt>
      <trkpt lat="47.66484" lon="6.09037">
        <ele>241.56</ele>
        <time>2018-01-24T09:23:19Z</time>
      </trkpt>
      <trkpt lat="47.66478" lon="6.09037">
        <ele>241.51</ele>
        <time>2018-01-24T09:23:21Z</time>
      </trkpt>
      <trkpt lat="47.66471" lon="6.09038">
        <ele>241.47</ele>
        <time>2018-01-24T09:23:23Z</time>
      </trkpt>
      <trkpt lat="47.66465" lon="6.09038">
        <ele>241.42</ele>
        <time>2018-01-24T09:23:25Z</time>
      </trkpt>
      <trkpt lat="47.66459" lon="6.09039">
        <ele>241.38</ele>
        <time>2018-01-24T09:23:27Z</time>
      </trkpt>
      <trkpt lat="47.66453" lon="6.09039">
        <ele>241.33</ele>
        <time>2018-01-24T09:23:29Z</time>
      </trkpt>
      <trkpt lat="47.66446" lon="6.09039">
        <ele>241.29</ele>
        <time>2018-01-24T09:23:31Z</time>
      </trkpt>
      <trkpt lat="47.6644" lon="6.0904">
        <ele>241.25</ele>
        <time>2018-01-24T09:23:33Z</time>
      </trkpt>
      <trkpt lat="47.66433" lon="6.09041">
        <ele>241.21</ele>
        <time>2018-01-24T09:23:35Z</time>
      </trkpt>
      <trkpt lat="47.66427" lon="6.09041">
        <ele>241.16</ele>
        <time>2018-01-24T09:23:37Z</time>
      </trkpt>
      <trkpt lat="47.66421" lon="6.09042">
        <ele>241.12</ele>
        <time>2018-01-24T09:23:39Z</time>
      </trkpt>
      <trkpt lat="47.66413" lon="6.09043">
        <ele>241.08</ele>
        <time>2018-01-24T09:23:41Z</time>
      </trkpt>
      <trkpt lat="47.66408" lon="6.09046">
        <ele>241.03</ele>
        <time>2018-01-24T09:23:43Z</time>
      </trkpt>
      <trkpt lat="47.66403" lon="6.09054">
        <ele>240.98</ele>
        <time>2018-01-24T09:23:45Z</time>
      </trkpt>
      <trkpt lat="47.66401" lon="6.09063">
        <ele>240.93</ele>
        <time>2018-01-24T09:23:47Z</time>
      </trkpt>
      <trkpt lat="47.66399" lon="6.09072">
        <ele>240.88</ele>
        <time>2018-01-24T09:23:49Z</time>
      </trkpt>
      <trkpt lat="47.66398" lon="6.09081">
        <ele>240.83</ele>
        <time>2018-01-24T09:23:51Z</time>
      </trkpt>
      <trkpt lat="47.66398" lon="6.0909">
        <ele>240.78</ele>
        <time>2018-01-24T09:23:53Z</time>
      </trkpt>
      <trkpt lat="47.66398" lon="6.09099">
        <ele>240.72</ele>
        <time>2018-01-24T09:23:55Z</time>
      </trkpt>
      <trkpt lat="47.66398" lon="6.09108">
        <ele>240.67</ele>
        <time>2018-01-24T09:23:57Z</time>
      </trkpt>
      <trkpt lat="47.66398" lon="6.09117">
        <ele>240.62</ele>
        <time>2018-01-24T09:23:59Z</time>
      </trkpt>
      <trkpt lat="47.66399" lon="6.09126">
        <ele>240.56</ele>
        <time>2018-01-24T09:24:01Z</time>
      </trkpt>
      <trkpt lat="47.66399" lon="6.09134">
        <ele>240.51</ele>
        <time>2018-01-24T09:24:03Z</time>
      </trkpt>
      <trkpt lat="47.664" lon="6.09142">
        <ele>240.46</ele>
        <time>2018-01-24T09:24:05Z</time>
      </trkpt>
      <trkpt lat="47.664" lon="6.09149">
        <ele>240.4</ele>
        <time>2018-01-24T09:24:07Z</time>
      </trkpt>
      <trkpt lat="47.66401" lon="6.09156">
        <ele>240.35</ele>
        <time>2018-01-24T09:24:09Z</time>
      </trkpt>
      <trkpt lat="47.66402" lon="6.09163">
        <ele>240.3</ele>
        <time>2018-01-24T09:24:11Z</time>
      </trkpt>
      <trkpt lat="47.66402" lon="6.09171">
        <ele>240.24</ele>
        <time>2018-01-24T09:24:13Z</time>
      </trkpt>
      <trkpt lat="47.66403" lon="6.09179">
        <ele>240.19</ele>
        <time>2018-01-24T09:24:15Z</time>
      </trkpt>
      <trkpt lat="47.66403" lon="6.09186">
        <ele>240.13</ele>
        <time>2018-01-24T09:24:17Z</time>
      </trkpt>
      <trkpt lat="47.66403" lon="6.09193">
        <ele>240.08</ele>
        <time>2018-01-24T09:24:19Z</time>
      </trkpt>
      <trkpt lat="47.66403" lon="6.09201">
        <ele>240.02</ele>
        <time>2018-01-24T09:24:21Z</time>
      </trkpt>
      <trkpt lat="47.66404" lon="6.09209">
        <ele>239.97</ele>
        <time>2018-01-24T09:24:23Z</time>
      </trkpt>
      <trkpt lat="47.66404" lon="6.09217">
        <ele>239.92</ele>
        <time>2018-01-24T09:24:25Z</time>
      </trkpt>
      <trkpt lat="47.66405" lon="6.09224">
        <ele>239.87</ele>
        <time>2018-01-24T09:24:27Z</time>
      </trkpt>
      <trkpt lat="47.66405" lon="6.09232">
        <ele>239.82</ele>
        <time>2018-01-24T09:24:29Z</time>
      </trkpt>
      <trkpt lat="47.66405" lon="6.09241">
        <ele>239.77</ele>
        <time>2018-01-24T09:24:31Z</time>
      </trkpt>
      <trkpt lat="47.66406" lon="6.09249">
        <ele>239.73</ele>
        <time>2018-01-24T09:24:33Z</time>
      </trkpt>
      <trkpt lat="47.66407" lon="6.09257">
        <ele>239.68</ele>
        <time>2018-01-24T09:24:35Z</time>
      </trkpt>
      <trkpt lat="47.66408" lon="6.09266">
        <ele>239.64</ele>
        <time>2018-01-24T09:24:37Z</time>
      </trkpt>
      <trkpt lat="47.66409" lon="6.09274">
        <ele>239.6</ele>
        <time>2018-01-24T09:24:39Z</time>
      </trkpt>
      <trkpt lat="47.6641" lon="6.09283">
        <ele>239.56</ele>
        <time>2018-01-24T09:24:41Z</time>
      </trkpt>
      <trkpt lat="47.66412" lon="6.09291">
        <ele>239.53</ele>
        <time>2018-01-24T09:24:43Z</time>
      </trkpt>
      <trkpt lat="47.66414" lon="6.093">
        <ele>239.49</ele>
        <time>2018-01-24T09:24:45Z</time>
      </trkpt>
      <trkpt lat="47.66416" lon="6.09307">
        <ele>239.46</ele>
        <time>2018-01-24T09:24:47Z</time>
      </trkpt>
      <trkpt lat="47.66418" lon="6.09313">
        <ele>239.43</ele>
        <time>2018-01-24T09:24:49Z</time>
      </trkpt>
      <trkpt lat="47.66421" lon="6.0932">
        <ele>239.4</ele>
        <time>2018-01-24T09:24:51Z</time>
      </trkpt>
      <trkpt lat="47.66423" lon="6.09326">
        <ele>239.38</ele>
        <time>2018-01-24T09:24:53Z</time>
      </trkpt>
      <trkpt lat="47.66425" lon="6.09333">
        <ele>239.35</ele>
        <time>2018-01-24T09:24:55Z</time>
      </trkpt>
      <trkpt lat="47.66427" lon="6.09339">
        <ele>239.33</ele>
        <time>2018-01-24T09:24:57Z</time>
      </trkpt>
      <trkpt lat="47.66429" lon="6.09348">
        <ele>239.3</ele>
        <time>2018-01-24T09:25:00Z</time>
      </trkpt>
      <trkpt lat="47.66431" lon="6.09355">
        <ele>239.29</ele>
        <time>2018-01-24T09:25:02Z</time>
      </trkpt>
      <trkpt lat="47.66433" lon="6.09362">
        <ele>239.27</ele>
        <time>2018-01-24T09:25:04Z</time>
      </trkpt>
      <trkpt lat="47.66435" lon="6.09371">
        <ele>239.25</ele>
        <time>2018-01-24T09:25:07Z</time>
      </trkpt>
      <trkpt lat="47.66437" lon="6.09379">
        <ele>239.23</ele>
        <time>2018-01-24T09:25:10Z</time>
      </trkpt>
      <trkpt lat="47.66439" lon="6.09387">
        <ele>239.22</ele>
        <time>2018-01-24T09:25:13Z</time>
      </trkpt>
      <trkpt lat="47.66441" lon="6.09394">
        <ele>239.21</ele>
        <time>2018-01-24T09:25:16Z</time>
      </trkpt>
      <trkpt lat="47.66443" lon="6.094">
        <ele>239.2</ele>
        <time>2018-01-24T09:25:20Z</time>
      </trkpt>
      <trkpt lat="47.66445" lon="6.09408">
        <ele>239.19</ele>
        <time>2018-01-24T09:25:23Z</time>
      </trkpt>
      <trkpt lat="47.66447" lon="6.09417">
        <ele>239.19</ele>
        <time>2018-01-24T09:25:26Z</time>
      </trkpt>
      <trkpt lat="47.66448" lon="6.09426">
        <ele>239.18</ele>
        <time>2018-01-24T09:25:29Z</time>
      </trkpt>
      <trkpt lat="47.66448" lon="6.09433">
        <ele>239.18</ele>
        <time>2018-01-24T09:25:31Z</time>
      </trkpt>
      <trkpt lat="47.66449" lon="6.0944">
        <ele>239.18</ele>
        <time>2018-01-24T09:25:33Z</time>
      </trkpt>
      <trkpt lat="47.66448" lon="6.09449">
        <ele>239.18</ele>
        <time>2018-01-24T09:25:36Z</time>
      </trkpt>
      <trkpt lat="47.66448" lon="6.09457">
        <ele>239.18</ele>
        <time>2018-01-24T09:25:38Z</time>
      </trkpt>
      <trkpt lat="47.66448" lon="6.09464">
        <ele>239.18</ele>
        <time>2018-01-24T09:25:40Z</time>
      </trkpt>
      <trkpt lat="47.66448" lon="6.09473">
        <ele>239.19</ele>
        <time>2018-01-24T09:25:43Z</time>
      </trkpt>
      <trkpt lat="47.66448" lon="6.0948">
        <ele>239.2</ele>
        <time>2018-01-24T09:25:46Z</time>
      </trkpt>
      <trkpt lat="47.66448" lon="6.09487">
        <ele>239.21</ele>
        <time>2018-01-24T09:25:50Z</time>
      </trkpt>
      <trkpt lat="47.66447" lon="6.09496">
        <ele>239.31</ele>
        <time>2018-01-24T09:26:22Z</time>
      </trkpt>
      <trkpt lat="47.66446" lon="6.09506">
        <ele>239.35</ele>
        <time>2018-01-24T09:26:25Z</time>
      </trkpt>
      <trkpt lat="47.66446" lon="6.09513">
        <ele>239.37</ele>
        <time>2018-01-24T09:26:27Z</time>
      </trkpt>
      <trkpt lat="47.66445" lon="6.09523">
        <ele>239.41</ele>
        <time>2018-01-24T09:26:30Z</time>
      </trkpt>
      <trkpt lat="47.66445" lon="6.09532">
        <ele>239.44</ele>
        <time>2018-01-24T09:26:32Z</time>
      </trkpt>
      <trkpt lat="47.66444" lon="6.09541">
        <ele>239.47</ele>
        <time>2018-01-24T09:26:34Z</time>
      </trkpt>
      <trkpt lat="47.66443" lon="6.09553">
        <ele>239.5</ele>
        <time>2018-01-24T09:26:36Z</time>
      </trkpt>
      <trkpt lat="47.66442" lon="6.09564">
        <ele>239.78</ele>
        <time>2018-01-24T09:26:38Z</time>
      </trkpt>
      <trkpt lat="47.6644" lon="6.09576">
        <ele>240.01</ele>
        <time>2018-01-24T09:26:40Z</time>
      </trkpt>
      <trkpt lat="47.66438" lon="6.09583">
        <ele>240.1</ele>
        <time>2018-01-24T09:26:41Z</time>
      </trkpt>
      <trkpt lat="47.66437" lon="6.0959">
        <ele>240.17</ele>
        <time>2018-01-24T09:26:42Z</time>
      </trkpt>
      <trkpt lat="47.66435" lon="6.09597">
        <ele>240.23</ele>
        <time>2018-01-24T09:26:43Z</time>
      </trkpt>
      <trkpt lat="47.66434" lon="6.09604">
        <ele>240.29</ele>
        <time>2018-01-24T09:26:44Z</time>
      </trkpt>
      <trkpt lat="47.66432" lon="6.09611">
        <ele>240.35</ele>
        <time>2018-01-24T09:26:45Z</time>
      </trkpt>
      <trkpt lat="47.66431" lon="6.09617">
        <ele>240.4</ele>
        <time>2018-01-24T09:26:46Z</time>
      </trkpt>
      <trkpt lat="47.66429" lon="6.09624">
        <ele>240.44</ele>
        <time>2018-01-24T09:26:47Z</time>
      </trkpt>
      <trkpt lat="47.66428" lon="6.09631">
        <ele>240.47</ele>
        <time>2018-01-24T09:26:48Z</time>
      </trkpt>
      <trkpt lat="47.66426" lon="6.09639">
        <ele>240.49</ele>
        <time>2018-01-24T09:26:49Z</time>
      </trkpt>
      <trkpt lat="47.66424" lon="6.09646">
        <ele>240.51</ele>
        <time>2018-01-24T09:26:50Z</time>
      </trkpt>
      <trkpt lat="47.66422" lon="6.09654">
        <ele>240.53</ele>
        <time>2018-01-24T09:26:51Z</time>
      </trkpt>
      <trkpt lat="47.66421" lon="6.09661">
        <ele>240.54</ele>
        <time>2018-01-24T09:26:52Z</time>
      </trkpt>
      <trkpt lat="47.66418" lon="6.09669">
        <ele>240.55</ele>
        <time>2018-01-24T09:26:53Z</time>
      </trkpt>
      <trkpt lat="47.66416" lon="6.09677">
        <ele>240.56</ele>
        <time>2018-01-24T09:26:54Z</time>
      </trkpt>
      <trkpt lat="47.66414" lon="6.09684">
        <ele>240.57</ele>
        <time>2018-01-24T09:26:55Z</time>
      </trkpt>
      <trkpt lat="47.66412" lon="6.09692">
        <ele>240.57</ele>
        <time>2018-01-24T09:26:56Z</time>
      </trkpt>
      <trkpt lat="47.6641" lon="6.097">
        <ele>240.56</ele>
        <time>2018-01-24T09:26:57Z</time>
      </trkpt>
      <trkpt lat="47.66408" lon="6.09708">
        <ele>240.55</ele>
        <time>2018-01-24T09:26:58Z</time>
      </trkpt>
      <trkpt lat="47.66406" lon="6.09715">
        <ele>240.54</ele>
        <time>2018-01-24T09:26:59Z</time>
      </trkpt>
      <trkpt lat="47.66404" lon="6.09723">
        <ele>240.52</ele>
        <time>2018-01-24T09:27:00Z</time>
      </trkpt>
      <trkpt lat="47.66402" lon="6.09731">
        <ele>240.5</ele>
        <time>2018-01-24T09:27:01Z</time>
      </trkpt>
      <trkpt lat="47.66402" lon="6.09739">
        <ele>240.48</ele>
        <time>2018-01-24T09:27:02Z</time>
      </trkpt>
      <trkpt lat="47.66402" lon="6.09747">
        <ele>240.46</ele>
        <time>2018-01-24T09:27:03Z</time>
      </trkpt>
      <trkpt lat="47.66403" lon="6.09754">
        <ele>240.44</ele>
        <time>2018-01-24T09:27:04Z</time>
      </trkpt>
      <trkpt lat="47.66403" lon="6.09762">
        <ele>240.43</ele>
        <time>2018-01-24T09:27:05Z</time>
      </trkpt>
      <trkpt lat="47.66403" lon="6.09774">
        <ele>240.39</ele>
        <time>2018-01-24T09:27:07Z</time>
      </trkpt>
      <trkpt lat="47.66405" lon="6.09785">
        <ele>240.38</ele>
        <time>2018-01-24T09:27:09Z</time>
      </trkpt>
      <trkpt lat="47.66406" lon="6.09794">
        <ele>240.38</ele>
        <time>2018-01-24T09:27:11Z</time>
      </trkpt>
      <trkpt lat="47.66408" lon="6.09803">
        <ele>240.38</ele>
        <time>2018-01-24T09:27:13Z</time>
      </trkpt>
      <trkpt lat="47.66411" lon="6.09813">
        <ele>240.37</ele>
        <time>2018-01-24T09:27:15Z</time>
      </trkpt>
      <trkpt lat="47.66414" lon="6.09825">
        <ele>240.34</ele>
        <time>2018-01-24T09:27:17Z</time>
      </trkpt>
      <trkpt lat="47.66418" lon="6.09836">
        <ele>240.33</ele>
        <time>2018-01-24T09:27:19Z</time>
      </trkpt>
      <trkpt lat="47.66422" lon="6.09844">
        <ele>240.33</ele>
        <time>2018-01-24T09:27:21Z</time>
      </trkpt>
      <trkpt lat="47.66426" lon="6.09852">
        <ele>240.33</ele>
        <time>2018-01-24T09:27:23Z</time>
      </trkpt>
      <trkpt lat="47.66429" lon="6.09861">
        <ele>240.32</ele>
        <time>2018-01-24T09:27:25Z</time>
      </trkpt>
      <trkpt lat="47.66432" lon="6.09868">
        <ele>240.32</ele>
        <time>2018-01-24T09:27:27Z</time>
      </trkpt>
      <trkpt lat="47.66433" lon="6.09875">
        <ele>240.32</ele>
        <time>2018-01-24T09:27:29Z</time>
      </trkpt>
      <trkpt lat="47.66434" lon="6.09883">
        <ele>240.32</ele>
        <time>2018-01-24T09:27:31Z</time>
      </trkpt>
      <trkpt lat="47.66435" lon="6.09891">
        <ele>240.32</ele>
        <time>2018-01-24T09:27:33Z</time>
      </trkpt>
      <trkpt lat="47.66436" lon="6.09898">
        <ele>240.31</ele>
        <time>2018-01-24T09:27:35Z</time>
      </trkpt>
      <trkpt lat="47.66436" lon="6.09905">
        <ele>240.31</ele>
        <time>2018-01-24T09:27:37Z</time>
      </trkpt>
      <trkpt lat="47.66436" lon="6.09912">
        <ele>240.31</ele>
        <time>2018-01-24T09:27:39Z</time>
      </trkpt>
      <trkpt lat="47.66437" lon="6.09919">
        <ele>240.31</ele>
        <time>2018-01-24T09:27:41Z</time>
      </trkpt>
      <trkpt lat="47.66437" lon="6.09926">
        <ele>240.31</ele>
        <time>2018-01-24T09:27:43Z</time>
      </trkpt>
      <trkpt lat="47.66437" lon="6.09933">
        <ele>240.31</ele>
        <time>2018-01-24T09:27:45Z</time>
      </trkpt>
      <trkpt lat="47.66437" lon="6.0994">
        <ele>240.31</ele>
        <time>2018-01-24T09:27:47Z</time>
      </trkpt>
      <trkpt lat="47.66439" lon="6.09949">
        <ele>240.31</ele>
        <time>2018-01-24T09:27:50Z</time>
      </trkpt>
      <trkpt lat="47.66441" lon="6.09959">
        <ele>240.32</ele>
        <time>2018-01-24T09:27:53Z</time>
      </trkpt>
      <trkpt lat="47.66442" lon="6.09969">
        <ele>240.32</ele>
        <time>2018-01-24T09:27:56Z</time>
      </trkpt>
      <trkpt lat="47.66442" lon="6.09976">
        <ele>240.32</ele>
        <time>2018-01-24T09:27:58Z</time>
      </trkpt>
      <trkpt lat="47.66442" lon="6.09985">
        <ele>240.32</ele>
        <time>2018-01-24T09:28:01Z</time>
      </trkpt>
      <trkpt lat="47.66442" lon="6.09994">
        <ele>240.33</ele>
        <time>2018-01-24T09:28:04Z</time>
      </trkpt>
      <trkpt lat="47.66442" lon="6.10004">
        <ele>240.33</ele>
        <time>2018-01-24T09:28:07Z</time>
      </trkpt>
      <trkpt lat="47.66442" lon="6.10014">
        <ele>240.34</ele>
        <time>2018-01-24T09:28:10Z</time>
      </trkpt>
      <trkpt lat="47.66441" lon="6.10023">
        <ele>240.35</ele>
        <time>2018-01-24T09:28:13Z</time>
      </trkpt>
      <trkpt lat="47.6644" lon="6.10032">
        <ele>240.36</ele>
        <time>2018-01-24T09:28:16Z</time>
      </trkpt>
      <trkpt lat="47.6644" lon="6.10039">
        <ele>240.37</ele>
        <time>2018-01-24T09:28:18Z</time>
      </trkpt>
      <trkpt lat="47.66438" lon="6.10049">
        <ele>240.38</ele>
        <time>2018-01-24T09:28:21Z</time>
      </trkpt>
      <trkpt lat="47.66437" lon="6.10056">
        <ele>240.39</ele>
        <time>2018-01-24T09:28:23Z</time>
      </trkpt>
      <trkpt lat="47.66436" lon="6.10062">
        <ele>240.4</ele>
        <time>2018-01-24T09:28:25Z</time>
      </trkpt>
      <trkpt lat="47.66434" lon="6.10069">
        <ele>240.41</ele>
        <time>2018-01-24T09:28:27Z</time>
      </trkpt>
      <trkpt lat="47.66432" lon="6.10079">
        <ele>240.43</ele>
        <time>2018-01-24T09:28:30Z</time>
      </trkpt>
      <trkpt lat="47.66431" lon="6.10086">
        <ele>240.44</ele>
        <time>2018-01-24T09:28:32Z</time>
      </trkpt>
      <trkpt lat="47.6643" lon="6.10093">
        <ele>240.46</ele>
        <time>2018-01-24T09:28:34Z</time>
      </trkpt>
      <trkpt lat="47.66428" lon="6.101">
        <ele>240.47</ele>
        <time>2018-01-24T09:28:36Z</time>
      </trkpt>
      <trkpt lat="47.66427" lon="6.10107">
        <ele>240.49</ele>
        <time>2018-01-24T09:28:38Z</time>
      </trkpt>
      <trkpt lat="47.66425" lon="6.10113">
        <ele>240.5</ele>
        <time>2018-01-24T09:28:40Z</time>
      </trkpt>
      <trkpt lat="47.66424" lon="6.10119">
        <ele>240.52</ele>
        <time>2018-01-24T09:28:42Z</time>
      </trkpt>
      <trkpt lat="47.66422" lon="6.10126">
        <ele>240.53</ele>
        <time>2018-01-24T09:28:44Z</time>
      </trkpt>
      <trkpt lat="47.66419" lon="6.10132">
        <ele>240.55</ele>
        <time>2018-01-24T09:28:46Z</time>
      </trkpt>
      <trkpt lat="47.66417" lon="6.10138">
        <ele>240.56</ele>
        <time>2018-01-24T09:28:48Z</time>
      </trkpt>
      <trkpt lat="47.66414" lon="6.10145">
        <ele>240.58</ele>
        <time>2018-01-24T09:28:50Z</time>
      </trkpt>
      <trkpt lat="47.66412" lon="6.10151">
        <ele>240.59</ele>
        <time>2018-01-24T09:28:52Z</time>
      </trkpt>
      <trkpt lat="47.6641" lon="6.10158">
        <ele>240.61</ele>
        <time>2018-01-24T09:28:54Z</time>
      </trkpt>
      <trkpt lat="47.66408" lon="6.10164">
        <ele>240.62</ele>
        <time>2018-01-24T09:28:56Z</time>
      </trkpt>
      <trkpt lat="47.66406" lon="6.10171">
        <ele>240.64</ele>
        <time>2018-01-24T09:28:58Z</time>
      </trkpt>
      <trkpt lat="47.66404" lon="6.10178">
        <ele>240.65</ele>
        <time>2018-01-24T09:29:00Z</time>
      </trkpt>
      <trkpt lat="47.66403" lon="6.10186">
        <ele>240.67</ele>
        <time>2018-01-24T09:29:02Z</time>
      </trkpt>
      <trkpt lat="47.66402" lon="6.10192">
        <ele>240.68</ele>
        <time>2018-01-24T09:29:04Z</time>
      </trkpt>
      <trkpt lat="47.66401" lon="6.10199">
        <ele>240.7</ele>
        <time>2018-01-24T09:29:06Z</time>
      </trkpt>
      <trkpt lat="47.66401" lon="6.10208">
        <ele>240.71</ele>
        <time>2018-01-24T09:29:08Z</time>
      </trkpt>
      <trkpt lat="47.664" lon="6.10215">
        <ele>240.73</ele>
        <time>2018-01-24T09:29:10Z</time>
      </trkpt>
      <trkpt lat="47.66398" lon="6.10223">
        <ele>240.75</ele>
        <time>2018-01-24T09:29:13Z</time>
      </trkpt>
      <trkpt lat="47.66395" lon="6.10229">
        <ele>240.78</ele>
        <time>2018-01-24T09:29:16Z</time>
      </trkpt>
      <trkpt lat="47.66392" lon="6.10235">
        <ele>240.8</ele>
        <time>2018-01-24T09:29:18Z</time>
      </trkpt>
      <trkpt lat="47.66389" lon="6.10241">
        <ele>240.83</ele>
        <time>2018-01-24T09:29:21Z</time>
      </trkpt>
      <trkpt lat="47.66383" lon="6.10245">
        <ele>240.86</ele>
        <time>2018-01-24T09:29:24Z</time>
      </trkpt>
      <trkpt lat="47.66377" lon="6.10249">
        <ele>240.89</ele>
        <time>2018-01-24T09:29:27Z</time>
      </trkpt>
      <trkpt lat="47.66373" lon="6.10251">
        <ele>240.91</ele>
        <time>2018-01-24T09:29:29Z</time>
      </trkpt>
      <trkpt lat="47.66369" lon="6.10254">
        <ele>240.93</ele>
        <time>2018-01-24T09:29:31Z</time>
      </trkpt>
      <trkpt lat="47.66364" lon="6.10257">
        <ele>240.96</ele>
        <time>2018-01-24T09:29:33Z</time>
      </trkpt>
      <trkpt lat="47.66359" lon="6.10259">
        <ele>240.99</ele>
        <time>2018-01-24T09:29:35Z</time>
      </trkpt>
      <trkpt lat="47.66354" lon="6.10262">
        <ele>241.01</ele>
        <time>2018-01-24T09:29:37Z</time>
      </trkpt>
      <trkpt lat="47.6635" lon="6.10264">
        <ele>241.04</ele>
        <time>2018-01-24T09:29:39Z</time>
      </trkpt>
      <trkpt lat="47.66345" lon="6.10268">
        <ele>241.07</ele>
        <time>2018-01-24T09:29:41Z</time>
      </trkpt>
      <trkpt lat="47.6634" lon="6.10271">
        <ele>241.11</ele>
        <time>2018-01-24T09:29:43Z</time>
      </trkpt>
      <trkpt lat="47.66336" lon="6.10274">
        <ele>241.14</ele>
        <time>2018-01-24T09:29:45Z</time>
      </trkpt>
      <trkpt lat="47.66331" lon="6.10278">
        <ele>241.18</ele>
        <time>2018-01-24T09:29:47Z</time>
      </trkpt>
      <trkpt lat="47.66326" lon="6.10282">
        <ele>241.21</ele>
        <time>2018-01-24T09:29:49Z</time>
      </trkpt>
      <trkpt lat="47.6632" lon="6.10286">
        <ele>241.26</ele>
        <time>2018-01-24T09:29:51Z</time>
      </trkpt>
      <trkpt lat="47.66314" lon="6.1029">
        <ele>241.3</ele>
        <time>2018-01-24T09:29:53Z</time>
      </trkpt>
      <trkpt lat="47.66309" lon="6.10294">
        <ele>241.34</ele>
        <time>2018-01-24T09:29:55Z</time>
      </trkpt>
      <trkpt lat="47.66304" lon="6.10298">
        <ele>241.39</ele>
        <time>2018-01-24T09:29:57Z</time>
      </trkpt>
      <trkpt lat="47.66298" lon="6.10302">
        <ele>241.44</ele>
        <time>2018-01-24T09:29:59Z</time>
      </trkpt>
      <trkpt lat="47.66292" lon="6.10307">
        <ele>241.49</ele>
        <time>2018-01-24T09:30:01Z</time>
      </trkpt>
      <trkpt lat="47.66286" lon="6.10311">
        <ele>241.55</ele>
        <time>2018-01-24T09:30:03Z</time>
      </trkpt>
      <trkpt lat="47.6628" lon="6.10315">
        <ele>241.6</ele>
        <time>2018-01-24T09:30:05Z</time>
      </trkpt>
      <trkpt lat="47.66275" lon="6.1032">
        <ele>241.66</ele>
        <time>2018-01-24T09:30:07Z</time>
      </trkpt>
      <trkpt lat="47.66269" lon="6.10324">
        <ele>241.71</ele>
        <time>2018-01-24T09:30:09Z</time>
      </trkpt>
      <trkpt lat="47.66263" lon="6.10329">
        <ele>241.77</ele>
        <time>2018-01-24T09:30:11Z</time>
      </trkpt>
      <trkpt lat="47.66258" lon="6.10334">
        <ele>241.82</ele>
        <time>2018-01-24T09:30:13Z</time>
      </trkpt>
      <trkpt lat="47.66253" lon="6.10338">
        <ele>241.87</ele>
        <time>2018-01-24T09:30:15Z</time>
      </trkpt>
      <trkpt lat="47.66248" lon="6.10342">
        <ele>241.93</ele>
        <time>2018-01-24T09:30:17Z</time>
      </trkpt>
      <trkpt lat="47.66242" lon="6.10347">
        <ele>241.98</ele>
        <time>2018-01-24T09:30:19Z</time>
      </trkpt>
      <trkpt lat="47.66237" lon="6.10351">
        <ele>242.03</ele>
        <time>2018-01-24T09:30:21Z</time>
      </trkpt>
      <trkpt lat="47.66232" lon="6.10356">
        <ele>242.09</ele>
        <time>2018-01-24T09:30:23Z</time>
      </trkpt>
      <trkpt lat="47.66227" lon="6.1036">
        <ele>242.14</ele>
        <time>2018-01-24T09:30:25Z</time>
      </trkpt>
      <trkpt lat="47.66222" lon="6.10365">
        <ele>242.19</ele>
        <time>2018-01-24T09:30:27Z</time>
      </trkpt>
      <trkpt lat="47.66217" lon="6.10369">
        <ele>242.25</ele>
        <time>2018-01-24T09:30:29Z</time>
      </trkpt>
      <trkpt lat="47.66211" lon="6.10375">
        <ele>242.3</ele>
        <time>2018-01-24T09:30:31Z</time>
      </trkpt>
      <trkpt lat="47.66205" lon="6.10378">
        <ele>242.36</ele>
        <time>2018-01-24T09:30:33Z</time>
      </trkpt>
      <trkpt lat="47.66199" lon="6.10381">
        <ele>242.42</ele>
        <time>2018-01-24T09:30:35Z</time>
      </trkpt>
      <trkpt lat="47.66193" lon="6.10382">
        <ele>242.48</ele>
        <time>2018-01-24T09:30:37Z</time>
      </trkpt>
      <trkpt lat="47.66187" lon="6.10383">
        <ele>242.54</ele>
        <time>2018-01-24T09:30:39Z</time>
      </trkpt>
      <trkpt lat="47.66181" lon="6.10384">
        <ele>242.6</ele>
        <time>2018-01-24T09:30:41Z</time>
      </trkpt>
      <trkpt lat="47.66176" lon="6.10383">
        <ele>242.67</ele>
        <time>2018-01-24T09:30:43Z</time>
      </trkpt>
      <trkpt lat="47.66171" lon="6.10384">
        <ele>242.73</ele>
        <time>2018-01-24T09:30:45Z</time>
      </trkpt>
      <trkpt lat="47.66166" lon="6.10385">
        <ele>242.79</ele>
        <time>2018-01-24T09:30:47Z</time>
      </trkpt>
      <trkpt lat="47.6616" lon="6.10389">
        <ele>242.9</ele>
        <time>2018-01-24T09:30:50Z</time>
      </trkpt>
      <trkpt lat="47.66154" lon="6.10391">
        <ele>243</ele>
        <time>2018-01-24T09:30:53Z</time>
      </trkpt>
      <trkpt lat="47.66149" lon="6.10394">
        <ele>243.08</ele>
        <time>2018-01-24T09:30:55Z</time>
      </trkpt>
      <trkpt lat="47.66144" lon="6.10397">
        <ele>243.15</ele>
        <time>2018-01-24T09:30:57Z</time>
      </trkpt>
      <trkpt lat="47.66139" lon="6.10402">
        <ele>243.23</ele>
        <time>2018-01-24T09:30:59Z</time>
      </trkpt>
      <trkpt lat="47.66132" lon="6.10405">
        <ele>243.56</ele>
        <time>2018-01-24T09:31:01Z</time>
      </trkpt>
      <trkpt lat="47.66124" lon="6.10409">
        <ele>244.17</ele>
        <time>2018-01-24T09:31:03Z</time>
      </trkpt>
      <trkpt lat="47.66116" lon="6.1041">
        <ele>244.32</ele>
        <time>2018-01-24T09:31:05Z</time>
      </trkpt>
      <trkpt lat="47.6611" lon="6.10406">
        <ele>244.38</ele>
        <time>2018-01-24T09:31:07Z</time>
      </trkpt>
      <trkpt lat="47.66106" lon="6.10398">
        <ele>244.43</ele>
        <time>2018-01-24T09:31:09Z</time>
      </trkpt>
      <trkpt lat="47.66102" lon="6.10391">
        <ele>244.48</ele>
        <time>2018-01-24T09:31:11Z</time>
      </trkpt>
      <trkpt lat="47.66098" lon="6.10383">
        <ele>244.54</ele>
        <time>2018-01-24T09:31:13Z</time>
      </trkpt>
      <trkpt lat="47.66094" lon="6.10378">
        <ele>244.6</ele>
        <time>2018-01-24T09:31:15Z</time>
      </trkpt>
      <trkpt lat="47.66091" lon="6.10373">
        <ele>244.66</ele>
        <time>2018-01-24T09:31:17Z</time>
      </trkpt>
      <trkpt lat="47.66086" lon="6.10369">
        <ele>244.72</ele>
        <time>2018-01-24T09:31:19Z</time>
      </trkpt>
      <trkpt lat="47.66081" lon="6.10368">
        <ele>244.78</ele>
        <time>2018-01-24T09:31:21Z</time>
      </trkpt>
      <trkpt lat="47.66076" lon="6.10368">
        <ele>244.85</ele>
        <time>2018-01-24T09:31:23Z</time>
      </trkpt>
      <trkpt lat="47.66071" lon="6.10365">
        <ele>244.95</ele>
        <time>2018-01-24T09:31:26Z</time>
      </trkpt>
      <trkpt lat="47.66067" lon="6.10361">
        <ele>245.02</ele>
        <time>2018-01-24T09:31:28Z</time>
      </trkpt>
      <trkpt lat="47.66064" lon="6.10354">
        <ele>245.09</ele>
        <time>2018-01-24T09:31:30Z</time>
      </trkpt>
      <trkpt lat="47.6606" lon="6.10347">
        <ele>245.16</ele>
        <time>2018-01-24T09:31:32Z</time>
      </trkpt>
      <trkpt lat="47.66056" lon="6.10341">
        <ele>245.23</ele>
        <time>2018-01-24T09:31:34Z</time>
      </trkpt>
      <trkpt lat="47.66052" lon="6.10335">
        <ele>245.31</ele>
        <time>2018-01-24T09:31:36Z</time>
      </trkpt>
      <trkpt lat="47.66048" lon="6.1033">
        <ele>245.38</ele>
        <time>2018-01-24T09:31:38Z</time>
      </trkpt>
      <trkpt lat="47.66043" lon="6.10326">
        <ele>245.46</ele>
        <time>2018-01-24T09:31:40Z</time>
      </trkpt>
      <trkpt lat="47.66038" lon="6.10321">
        <ele>245.53</ele>
        <time>2018-01-24T09:31:42Z</time>
      </trkpt>
      <trkpt lat="47.66032" lon="6.10316">
        <ele>245.6</ele>
        <time>2018-01-24T09:31:44Z</time>
      </trkpt>
      <trkpt lat="47.66026" lon="6.10312">
        <ele>245.67</ele>
        <time>2018-01-24T09:31:46Z</time>
      </trkpt>
      <trkpt lat="47.6602" lon="6.1031">
        <ele>245.75</ele>
        <time>2018-01-24T09:31:48Z</time>
      </trkpt>
      <trkpt lat="47.66015" lon="6.10308">
        <ele>245.82</ele>
        <time>2018-01-24T09:31:50Z</time>
      </trkpt>
      <trkpt lat="47.66009" lon="6.10305">
        <ele>245.89</ele>
        <time>2018-01-24T09:31:52Z</time>
      </trkpt>
      <trkpt lat="47.66004" lon="6.10302">
        <ele>245.97</ele>
        <time>2018-01-24T09:31:54Z</time>
      </trkpt>
      <trkpt lat="47.65998" lon="6.10299">
        <ele>246.04</ele>
        <time>2018-01-24T09:31:56Z</time>
      </trkpt>
      <trkpt lat="47.65992" lon="6.10296">
        <ele>246.11</ele>
        <time>2018-01-24T09:31:58Z</time>
      </trkpt>
      <trkpt lat="47.65986" lon="6.10293">
        <ele>246.19</ele>
        <time>2018-01-24T09:32:00Z</time>
      </trkpt>
      <trkpt lat="47.6598" lon="6.10291">
        <ele>246.26</ele>
        <time>2018-01-24T09:32:02Z</time>
      </trkpt>
      <trkpt lat="47.65973" lon="6.10289">
        <ele>246.34</ele>
        <time>2018-01-24T09:32:04Z</time>
      </trkpt>
      <trkpt lat="47.65966" lon="6.10287">
        <ele>246.42</ele>
        <time>2018-01-24T09:32:06Z</time>
      </trkpt>
      <trkpt lat="47.6596" lon="6.10285">
        <ele>246.49</ele>
        <time>2018-01-24T09:32:08Z</time>
      </trkpt>
      <trkpt lat="47.65953" lon="6.10284">
        <ele>246.57</ele>
        <time>2018-01-24T09:32:10Z</time>
      </trkpt>
      <trkpt lat="47.65946" lon="6.10284">
        <ele>246.65</ele>
        <time>2018-01-24T09:32:12Z</time>
      </trkpt>
      <trkpt lat="47.65938" lon="6.10287">
        <ele>247.05</ele>
        <time>2018-01-24T09:32:14Z</time>
      </trkpt>
      <trkpt lat="47.65931" lon="6.10292">
        <ele>247.15</ele>
        <time>2018-01-24T09:32:16Z</time>
      </trkpt>
      <trkpt lat="47.65925" lon="6.10295">
        <ele>247.22</ele>
        <time>2018-01-24T09:32:18Z</time>
      </trkpt>
      <trkpt lat="47.65918" lon="6.10299">
        <ele>247.72</ele>
        <time>2018-01-24T09:32:20Z</time>
      </trkpt>
      <trkpt lat="47.6591" lon="6.10304">
        <ele>248.16</ele>
        <time>2018-01-24T09:32:22Z</time>
      </trkpt>
      <trkpt lat="47.65902" lon="6.10307">
        <ele>248.49</ele>
        <time>2018-01-24T09:32:24Z</time>
      </trkpt>
      <trkpt lat="47.65895" lon="6.10311">
        <ele>248.56</ele>
        <time>2018-01-24T09:32:26Z</time>
      </trkpt>
      <trkpt lat="47.6589" lon="6.10314">
        <ele>248.59</ele>
        <time>2018-01-24T09:32:28Z</time>
      </trkpt>
      <trkpt lat="47.65887" lon="6.10318">
        <ele>248.62</ele>
        <time>2018-01-24T09:32:30Z</time>
      </trkpt>
      <trkpt lat="47.65881" lon="6.10315">
        <ele>248.67</ele>
        <time>2018-01-24T09:32:33Z</time>
      </trkpt>
      <trkpt lat="47.65878" lon="6.10308">
        <ele>248.71</ele>
        <time>2018-01-24T09:32:36Z</time>
      </trkpt>
      <trkpt lat="47.65873" lon="6.10301">
        <ele>248.77</ele>
        <time>2018-01-24T09:32:39Z</time>
      </trkpt>
      <trkpt lat="47.6587" lon="6.10295">
        <ele>248.8</ele>
        <time>2018-01-24T09:32:41Z</time>
      </trkpt>
      <trkpt lat="47.65867" lon="6.10288">
        <ele>248.83</ele>
        <time>2018-01-24T09:32:43Z</time>
      </trkpt>
      <trkpt lat="47.65863" lon="6.10281">
        <ele>248.87</ele>
        <time>2018-01-24T09:32:45Z</time>
      </trkpt>
      <trkpt lat="47.6586" lon="6.10274">
        <ele>248.9</ele>
        <time>2018-01-24T09:32:47Z</time>
      </trkpt>
      <trkpt lat="47.65856" lon="6.10267">
        <ele>248.93</ele>
        <time>2018-01-24T09:32:49Z</time>
      </trkpt>
      <trkpt lat="47.65852" lon="6.1026">
        <ele>248.97</ele>
        <time>2018-01-24T09:32:51Z</time>
      </trkpt>
      <trkpt lat="47.65846" lon="6.10253">
        <ele>249</ele>
        <time>2018-01-24T09:32:53Z</time>
      </trkpt>
      <trkpt lat="47.65841" lon="6.10246">
        <ele>249.15</ele>
        <time>2018-01-24T09:32:55Z</time>
      </trkpt>
      <trkpt lat="47.65837" lon="6.10241">
        <ele>249.29</ele>
        <time>2018-01-24T09:32:56Z</time>
      </trkpt>
      <trkpt lat="47.6583" lon="6.10234">
        <ele>249.55</ele>
        <time>2018-01-24T09:32:58Z</time>
      </trkpt>
      <trkpt lat="47.65824" lon="6.10227">
        <ele>249.75</ele>
        <time>2018-01-24T09:33:00Z</time>
      </trkpt>
      <trkpt lat="47.65817" lon="6.10219">
        <ele>249.91</ele>
        <time>2018-01-24T09:33:02Z</time>
      </trkpt>
      <trkpt lat="47.65811" lon="6.10212">
        <ele>249.99</ele>
        <time>2018-01-24T09:33:04Z</time>
      </trkpt>
      <trkpt lat="47.65806" lon="6.10207">
        <ele>250.01</ele>
        <time>2018-01-24T09:33:06Z</time>
      </trkpt>
      <trkpt lat="47.658" lon="6.10201">
        <ele>250.03</ele>
        <time>2018-01-24T09:33:08Z</time>
      </trkpt>
      <trkpt lat="47.65794" lon="6.10194">
        <ele>250.04</ele>
        <time>2018-01-24T09:33:10Z</time>
      </trkpt>
      <trkpt lat="47.65788" lon="6.10189">
        <ele>250.06</ele>
        <time>2018-01-24T09:33:12Z</time>
      </trkpt>
      <trkpt lat="47.65783" lon="6.10183">
        <ele>250.07</ele>
        <time>2018-01-24T09:33:14Z</time>
      </trkpt>
      <trkpt lat="47.65777" lon="6.10178">
        <ele>250.09</ele>
        <time>2018-01-24T09:33:16Z</time>
      </trkpt>
      <trkpt lat="47.65771" lon="6.10173">
        <ele>250.11</ele>
        <time>2018-01-24T09:33:18Z</time>
      </trkpt>
      <trkpt lat="47.65765" lon="6.10168">
        <ele>250.13</ele>
        <time>2018-01-24T09:33:20Z</time>
      </trkpt>
      <trkpt lat="47.65758" lon="6.10164">
        <ele>250.15</ele>
        <time>2018-01-24T09:33:22Z</time>
      </trkpt>
      <trkpt lat="47.65753" lon="6.10159">
        <ele>250.17</ele>
        <time>2018-01-24T09:33:24Z</time>
      </trkpt>
      <trkpt lat="47.65748" lon="6.10154">
        <ele>250.19</ele>
        <time>2018-01-24T09:33:26Z</time>
      </trkpt>
      <trkpt lat="47.65743" lon="6.10148">
        <ele>250.21</ele>
        <time>2018-01-24T09:33:28Z</time>
      </trkpt>
      <trkpt lat="47.65738" lon="6.10142">
        <ele>250.23</ele>
        <time>2018-01-24T09:33:30Z</time>
      </trkpt>
      <trkpt lat="47.65735" lon="6.10135">
        <ele>250.25</ele>
        <time>2018-01-24T09:33:32Z</time>
      </trkpt>
      <trkpt lat="47.65731" lon="6.10126">
        <ele>250.28</ele>
        <time>2018-01-24T09:33:34Z</time>
      </trkpt>
      <trkpt lat="47.65727" lon="6.10119">
        <ele>250.3</ele>
        <time>2018-01-24T09:33:36Z</time>
      </trkpt>
      <trkpt lat="47.65722" lon="6.10112">
        <ele>250.32</ele>
        <time>2018-01-24T09:33:38Z</time>
      </trkpt>
      <trkpt lat="47.65718" lon="6.10104">
        <ele>250.34</ele>
        <time>2018-01-24T09:33:40Z</time>
      </trkpt>
      <trkpt lat="47.65715" lon="6.10097">
        <ele>250.36</ele>
        <time>2018-01-24T09:33:42Z</time>
      </trkpt>
      <trkpt lat="47.65712" lon="6.10091">
        <ele>250.38</ele>
        <time>2018-01-24T09:33:44Z</time>
      </trkpt>
      <trkpt lat="47.65709" lon="6.10085">
        <ele>250.4</ele>
        <time>2018-01-24T09:33:46Z</time>
      </trkpt>
      <trkpt lat="47.65705" lon="6.10079">
        <ele>250.43</ele>
        <time>2018-01-24T09:33:49Z</time>
      </trkpt>
      <trkpt lat="47.65702" lon="6.10072">
        <ele>250.46</ele>
        <time>2018-01-24T09:33:52Z</time>
      </trkpt>
      <trkpt lat="47.65697" lon="6.10065">
        <ele>250.49</ele>
        <time>2018-01-24T09:33:55Z</time>
      </trkpt>
      <trkpt lat="47.65695" lon="6.10059">
        <ele>250.51</ele>
        <time>2018-01-24T09:33:57Z</time>
      </trkpt>
      <trkpt lat="47.6569" lon="6.10052">
        <ele>250.54</ele>
        <time>2018-01-24T09:34:00Z</time>
      </trkpt>
      <trkpt lat="47.65686" lon="6.10047">
        <ele>250.56</ele>
        <time>2018-01-24T09:34:02Z</time>
      </trkpt>
      <trkpt lat="47.65681" lon="6.10044">
        <ele>250.58</ele>
        <time>2018-01-24T09:34:04Z</time>
      </trkpt>
      <trkpt lat="47.65677" lon="6.1004">
        <ele>250.61</ele>
        <time>2018-01-24T09:34:06Z</time>
      </trkpt>
      <trkpt lat="47.65672" lon="6.10035">
        <ele>250.63</ele>
        <time>2018-01-24T09:34:08Z</time>
      </trkpt>
      <trkpt lat="47.65667" lon="6.10031">
        <ele>250.65</ele>
        <time>2018-01-24T09:34:10Z</time>
      </trkpt>
      <trkpt lat="47.65662" lon="6.10028">
        <ele>250.68</ele>
        <time>2018-01-24T09:34:12Z</time>
      </trkpt>
      <trkpt lat="47.65656" lon="6.10024">
        <ele>250.7</ele>
        <time>2018-01-24T09:34:14Z</time>
      </trkpt>
      <trkpt lat="47.6565" lon="6.10019">
        <ele>250.72</ele>
        <time>2018-01-24T09:34:16Z</time>
      </trkpt>
      <trkpt lat="47.65644" lon="6.10014">
        <ele>250.75</ele>
        <time>2018-01-24T09:34:18Z</time>
      </trkpt>
      <trkpt lat="47.65638" lon="6.1001">
        <ele>250.77</ele>
        <time>2018-01-24T09:34:20Z</time>
      </trkpt>
      <trkpt lat="47.65632" lon="6.10004">
        <ele>250.79</ele>
        <time>2018-01-24T09:34:22Z</time>
      </trkpt>
      <trkpt lat="47.65625" lon="6.09999">
        <ele>250.94</ele>
        <time>2018-01-24T09:34:24Z</time>
      </trkpt>
      <trkpt lat="47.65621" lon="6.09996">
        <ele>251.01</ele>
        <time>2018-01-24T09:34:25Z</time>
      </trkpt>
      <trkpt lat="47.65616" lon="6.09993">
        <ele>251.07</ele>
        <time>2018-01-24T09:34:26Z</time>
      </trkpt>
      <trkpt lat="47.65611" lon="6.0999">
        <ele>251.11</ele>
        <time>2018-01-24T09:34:27Z</time>
      </trkpt>
      <trkpt lat="47.65607" lon="6.09987">
        <ele>251.15</ele>
        <time>2018-01-24T09:34:28Z</time>
      </trkpt>
      <trkpt lat="47.65603" lon="6.09985">
        <ele>251.18</ele>
        <time>2018-01-24T09:34:29Z</time>
      </trkpt>
      <trkpt lat="47.65595" lon="6.0998">
        <ele>251.23</ele>
        <time>2018-01-24T09:34:31Z</time>
      </trkpt>
      <trkpt lat="47.65587" lon="6.09976">
        <ele>251.26</ele>
        <time>2018-01-24T09:34:33Z</time>
      </trkpt>
      <trkpt lat="47.65583" lon="6.09974">
        <ele>251.27</ele>
        <time>2018-01-24T09:34:34Z</time>
      </trkpt>
      <trkpt lat="47.65574" lon="6.09972">
        <ele>251.3</ele>
        <time>2018-01-24T09:34:36Z</time>
      </trkpt>
      <trkpt lat="47.65569" lon="6.09971">
        <ele>251.32</ele>
        <time>2018-01-24T09:34:37Z</time>
      </trkpt>
      <trkpt lat="47.65564" lon="6.0997">
        <ele>251.33</ele>
        <time>2018-01-24T09:34:38Z</time>
      </trkpt>
      <trkpt lat="47.65559" lon="6.09969">
        <ele>251.34</ele>
        <time>2018-01-24T09:34:39Z</time>
      </trkpt>
      <trkpt lat="47.65554" lon="6.09969">
        <ele>251.36</ele>
        <time>2018-01-24T09:34:40Z</time>
      </trkpt>
      <trkpt lat="47.65549" lon="6.09969">
        <ele>251.37</ele>
        <time>2018-01-24T09:34:41Z</time>
      </trkpt>
      <trkpt lat="47.65544" lon="6.09968">
        <ele>251.38</ele>
        <time>2018-01-24T09:34:42Z</time>
      </trkpt>
      <trkpt lat="47.65539" lon="6.09968">
        <ele>251.39</ele>
        <time>2018-01-24T09:34:43Z</time>
      </trkpt>
      <trkpt lat="47.65534" lon="6.09969">
        <ele>251.4</ele>
        <time>2018-01-24T09:34:44Z</time>
      </trkpt>
      <trkpt lat="47.65527" lon="6.09969">
        <ele>251.4</ele>
        <time>2018-01-24T09:34:45Z</time>
      </trkpt>
      <trkpt lat="47.6552" lon="6.0997">
        <ele>251.4</ele>
        <time>2018-01-24T09:34:46Z</time>
      </trkpt>
      <trkpt lat="47.65513" lon="6.0997">
        <ele>251.4</ele>
        <time>2018-01-24T09:34:47Z</time>
      </trkpt>
      <trkpt lat="47.65507" lon="6.0997">
        <ele>251.39</ele>
        <time>2018-01-24T09:34:48Z</time>
      </trkpt>
      <trkpt lat="47.655" lon="6.0997">
        <ele>251.37</ele>
        <time>2018-01-24T09:34:49Z</time>
      </trkpt>
      <trkpt lat="47.65493" lon="6.0997">
        <ele>251.36</ele>
        <time>2018-01-24T09:34:50Z</time>
      </trkpt>
      <trkpt lat="47.65487" lon="6.09971">
        <ele>251.34</ele>
        <time>2018-01-24T09:34:51Z</time>
      </trkpt>
      <trkpt lat="47.6548" lon="6.09971">
        <ele>251.32</ele>
        <time>2018-01-24T09:34:52Z</time>
      </trkpt>
      <trkpt lat="47.65474" lon="6.09972">
        <ele>251.29</ele>
        <time>2018-01-24T09:34:53Z</time>
      </trkpt>
      <trkpt lat="47.65468" lon="6.09972">
        <ele>251.24</ele>
        <time>2018-01-24T09:34:54Z</time>
      </trkpt>
      <trkpt lat="47.65461" lon="6.09973">
        <ele>251.19</ele>
        <time>2018-01-24T09:34:55Z</time>
      </trkpt>
      <trkpt lat="47.65455" lon="6.09973">
        <ele>251.13</ele>
        <time>2018-01-24T09:34:56Z</time>
      </trkpt>
      <trkpt lat="47.65449" lon="6.09974">
        <ele>251.09</ele>
        <time>2018-01-24T09:34:57Z</time>
      </trkpt>
      <trkpt lat="47.65443" lon="6.09975">
        <ele>251.07</ele>
        <time>2018-01-24T09:34:58Z</time>
      </trkpt>
      <trkpt lat="47.65436" lon="6.09977">
        <ele>251.07</ele>
        <time>2018-01-24T09:34:59Z</time>
      </trkpt>
      <trkpt lat="47.6543" lon="6.09978">
        <ele>251.06</ele>
        <time>2018-01-24T09:35:00Z</time>
      </trkpt>
      <trkpt lat="47.65424" lon="6.09977">
        <ele>251.03</ele>
        <time>2018-01-24T09:35:01Z</time>
      </trkpt>
      <trkpt lat="47.65418" lon="6.09977">
        <ele>250.94</ele>
        <time>2018-01-24T09:35:02Z</time>
      </trkpt>
      <trkpt lat="47.65412" lon="6.09978">
        <ele>250.84</ele>
        <time>2018-01-24T09:35:03Z</time>
      </trkpt>
      <trkpt lat="47.65406" lon="6.09978">
        <ele>250.74</ele>
        <time>2018-01-24T09:35:04Z</time>
      </trkpt>
      <trkpt lat="47.65399" lon="6.0998">
        <ele>250.62</ele>
        <time>2018-01-24T09:35:05Z</time>
      </trkpt>
      <trkpt lat="47.65393" lon="6.09982">
        <ele>250.5</ele>
        <time>2018-01-24T09:35:06Z</time>
      </trkpt>
      <trkpt lat="47.65387" lon="6.09984">
        <ele>250.38</ele>
        <time>2018-01-24T09:35:07Z</time>
      </trkpt>
      <trkpt lat="47.6538" lon="6.09986">
        <ele>250.22</ele>
        <time>2018-01-24T09:35:08Z</time>
      </trkpt>
      <trkpt lat="47.65373" lon="6.09989">
        <ele>250.02</ele>
        <time>2018-01-24T09:35:09Z</time>
      </trkpt>
      <trkpt lat="47.65366" lon="6.09992">
        <ele>249.82</ele>
        <time>2018-01-24T09:35:10Z</time>
      </trkpt>
      <trkpt lat="47.6536" lon="6.09995">
        <ele>249.65</ele>
        <time>2018-01-24T09:35:11Z</time>
      </trkpt>
      <trkpt lat="47.65353" lon="6.09998">
        <ele>249.46</ele>
        <time>2018-01-24T09:35:12Z</time>
      </trkpt>
      <trkpt lat="47.65345" lon="6.10003">
        <ele>249.26</ele>
        <time>2018-01-24T09:35:13Z</time>
      </trkpt>
      <trkpt lat="47.65338" lon="6.10007">
        <ele>248.99</ele>
        <time>2018-01-24T09:35:14Z</time>
      </trkpt>
      <trkpt lat="47.6533" lon="6.10013">
        <ele>248.71</ele>
        <time>2018-01-24T09:35:15Z</time>
      </trkpt>
      <trkpt lat="47.65322" lon="6.10017">
        <ele>248.46</ele>
        <time>2018-01-24T09:35:16Z</time>
      </trkpt>
      <trkpt lat="47.65313" lon="6.10021">
        <ele>248.22</ele>
        <time>2018-01-24T09:35:17Z</time>
      </trkpt>
      <trkpt lat="47.65304" lon="6.10026">
        <ele>248.03</ele>
        <time>2018-01-24T09:35:18Z</time>
      </trkpt>
      <trkpt lat="47.65295" lon="6.10031">
        <ele>247.86</ele>
        <time>2018-01-24T09:35:19Z</time>
      </trkpt>
      <trkpt lat="47.65286" lon="6.10035">
        <ele>247.77</ele>
        <time>2018-01-24T09:35:20Z</time>
      </trkpt>
      <trkpt lat="47.65277" lon="6.10039">
        <ele>247.72</ele>
        <time>2018-01-24T09:35:21Z</time>
      </trkpt>
      <trkpt lat="47.65268" lon="6.10042">
        <ele>247.72</ele>
        <time>2018-01-24T09:35:22Z</time>
      </trkpt>
      <trkpt lat="47.6526" lon="6.10045">
        <ele>247.75</ele>
        <time>2018-01-24T09:35:23Z</time>
      </trkpt>
      <trkpt lat="47.65252" lon="6.10048">
        <ele>247.8</ele>
        <time>2018-01-24T09:35:24Z</time>
      </trkpt>
      <trkpt lat="47.65244" lon="6.10052">
        <ele>247.83</ele>
        <time>2018-01-24T09:35:25Z</time>
      </trkpt>
      <trkpt lat="47.65236" lon="6.10055">
        <ele>247.83</ele>
        <time>2018-01-24T09:35:26Z</time>
      </trkpt>
      <trkpt lat="47.65229" lon="6.10059">
        <ele>247.86</ele>
        <time>2018-01-24T09:35:27Z</time>
      </trkpt>
      <trkpt lat="47.65222" lon="6.10062">
        <ele>247.88</ele>
        <time>2018-01-24T09:35:28Z</time>
      </trkpt>
      <trkpt lat="47.65216" lon="6.10066">
        <ele>247.79</ele>
        <time>2018-01-24T09:35:29Z</time>
      </trkpt>
      <trkpt lat="47.6521" lon="6.1007">
        <ele>247.61</ele>
        <time>2018-01-24T09:35:30Z</time>
      </trkpt>
      <trkpt lat="47.65204" lon="6.10074">
        <ele>247.34</ele>
        <time>2018-01-24T09:35:31Z</time>
      </trkpt>
      <trkpt lat="47.65199" lon="6.10077">
        <ele>247.09</ele>
        <time>2018-01-24T09:35:32Z</time>
      </trkpt>
      <trkpt lat="47.65194" lon="6.1008">
        <ele>246.92</ele>
        <time>2018-01-24T09:35:33Z</time>
      </trkpt>
      <trkpt lat="47.65189" lon="6.10084">
        <ele>246.83</ele>
        <time>2018-01-24T09:35:34Z</time>
      </trkpt>
      <trkpt lat="47.65181" lon="6.10088">
        <ele>246.94</ele>
        <time>2018-01-24T09:35:36Z</time>
      </trkpt>
      <trkpt lat="47.65175" lon="6.10092">
        <ele>247.03</ele>
        <time>2018-01-24T09:35:38Z</time>
      </trkpt>
      <trkpt lat="47.6517" lon="6.10094">
        <ele>247.06</ele>
        <time>2018-01-24T09:35:40Z</time>
      </trkpt>
      <trkpt lat="47.65165" lon="6.10095">
        <ele>247.07</ele>
        <time>2018-01-24T09:35:42Z</time>
      </trkpt>
      <trkpt lat="47.65161" lon="6.10098">
        <ele>247.06</ele>
        <time>2018-01-24T09:35:44Z</time>
      </trkpt>
      <trkpt lat="47.65156" lon="6.10101">
        <ele>247</ele>
        <time>2018-01-24T09:35:46Z</time>
      </trkpt>
      <trkpt lat="47.65151" lon="6.10105">
        <ele>246.9</ele>
        <time>2018-01-24T09:35:48Z</time>
      </trkpt>
      <trkpt lat="47.65146" lon="6.10107">
        <ele>246.77</ele>
        <time>2018-01-24T09:35:50Z</time>
      </trkpt>
      <trkpt lat="47.65139" lon="6.10109">
        <ele>246.17</ele>
        <time>2018-01-24T09:35:52Z</time>
      </trkpt>
      <trkpt lat="47.65131" lon="6.1011">
        <ele>245.4</ele>
        <time>2018-01-24T09:35:54Z</time>
      </trkpt>
      <trkpt lat="47.65123" lon="6.10112">
        <ele>245.22</ele>
        <time>2018-01-24T09:35:56Z</time>
      </trkpt>
      <trkpt lat="47.65115" lon="6.10113">
        <ele>244.58</ele>
        <time>2018-01-24T09:35:58Z</time>
      </trkpt>
      <trkpt lat="47.65106" lon="6.10113">
        <ele>243.39</ele>
        <time>2018-01-24T09:36:00Z</time>
      </trkpt>
      <trkpt lat="47.65101" lon="6.10114">
        <ele>242.94</ele>
        <time>2018-01-24T09:36:01Z</time>
      </trkpt>
      <trkpt lat="47.65096" lon="6.10114">
        <ele>242.53</ele>
        <time>2018-01-24T09:36:02Z</time>
      </trkpt>
      <trkpt lat="47.65091" lon="6.10115">
        <ele>242.18</ele>
        <time>2018-01-24T09:36:03Z</time>
      </trkpt>
      <trkpt lat="47.65086" lon="6.10116">
        <ele>241.9</ele>
        <time>2018-01-24T09:36:04Z</time>
      </trkpt>
      <trkpt lat="47.6508" lon="6.10117">
        <ele>241.69</ele>
        <time>2018-01-24T09:36:05Z</time>
      </trkpt>
      <trkpt lat="47.65075" lon="6.10117">
        <ele>241.51</ele>
        <time>2018-01-24T09:36:06Z</time>
      </trkpt>
      <trkpt lat="47.65069" lon="6.10117">
        <ele>241.35</ele>
        <time>2018-01-24T09:36:07Z</time>
      </trkpt>
      <trkpt lat="47.65063" lon="6.10118">
        <ele>241.19</ele>
        <time>2018-01-24T09:36:08Z</time>
      </trkpt>
      <trkpt lat="47.65058" lon="6.10118">
        <ele>241.03</ele>
        <time>2018-01-24T09:36:09Z</time>
      </trkpt>
      <trkpt lat="47.65053" lon="6.10119">
        <ele>240.87</ele>
        <time>2018-01-24T09:36:10Z</time>
      </trkpt>
      <trkpt lat="47.65047" lon="6.10121">
        <ele>240.68</ele>
        <time>2018-01-24T09:36:11Z</time>
      </trkpt>
      <trkpt lat="47.65042" lon="6.10123">
        <ele>240.54</ele>
        <time>2018-01-24T09:36:12Z</time>
      </trkpt>
      <trkpt lat="47.65037" lon="6.10126">
        <ele>240.44</ele>
        <time>2018-01-24T09:36:13Z</time>
      </trkpt>
      <trkpt lat="47.65032" lon="6.10128">
        <ele>240.4</ele>
        <time>2018-01-24T09:36:14Z</time>
      </trkpt>
      <trkpt lat="47.65024" lon="6.10133">
        <ele>240.38</ele>
        <time>2018-01-24T09:36:16Z</time>
      </trkpt>
      <trkpt lat="47.65019" lon="6.10139">
        <ele>240.36</ele>
        <time>2018-01-24T09:36:18Z</time>
      </trkpt>
      <trkpt lat="47.65013" lon="6.10146">
        <ele>240.33</ele>
        <time>2018-01-24T09:36:20Z</time>
      </trkpt>
      <trkpt lat="47.65007" lon="6.10152">
        <ele>240.28</ele>
        <time>2018-01-24T09:36:22Z</time>
      </trkpt>
      <trkpt lat="47.65001" lon="6.10161">
        <ele>240.05</ele>
        <time>2018-01-24T09:36:24Z</time>
      </trkpt>
      <trkpt lat="47.64997" lon="6.10166">
        <ele>239.8</ele>
        <time>2018-01-24T09:36:25Z</time>
      </trkpt>
      <trkpt lat="47.64992" lon="6.10171">
        <ele>239.54</ele>
        <time>2018-01-24T09:36:26Z</time>
      </trkpt>
      <trkpt lat="47.64988" lon="6.10176">
        <ele>239.32</ele>
        <time>2018-01-24T09:36:27Z</time>
      </trkpt>
      <trkpt lat="47.64983" lon="6.10179">
        <ele>239.14</ele>
        <time>2018-01-24T09:36:28Z</time>
      </trkpt>
      <trkpt lat="47.64977" lon="6.10184">
        <ele>238.95</ele>
        <time>2018-01-24T09:36:29Z</time>
      </trkpt>
      <trkpt lat="47.64971" lon="6.10187">
        <ele>238.7</ele>
        <time>2018-01-24T09:36:30Z</time>
      </trkpt>
      <trkpt lat="47.64964" lon="6.10189">
        <ele>238.38</ele>
        <time>2018-01-24T09:36:31Z</time>
      </trkpt>
      <trkpt lat="47.64957" lon="6.10191">
        <ele>238</ele>
        <time>2018-01-24T09:36:32Z</time>
      </trkpt>
      <trkpt lat="47.64949" lon="6.10194">
        <ele>237.57</ele>
        <time>2018-01-24T09:36:33Z</time>
      </trkpt>
      <trkpt lat="47.64941" lon="6.10198">
        <ele>237.06</ele>
        <time>2018-01-24T09:36:34Z</time>
      </trkpt>
      <trkpt lat="47.64932" lon="6.10201">
        <ele>236.53</ele>
        <time>2018-01-24T09:36:35Z</time>
      </trkpt>
      <trkpt lat="47.64924" lon="6.10204">
        <ele>236.09</ele>
        <time>2018-01-24T09:36:36Z</time>
      </trkpt>
      <trkpt lat="47.64916" lon="6.10207">
        <ele>235.74</ele>
        <time>2018-01-24T09:36:37Z</time>
      </trkpt>
      <trkpt lat="47.64909" lon="6.10209">
        <ele>235.47</ele>
        <time>2018-01-24T09:36:38Z</time>
      </trkpt>
      <trkpt lat="47.64901" lon="6.10211">
        <ele>235.25</ele>
        <time>2018-01-24T09:36:39Z</time>
      </trkpt>
      <trkpt lat="47.64894" lon="6.10213">
        <ele>235.07</ele>
        <time>2018-01-24T09:36:40Z</time>
      </trkpt>
      <trkpt lat="47.64887" lon="6.10215">
        <ele>234.93</ele>
        <time>2018-01-24T09:36:41Z</time>
      </trkpt>
      <trkpt lat="47.6488" lon="6.10217">
        <ele>234.86</ele>
        <time>2018-01-24T09:36:42Z</time>
      </trkpt>
      <trkpt lat="47.64873" lon="6.10219">
        <ele>234.8</ele>
        <time>2018-01-24T09:36:43Z</time>
      </trkpt>
      <trkpt lat="47.64866" lon="6.10222">
        <ele>234.74</ele>
        <time>2018-01-24T09:36:44Z</time>
      </trkpt>
      <trkpt lat="47.6486" lon="6.10224">
        <ele>234.65</ele>
        <time>2018-01-24T09:36:45Z</time>
      </trkpt>
      <trkpt lat="47.64853" lon="6.10225">
        <ele>234.46</ele>
        <time>2018-01-24T09:36:46Z</time>
      </trkpt>
      <trkpt lat="47.64847" lon="6.10226">
        <ele>234.27</ele>
        <time>2018-01-24T09:36:47Z</time>
      </trkpt>
      <trkpt lat="47.64841" lon="6.10227">
        <ele>234.08</ele>
        <time>2018-01-24T09:36:48Z</time>
      </trkpt>
      <trkpt lat="47.64835" lon="6.10227">
        <ele>233.89</ele>
        <time>2018-01-24T09:36:49Z</time>
      </trkpt>
      <trkpt lat="47.64829" lon="6.10227">
        <ele>233.68</ele>
        <time>2018-01-24T09:36:50Z</time>
      </trkpt>
      <trkpt lat="47.64824" lon="6.10227">
        <ele>233.51</ele>
        <time>2018-01-24T09:36:51Z</time>
      </trkpt>
      <trkpt lat="47.64819" lon="6.10226">
        <ele>233.36</ele>
        <time>2018-01-24T09:36:52Z</time>
      </trkpt>
      <trkpt lat="47.64815" lon="6.10226">
        <ele>233.22</ele>
        <time>2018-01-24T09:36:53Z</time>
      </trkpt>
      <trkpt lat="47.6481" lon="6.10226">
        <ele>233.06</ele>
        <time>2018-01-24T09:36:54Z</time>
      </trkpt>
      <trkpt lat="47.64805" lon="6.10225">
        <ele>232.94</ele>
        <time>2018-01-24T09:36:55Z</time>
      </trkpt>
      <trkpt lat="47.64797" lon="6.10224">
        <ele>232.72</ele>
        <time>2018-01-24T09:36:57Z</time>
      </trkpt>
      <trkpt lat="47.64789" lon="6.10224">
        <ele>232.49</ele>
        <time>2018-01-24T09:36:59Z</time>
      </trkpt>
      <trkpt lat="47.64781" lon="6.10223">
        <ele>232.32</ele>
        <time>2018-01-24T09:37:01Z</time>
      </trkpt>
      <trkpt lat="47.64774" lon="6.10224">
        <ele>232.29</ele>
        <time>2018-01-24T09:37:03Z</time>
      </trkpt>
      <trkpt lat="47.64767" lon="6.10223">
        <ele>232.25</ele>
        <time>2018-01-24T09:37:05Z</time>
      </trkpt>
      <trkpt lat="47.64761" lon="6.10222">
        <ele>232.21</ele>
        <time>2018-01-24T09:37:07Z</time>
      </trkpt>
      <trkpt lat="47.64756" lon="6.10224">
        <ele>232.15</ele>
        <time>2018-01-24T09:37:09Z</time>
      </trkpt>
      <trkpt lat="47.6475" lon="6.10223">
        <ele>232.04</ele>
        <time>2018-01-24T09:37:12Z</time>
      </trkpt>
      <trkpt lat="47.64745" lon="6.10221">
        <ele>231.93</ele>
        <time>2018-01-24T09:37:15Z</time>
      </trkpt>
      <trkpt lat="47.64741" lon="6.10213">
        <ele>231.81</ele>
        <time>2018-01-24T09:37:18Z</time>
      </trkpt>
      <trkpt lat="47.64739" lon="6.10205">
        <ele>231.72</ele>
        <time>2018-01-24T09:37:20Z</time>
      </trkpt>
      <trkpt lat="47.64736" lon="6.10196">
        <ele>231.63</ele>
        <time>2018-01-24T09:37:22Z</time>
      </trkpt>
      <trkpt lat="47.64733" lon="6.10186">
        <ele>231.53</ele>
        <time>2018-01-24T09:37:24Z</time>
      </trkpt>
      <trkpt lat="47.64729" lon="6.10177">
        <ele>231.12</ele>
        <time>2018-01-24T09:37:26Z</time>
      </trkpt>
      <trkpt lat="47.64725" lon="6.10168">
        <ele>230.91</ele>
        <time>2018-01-24T09:37:28Z</time>
      </trkpt>
      <trkpt lat="47.64721" lon="6.10159">
        <ele>230.81</ele>
        <time>2018-01-24T09:37:30Z</time>
      </trkpt>
      <trkpt lat="47.64717" lon="6.1015">
        <ele>230.1</ele>
        <time>2018-01-24T09:37:32Z</time>
      </trkpt>
      <trkpt lat="47.64711" lon="6.1014">
        <ele>229.5</ele>
        <time>2018-01-24T09:37:34Z</time>
      </trkpt>
      <trkpt lat="47.64705" lon="6.1013">
        <ele>229.07</ele>
        <time>2018-01-24T09:37:36Z</time>
      </trkpt>
      <trkpt lat="47.64699" lon="6.10121">
        <ele>228.77</ele>
        <time>2018-01-24T09:37:38Z</time>
      </trkpt>
      <trkpt lat="47.64693" lon="6.10113">
        <ele>228.7</ele>
        <time>2018-01-24T09:37:40Z</time>
      </trkpt>
      <trkpt lat="47.64688" lon="6.10107">
        <ele>228.67</ele>
        <time>2018-01-24T09:37:42Z</time>
      </trkpt>
      <trkpt lat="47.64682" lon="6.101">
        <ele>228.65</ele>
        <time>2018-01-24T09:37:44Z</time>
      </trkpt>
      <trkpt lat="47.64676" lon="6.10094">
        <ele>228.62</ele>
        <time>2018-01-24T09:37:46Z</time>
      </trkpt>
      <trkpt lat="47.6467" lon="6.10089">
        <ele>228.6</ele>
        <time>2018-01-24T09:37:48Z</time>
      </trkpt>
      <trkpt lat="47.64663" lon="6.10083">
        <ele>228.6</ele>
        <time>2018-01-24T09:37:50Z</time>
      </trkpt>
      <trkpt lat="47.64657" lon="6.10079">
        <ele>228.6</ele>
        <time>2018-01-24T09:37:52Z</time>
      </trkpt>
      <trkpt lat="47.64651" lon="6.10075">
        <ele>228.6</ele>
        <time>2018-01-24T09:37:54Z</time>
      </trkpt>
      <trkpt lat="47.64645" lon="6.10071">
        <ele>228.6</ele>
        <time>2018-01-24T09:37:56Z</time>
      </trkpt>
      <trkpt lat="47.64638" lon="6.10066">
        <ele>228.59</ele>
        <time>2018-01-24T09:37:58Z</time>
      </trkpt>
      <trkpt lat="47.64629" lon="6.1006">
        <ele>228.58</ele>
        <time>2018-01-24T09:38:00Z</time>
      </trkpt>
      <trkpt lat="47.64622" lon="6.10055">
        <ele>228.55</ele>
        <time>2018-01-24T09:38:02Z</time>
      </trkpt>
      <trkpt lat="47.64614" lon="6.10049">
        <ele>228.49</ele>
        <time>2018-01-24T09:38:04Z</time>
      </trkpt>
      <trkpt lat="47.64606" lon="6.10044">
        <ele>228.46</ele>
        <time>2018-01-24T09:38:06Z</time>
      </trkpt>
      <trkpt lat="47.64599" lon="6.10039">
        <ele>228.45</ele>
        <time>2018-01-24T09:38:08Z</time>
      </trkpt>
      <trkpt lat="47.64592" lon="6.10034">
        <ele>228.43</ele>
        <time>2018-01-24T09:38:10Z</time>
      </trkpt>
      <trkpt lat="47.64585" lon="6.10029">
        <ele>228.41</ele>
        <time>2018-01-24T09:38:12Z</time>
      </trkpt>
      <trkpt lat="47.64577" lon="6.10024">
        <ele>228.41</ele>
        <time>2018-01-24T09:38:14Z</time>
      </trkpt>
      <trkpt lat="47.6457" lon="6.10019">
        <ele>228.42</ele>
        <time>2018-01-24T09:38:16Z</time>
      </trkpt>
      <trkpt lat="47.64563" lon="6.10013">
        <ele>228.39</ele>
        <time>2018-01-24T09:38:18Z</time>
      </trkpt>
      <trkpt lat="47.64555" lon="6.10008">
        <ele>228.35</ele>
        <time>2018-01-24T09:38:20Z</time>
      </trkpt>
      <trkpt lat="47.64548" lon="6.10004">
        <ele>228.34</ele>
        <time>2018-01-24T09:38:22Z</time>
      </trkpt>
      <trkpt lat="47.64541" lon="6.09999">
        <ele>228.33</ele>
        <time>2018-01-24T09:38:24Z</time>
      </trkpt>
      <trkpt lat="47.64535" lon="6.09995">
        <ele>228.32</ele>
        <time>2018-01-24T09:38:26Z</time>
      </trkpt>
      <trkpt lat="47.64529" lon="6.09991">
        <ele>228.31</ele>
        <time>2018-01-24T09:38:28Z</time>
      </trkpt>
      <trkpt lat="47.64522" lon="6.09986">
        <ele>228.25</ele>
        <time>2018-01-24T09:38:30Z</time>
      </trkpt>
      <trkpt lat="47.64516" lon="6.09979">
        <ele>228.09</ele>
        <time>2018-01-24T09:38:32Z</time>
      </trkpt>
      <trkpt lat="47.64512" lon="6.09975">
        <ele>228.01</ele>
        <time>2018-01-24T09:38:33Z</time>
      </trkpt>
      <trkpt lat="47.64509" lon="6.0997">
        <ele>227.93</ele>
        <time>2018-01-24T09:38:34Z</time>
      </trkpt>
      <trkpt lat="47.64504" lon="6.09961">
        <ele>227.76</ele>
        <time>2018-01-24T09:38:36Z</time>
      </trkpt>
      <trkpt lat="47.645" lon="6.09951">
        <ele>227.6</ele>
        <time>2018-01-24T09:38:38Z</time>
      </trkpt>
      <trkpt lat="47.64497" lon="6.09939">
        <ele>227.49</ele>
        <time>2018-01-24T09:38:40Z</time>
      </trkpt>
      <trkpt lat="47.64496" lon="6.09926">
        <ele>227.38</ele>
        <time>2018-01-24T09:38:42Z</time>
      </trkpt>
      <trkpt lat="47.64498" lon="6.09914">
        <ele>227.3</ele>
        <time>2018-01-24T09:38:44Z</time>
      </trkpt>
      <trkpt lat="47.645" lon="6.09903">
        <ele>227.29</ele>
        <time>2018-01-24T09:38:46Z</time>
      </trkpt>
      <trkpt lat="47.64504" lon="6.09893">
        <ele>227.28</ele>
        <time>2018-01-24T09:38:48Z</time>
      </trkpt>
      <trkpt lat="47.64507" lon="6.09884">
        <ele>227.27</ele>
        <time>2018-01-24T09:38:50Z</time>
      </trkpt>
      <trkpt lat="47.64511" lon="6.09874">
        <ele>227.26</ele>
        <time>2018-01-24T09:38:52Z</time>
      </trkpt>
      <trkpt lat="47.64515" lon="6.09864">
        <ele>227.13</ele>
        <time>2018-01-24T09:38:54Z</time>
      </trkpt>
      <trkpt lat="47.6452" lon="6.09852">
        <ele>226.96</ele>
        <time>2018-01-24T09:38:56Z</time>
      </trkpt>
      <trkpt lat="47.64522" lon="6.09846">
        <ele>226.83</ele>
        <time>2018-01-24T09:38:57Z</time>
      </trkpt>
      <trkpt lat="47.64524" lon="6.0984">
        <ele>226.71</ele>
        <time>2018-01-24T09:38:58Z</time>
      </trkpt>
      <trkpt lat="47.64528" lon="6.09828">
        <ele>226.56</ele>
        <time>2018-01-24T09:39:00Z</time>
      </trkpt>
      <trkpt lat="47.64531" lon="6.09818">
        <ele>226.45</ele>
        <time>2018-01-24T09:39:02Z</time>
      </trkpt>
      <trkpt lat="47.64535" lon="6.09808">
        <ele>226.35</ele>
        <time>2018-01-24T09:39:04Z</time>
      </trkpt>
      <trkpt lat="47.64538" lon="6.09798">
        <ele>226.25</ele>
        <time>2018-01-24T09:39:06Z</time>
      </trkpt>
      <trkpt lat="47.64542" lon="6.09788">
        <ele>226.15</ele>
        <time>2018-01-24T09:39:08Z</time>
      </trkpt>
      <trkpt lat="47.64545" lon="6.09779">
        <ele>226.08</ele>
        <time>2018-01-24T09:39:10Z</time>
      </trkpt>
      <trkpt lat="47.6455" lon="6.0977">
        <ele>225.98</ele>
        <time>2018-01-24T09:39:12Z</time>
      </trkpt>
      <trkpt lat="47.64553" lon="6.09758">
        <ele>225.83</ele>
        <time>2018-01-24T09:39:14Z</time>
      </trkpt>
      <trkpt lat="47.64555" lon="6.09751">
        <ele>225.73</ele>
        <time>2018-01-24T09:39:15Z</time>
      </trkpt>
      <trkpt lat="47.64559" lon="6.09739">
        <ele>225.56</ele>
        <time>2018-01-24T09:39:17Z</time>
      </trkpt>
      <trkpt lat="47.64563" lon="6.09729">
        <ele>225.41</ele>
        <time>2018-01-24T09:39:19Z</time>
      </trkpt>
      <trkpt lat="47.64567" lon="6.09718">
        <ele>225.28</ele>
        <time>2018-01-24T09:39:21Z</time>
      </trkpt>
      <trkpt lat="47.64571" lon="6.09707">
        <ele>225.15</ele>
        <time>2018-01-24T09:39:23Z</time>
      </trkpt>
      <trkpt lat="47.64574" lon="6.09696">
        <ele>225.04</ele>
        <time>2018-01-24T09:39:25Z</time>
      </trkpt>
      <trkpt lat="47.64578" lon="6.09685">
        <ele>224.94</ele>
        <time>2018-01-24T09:39:27Z</time>
      </trkpt>
      <trkpt lat="47.64582" lon="6.09675">
        <ele>224.84</ele>
        <time>2018-01-24T09:39:29Z</time>
      </trkpt>
      <trkpt lat="47.64586" lon="6.09666">
        <ele>224.81</ele>
        <time>2018-01-24T09:39:31Z</time>
      </trkpt>
      <trkpt lat="47.6459" lon="6.09656">
        <ele>224.74</ele>
        <time>2018-01-24T09:39:33Z</time>
      </trkpt>
      <trkpt lat="47.64594" lon="6.09647">
        <ele>224.72</ele>
        <time>2018-01-24T09:39:35Z</time>
      </trkpt>
      <trkpt lat="47.64597" lon="6.09637">
        <ele>224.7</ele>
        <time>2018-01-24T09:39:37Z</time>
      </trkpt>
      <trkpt lat="47.646" lon="6.09627">
        <ele>224.68</ele>
        <time>2018-01-24T09:39:39Z</time>
      </trkpt>
      <trkpt lat="47.64604" lon="6.09618">
        <ele>224.65</ele>
        <time>2018-01-24T09:39:41Z</time>
      </trkpt>
      <trkpt lat="47.64608" lon="6.09608">
        <ele>224.61</ele>
        <time>2018-01-24T09:39:43Z</time>
      </trkpt>
      <trkpt lat="47.64612" lon="6.09599">
        <ele>224.57</ele>
        <time>2018-01-24T09:39:45Z</time>
      </trkpt>
      <trkpt lat="47.64615" lon="6.09589">
        <ele>224.53</ele>
        <time>2018-01-24T09:39:47Z</time>
      </trkpt>
      <trkpt lat="47.64618" lon="6.09581">
        <ele>224.48</ele>
        <time>2018-01-24T09:39:49Z</time>
      </trkpt>
      <trkpt lat="47.64621" lon="6.09571">
        <ele>224.44</ele>
        <time>2018-01-24T09:39:51Z</time>
      </trkpt>
      <trkpt lat="47.64624" lon="6.09562">
        <ele>224.39</ele>
        <time>2018-01-24T09:39:53Z</time>
      </trkpt>
      <trkpt lat="47.64627" lon="6.09551">
        <ele>224.34</ele>
        <time>2018-01-24T09:39:55Z</time>
      </trkpt>
      <trkpt lat="47.64629" lon="6.0954">
        <ele>224.29</ele>
        <time>2018-01-24T09:39:57Z</time>
      </trkpt>
      <trkpt lat="47.64631" lon="6.09529">
        <ele>224.24</ele>
        <time>2018-01-24T09:39:59Z</time>
      </trkpt>
      <trkpt lat="47.64631" lon="6.09519">
        <ele>224.18</ele>
        <time>2018-01-24T09:40:01Z</time>
      </trkpt>
      <trkpt lat="47.64632" lon="6.0951">
        <ele>224.12</ele>
        <time>2018-01-24T09:40:03Z</time>
      </trkpt>
      <trkpt lat="47.64632" lon="6.095">
        <ele>224.07</ele>
        <time>2018-01-24T09:40:05Z</time>
      </trkpt>
      <trkpt lat="47.64632" lon="6.09489">
        <ele>224</ele>
        <time>2018-01-24T09:40:07Z</time>
      </trkpt>
      <trkpt lat="47.64631" lon="6.09478">
        <ele>223.73</ele>
        <time>2018-01-24T09:40:09Z</time>
      </trkpt>
      <trkpt lat="47.6463" lon="6.09467">
        <ele>223.23</ele>
        <time>2018-01-24T09:40:11Z</time>
      </trkpt>
      <trkpt lat="47.64629" lon="6.09456">
        <ele>223.11</ele>
        <time>2018-01-24T09:40:13Z</time>
      </trkpt>
      <trkpt lat="47.64629" lon="6.09446">
        <ele>223.06</ele>
        <time>2018-01-24T09:40:15Z</time>
      </trkpt>
      <trkpt lat="47.64628" lon="6.09435">
        <ele>223.02</ele>
        <time>2018-01-24T09:40:17Z</time>
      </trkpt>
      <trkpt lat="47.64624" lon="6.09424">
        <ele>222.97</ele>
        <time>2018-01-24T09:40:19Z</time>
      </trkpt>
      <trkpt lat="47.6462" lon="6.09413">
        <ele>222.91</ele>
        <time>2018-01-24T09:40:21Z</time>
      </trkpt>
      <trkpt lat="47.64617" lon="6.09405">
        <ele>222.84</ele>
        <time>2018-01-24T09:40:23Z</time>
      </trkpt>
      <trkpt lat="47.64615" lon="6.09396">
        <ele>222.78</ele>
        <time>2018-01-24T09:40:25Z</time>
      </trkpt>
      <trkpt lat="47.64612" lon="6.09387">
        <ele>222.71</ele>
        <time>2018-01-24T09:40:27Z</time>
      </trkpt>
      <trkpt lat="47.64609" lon="6.09379">
        <ele>222.65</ele>
        <time>2018-01-24T09:40:29Z</time>
      </trkpt>
      <trkpt lat="47.64609" lon="6.0937">
        <ele>222.6</ele>
        <time>2018-01-24T09:40:31Z</time>
      </trkpt>
      <trkpt lat="47.6461" lon="6.09363">
        <ele>222.57</ele>
        <time>2018-01-24T09:40:32Z</time>
      </trkpt>
      <trkpt lat="47.64613" lon="6.09357">
        <ele>222.54</ele>
        <time>2018-01-24T09:40:33Z</time>
      </trkpt>
      <trkpt lat="47.64615" lon="6.09352">
        <ele>222.52</ele>
        <time>2018-01-24T09:40:34Z</time>
      </trkpt>
      <trkpt lat="47.6462" lon="6.09343">
        <ele>222.47</ele>
        <time>2018-01-24T09:40:36Z</time>
      </trkpt>
      <trkpt lat="47.64624" lon="6.09338">
        <ele>222.42</ele>
        <time>2018-01-24T09:40:38Z</time>
      </trkpt>
      <trkpt lat="47.64628" lon="6.09333">
        <ele>222.36</ele>
        <time>2018-01-24T09:40:40Z</time>
      </trkpt>
      <trkpt lat="47.64634" lon="6.0933">
        <ele>222.28</ele>
        <time>2018-01-24T09:40:43Z</time>
      </trkpt>
      <trkpt lat="47.64639" lon="6.09331">
        <ele>221.75</ele>
        <time>2018-01-24T09:41:26Z</time>
      </trkpt>
      <trkpt lat="47.64643" lon="6.09327">
        <ele>221.63</ele>
        <time>2018-01-24T09:41:39Z</time>
      </trkpt>
      <trkpt lat="47.64645" lon="6.09318">
        <ele>220.75</ele>
        <time>2018-01-24T09:42:11Z</time>
      </trkpt>
      <trkpt lat="47.64648" lon="6.09312">
        <ele>220.58</ele>
        <time>2018-01-24T09:42:13Z</time>
      </trkpt>
      <trkpt lat="47.64653" lon="6.09306">
        <ele>220.42</ele>
        <time>2018-01-24T09:42:15Z</time>
      </trkpt>
      <trkpt lat="47.64656" lon="6.093">
        <ele>220.26</ele>
        <time>2018-01-24T09:42:17Z</time>
      </trkpt>
      <trkpt lat="47.64659" lon="6.09293">
        <ele>220.12</ele>
        <time>2018-01-24T09:42:19Z</time>
      </trkpt>
      <trkpt lat="47.64663" lon="6.09286">
        <ele>219.98</ele>
        <time>2018-01-24T09:42:21Z</time>
      </trkpt>
      <trkpt lat="47.64667" lon="6.09278">
        <ele>219.84</ele>
        <time>2018-01-24T09:42:23Z</time>
      </trkpt>
      <trkpt lat="47.6467" lon="6.0927">
        <ele>219.71</ele>
        <time>2018-01-24T09:42:25Z</time>
      </trkpt>
      <trkpt lat="47.64674" lon="6.09263">
        <ele>219.59</ele>
        <time>2018-01-24T09:42:27Z</time>
      </trkpt>
      <trkpt lat="47.64677" lon="6.09256">
        <ele>219.47</ele>
        <time>2018-01-24T09:42:29Z</time>
      </trkpt>
      <trkpt lat="47.6468" lon="6.09248">
        <ele>219.36</ele>
        <time>2018-01-24T09:42:31Z</time>
      </trkpt>
      <trkpt lat="47.64684" lon="6.0924">
        <ele>219.2</ele>
        <time>2018-01-24T09:42:34Z</time>
      </trkpt>
      <trkpt lat="47.64688" lon="6.09233">
        <ele>219.1</ele>
        <time>2018-01-24T09:42:36Z</time>
      </trkpt>
      <trkpt lat="47.64692" lon="6.09227">
        <ele>219</ele>
        <time>2018-01-24T09:42:38Z</time>
      </trkpt>
      <trkpt lat="47.64696" lon="6.09222">
        <ele>218.91</ele>
        <time>2018-01-24T09:42:40Z</time>
      </trkpt>
      <trkpt lat="47.64701" lon="6.09214">
        <ele>218.79</ele>
        <time>2018-01-24T09:42:43Z</time>
      </trkpt>
      <trkpt lat="47.64705" lon="6.09207">
        <ele>218.72</ele>
        <time>2018-01-24T09:42:45Z</time>
      </trkpt>
      <trkpt lat="47.64708" lon="6.09201">
        <ele>218.65</ele>
        <time>2018-01-24T09:42:47Z</time>
      </trkpt>
      <trkpt lat="47.64711" lon="6.09195">
        <ele>218.59</ele>
        <time>2018-01-24T09:42:49Z</time>
      </trkpt>
      <trkpt lat="47.64714" lon="6.09189">
        <ele>218.54</ele>
        <time>2018-01-24T09:42:51Z</time>
      </trkpt>
      <trkpt lat="47.64717" lon="6.09183">
        <ele>218.5</ele>
        <time>2018-01-24T09:42:53Z</time>
      </trkpt>
      <trkpt lat="47.64719" lon="6.09177">
        <ele>218.46</ele>
        <time>2018-01-24T09:42:55Z</time>
      </trkpt>
      <trkpt lat="47.64718" lon="6.09168">
        <ele>218.4</ele>
        <time>2018-01-24T09:42:58Z</time>
      </trkpt>
      <trkpt lat="47.64715" lon="6.09161">
        <ele>218.37</ele>
        <time>2018-01-24T09:43:00Z</time>
      </trkpt>
      <trkpt lat="47.64712" lon="6.09157">
        <ele>218.34</ele>
        <time>2018-01-24T09:43:02Z</time>
      </trkpt>
      <trkpt lat="47.64707" lon="6.09154">
        <ele>218.32</ele>
        <time>2018-01-24T09:43:04Z</time>
      </trkpt>
      <trkpt lat="47.64701" lon="6.09153">
        <ele>218.31</ele>
        <time>2018-01-24T09:43:06Z</time>
      </trkpt>
      <trkpt lat="47.64696" lon="6.0915">
        <ele>218.3</ele>
        <time>2018-01-24T09:43:08Z</time>
      </trkpt>
      <trkpt lat="47.64691" lon="6.09147">
        <ele>218.3</ele>
        <time>2018-01-24T09:43:10Z</time>
      </trkpt>
      <trkpt lat="47.64686" lon="6.09145">
        <ele>218.3</ele>
        <time>2018-01-24T09:43:12Z</time>
      </trkpt>
      <trkpt lat="47.6468" lon="6.09142">
        <ele>218.3</ele>
        <time>2018-01-24T09:43:14Z</time>
      </trkpt>
      <trkpt lat="47.64675" lon="6.09139">
        <ele>218.3</ele>
        <time>2018-01-24T09:43:16Z</time>
      </trkpt>
      <trkpt lat="47.64669" lon="6.09136">
        <ele>218.3</ele>
        <time>2018-01-24T09:43:18Z</time>
      </trkpt>
      <trkpt lat="47.64663" lon="6.09131">
        <ele>218.3</ele>
        <time>2018-01-24T09:43:20Z</time>
      </trkpt>
      <trkpt lat="47.64657" lon="6.09126">
        <ele>218.3</ele>
        <time>2018-01-24T09:43:22Z</time>
      </trkpt>
      <trkpt lat="47.64649" lon="6.09119">
        <ele>218.29</ele>
        <time>2018-01-24T09:43:24Z</time>
      </trkpt>
      <trkpt lat="47.64645" lon="6.09115">
        <ele>218.28</ele>
        <time>2018-01-24T09:43:25Z</time>
      </trkpt>
      <trkpt lat="47.6464" lon="6.0911">
        <ele>218.27</ele>
        <time>2018-01-24T09:43:26Z</time>
      </trkpt>
      <trkpt lat="47.64636" lon="6.09104">
        <ele>218.26</ele>
        <time>2018-01-24T09:43:27Z</time>
      </trkpt>
      <trkpt lat="47.64632" lon="6.09099">
        <ele>218.25</ele>
        <time>2018-01-24T09:43:28Z</time>
      </trkpt>
      <trkpt lat="47.64628" lon="6.09093">
        <ele>218.24</ele>
        <time>2018-01-24T09:43:29Z</time>
      </trkpt>
      <trkpt lat="47.64625" lon="6.09088">
        <ele>218.24</ele>
        <time>2018-01-24T09:43:30Z</time>
      </trkpt>
      <trkpt lat="47.64621" lon="6.09082">
        <ele>218.23</ele>
        <time>2018-01-24T09:43:31Z</time>
      </trkpt>
      <trkpt lat="47.64617" lon="6.09076">
        <ele>218.23</ele>
        <time>2018-01-24T09:43:32Z</time>
      </trkpt>
      <trkpt lat="47.64614" lon="6.0907">
        <ele>218.22</ele>
        <time>2018-01-24T09:43:33Z</time>
      </trkpt>
      <trkpt lat="47.6461" lon="6.09064">
        <ele>218.22</ele>
        <time>2018-01-24T09:43:34Z</time>
      </trkpt>
      <trkpt lat="47.64606" lon="6.09059">
        <ele>218.21</ele>
        <time>2018-01-24T09:43:35Z</time>
      </trkpt>
      <trkpt lat="47.64603" lon="6.09054">
        <ele>218.21</ele>
        <time>2018-01-24T09:43:36Z</time>
      </trkpt>
      <trkpt lat="47.646" lon="6.09048">
        <ele>218.21</ele>
        <time>2018-01-24T09:43:37Z</time>
      </trkpt>
      <trkpt lat="47.64595" lon="6.09039">
        <ele>218.21</ele>
        <time>2018-01-24T09:43:39Z</time>
      </trkpt>
      <trkpt lat="47.6459" lon="6.0903">
        <ele>218.22</ele>
        <time>2018-01-24T09:43:41Z</time>
      </trkpt>
      <trkpt lat="47.64586" lon="6.09021">
        <ele>218.22</ele>
        <time>2018-01-24T09:43:43Z</time>
      </trkpt>
      <trkpt lat="47.64582" lon="6.09011">
        <ele>218.23</ele>
        <time>2018-01-24T09:43:45Z</time>
      </trkpt>
      <trkpt lat="47.64578" lon="6.09002">
        <ele>218.25</ele>
        <time>2018-01-24T09:43:47Z</time>
      </trkpt>
      <trkpt lat="47.64573" lon="6.08992">
        <ele>218.26</ele>
        <time>2018-01-24T09:43:49Z</time>
      </trkpt>
      <trkpt lat="47.64568" lon="6.08982">
        <ele>218.26</ele>
        <time>2018-01-24T09:43:51Z</time>
      </trkpt>
      <trkpt lat="47.64563" lon="6.08973">
        <ele>218.25</ele>
        <time>2018-01-24T09:43:53Z</time>
      </trkpt>
      <trkpt lat="47.64559" lon="6.08964">
        <ele>218.25</ele>
        <time>2018-01-24T09:43:55Z</time>
      </trkpt>
      <trkpt lat="47.64555" lon="6.08955">
        <ele>218.25</ele>
        <time>2018-01-24T09:43:57Z</time>
      </trkpt>
      <trkpt lat="47.6455" lon="6.08947">
        <ele>218.25</ele>
        <time>2018-01-24T09:43:59Z</time>
      </trkpt>
      <trkpt lat="47.64546" lon="6.08938">
        <ele>218.24</ele>
        <time>2018-01-24T09:44:01Z</time>
      </trkpt>
      <trkpt lat="47.64542" lon="6.0893">
        <ele>218.24</ele>
        <time>2018-01-24T09:44:03Z</time>
      </trkpt>
      <trkpt lat="47.64538" lon="6.08922">
        <ele>218.24</ele>
        <time>2018-01-24T09:44:05Z</time>
      </trkpt>
      <trkpt lat="47.64534" lon="6.08914">
        <ele>218.23</ele>
        <time>2018-01-24T09:44:07Z</time>
      </trkpt>
      <trkpt lat="47.64531" lon="6.08907">
        <ele>218.23</ele>
        <time>2018-01-24T09:44:09Z</time>
      </trkpt>
      <trkpt lat="47.64527" lon="6.08899">
        <ele>218.22</ele>
        <time>2018-01-24T09:44:11Z</time>
      </trkpt>
      <trkpt lat="47.64524" lon="6.08892">
        <ele>218.22</ele>
        <time>2018-01-24T09:44:13Z</time>
      </trkpt>
      <trkpt lat="47.6452" lon="6.08885">
        <ele>218.21</ele>
        <time>2018-01-24T09:44:15Z</time>
      </trkpt>
      <trkpt lat="47.64517" lon="6.08878">
        <ele>218.21</ele>
        <time>2018-01-24T09:44:17Z</time>
      </trkpt>
      <trkpt lat="47.64514" lon="6.08871">
        <ele>218.2</ele>
        <time>2018-01-24T09:44:19Z</time>
      </trkpt>
      <trkpt lat="47.64511" lon="6.08863">
        <ele>218.19</ele>
        <time>2018-01-24T09:44:21Z</time>
      </trkpt>
      <trkpt lat="47.64508" lon="6.08856">
        <ele>218.19</ele>
        <time>2018-01-24T09:44:23Z</time>
      </trkpt>
      <trkpt lat="47.64505" lon="6.08849">
        <ele>218.19</ele>
        <time>2018-01-24T09:44:25Z</time>
      </trkpt>
      <trkpt lat="47.64503" lon="6.08842">
        <ele>218.19</ele>
        <time>2018-01-24T09:44:27Z</time>
      </trkpt>
      <trkpt lat="47.64499" lon="6.08835">
        <ele>218.19</ele>
        <time>2018-01-24T09:44:30Z</time>
      </trkpt>
      <trkpt lat="47.64496" lon="6.08827">
        <ele>218.19</ele>
        <time>2018-01-24T09:44:33Z</time>
      </trkpt>
      <trkpt lat="47.64492" lon="6.08819">
        <ele>218.2</ele>
        <time>2018-01-24T09:44:36Z</time>
      </trkpt>
      <trkpt lat="47.6449" lon="6.08813">
        <ele>218.2</ele>
        <time>2018-01-24T09:44:38Z</time>
      </trkpt>
      <trkpt lat="47.64487" lon="6.08806">
        <ele>218.21</ele>
        <time>2018-01-24T09:44:40Z</time>
      </trkpt>
      <trkpt lat="47.64484" lon="6.08799">
        <ele>218.22</ele>
        <time>2018-01-24T09:44:42Z</time>
      </trkpt>
      <trkpt lat="47.64482" lon="6.08792">
        <ele>218.23</ele>
        <time>2018-01-24T09:44:44Z</time>
      </trkpt>
      <trkpt lat="47.64478" lon="6.08784">
        <ele>218.24</ele>
        <time>2018-01-24T09:44:46Z</time>
      </trkpt>
      <trkpt lat="47.64475" lon="6.08776">
        <ele>218.25</ele>
        <time>2018-01-24T09:44:48Z</time>
      </trkpt>
      <trkpt lat="47.64472" lon="6.08768">
        <ele>218.25</ele>
        <time>2018-01-24T09:44:50Z</time>
      </trkpt>
      <trkpt lat="47.64469" lon="6.0876">
        <ele>218.27</ele>
        <time>2018-01-24T09:44:52Z</time>
      </trkpt>
      <trkpt lat="47.64466" lon="6.08752">
        <ele>218.28</ele>
        <time>2018-01-24T09:44:54Z</time>
      </trkpt>
      <trkpt lat="47.64463" lon="6.08745">
        <ele>218.29</ele>
        <time>2018-01-24T09:44:56Z</time>
      </trkpt>
      <trkpt lat="47.6446" lon="6.08738">
        <ele>218.3</ele>
        <time>2018-01-24T09:44:58Z</time>
      </trkpt>
      <trkpt lat="47.64458" lon="6.08731">
        <ele>218.32</ele>
        <time>2018-01-24T09:45:00Z</time>
      </trkpt>
      <trkpt lat="47.64455" lon="6.08724">
        <ele>218.33</ele>
        <time>2018-01-24T09:45:02Z</time>
      </trkpt>
      <trkpt lat="47.64453" lon="6.08717">
        <ele>218.34</ele>
        <time>2018-01-24T09:45:03Z</time>
      </trkpt>
      <trkpt lat="47.64449" lon="6.0871">
        <ele>218.36</ele>
        <time>2018-01-24T09:45:05Z</time>
      </trkpt>
      <trkpt lat="47.64446" lon="6.08704">
        <ele>218.37</ele>
        <time>2018-01-24T09:45:07Z</time>
      </trkpt>
      <trkpt lat="47.64444" lon="6.08697">
        <ele>218.39</ele>
        <time>2018-01-24T09:45:09Z</time>
      </trkpt>
      <trkpt lat="47.64441" lon="6.0869">
        <ele>218.41</ele>
        <time>2018-01-24T09:45:12Z</time>
      </trkpt>
      <trkpt lat="47.64439" lon="6.08683">
        <ele>218.44</ele>
        <time>2018-01-24T09:45:15Z</time>
      </trkpt>
      <trkpt lat="47.64436" lon="6.08677">
        <ele>218.46</ele>
        <time>2018-01-24T09:45:17Z</time>
      </trkpt>
      <trkpt lat="47.64433" lon="6.08671">
        <ele>218.48</ele>
        <time>2018-01-24T09:45:19Z</time>
      </trkpt>
      <trkpt lat="47.64431" lon="6.08664">
        <ele>218.5</ele>
        <time>2018-01-24T09:45:21Z</time>
      </trkpt>
      <trkpt lat="47.64428" lon="6.08658">
        <ele>218.53</ele>
        <time>2018-01-24T09:45:23Z</time>
      </trkpt>
      <trkpt lat="47.64425" lon="6.08651">
        <ele>218.55</ele>
        <time>2018-01-24T09:45:25Z</time>
      </trkpt>
      <trkpt lat="47.64423" lon="6.08643">
        <ele>218.58</ele>
        <time>2018-01-24T09:45:27Z</time>
      </trkpt>
      <trkpt lat="47.6442" lon="6.08636">
        <ele>218.6</ele>
        <time>2018-01-24T09:45:29Z</time>
      </trkpt>
      <trkpt lat="47.64416" lon="6.08628">
        <ele>218.63</ele>
        <time>2018-01-24T09:45:31Z</time>
      </trkpt>
      <trkpt lat="47.64413" lon="6.08619">
        <ele>218.66</ele>
        <time>2018-01-24T09:45:33Z</time>
      </trkpt>
      <trkpt lat="47.6441" lon="6.08611">
        <ele>218.69</ele>
        <time>2018-01-24T09:45:35Z</time>
      </trkpt>
      <trkpt lat="47.64407" lon="6.08603">
        <ele>218.71</ele>
        <time>2018-01-24T09:45:37Z</time>
      </trkpt>
      <trkpt lat="47.64404" lon="6.08595">
        <ele>218.74</ele>
        <time>2018-01-24T09:45:39Z</time>
      </trkpt>
      <trkpt lat="47.644" lon="6.08586">
        <ele>218.77</ele>
        <time>2018-01-24T09:45:41Z</time>
      </trkpt>
      <trkpt lat="47.64397" lon="6.08578">
        <ele>218.8</ele>
        <time>2018-01-24T09:45:43Z</time>
      </trkpt>
      <trkpt lat="47.64393" lon="6.0857">
        <ele>218.83</ele>
        <time>2018-01-24T09:45:45Z</time>
      </trkpt>
      <trkpt lat="47.64389" lon="6.0856">
        <ele>218.86</ele>
        <time>2018-01-24T09:45:47Z</time>
      </trkpt>
      <trkpt lat="47.64384" lon="6.0855">
        <ele>219.1</ele>
        <time>2018-01-24T09:45:49Z</time>
      </trkpt>
      <trkpt lat="47.6438" lon="6.08541">
        <ele>219.32</ele>
        <time>2018-01-24T09:45:51Z</time>
      </trkpt>
      <trkpt lat="47.64374" lon="6.08531">
        <ele>219.46</ele>
        <time>2018-01-24T09:45:53Z</time>
      </trkpt>
      <trkpt lat="47.64369" lon="6.08522">
        <ele>219.56</ele>
        <time>2018-01-24T09:45:55Z</time>
      </trkpt>
      <trkpt lat="47.64363" lon="6.08512">
        <ele>219.63</ele>
        <time>2018-01-24T09:45:57Z</time>
      </trkpt>
      <trkpt lat="47.64358" lon="6.08502">
        <ele>219.69</ele>
        <time>2018-01-24T09:45:59Z</time>
      </trkpt>
      <trkpt lat="47.64352" lon="6.08492">
        <ele>219.74</ele>
        <time>2018-01-24T09:46:01Z</time>
      </trkpt>
      <trkpt lat="47.64348" lon="6.08487">
        <ele>219.76</ele>
        <time>2018-01-24T09:46:02Z</time>
      </trkpt>
      <trkpt lat="47.64345" lon="6.08482">
        <ele>219.78</ele>
        <time>2018-01-24T09:46:03Z</time>
      </trkpt>
      <trkpt lat="47.64342" lon="6.08476">
        <ele>219.8</ele>
        <time>2018-01-24T09:46:04Z</time>
      </trkpt>
      <trkpt lat="47.64338" lon="6.08471">
        <ele>219.82</ele>
        <time>2018-01-24T09:46:05Z</time>
      </trkpt>
      <trkpt lat="47.64334" lon="6.08465">
        <ele>219.83</ele>
        <time>2018-01-24T09:46:06Z</time>
      </trkpt>
      <trkpt lat="47.64331" lon="6.0846">
        <ele>219.84</ele>
        <time>2018-01-24T09:46:07Z</time>
      </trkpt>
      <trkpt lat="47.64327" lon="6.08454">
        <ele>219.85</ele>
        <time>2018-01-24T09:46:08Z</time>
      </trkpt>
      <trkpt lat="47.64324" lon="6.08449">
        <ele>219.86</ele>
        <time>2018-01-24T09:46:09Z</time>
      </trkpt>
      <trkpt lat="47.6432" lon="6.08443">
        <ele>219.86</ele>
        <time>2018-01-24T09:46:10Z</time>
      </trkpt>
      <trkpt lat="47.64317" lon="6.08437">
        <ele>219.86</ele>
        <time>2018-01-24T09:46:11Z</time>
      </trkpt>
      <trkpt lat="47.64314" lon="6.0843">
        <ele>219.87</ele>
        <time>2018-01-24T09:46:12Z</time>
      </trkpt>
      <trkpt lat="47.6431" lon="6.08424">
        <ele>219.87</ele>
        <time>2018-01-24T09:46:13Z</time>
      </trkpt>
      <trkpt lat="47.64307" lon="6.08417">
        <ele>219.88</ele>
        <time>2018-01-24T09:46:14Z</time>
      </trkpt>
      <trkpt lat="47.64303" lon="6.0841">
        <ele>219.88</ele>
        <time>2018-01-24T09:46:15Z</time>
      </trkpt>
      <trkpt lat="47.643" lon="6.08404">
        <ele>219.89</ele>
        <time>2018-01-24T09:46:16Z</time>
      </trkpt>
      <trkpt lat="47.64297" lon="6.08397">
        <ele>219.89</ele>
        <time>2018-01-24T09:46:17Z</time>
      </trkpt>
      <trkpt lat="47.64294" lon="6.0839">
        <ele>219.89</ele>
        <time>2018-01-24T09:46:18Z</time>
      </trkpt>
      <trkpt lat="47.64291" lon="6.08383">
        <ele>219.88</ele>
        <time>2018-01-24T09:46:19Z</time>
      </trkpt>
      <trkpt lat="47.64288" lon="6.08376">
        <ele>219.88</ele>
        <time>2018-01-24T09:46:20Z</time>
      </trkpt>
      <trkpt lat="47.64285" lon="6.0837">
        <ele>219.87</ele>
        <time>2018-01-24T09:46:21Z</time>
      </trkpt>
      <trkpt lat="47.64282" lon="6.08364">
        <ele>219.86</ele>
        <time>2018-01-24T09:46:22Z</time>
      </trkpt>
      <trkpt lat="47.6428" lon="6.08357">
        <ele>219.85</ele>
        <time>2018-01-24T09:46:23Z</time>
      </trkpt>
      <trkpt lat="47.64276" lon="6.08346">
        <ele>219.82</ele>
        <time>2018-01-24T09:46:25Z</time>
      </trkpt>
      <trkpt lat="47.64271" lon="6.08335">
        <ele>219.8</ele>
        <time>2018-01-24T09:46:27Z</time>
      </trkpt>
      <trkpt lat="47.64267" lon="6.08324">
        <ele>219.76</ele>
        <time>2018-01-24T09:46:29Z</time>
      </trkpt>
      <trkpt lat="47.64264" lon="6.08315">
        <ele>219.74</ele>
        <time>2018-01-24T09:46:31Z</time>
      </trkpt>
      <trkpt lat="47.64261" lon="6.08304">
        <ele>219.73</ele>
        <time>2018-01-24T09:46:33Z</time>
      </trkpt>
      <trkpt lat="47.64258" lon="6.08296">
        <ele>219.72</ele>
        <time>2018-01-24T09:46:35Z</time>
      </trkpt>
      <trkpt lat="47.64255" lon="6.08288">
        <ele>219.72</ele>
        <time>2018-01-24T09:46:37Z</time>
      </trkpt>
      <trkpt lat="47.64252" lon="6.08279">
        <ele>219.72</ele>
        <time>2018-01-24T09:46:39Z</time>
      </trkpt>
      <trkpt lat="47.6425" lon="6.08271">
        <ele>219.72</ele>
        <time>2018-01-24T09:46:41Z</time>
      </trkpt>
      <trkpt lat="47.64247" lon="6.08263">
        <ele>219.71</ele>
        <time>2018-01-24T09:46:43Z</time>
      </trkpt>
      <trkpt lat="47.64245" lon="6.08254">
        <ele>219.71</ele>
        <time>2018-01-24T09:46:45Z</time>
      </trkpt>
      <trkpt lat="47.64242" lon="6.08244">
        <ele>219.71</ele>
        <time>2018-01-24T09:46:47Z</time>
      </trkpt>
      <trkpt lat="47.64238" lon="6.08235">
        <ele>219.71</ele>
        <time>2018-01-24T09:46:49Z</time>
      </trkpt>
      <trkpt lat="47.64235" lon="6.08225">
        <ele>219.71</ele>
        <time>2018-01-24T09:46:51Z</time>
      </trkpt>
      <trkpt lat="47.64232" lon="6.08217">
        <ele>219.71</ele>
        <time>2018-01-24T09:46:53Z</time>
      </trkpt>
      <trkpt lat="47.64229" lon="6.08208">
        <ele>219.7</ele>
        <time>2018-01-24T09:46:55Z</time>
      </trkpt>
      <trkpt lat="47.64225" lon="6.08199">
        <ele>219.7</ele>
        <time>2018-01-24T09:46:57Z</time>
      </trkpt>
      <trkpt lat="47.64222" lon="6.0819">
        <ele>219.7</ele>
        <time>2018-01-24T09:46:59Z</time>
      </trkpt>
      <trkpt lat="47.64219" lon="6.08182">
        <ele>219.7</ele>
        <time>2018-01-24T09:47:01Z</time>
      </trkpt>
      <trkpt lat="47.64215" lon="6.08173">
        <ele>219.7</ele>
        <time>2018-01-24T09:47:03Z</time>
      </trkpt>
      <trkpt lat="47.64211" lon="6.08164">
        <ele>219.69</ele>
        <time>2018-01-24T09:47:05Z</time>
      </trkpt>
      <trkpt lat="47.64206" lon="6.08155">
        <ele>219.69</ele>
        <time>2018-01-24T09:47:07Z</time>
      </trkpt>
      <trkpt lat="47.64202" lon="6.08146">
        <ele>219.7</ele>
        <time>2018-01-24T09:47:09Z</time>
      </trkpt>
      <trkpt lat="47.64198" lon="6.08137">
        <ele>219.71</ele>
        <time>2018-01-24T09:47:11Z</time>
      </trkpt>
      <trkpt lat="47.64194" lon="6.08128">
        <ele>219.71</ele>
        <time>2018-01-24T09:47:13Z</time>
      </trkpt>
      <trkpt lat="47.6419" lon="6.08118">
        <ele>219.73</ele>
        <time>2018-01-24T09:47:15Z</time>
      </trkpt>
      <trkpt lat="47.64186" lon="6.08109">
        <ele>219.74</ele>
        <time>2018-01-24T09:47:17Z</time>
      </trkpt>
      <trkpt lat="47.64181" lon="6.081">
        <ele>219.75</ele>
        <time>2018-01-24T09:47:19Z</time>
      </trkpt>
      <trkpt lat="47.64177" lon="6.08091">
        <ele>219.76</ele>
        <time>2018-01-24T09:47:21Z</time>
      </trkpt>
      <trkpt lat="47.64174" lon="6.08082">
        <ele>219.77</ele>
        <time>2018-01-24T09:47:23Z</time>
      </trkpt>
      <trkpt lat="47.6417" lon="6.08073">
        <ele>219.81</ele>
        <time>2018-01-24T09:47:25Z</time>
      </trkpt>
      <trkpt lat="47.64166" lon="6.08064">
        <ele>219.82</ele>
        <time>2018-01-24T09:47:27Z</time>
      </trkpt>
      <trkpt lat="47.64162" lon="6.08054">
        <ele>219.86</ele>
        <time>2018-01-24T09:47:29Z</time>
      </trkpt>
      <trkpt lat="47.64157" lon="6.08044">
        <ele>219.88</ele>
        <time>2018-01-24T09:47:31Z</time>
      </trkpt>
      <trkpt lat="47.64153" lon="6.08035">
        <ele>219.92</ele>
        <time>2018-01-24T09:47:33Z</time>
      </trkpt>
      <trkpt lat="47.64149" lon="6.08024">
        <ele>219.98</ele>
        <time>2018-01-24T09:47:35Z</time>
      </trkpt>
      <trkpt lat="47.64145" lon="6.08013">
        <ele>220.02</ele>
        <time>2018-01-24T09:47:37Z</time>
      </trkpt>
      <trkpt lat="47.6414" lon="6.08002">
        <ele>220.05</ele>
        <time>2018-01-24T09:47:39Z</time>
      </trkpt>
      <trkpt lat="47.64136" lon="6.07991">
        <ele>220.06</ele>
        <time>2018-01-24T09:47:41Z</time>
      </trkpt>
      <trkpt lat="47.64132" lon="6.07981">
        <ele>220.07</ele>
        <time>2018-01-24T09:47:43Z</time>
      </trkpt>
      <trkpt lat="47.64128" lon="6.07971">
        <ele>220.07</ele>
        <time>2018-01-24T09:47:45Z</time>
      </trkpt>
      <trkpt lat="47.64124" lon="6.07962">
        <ele>220.07</ele>
        <time>2018-01-24T09:47:47Z</time>
      </trkpt>
      <trkpt lat="47.6412" lon="6.07953">
        <ele>220.07</ele>
        <time>2018-01-24T09:47:49Z</time>
      </trkpt>
      <trkpt lat="47.64117" lon="6.07943">
        <ele>220.06</ele>
        <time>2018-01-24T09:47:51Z</time>
      </trkpt>
      <trkpt lat="47.64114" lon="6.07934">
        <ele>220.06</ele>
        <time>2018-01-24T09:47:53Z</time>
      </trkpt>
      <trkpt lat="47.6411" lon="6.07926">
        <ele>220.06</ele>
        <time>2018-01-24T09:47:55Z</time>
      </trkpt>
      <trkpt lat="47.64107" lon="6.07916">
        <ele>220.06</ele>
        <time>2018-01-24T09:47:57Z</time>
      </trkpt>
      <trkpt lat="47.64105" lon="6.07907">
        <ele>220.06</ele>
        <time>2018-01-24T09:47:59Z</time>
      </trkpt>
      <trkpt lat="47.64101" lon="6.07898">
        <ele>220.06</ele>
        <time>2018-01-24T09:48:01Z</time>
      </trkpt>
      <trkpt lat="47.64097" lon="6.07889">
        <ele>220.06</ele>
        <time>2018-01-24T09:48:03Z</time>
      </trkpt>
      <trkpt lat="47.64094" lon="6.0788">
        <ele>220.06</ele>
        <time>2018-01-24T09:48:05Z</time>
      </trkpt>
      <trkpt lat="47.6409" lon="6.07871">
        <ele>220.06</ele>
        <time>2018-01-24T09:48:07Z</time>
      </trkpt>
      <trkpt lat="47.64086" lon="6.07863">
        <ele>220.06</ele>
        <time>2018-01-24T09:48:09Z</time>
      </trkpt>
      <trkpt lat="47.64082" lon="6.07855">
        <ele>220.06</ele>
        <time>2018-01-24T09:48:11Z</time>
      </trkpt>
      <trkpt lat="47.64078" lon="6.07847">
        <ele>220.06</ele>
        <time>2018-01-24T09:48:13Z</time>
      </trkpt>
      <trkpt lat="47.64074" lon="6.07839">
        <ele>220.06</ele>
        <time>2018-01-24T09:48:15Z</time>
      </trkpt>
      <trkpt lat="47.6407" lon="6.07831">
        <ele>220.06</ele>
        <time>2018-01-24T09:48:17Z</time>
      </trkpt>
      <trkpt lat="47.64067" lon="6.07824">
        <ele>220.06</ele>
        <time>2018-01-24T09:48:19Z</time>
      </trkpt>
      <trkpt lat="47.64063" lon="6.07816">
        <ele>220.06</ele>
        <time>2018-01-24T09:48:21Z</time>
      </trkpt>
      <trkpt lat="47.6406" lon="6.07809">
        <ele>220.07</ele>
        <time>2018-01-24T09:48:23Z</time>
      </trkpt>
      <trkpt lat="47.64057" lon="6.07802">
        <ele>220.07</ele>
        <time>2018-01-24T09:48:25Z</time>
      </trkpt>
      <trkpt lat="47.64053" lon="6.07794">
        <ele>220.08</ele>
        <time>2018-01-24T09:48:28Z</time>
      </trkpt>
      <trkpt lat="47.64051" lon="6.07788">
        <ele>220.08</ele>
        <time>2018-01-24T09:48:30Z</time>
      </trkpt>
      <trkpt lat="47.64047" lon="6.07779">
        <ele>220.09</ele>
        <time>2018-01-24T09:48:33Z</time>
      </trkpt>
      <trkpt lat="47.64045" lon="6.07772">
        <ele>220.09</ele>
        <time>2018-01-24T09:48:35Z</time>
      </trkpt>
      <trkpt lat="47.64042" lon="6.07765">
        <ele>220.1</ele>
        <time>2018-01-24T09:48:37Z</time>
      </trkpt>
      <trkpt lat="47.64039" lon="6.07759">
        <ele>220.11</ele>
        <time>2018-01-24T09:48:39Z</time>
      </trkpt>
      <trkpt lat="47.64036" lon="6.07751">
        <ele>220.12</ele>
        <time>2018-01-24T09:48:41Z</time>
      </trkpt>
      <trkpt lat="47.64033" lon="6.07743">
        <ele>220.13</ele>
        <time>2018-01-24T09:48:43Z</time>
      </trkpt>
      <trkpt lat="47.6403" lon="6.07735">
        <ele>220.14</ele>
        <time>2018-01-24T09:48:45Z</time>
      </trkpt>
      <trkpt lat="47.64027" lon="6.07727">
        <ele>220.15</ele>
        <time>2018-01-24T09:48:47Z</time>
      </trkpt>
      <trkpt lat="47.64024" lon="6.07719">
        <ele>220.16</ele>
        <time>2018-01-24T09:48:49Z</time>
      </trkpt>
      <trkpt lat="47.64021" lon="6.07711">
        <ele>220.17</ele>
        <time>2018-01-24T09:48:51Z</time>
      </trkpt>
      <trkpt lat="47.64017" lon="6.07702">
        <ele>220.18</ele>
        <time>2018-01-24T09:48:53Z</time>
      </trkpt>
      <trkpt lat="47.64014" lon="6.07692">
        <ele>220.19</ele>
        <time>2018-01-24T09:48:55Z</time>
      </trkpt>
      <trkpt lat="47.64011" lon="6.07683">
        <ele>220.2</ele>
        <time>2018-01-24T09:48:57Z</time>
      </trkpt>
      <trkpt lat="47.64007" lon="6.07674">
        <ele>220.21</ele>
        <time>2018-01-24T09:48:59Z</time>
      </trkpt>
      <trkpt lat="47.64003" lon="6.07664">
        <ele>220.22</ele>
        <time>2018-01-24T09:49:01Z</time>
      </trkpt>
      <trkpt lat="47.64" lon="6.07655">
        <ele>220.29</ele>
        <time>2018-01-24T09:49:03Z</time>
      </trkpt>
      <trkpt lat="47.63996" lon="6.07644">
        <ele>220.34</ele>
        <time>2018-01-24T09:49:05Z</time>
      </trkpt>
      <trkpt lat="47.63991" lon="6.07634">
        <ele>220.37</ele>
        <time>2018-01-24T09:49:07Z</time>
      </trkpt>
      <trkpt lat="47.63988" lon="6.07623">
        <ele>220.38</ele>
        <time>2018-01-24T09:49:09Z</time>
      </trkpt>
      <trkpt lat="47.63985" lon="6.07613">
        <ele>220.38</ele>
        <time>2018-01-24T09:49:11Z</time>
      </trkpt>
      <trkpt lat="47.63981" lon="6.07602">
        <ele>220.38</ele>
        <time>2018-01-24T09:49:13Z</time>
      </trkpt>
      <trkpt lat="47.63978" lon="6.07592">
        <ele>220.38</ele>
        <time>2018-01-24T09:49:15Z</time>
      </trkpt>
      <trkpt lat="47.63975" lon="6.07583">
        <ele>220.38</ele>
        <time>2018-01-24T09:49:17Z</time>
      </trkpt>
      <trkpt lat="47.63972" lon="6.07573">
        <ele>220.38</ele>
        <time>2018-01-24T09:49:19Z</time>
      </trkpt>
      <trkpt lat="47.63969" lon="6.07564">
        <ele>220.38</ele>
        <time>2018-01-24T09:49:21Z</time>
      </trkpt>
      <trkpt lat="47.63966" lon="6.07556">
        <ele>220.38</ele>
        <time>2018-01-24T09:49:23Z</time>
      </trkpt>
      <trkpt lat="47.63962" lon="6.07547">
        <ele>220.38</ele>
        <time>2018-01-24T09:49:25Z</time>
      </trkpt>
      <trkpt lat="47.63959" lon="6.07539">
        <ele>220.38</ele>
        <time>2018-01-24T09:49:27Z</time>
      </trkpt>
      <trkpt lat="47.63955" lon="6.07531">
        <ele>220.38</ele>
        <time>2018-01-24T09:49:29Z</time>
      </trkpt>
      <trkpt lat="47.63952" lon="6.07522">
        <ele>220.38</ele>
        <time>2018-01-24T09:49:31Z</time>
      </trkpt>
      <trkpt lat="47.63948" lon="6.07515">
        <ele>220.38</ele>
        <time>2018-01-24T09:49:33Z</time>
      </trkpt>
      <trkpt lat="47.63945" lon="6.07508">
        <ele>220.39</ele>
        <time>2018-01-24T09:49:35Z</time>
      </trkpt>
      <trkpt lat="47.63941" lon="6.075">
        <ele>220.39</ele>
        <time>2018-01-24T09:49:37Z</time>
      </trkpt>
      <trkpt lat="47.63938" lon="6.07493">
        <ele>220.4</ele>
        <time>2018-01-24T09:49:39Z</time>
      </trkpt>
      <trkpt lat="47.63934" lon="6.07483">
        <ele>220.4</ele>
        <time>2018-01-24T09:49:41Z</time>
      </trkpt>
      <trkpt lat="47.63931" lon="6.07478">
        <ele>220.41</ele>
        <time>2018-01-24T09:49:42Z</time>
      </trkpt>
      <trkpt lat="47.63927" lon="6.07468">
        <ele>220.42</ele>
        <time>2018-01-24T09:49:44Z</time>
      </trkpt>
      <trkpt lat="47.63923" lon="6.07459">
        <ele>220.43</ele>
        <time>2018-01-24T09:49:46Z</time>
      </trkpt>
      <trkpt lat="47.6392" lon="6.0745">
        <ele>220.44</ele>
        <time>2018-01-24T09:49:48Z</time>
      </trkpt>
      <trkpt lat="47.63916" lon="6.07442">
        <ele>220.46</ele>
        <time>2018-01-24T09:49:50Z</time>
      </trkpt>
      <trkpt lat="47.63912" lon="6.07433">
        <ele>220.47</ele>
        <time>2018-01-24T09:49:52Z</time>
      </trkpt>
      <trkpt lat="47.63907" lon="6.07425">
        <ele>220.49</ele>
        <time>2018-01-24T09:49:54Z</time>
      </trkpt>
      <trkpt lat="47.63901" lon="6.07418">
        <ele>220.5</ele>
        <time>2018-01-24T09:49:56Z</time>
      </trkpt>
      <trkpt lat="47.63896" lon="6.07412">
        <ele>220.52</ele>
        <time>2018-01-24T09:49:58Z</time>
      </trkpt>
      <trkpt lat="47.63891" lon="6.07406">
        <ele>220.54</ele>
        <time>2018-01-24T09:50:00Z</time>
      </trkpt>
      <trkpt lat="47.63883" lon="6.07401">
        <ele>220.63</ele>
        <time>2018-01-24T09:50:02Z</time>
      </trkpt>
      <trkpt lat="47.63875" lon="6.07395">
        <ele>220.81</ele>
        <time>2018-01-24T09:50:04Z</time>
      </trkpt>
      <trkpt lat="47.63871" lon="6.07393">
        <ele>220.89</ele>
        <time>2018-01-24T09:50:05Z</time>
      </trkpt>
      <trkpt lat="47.63867" lon="6.0739">
        <ele>220.95</ele>
        <time>2018-01-24T09:50:06Z</time>
      </trkpt>
      <trkpt lat="47.63862" lon="6.07387">
        <ele>221.01</ele>
        <time>2018-01-24T09:50:07Z</time>
      </trkpt>
      <trkpt lat="47.63857" lon="6.07384">
        <ele>221.06</ele>
        <time>2018-01-24T09:50:08Z</time>
      </trkpt>
      <trkpt lat="47.63849" lon="6.07378">
        <ele>221.14</ele>
        <time>2018-01-24T09:50:10Z</time>
      </trkpt>
      <trkpt lat="47.63842" lon="6.07373">
        <ele>221.2</ele>
        <time>2018-01-24T09:50:12Z</time>
      </trkpt>
      <trkpt lat="47.63838" lon="6.07368">
        <ele>221.23</ele>
        <time>2018-01-24T09:50:13Z</time>
      </trkpt>
      <trkpt lat="47.63832" lon="6.07361">
        <ele>221.26</ele>
        <time>2018-01-24T09:50:15Z</time>
      </trkpt>
      <trkpt lat="47.63826" lon="6.07352">
        <ele>221.28</ele>
        <time>2018-01-24T09:50:17Z</time>
      </trkpt>
      <trkpt lat="47.63819" lon="6.07345">
        <ele>221.3</ele>
        <time>2018-01-24T09:50:19Z</time>
      </trkpt>
      <trkpt lat="47.63813" lon="6.07338">
        <ele>221.3</ele>
        <time>2018-01-24T09:50:21Z</time>
      </trkpt>
      <trkpt lat="47.63807" lon="6.07331">
        <ele>221.32</ele>
        <time>2018-01-24T09:50:23Z</time>
      </trkpt>
      <trkpt lat="47.638" lon="6.07323">
        <ele>221.34</ele>
        <time>2018-01-24T09:50:25Z</time>
      </trkpt>
      <trkpt lat="47.63796" lon="6.07319">
        <ele>221.34</ele>
        <time>2018-01-24T09:50:26Z</time>
      </trkpt>
      <trkpt lat="47.63792" lon="6.07315">
        <ele>221.35</ele>
        <time>2018-01-24T09:50:27Z</time>
      </trkpt>
      <trkpt lat="47.63788" lon="6.0731">
        <ele>221.35</ele>
        <time>2018-01-24T09:50:28Z</time>
      </trkpt>
      <trkpt lat="47.63784" lon="6.07306">
        <ele>221.35</ele>
        <time>2018-01-24T09:50:29Z</time>
      </trkpt>
      <trkpt lat="47.63779" lon="6.07302">
        <ele>221.35</ele>
        <time>2018-01-24T09:50:30Z</time>
      </trkpt>
      <trkpt lat="47.63775" lon="6.07296">
        <ele>221.36</ele>
        <time>2018-01-24T09:50:31Z</time>
      </trkpt>
      <trkpt lat="47.63771" lon="6.07291">
        <ele>221.36</ele>
        <time>2018-01-24T09:50:32Z</time>
      </trkpt>
      <trkpt lat="47.63768" lon="6.07286">
        <ele>221.36</ele>
        <time>2018-01-24T09:50:33Z</time>
      </trkpt>
      <trkpt lat="47.63765" lon="6.07281">
        <ele>221.37</ele>
        <time>2018-01-24T09:50:34Z</time>
      </trkpt>
      <trkpt lat="47.63762" lon="6.07275">
        <ele>221.37</ele>
        <time>2018-01-24T09:50:35Z</time>
      </trkpt>
      <trkpt lat="47.63759" lon="6.0727">
        <ele>221.36</ele>
        <time>2018-01-24T09:50:36Z</time>
      </trkpt>
      <trkpt lat="47.63755" lon="6.07259">
        <ele>221.36</ele>
        <time>2018-01-24T09:50:38Z</time>
      </trkpt>
      <trkpt lat="47.63754" lon="6.07247">
        <ele>221.36</ele>
        <time>2018-01-24T09:50:40Z</time>
      </trkpt>
      <trkpt lat="47.63753" lon="6.07238">
        <ele>221.35</ele>
        <time>2018-01-24T09:50:42Z</time>
      </trkpt>
      <trkpt lat="47.63752" lon="6.07231">
        <ele>221.36</ele>
        <time>2018-01-24T09:50:49Z</time>
      </trkpt>
      <trkpt lat="47.63757" lon="6.07233">
        <ele>221.4</ele>
        <time>2018-01-24T09:51:01Z</time>
      </trkpt>
      <trkpt lat="47.63757" lon="6.07226">
        <ele>221.65</ele>
        <time>2018-01-24T09:52:10Z</time>
      </trkpt>
      <trkpt lat="47.63758" lon="6.0722">
        <ele>221.71</ele>
        <time>2018-01-24T09:52:26Z</time>
      </trkpt>
      <trkpt lat="47.63761" lon="6.07214">
        <ele>222.32</ele>
        <time>2018-01-24T09:53:27Z</time>
      </trkpt>
      <trkpt lat="47.63761" lon="6.07207">
        <ele>222.93</ele>
        <time>2018-01-24T09:53:52Z</time>
      </trkpt>
      <trkpt lat="47.63764" lon="6.07213">
        <ele>223.09</ele>
        <time>2018-01-24T09:54:00Z</time>
      </trkpt>
      <trkpt lat="47.63764" lon="6.0722">
        <ele>223.14</ele>
        <time>2018-01-24T09:54:04Z</time>
      </trkpt>
      <trkpt lat="47.63762" lon="6.07227">
        <ele>223.35</ele>
        <time>2018-01-24T09:54:36Z</time>
      </trkpt>
      <trkpt lat="47.63758" lon="6.07229">
        <ele>223.52</ele>
        <time>2018-01-24T09:55:36Z</time>
      </trkpt>
      <trkpt lat="47.63759" lon="6.07236">
        <ele>224.03</ele>
        <time>2018-01-24T09:56:28Z</time>
      </trkpt>
      <trkpt lat="47.63763" lon="6.07238">
        <ele>224.21</ele>
        <time>2018-01-24T09:57:06Z</time>
      </trkpt>
      <trkpt lat="47.6376" lon="6.07231">
        <ele>224.85</ele>
        <time>2018-01-24T09:59:06Z</time>
      </trkpt>
      <trkpt lat="47.63758" lon="6.07225">
        <ele>224.88</ele>
        <time>2018-01-24T09:59:08Z</time>
      </trkpt>
      <trkpt lat="47.63755" lon="6.07219">
        <ele>224.91</ele>
        <time>2018-01-24T09:59:12Z</time>
      </trkpt>
      <trkpt lat="47.63752" lon="6.07211">
        <ele>224.93</ele>
        <time>2018-01-24T09:59:16Z</time>
      </trkpt>
      <trkpt lat="47.63754" lon="6.07204">
        <ele>224.96</ele>
        <time>2018-01-24T09:59:18Z</time>
      </trkpt>
      <trkpt lat="47.63757" lon="6.07196">
        <ele>224.97</ele>
        <time>2018-01-24T09:59:19Z</time>
      </trkpt>
      <trkpt lat="47.63752" lon="6.07207">
        <ele>225</ele>
        <time>2018-01-24T09:59:30Z</time>
      </trkpt>
      <trkpt lat="47.63751" lon="6.07214">
        <ele>225</ele>
        <time>2018-01-24T09:59:31Z</time>
      </trkpt>
      <trkpt lat="47.6375" lon="6.07221">
        <ele>225.01</ele>
        <time>2018-01-24T09:59:33Z</time>
      </trkpt>
      <trkpt lat="47.63752" lon="6.0723">
        <ele>225.13</ele>
        <time>2018-01-24T10:00:34Z</time>
      </trkpt>
      <trkpt lat="47.63755" lon="6.07225">
        <ele>225.24</ele>
        <time>2018-01-24T10:00:57Z</time>
      </trkpt>
      <trkpt lat="47.63759" lon="6.0722">
        <ele>225.3</ele>
        <time>2018-01-24T10:01:07Z</time>
      </trkpt>
      <trkpt lat="47.63756" lon="6.07226">
        <ele>225.58</ele>
        <time>2018-01-24T10:02:00Z</time>
      </trkpt>
      <trkpt lat="47.63754" lon="6.07233">
        <ele>225.67</ele>
        <time>2018-01-24T10:02:03Z</time>
      </trkpt>
      <trkpt lat="47.63748" lon="6.07241">
        <ele>225.74</ele>
        <time>2018-01-24T10:02:05Z</time>
      </trkpt>
      <trkpt lat="47.63741" lon="6.07243">
        <ele>225.79</ele>
        <time>2018-01-24T10:02:07Z</time>
      </trkpt>
      <trkpt lat="47.63733" lon="6.07242">
        <ele>226.2</ele>
        <time>2018-01-24T10:02:09Z</time>
      </trkpt>
      <trkpt lat="47.63728" lon="6.0724">
        <ele>226.38</ele>
        <time>2018-01-24T10:02:10Z</time>
      </trkpt>
      <trkpt lat="47.63724" lon="6.07238">
        <ele>226.54</ele>
        <time>2018-01-24T10:02:11Z</time>
      </trkpt>
      <trkpt lat="47.63719" lon="6.07235">
        <ele>226.66</ele>
        <time>2018-01-24T10:02:12Z</time>
      </trkpt>
      <trkpt lat="47.63714" lon="6.07232">
        <ele>226.76</ele>
        <time>2018-01-24T10:02:13Z</time>
      </trkpt>
      <trkpt lat="47.63709" lon="6.07229">
        <ele>226.83</ele>
        <time>2018-01-24T10:02:14Z</time>
      </trkpt>
      <trkpt lat="47.63704" lon="6.07226">
        <ele>226.89</ele>
        <time>2018-01-24T10:02:15Z</time>
      </trkpt>
      <trkpt lat="47.63699" lon="6.07223">
        <ele>226.93</ele>
        <time>2018-01-24T10:02:16Z</time>
      </trkpt>
      <trkpt lat="47.63695" lon="6.07219">
        <ele>226.96</ele>
        <time>2018-01-24T10:02:17Z</time>
      </trkpt>
      <trkpt lat="47.6369" lon="6.07216">
        <ele>226.98</ele>
        <time>2018-01-24T10:02:18Z</time>
      </trkpt>
      <trkpt lat="47.63682" lon="6.07211">
        <ele>226.99</ele>
        <time>2018-01-24T10:02:20Z</time>
      </trkpt>
      <trkpt lat="47.63676" lon="6.07206">
        <ele>226.99</ele>
        <time>2018-01-24T10:02:22Z</time>
      </trkpt>
      <trkpt lat="47.6367" lon="6.07202">
        <ele>226.98</ele>
        <time>2018-01-24T10:02:24Z</time>
      </trkpt>
      <trkpt lat="47.63666" lon="6.07198">
        <ele>226.96</ele>
        <time>2018-01-24T10:02:29Z</time>
      </trkpt>
      <trkpt lat="47.63662" lon="6.07194">
        <ele>226.81</ele>
        <time>2018-01-24T10:03:09Z</time>
      </trkpt>
      <trkpt lat="47.63658" lon="6.0719">
        <ele>226.78</ele>
        <time>2018-01-24T10:03:11Z</time>
      </trkpt>
      <trkpt lat="47.63652" lon="6.07187">
        <ele>226.75</ele>
        <time>2018-01-24T10:03:13Z</time>
      </trkpt>
      <trkpt lat="47.63646" lon="6.07181">
        <ele>226.63</ele>
        <time>2018-01-24T10:03:15Z</time>
      </trkpt>
      <trkpt lat="47.63638" lon="6.07174">
        <ele>226.4</ele>
        <time>2018-01-24T10:03:17Z</time>
      </trkpt>
      <trkpt lat="47.63634" lon="6.0717">
        <ele>226.31</ele>
        <time>2018-01-24T10:03:18Z</time>
      </trkpt>
      <trkpt lat="47.6363" lon="6.07166">
        <ele>226.23</ele>
        <time>2018-01-24T10:03:19Z</time>
      </trkpt>
      <trkpt lat="47.63626" lon="6.07161">
        <ele>226.16</ele>
        <time>2018-01-24T10:03:20Z</time>
      </trkpt>
      <trkpt lat="47.63623" lon="6.07157">
        <ele>226.1</ele>
        <time>2018-01-24T10:03:21Z</time>
      </trkpt>
      <trkpt lat="47.6362" lon="6.07152">
        <ele>226.04</ele>
        <time>2018-01-24T10:03:22Z</time>
      </trkpt>
      <trkpt lat="47.63613" lon="6.07143">
        <ele>225.93</ele>
        <time>2018-01-24T10:03:24Z</time>
      </trkpt>
      <trkpt lat="47.6361" lon="6.07138">
        <ele>225.87</ele>
        <time>2018-01-24T10:03:25Z</time>
      </trkpt>
      <trkpt lat="47.63607" lon="6.07133">
        <ele>225.81</ele>
        <time>2018-01-24T10:03:26Z</time>
      </trkpt>
      <trkpt lat="47.63603" lon="6.07128">
        <ele>225.75</ele>
        <time>2018-01-24T10:03:27Z</time>
      </trkpt>
      <trkpt lat="47.63598" lon="6.07119">
        <ele>225.64</ele>
        <time>2018-01-24T10:03:29Z</time>
      </trkpt>
      <trkpt lat="47.63591" lon="6.07109">
        <ele>225.52</ele>
        <time>2018-01-24T10:03:31Z</time>
      </trkpt>
      <trkpt lat="47.63588" lon="6.07105">
        <ele>225.46</ele>
        <time>2018-01-24T10:03:32Z</time>
      </trkpt>
      <trkpt lat="47.63584" lon="6.071">
        <ele>225.41</ele>
        <time>2018-01-24T10:03:33Z</time>
      </trkpt>
      <trkpt lat="47.63581" lon="6.07095">
        <ele>225.36</ele>
        <time>2018-01-24T10:03:34Z</time>
      </trkpt>
      <trkpt lat="47.63574" lon="6.07086">
        <ele>225.27</ele>
        <time>2018-01-24T10:03:36Z</time>
      </trkpt>
      <trkpt lat="47.63568" lon="6.07078">
        <ele>225.19</ele>
        <time>2018-01-24T10:03:38Z</time>
      </trkpt>
      <trkpt lat="47.63564" lon="6.07073">
        <ele>225.15</ele>
        <time>2018-01-24T10:03:39Z</time>
      </trkpt>
      <trkpt lat="47.63558" lon="6.07064">
        <ele>225.07</ele>
        <time>2018-01-24T10:03:41Z</time>
      </trkpt>
      <trkpt lat="47.63552" lon="6.07057">
        <ele>224.99</ele>
        <time>2018-01-24T10:03:43Z</time>
      </trkpt>
      <trkpt lat="47.63546" lon="6.0705">
        <ele>224.93</ele>
        <time>2018-01-24T10:03:45Z</time>
      </trkpt>
      <trkpt lat="47.6354" lon="6.07043">
        <ele>224.92</ele>
        <time>2018-01-24T10:03:47Z</time>
      </trkpt>
      <trkpt lat="47.63535" lon="6.07036">
        <ele>224.91</ele>
        <time>2018-01-24T10:03:49Z</time>
      </trkpt>
      <trkpt lat="47.6353" lon="6.07028">
        <ele>224.89</ele>
        <time>2018-01-24T10:03:51Z</time>
      </trkpt>
      <trkpt lat="47.63525" lon="6.07022">
        <ele>224.88</ele>
        <time>2018-01-24T10:03:53Z</time>
      </trkpt>
      <trkpt lat="47.6352" lon="6.07015">
        <ele>224.86</ele>
        <time>2018-01-24T10:03:55Z</time>
      </trkpt>
      <trkpt lat="47.63514" lon="6.07007">
        <ele>224.78</ele>
        <time>2018-01-24T10:03:57Z</time>
      </trkpt>
      <trkpt lat="47.63509" lon="6.06999">
        <ele>224.74</ele>
        <time>2018-01-24T10:03:59Z</time>
      </trkpt>
      <trkpt lat="47.63504" lon="6.06991">
        <ele>224.72</ele>
        <time>2018-01-24T10:04:01Z</time>
      </trkpt>
      <trkpt lat="47.63499" lon="6.06982">
        <ele>224.7</ele>
        <time>2018-01-24T10:04:03Z</time>
      </trkpt>
      <trkpt lat="47.63494" lon="6.06975">
        <ele>224.68</ele>
        <time>2018-01-24T10:04:05Z</time>
      </trkpt>
      <trkpt lat="47.6349" lon="6.06967">
        <ele>224.65</ele>
        <time>2018-01-24T10:04:07Z</time>
      </trkpt>
      <trkpt lat="47.63487" lon="6.0696">
        <ele>224.63</ele>
        <time>2018-01-24T10:04:09Z</time>
      </trkpt>
      <trkpt lat="47.63482" lon="6.06953">
        <ele>224.61</ele>
        <time>2018-01-24T10:04:11Z</time>
      </trkpt>
      <trkpt lat="47.63478" lon="6.06947">
        <ele>224.59</ele>
        <time>2018-01-24T10:04:13Z</time>
      </trkpt>
      <trkpt lat="47.63475" lon="6.0694">
        <ele>224.57</ele>
        <time>2018-01-24T10:04:15Z</time>
      </trkpt>
      <trkpt lat="47.6347" lon="6.06934">
        <ele>224.55</ele>
        <time>2018-01-24T10:04:17Z</time>
      </trkpt>
      <trkpt lat="47.63463" lon="6.06927">
        <ele>224.53</ele>
        <time>2018-01-24T10:04:19Z</time>
      </trkpt>
      <trkpt lat="47.63457" lon="6.06921">
        <ele>224.5</ele>
        <time>2018-01-24T10:04:21Z</time>
      </trkpt>
      <trkpt lat="47.63451" lon="6.06915">
        <ele>224.48</ele>
        <time>2018-01-24T10:04:23Z</time>
      </trkpt>
      <trkpt lat="47.63444" lon="6.0691">
        <ele>224.46</ele>
        <time>2018-01-24T10:04:25Z</time>
      </trkpt>
      <trkpt lat="47.63438" lon="6.06904">
        <ele>224.44</ele>
        <time>2018-01-24T10:04:27Z</time>
      </trkpt>
      <trkpt lat="47.63431" lon="6.06898">
        <ele>224.35</ele>
        <time>2018-01-24T10:04:29Z</time>
      </trkpt>
      <trkpt lat="47.63426" lon="6.06893">
        <ele>224.33</ele>
        <time>2018-01-24T10:04:31Z</time>
      </trkpt>
      <trkpt lat="47.6342" lon="6.06888">
        <ele>224.32</ele>
        <time>2018-01-24T10:04:33Z</time>
      </trkpt>
      <trkpt lat="47.63415" lon="6.06883">
        <ele>224.31</ele>
        <time>2018-01-24T10:04:35Z</time>
      </trkpt>
      <trkpt lat="47.63409" lon="6.06879">
        <ele>224.3</ele>
        <time>2018-01-24T10:04:37Z</time>
      </trkpt>
      <trkpt lat="47.63402" lon="6.06874">
        <ele>224.3</ele>
        <time>2018-01-24T10:04:39Z</time>
      </trkpt>
      <trkpt lat="47.63396" lon="6.06868">
        <ele>224.29</ele>
        <time>2018-01-24T10:04:41Z</time>
      </trkpt>
      <trkpt lat="47.63389" lon="6.06863">
        <ele>224.29</ele>
        <time>2018-01-24T10:04:43Z</time>
      </trkpt>
      <trkpt lat="47.63381" lon="6.06859">
        <ele>224.28</ele>
        <time>2018-01-24T10:04:45Z</time>
      </trkpt>
      <trkpt lat="47.63375" lon="6.06854">
        <ele>224.28</ele>
        <time>2018-01-24T10:04:47Z</time>
      </trkpt>
      <trkpt lat="47.6337" lon="6.06849">
        <ele>224.28</ele>
        <time>2018-01-24T10:04:49Z</time>
      </trkpt>
      <trkpt lat="47.63364" lon="6.06844">
        <ele>224.27</ele>
        <time>2018-01-24T10:04:51Z</time>
      </trkpt>
      <trkpt lat="47.63358" lon="6.0684">
        <ele>224.26</ele>
        <time>2018-01-24T10:04:53Z</time>
      </trkpt>
      <trkpt lat="47.63352" lon="6.06835">
        <ele>224.26</ele>
        <time>2018-01-24T10:04:55Z</time>
      </trkpt>
      <trkpt lat="47.63346" lon="6.06831">
        <ele>224.25</ele>
        <time>2018-01-24T10:04:57Z</time>
      </trkpt>
      <trkpt lat="47.6334" lon="6.06827">
        <ele>224.24</ele>
        <time>2018-01-24T10:04:59Z</time>
      </trkpt>
      <trkpt lat="47.63334" lon="6.06823">
        <ele>224.23</ele>
        <time>2018-01-24T10:05:01Z</time>
      </trkpt>
      <trkpt lat="47.63327" lon="6.06818">
        <ele>224.22</ele>
        <time>2018-01-24T10:05:03Z</time>
      </trkpt>
      <trkpt lat="47.63321" lon="6.06813">
        <ele>224.15</ele>
        <time>2018-01-24T10:05:05Z</time>
      </trkpt>
      <trkpt lat="47.63312" lon="6.06808">
        <ele>224.08</ele>
        <time>2018-01-24T10:05:07Z</time>
      </trkpt>
      <trkpt lat="47.63308" lon="6.06807">
        <ele>224.06</ele>
        <time>2018-01-24T10:05:08Z</time>
      </trkpt>
      <trkpt lat="47.63303" lon="6.06805">
        <ele>224.03</ele>
        <time>2018-01-24T10:05:09Z</time>
      </trkpt>
      <trkpt lat="47.63298" lon="6.06803">
        <ele>224.01</ele>
        <time>2018-01-24T10:05:10Z</time>
      </trkpt>
      <trkpt lat="47.63293" lon="6.068">
        <ele>223.99</ele>
        <time>2018-01-24T10:05:11Z</time>
      </trkpt>
      <trkpt lat="47.63288" lon="6.06798">
        <ele>223.97</ele>
        <time>2018-01-24T10:05:12Z</time>
      </trkpt>
      <trkpt lat="47.63283" lon="6.06796">
        <ele>223.95</ele>
        <time>2018-01-24T10:05:13Z</time>
      </trkpt>
      <trkpt lat="47.63278" lon="6.06794">
        <ele>223.93</ele>
        <time>2018-01-24T10:05:14Z</time>
      </trkpt>
      <trkpt lat="47.63273" lon="6.06792">
        <ele>223.91</ele>
        <time>2018-01-24T10:05:15Z</time>
      </trkpt>
      <trkpt lat="47.63268" lon="6.06791">
        <ele>223.9</ele>
        <time>2018-01-24T10:05:16Z</time>
      </trkpt>
      <trkpt lat="47.63264" lon="6.0679">
        <ele>223.88</ele>
        <time>2018-01-24T10:05:17Z</time>
      </trkpt>
      <trkpt lat="47.63259" lon="6.06788">
        <ele>223.86</ele>
        <time>2018-01-24T10:05:18Z</time>
      </trkpt>
      <trkpt lat="47.63251" lon="6.06784">
        <ele>223.84</ele>
        <time>2018-01-24T10:05:20Z</time>
      </trkpt>
      <trkpt lat="47.63242" lon="6.06781">
        <ele>223.82</ele>
        <time>2018-01-24T10:05:22Z</time>
      </trkpt>
      <trkpt lat="47.63233" lon="6.06778">
        <ele>223.8</ele>
        <time>2018-01-24T10:05:24Z</time>
      </trkpt>
      <trkpt lat="47.63229" lon="6.06777">
        <ele>223.79</ele>
        <time>2018-01-24T10:05:25Z</time>
      </trkpt>
      <trkpt lat="47.63221" lon="6.06775">
        <ele>223.77</ele>
        <time>2018-01-24T10:05:27Z</time>
      </trkpt>
      <trkpt lat="47.63213" lon="6.06771">
        <ele>223.76</ele>
        <time>2018-01-24T10:05:29Z</time>
      </trkpt>
      <trkpt lat="47.63205" lon="6.06766">
        <ele>223.71</ele>
        <time>2018-01-24T10:05:31Z</time>
      </trkpt>
      <trkpt lat="47.632" lon="6.06763">
        <ele>223.68</ele>
        <time>2018-01-24T10:05:32Z</time>
      </trkpt>
      <trkpt lat="47.63194" lon="6.0676">
        <ele>223.65</ele>
        <time>2018-01-24T10:05:33Z</time>
      </trkpt>
      <trkpt lat="47.63188" lon="6.0676">
        <ele>223.61</ele>
        <time>2018-01-24T10:05:34Z</time>
      </trkpt>
      <trkpt lat="47.63182" lon="6.06759">
        <ele>223.58</ele>
        <time>2018-01-24T10:05:35Z</time>
      </trkpt>
      <trkpt lat="47.63176" lon="6.06757">
        <ele>223.54</ele>
        <time>2018-01-24T10:05:36Z</time>
      </trkpt>
      <trkpt lat="47.6317" lon="6.06755">
        <ele>223.51</ele>
        <time>2018-01-24T10:05:37Z</time>
      </trkpt>
      <trkpt lat="47.63164" lon="6.06753">
        <ele>223.48</ele>
        <time>2018-01-24T10:05:38Z</time>
      </trkpt>
      <trkpt lat="47.63158" lon="6.06752">
        <ele>223.45</ele>
        <time>2018-01-24T10:05:39Z</time>
      </trkpt>
      <trkpt lat="47.63152" lon="6.0675">
        <ele>223.42</ele>
        <time>2018-01-24T10:05:40Z</time>
      </trkpt>
      <trkpt lat="47.63146" lon="6.06749">
        <ele>223.39</ele>
        <time>2018-01-24T10:05:41Z</time>
      </trkpt>
      <trkpt lat="47.63141" lon="6.06747">
        <ele>223.36</ele>
        <time>2018-01-24T10:05:42Z</time>
      </trkpt>
      <trkpt lat="47.63135" lon="6.06745">
        <ele>223.33</ele>
        <time>2018-01-24T10:05:43Z</time>
      </trkpt>
      <trkpt lat="47.6313" lon="6.06744">
        <ele>223.3</ele>
        <time>2018-01-24T10:05:44Z</time>
      </trkpt>
      <trkpt lat="47.63125" lon="6.06744">
        <ele>223.27</ele>
        <time>2018-01-24T10:05:45Z</time>
      </trkpt>
      <trkpt lat="47.63119" lon="6.06743">
        <ele>223.24</ele>
        <time>2018-01-24T10:05:46Z</time>
      </trkpt>
      <trkpt lat="47.63113" lon="6.06742">
        <ele>223.22</ele>
        <time>2018-01-24T10:05:47Z</time>
      </trkpt>
      <trkpt lat="47.63108" lon="6.06739">
        <ele>223.2</ele>
        <time>2018-01-24T10:05:48Z</time>
      </trkpt>
      <trkpt lat="47.63103" lon="6.06737">
        <ele>223.18</ele>
        <time>2018-01-24T10:05:49Z</time>
      </trkpt>
      <trkpt lat="47.63099" lon="6.06735">
        <ele>223.16</ele>
        <time>2018-01-24T10:05:50Z</time>
      </trkpt>
      <trkpt lat="47.63094" lon="6.06733">
        <ele>223.16</ele>
        <time>2018-01-24T10:05:51Z</time>
      </trkpt>
      <trkpt lat="47.63089" lon="6.06731">
        <ele>223.16</ele>
        <time>2018-01-24T10:05:52Z</time>
      </trkpt>
      <trkpt lat="47.63083" lon="6.06729">
        <ele>223.16</ele>
        <time>2018-01-24T10:05:53Z</time>
      </trkpt>
      <trkpt lat="47.63079" lon="6.06729">
        <ele>223.17</ele>
        <time>2018-01-24T10:05:54Z</time>
      </trkpt>
      <trkpt lat="47.63073" lon="6.06728">
        <ele>223.17</ele>
        <time>2018-01-24T10:05:55Z</time>
      </trkpt>
      <trkpt lat="47.63068" lon="6.06727">
        <ele>223.18</ele>
        <time>2018-01-24T10:05:56Z</time>
      </trkpt>
      <trkpt lat="47.63063" lon="6.06726">
        <ele>223.2</ele>
        <time>2018-01-24T10:05:57Z</time>
      </trkpt>
      <trkpt lat="47.63058" lon="6.06726">
        <ele>223.21</ele>
        <time>2018-01-24T10:05:58Z</time>
      </trkpt>
      <trkpt lat="47.63052" lon="6.06726">
        <ele>223.22</ele>
        <time>2018-01-24T10:05:59Z</time>
      </trkpt>
      <trkpt lat="47.63046" lon="6.06726">
        <ele>223.23</ele>
        <time>2018-01-24T10:06:00Z</time>
      </trkpt>
      <trkpt lat="47.63041" lon="6.06725">
        <ele>223.23</ele>
        <time>2018-01-24T10:06:01Z</time>
      </trkpt>
      <trkpt lat="47.63035" lon="6.06726">
        <ele>223.24</ele>
        <time>2018-01-24T10:06:02Z</time>
      </trkpt>
      <trkpt lat="47.6303" lon="6.06725">
        <ele>223.26</ele>
        <time>2018-01-24T10:06:03Z</time>
      </trkpt>
      <trkpt lat="47.63024" lon="6.06725">
        <ele>223.26</ele>
        <time>2018-01-24T10:06:04Z</time>
      </trkpt>
      <trkpt lat="47.63019" lon="6.06724">
        <ele>223.27</ele>
        <time>2018-01-24T10:06:05Z</time>
      </trkpt>
      <trkpt lat="47.63014" lon="6.06726">
        <ele>223.28</ele>
        <time>2018-01-24T10:06:06Z</time>
      </trkpt>
      <trkpt lat="47.63009" lon="6.06725">
        <ele>223.28</ele>
        <time>2018-01-24T10:06:07Z</time>
      </trkpt>
      <trkpt lat="47.63003" lon="6.06725">
        <ele>223.29</ele>
        <time>2018-01-24T10:06:08Z</time>
      </trkpt>
      <trkpt lat="47.62998" lon="6.06725">
        <ele>223.29</ele>
        <time>2018-01-24T10:06:09Z</time>
      </trkpt>
      <trkpt lat="47.62993" lon="6.06724">
        <ele>223.29</ele>
        <time>2018-01-24T10:06:10Z</time>
      </trkpt>
      <trkpt lat="47.62987" lon="6.06724">
        <ele>223.29</ele>
        <time>2018-01-24T10:06:11Z</time>
      </trkpt>
      <trkpt lat="47.62981" lon="6.06725">
        <ele>223.29</ele>
        <time>2018-01-24T10:06:12Z</time>
      </trkpt>
      <trkpt lat="47.62976" lon="6.06726">
        <ele>223.29</ele>
        <time>2018-01-24T10:06:13Z</time>
      </trkpt>
      <trkpt lat="47.62971" lon="6.06726">
        <ele>223.28</ele>
        <time>2018-01-24T10:06:14Z</time>
      </trkpt>
      <trkpt lat="47.62965" lon="6.06727">
        <ele>223.27</ele>
        <time>2018-01-24T10:06:15Z</time>
      </trkpt>
      <trkpt lat="47.62959" lon="6.06727">
        <ele>223.25</ele>
        <time>2018-01-24T10:06:16Z</time>
      </trkpt>
      <trkpt lat="47.62954" lon="6.06728">
        <ele>223.24</ele>
        <time>2018-01-24T10:06:17Z</time>
      </trkpt>
      <trkpt lat="47.62949" lon="6.06728">
        <ele>223.22</ele>
        <time>2018-01-24T10:06:18Z</time>
      </trkpt>
      <trkpt lat="47.62943" lon="6.06728">
        <ele>223.2</ele>
        <time>2018-01-24T10:06:19Z</time>
      </trkpt>
      <trkpt lat="47.62938" lon="6.06728">
        <ele>223.18</ele>
        <time>2018-01-24T10:06:20Z</time>
      </trkpt>
      <trkpt lat="47.62933" lon="6.06727">
        <ele>223.17</ele>
        <time>2018-01-24T10:06:21Z</time>
      </trkpt>
      <trkpt lat="47.62928" lon="6.06726">
        <ele>223.15</ele>
        <time>2018-01-24T10:06:22Z</time>
      </trkpt>
      <trkpt lat="47.62922" lon="6.06726">
        <ele>223.13</ele>
        <time>2018-01-24T10:06:23Z</time>
      </trkpt>
      <trkpt lat="47.62917" lon="6.06725">
        <ele>223.11</ele>
        <time>2018-01-24T10:06:24Z</time>
      </trkpt>
      <trkpt lat="47.62908" lon="6.06723">
        <ele>223.07</ele>
        <time>2018-01-24T10:06:26Z</time>
      </trkpt>
      <trkpt lat="47.62904" lon="6.06722">
        <ele>223.05</ele>
        <time>2018-01-24T10:06:27Z</time>
      </trkpt>
      <trkpt lat="47.62899" lon="6.06721">
        <ele>223.03</ele>
        <time>2018-01-24T10:06:28Z</time>
      </trkpt>
      <trkpt lat="47.62895" lon="6.0672">
        <ele>223.02</ele>
        <time>2018-01-24T10:06:29Z</time>
      </trkpt>
      <trkpt lat="47.62888" lon="6.06714">
        <ele>222.99</ele>
        <time>2018-01-24T10:06:31Z</time>
      </trkpt>
      <trkpt lat="47.62881" lon="6.06709">
        <ele>222.98</ele>
        <time>2018-01-24T10:06:33Z</time>
      </trkpt>
      <trkpt lat="47.62875" lon="6.06703">
        <ele>222.97</ele>
        <time>2018-01-24T10:06:35Z</time>
      </trkpt>
      <trkpt lat="47.62868" lon="6.06697">
        <ele>222.97</ele>
        <time>2018-01-24T10:06:37Z</time>
      </trkpt>
      <trkpt lat="47.62862" lon="6.06689">
        <ele>222.96</ele>
        <time>2018-01-24T10:06:39Z</time>
      </trkpt>
      <trkpt lat="47.62858" lon="6.06684">
        <ele>222.96</ele>
        <time>2018-01-24T10:06:40Z</time>
      </trkpt>
      <trkpt lat="47.62853" lon="6.06676">
        <ele>222.95</ele>
        <time>2018-01-24T10:06:42Z</time>
      </trkpt>
      <trkpt lat="47.62846" lon="6.06668">
        <ele>222.93</ele>
        <time>2018-01-24T10:06:44Z</time>
      </trkpt>
      <trkpt lat="47.62843" lon="6.06664">
        <ele>222.9</ele>
        <time>2018-01-24T10:06:45Z</time>
      </trkpt>
      <trkpt lat="47.62839" lon="6.0666">
        <ele>222.9</ele>
        <time>2018-01-24T10:06:46Z</time>
      </trkpt>
      <trkpt lat="47.62833" lon="6.06651">
        <ele>222.89</ele>
        <time>2018-01-24T10:06:48Z</time>
      </trkpt>
      <trkpt lat="47.6283" lon="6.06646">
        <ele>222.89</ele>
        <time>2018-01-24T10:06:49Z</time>
      </trkpt>
      <trkpt lat="47.62823" lon="6.06638">
        <ele>222.89</ele>
        <time>2018-01-24T10:06:51Z</time>
      </trkpt>
      <trkpt lat="47.62818" lon="6.06629">
        <ele>222.89</ele>
        <time>2018-01-24T10:06:53Z</time>
      </trkpt>
      <trkpt lat="47.62813" lon="6.0662">
        <ele>222.89</ele>
        <time>2018-01-24T10:06:55Z</time>
      </trkpt>
      <trkpt lat="47.62809" lon="6.0661">
        <ele>222.89</ele>
        <time>2018-01-24T10:06:57Z</time>
      </trkpt>
      <trkpt lat="47.62805" lon="6.06601">
        <ele>222.9</ele>
        <time>2018-01-24T10:06:59Z</time>
      </trkpt>
      <trkpt lat="47.62802" lon="6.06592">
        <ele>222.91</ele>
        <time>2018-01-24T10:07:01Z</time>
      </trkpt>
      <trkpt lat="47.62798" lon="6.06584">
        <ele>222.91</ele>
        <time>2018-01-24T10:07:03Z</time>
      </trkpt>
      <trkpt lat="47.62794" lon="6.06577">
        <ele>222.92</ele>
        <time>2018-01-24T10:07:05Z</time>
      </trkpt>
      <trkpt lat="47.6279" lon="6.06571">
        <ele>222.93</ele>
        <time>2018-01-24T10:07:07Z</time>
      </trkpt>
      <trkpt lat="47.62789" lon="6.06564">
        <ele>222.95</ele>
        <time>2018-01-24T10:07:09Z</time>
      </trkpt>
      <trkpt lat="47.62785" lon="6.06555">
        <ele>222.96</ele>
        <time>2018-01-24T10:07:11Z</time>
      </trkpt>
      <trkpt lat="47.6278" lon="6.06545">
        <ele>222.98</ele>
        <time>2018-01-24T10:07:13Z</time>
      </trkpt>
      <trkpt lat="47.62774" lon="6.06538">
        <ele>223.02</ele>
        <time>2018-01-24T10:07:16Z</time>
      </trkpt>
      <trkpt lat="47.62768" lon="6.06531">
        <ele>223.04</ele>
        <time>2018-01-24T10:07:18Z</time>
      </trkpt>
      <trkpt lat="47.62763" lon="6.06522">
        <ele>223.07</ele>
        <time>2018-01-24T10:07:20Z</time>
      </trkpt>
      <trkpt lat="47.6276" lon="6.06516">
        <ele>223.09</ele>
        <time>2018-01-24T10:07:22Z</time>
      </trkpt>
      <trkpt lat="47.62755" lon="6.06508">
        <ele>223.11</ele>
        <time>2018-01-24T10:07:24Z</time>
      </trkpt>
      <trkpt lat="47.6275" lon="6.065">
        <ele>223.14</ele>
        <time>2018-01-24T10:07:26Z</time>
      </trkpt>
      <trkpt lat="47.62744" lon="6.06491">
        <ele>223.16</ele>
        <time>2018-01-24T10:07:28Z</time>
      </trkpt>
      <trkpt lat="47.62738" lon="6.06483">
        <ele>223.18</ele>
        <time>2018-01-24T10:07:30Z</time>
      </trkpt>
      <trkpt lat="47.62733" lon="6.06474">
        <ele>223.2</ele>
        <time>2018-01-24T10:07:32Z</time>
      </trkpt>
      <trkpt lat="47.6273" lon="6.06469">
        <ele>223.21</ele>
        <time>2018-01-24T10:07:33Z</time>
      </trkpt>
      <trkpt lat="47.62727" lon="6.06463">
        <ele>223.29</ele>
        <time>2018-01-24T10:07:34Z</time>
      </trkpt>
      <trkpt lat="47.62723" lon="6.06458">
        <ele>223.38</ele>
        <time>2018-01-24T10:07:35Z</time>
      </trkpt>
      <trkpt lat="47.62719" lon="6.06453">
        <ele>223.41</ele>
        <time>2018-01-24T10:07:36Z</time>
      </trkpt>
      <trkpt lat="47.62713" lon="6.06445">
        <ele>223.44</ele>
        <time>2018-01-24T10:07:38Z</time>
      </trkpt>
      <trkpt lat="47.62709" lon="6.0644">
        <ele>223.44</ele>
        <time>2018-01-24T10:07:39Z</time>
      </trkpt>
      <trkpt lat="47.62704" lon="6.06436">
        <ele>223.45</ele>
        <time>2018-01-24T10:07:40Z</time>
      </trkpt>
      <trkpt lat="47.627" lon="6.06431">
        <ele>223.46</ele>
        <time>2018-01-24T10:07:41Z</time>
      </trkpt>
      <trkpt lat="47.62695" lon="6.06429">
        <ele>223.47</ele>
        <time>2018-01-24T10:07:42Z</time>
      </trkpt>
      <trkpt lat="47.62689" lon="6.06422">
        <ele>223.59</ele>
        <time>2018-01-24T10:07:44Z</time>
      </trkpt>
      <trkpt lat="47.62681" lon="6.06415">
        <ele>223.67</ele>
        <time>2018-01-24T10:07:46Z</time>
      </trkpt>
      <trkpt lat="47.62676" lon="6.06408">
        <ele>223.69</ele>
        <time>2018-01-24T10:07:48Z</time>
      </trkpt>
      <trkpt lat="47.6267" lon="6.06401">
        <ele>223.7</ele>
        <time>2018-01-24T10:07:50Z</time>
      </trkpt>
      <trkpt lat="47.62665" lon="6.06395">
        <ele>223.71</ele>
        <time>2018-01-24T10:07:52Z</time>
      </trkpt>
      <trkpt lat="47.6266" lon="6.06387">
        <ele>223.72</ele>
        <time>2018-01-24T10:07:54Z</time>
      </trkpt>
      <trkpt lat="47.62656" lon="6.06381">
        <ele>223.73</ele>
        <time>2018-01-24T10:07:56Z</time>
      </trkpt>
      <trkpt lat="47.62651" lon="6.06375">
        <ele>223.74</ele>
        <time>2018-01-24T10:07:58Z</time>
      </trkpt>
      <trkpt lat="47.62645" lon="6.06371">
        <ele>223.75</ele>
        <time>2018-01-24T10:08:00Z</time>
      </trkpt>
      <trkpt lat="47.62636" lon="6.06364">
        <ele>223.75</ele>
        <time>2018-01-24T10:08:02Z</time>
      </trkpt>
      <trkpt lat="47.6263" lon="6.06358">
        <ele>223.76</ele>
        <time>2018-01-24T10:08:04Z</time>
      </trkpt>
      <trkpt lat="47.62623" lon="6.06351">
        <ele>223.76</ele>
        <time>2018-01-24T10:08:06Z</time>
      </trkpt>
      <trkpt lat="47.62616" lon="6.06344">
        <ele>223.76</ele>
        <time>2018-01-24T10:08:08Z</time>
      </trkpt>
      <trkpt lat="47.6261" lon="6.06337">
        <ele>223.77</ele>
        <time>2018-01-24T10:08:10Z</time>
      </trkpt>
      <trkpt lat="47.62604" lon="6.0633">
        <ele>223.77</ele>
        <time>2018-01-24T10:08:12Z</time>
      </trkpt>
      <trkpt lat="47.62599" lon="6.06325">
        <ele>223.78</ele>
        <time>2018-01-24T10:08:14Z</time>
      </trkpt>
      <trkpt lat="47.62594" lon="6.06319">
        <ele>223.78</ele>
        <time>2018-01-24T10:08:16Z</time>
      </trkpt>
      <trkpt lat="47.62588" lon="6.06313">
        <ele>223.79</ele>
        <time>2018-01-24T10:08:18Z</time>
      </trkpt>
      <trkpt lat="47.62581" lon="6.06307">
        <ele>223.79</ele>
        <time>2018-01-24T10:08:20Z</time>
      </trkpt>
      <trkpt lat="47.62575" lon="6.06301">
        <ele>223.8</ele>
        <time>2018-01-24T10:08:22Z</time>
      </trkpt>
      <trkpt lat="47.6257" lon="6.06296">
        <ele>223.8</ele>
        <time>2018-01-24T10:08:24Z</time>
      </trkpt>
      <trkpt lat="47.62564" lon="6.06292">
        <ele>223.81</ele>
        <time>2018-01-24T10:08:26Z</time>
      </trkpt>
      <trkpt lat="47.6256" lon="6.06287">
        <ele>223.81</ele>
        <time>2018-01-24T10:08:28Z</time>
      </trkpt>
      <trkpt lat="47.62555" lon="6.06283">
        <ele>223.82</ele>
        <time>2018-01-24T10:08:30Z</time>
      </trkpt>
      <trkpt lat="47.6255" lon="6.06278">
        <ele>223.82</ele>
        <time>2018-01-24T10:08:32Z</time>
      </trkpt>
      <trkpt lat="47.62545" lon="6.06272">
        <ele>223.82</ele>
        <time>2018-01-24T10:08:34Z</time>
      </trkpt>
      <trkpt lat="47.6254" lon="6.06267">
        <ele>223.83</ele>
        <time>2018-01-24T10:08:36Z</time>
      </trkpt>
      <trkpt lat="47.62535" lon="6.06262">
        <ele>223.83</ele>
        <time>2018-01-24T10:08:38Z</time>
      </trkpt>
      <trkpt lat="47.6253" lon="6.06258">
        <ele>223.83</ele>
        <time>2018-01-24T10:08:40Z</time>
      </trkpt>
      <trkpt lat="47.62526" lon="6.06253">
        <ele>223.83</ele>
        <time>2018-01-24T10:08:42Z</time>
      </trkpt>
      <trkpt lat="47.62524" lon="6.06245">
        <ele>223.83</ele>
        <time>2018-01-24T10:08:45Z</time>
      </trkpt>
      <trkpt lat="47.62522" lon="6.06238">
        <ele>223.83</ele>
        <time>2018-01-24T10:08:48Z</time>
      </trkpt>
      <trkpt lat="47.62523" lon="6.06229">
        <ele>223.83</ele>
        <time>2018-01-24T10:08:51Z</time>
      </trkpt>
      <trkpt lat="47.62525" lon="6.06222">
        <ele>223.83</ele>
        <time>2018-01-24T10:08:54Z</time>
      </trkpt>
      <trkpt lat="47.62528" lon="6.06215">
        <ele>223.82</ele>
        <time>2018-01-24T10:08:57Z</time>
      </trkpt>
      <trkpt lat="47.62532" lon="6.0621">
        <ele>223.82</ele>
        <time>2018-01-24T10:08:59Z</time>
      </trkpt>
      <trkpt lat="47.62538" lon="6.06203">
        <ele>223.82</ele>
        <time>2018-01-24T10:09:02Z</time>
      </trkpt>
      <trkpt lat="47.62541" lon="6.06199">
        <ele>223.82</ele>
        <time>2018-01-24T10:09:04Z</time>
      </trkpt>
      <trkpt lat="47.62546" lon="6.06194">
        <ele>223.82</ele>
        <time>2018-01-24T10:09:06Z</time>
      </trkpt>
      <trkpt lat="47.6255" lon="6.06189">
        <ele>223.83</ele>
        <time>2018-01-24T10:09:08Z</time>
      </trkpt>
      <trkpt lat="47.62555" lon="6.06183">
        <ele>223.83</ele>
        <time>2018-01-24T10:09:10Z</time>
      </trkpt>
      <trkpt lat="47.62559" lon="6.06177">
        <ele>223.84</ele>
        <time>2018-01-24T10:09:12Z</time>
      </trkpt>
      <trkpt lat="47.62563" lon="6.06171">
        <ele>223.84</ele>
        <time>2018-01-24T10:09:14Z</time>
      </trkpt>
      <trkpt lat="47.62567" lon="6.06166">
        <ele>223.85</ele>
        <time>2018-01-24T10:09:16Z</time>
      </trkpt>
      <trkpt lat="47.62572" lon="6.0616">
        <ele>223.86</ele>
        <time>2018-01-24T10:09:18Z</time>
      </trkpt>
      <trkpt lat="47.62577" lon="6.06156">
        <ele>223.87</ele>
        <time>2018-01-24T10:09:20Z</time>
      </trkpt>
      <trkpt lat="47.62581" lon="6.06151">
        <ele>223.88</ele>
        <time>2018-01-24T10:09:22Z</time>
      </trkpt>
      <trkpt lat="47.62586" lon="6.06146">
        <ele>223.88</ele>
        <time>2018-01-24T10:09:24Z</time>
      </trkpt>
      <trkpt lat="47.62592" lon="6.06141">
        <ele>223.89</ele>
        <time>2018-01-24T10:09:26Z</time>
      </trkpt>
      <trkpt lat="47.62597" lon="6.06137">
        <ele>223.9</ele>
        <time>2018-01-24T10:09:28Z</time>
      </trkpt>
      <trkpt lat="47.62603" lon="6.06133">
        <ele>223.91</ele>
        <time>2018-01-24T10:09:30Z</time>
      </trkpt>
      <trkpt lat="47.62608" lon="6.0613">
        <ele>223.92</ele>
        <time>2018-01-24T10:09:32Z</time>
      </trkpt>
      <trkpt lat="47.62614" lon="6.06126">
        <ele>223.93</ele>
        <time>2018-01-24T10:09:34Z</time>
      </trkpt>
      <trkpt lat="47.6262" lon="6.06122">
        <ele>223.94</ele>
        <time>2018-01-24T10:09:37Z</time>
      </trkpt>
      <trkpt lat="47.62627" lon="6.06119">
        <ele>223.95</ele>
        <time>2018-01-24T10:09:39Z</time>
      </trkpt>
      <trkpt lat="47.62633" lon="6.06116">
        <ele>223.96</ele>
        <time>2018-01-24T10:09:41Z</time>
      </trkpt>
      <trkpt lat="47.62639" lon="6.06113">
        <ele>223.98</ele>
        <time>2018-01-24T10:09:43Z</time>
      </trkpt>
      <trkpt lat="47.62644" lon="6.0611">
        <ele>223.99</ele>
        <time>2018-01-24T10:09:45Z</time>
      </trkpt>
      <trkpt lat="47.6265" lon="6.06106">
        <ele>224</ele>
        <time>2018-01-24T10:09:47Z</time>
      </trkpt>
      <trkpt lat="47.62655" lon="6.06101">
        <ele>224.01</ele>
        <time>2018-01-24T10:09:49Z</time>
      </trkpt>
      <trkpt lat="47.62661" lon="6.06098">
        <ele>224.03</ele>
        <time>2018-01-24T10:09:51Z</time>
      </trkpt>
      <trkpt lat="47.62666" lon="6.06094">
        <ele>224.04</ele>
        <time>2018-01-24T10:09:53Z</time>
      </trkpt>
      <trkpt lat="47.62671" lon="6.06088">
        <ele>224.05</ele>
        <time>2018-01-24T10:09:55Z</time>
      </trkpt>
      <trkpt lat="47.62676" lon="6.06083">
        <ele>224.07</ele>
        <time>2018-01-24T10:09:57Z</time>
      </trkpt>
      <trkpt lat="47.62681" lon="6.06079">
        <ele>224.08</ele>
        <time>2018-01-24T10:09:59Z</time>
      </trkpt>
      <trkpt lat="47.62685" lon="6.06073">
        <ele>224.1</ele>
        <time>2018-01-24T10:10:01Z</time>
      </trkpt>
      <trkpt lat="47.6269" lon="6.06067">
        <ele>224.11</ele>
        <time>2018-01-24T10:10:03Z</time>
      </trkpt>
      <trkpt lat="47.62695" lon="6.06061">
        <ele>224.13</ele>
        <time>2018-01-24T10:10:05Z</time>
      </trkpt>
      <trkpt lat="47.627" lon="6.06055">
        <ele>224.14</ele>
        <time>2018-01-24T10:10:07Z</time>
      </trkpt>
      <trkpt lat="47.62705" lon="6.06049">
        <ele>224.15</ele>
        <time>2018-01-24T10:10:09Z</time>
      </trkpt>
      <trkpt lat="47.6271" lon="6.06043">
        <ele>224.17</ele>
        <time>2018-01-24T10:10:11Z</time>
      </trkpt>
      <trkpt lat="47.62715" lon="6.06037">
        <ele>224.18</ele>
        <time>2018-01-24T10:10:13Z</time>
      </trkpt>
      <trkpt lat="47.6272" lon="6.0603">
        <ele>224.2</ele>
        <time>2018-01-24T10:10:15Z</time>
      </trkpt>
      <trkpt lat="47.62725" lon="6.06023">
        <ele>224.21</ele>
        <time>2018-01-24T10:10:17Z</time>
      </trkpt>
      <trkpt lat="47.62731" lon="6.06016">
        <ele>224.23</ele>
        <time>2018-01-24T10:10:19Z</time>
      </trkpt>
      <trkpt lat="47.62736" lon="6.06009">
        <ele>224.24</ele>
        <time>2018-01-24T10:10:21Z</time>
      </trkpt>
      <trkpt lat="47.62742" lon="6.06001">
        <ele>224.31</ele>
        <time>2018-01-24T10:10:23Z</time>
      </trkpt>
      <trkpt lat="47.62748" lon="6.05995">
        <ele>224.44</ele>
        <time>2018-01-24T10:10:25Z</time>
      </trkpt>
      <trkpt lat="47.62755" lon="6.05988">
        <ele>224.53</ele>
        <time>2018-01-24T10:10:27Z</time>
      </trkpt>
      <trkpt lat="47.62762" lon="6.05981">
        <ele>224.6</ele>
        <time>2018-01-24T10:10:29Z</time>
      </trkpt>
      <trkpt lat="47.62769" lon="6.05974">
        <ele>224.65</ele>
        <time>2018-01-24T10:10:31Z</time>
      </trkpt>
      <trkpt lat="47.62776" lon="6.05967">
        <ele>224.69</ele>
        <time>2018-01-24T10:10:33Z</time>
      </trkpt>
      <trkpt lat="47.62783" lon="6.0596">
        <ele>224.72</ele>
        <time>2018-01-24T10:10:35Z</time>
      </trkpt>
      <trkpt lat="47.6279" lon="6.05953">
        <ele>224.74</ele>
        <time>2018-01-24T10:10:37Z</time>
      </trkpt>
      <trkpt lat="47.62794" lon="6.05949">
        <ele>224.75</ele>
        <time>2018-01-24T10:10:38Z</time>
      </trkpt>
      <trkpt lat="47.62801" lon="6.05942">
        <ele>224.78</ele>
        <time>2018-01-24T10:10:40Z</time>
      </trkpt>
      <trkpt lat="47.62808" lon="6.05934">
        <ele>224.79</ele>
        <time>2018-01-24T10:10:42Z</time>
      </trkpt>
      <trkpt lat="47.62812" lon="6.0593">
        <ele>224.8</ele>
        <time>2018-01-24T10:10:43Z</time>
      </trkpt>
      <trkpt lat="47.62816" lon="6.05925">
        <ele>224.8</ele>
        <time>2018-01-24T10:10:44Z</time>
      </trkpt>
      <trkpt lat="47.62822" lon="6.05916">
        <ele>224.82</ele>
        <time>2018-01-24T10:10:46Z</time>
      </trkpt>
      <trkpt lat="47.62825" lon="6.05911">
        <ele>224.82</ele>
        <time>2018-01-24T10:10:47Z</time>
      </trkpt>
      <trkpt lat="47.62829" lon="6.05906">
        <ele>224.83</ele>
        <time>2018-01-24T10:10:48Z</time>
      </trkpt>
      <trkpt lat="47.62832" lon="6.05901">
        <ele>224.84</ele>
        <time>2018-01-24T10:10:49Z</time>
      </trkpt>
      <trkpt lat="47.62836" lon="6.05896">
        <ele>224.84</ele>
        <time>2018-01-24T10:10:50Z</time>
      </trkpt>
      <trkpt lat="47.62839" lon="6.05891">
        <ele>224.85</ele>
        <time>2018-01-24T10:10:51Z</time>
      </trkpt>
      <trkpt lat="47.62842" lon="6.05885">
        <ele>224.85</ele>
        <time>2018-01-24T10:10:52Z</time>
      </trkpt>
      <trkpt lat="47.62845" lon="6.05879">
        <ele>224.85</ele>
        <time>2018-01-24T10:10:53Z</time>
      </trkpt>
      <trkpt lat="47.62848" lon="6.05873">
        <ele>224.85</ele>
        <time>2018-01-24T10:10:54Z</time>
      </trkpt>
      <trkpt lat="47.62851" lon="6.05868">
        <ele>224.85</ele>
        <time>2018-01-24T10:10:55Z</time>
      </trkpt>
      <trkpt lat="47.62854" lon="6.05861">
        <ele>224.85</ele>
        <time>2018-01-24T10:10:56Z</time>
      </trkpt>
      <trkpt lat="47.62858" lon="6.05855">
        <ele>224.85</ele>
        <time>2018-01-24T10:10:57Z</time>
      </trkpt>
      <trkpt lat="47.6286" lon="6.05849">
        <ele>224.85</ele>
        <time>2018-01-24T10:10:58Z</time>
      </trkpt>
      <trkpt lat="47.62865" lon="6.05838">
        <ele>224.82</ele>
        <time>2018-01-24T10:11:00Z</time>
      </trkpt>
      <trkpt lat="47.62869" lon="6.05831">
        <ele>224.79</ele>
        <time>2018-01-24T10:11:01Z</time>
      </trkpt>
      <trkpt lat="47.62872" lon="6.05825">
        <ele>224.76</ele>
        <time>2018-01-24T10:11:02Z</time>
      </trkpt>
      <trkpt lat="47.62875" lon="6.05819">
        <ele>224.72</ele>
        <time>2018-01-24T10:11:03Z</time>
      </trkpt>
      <trkpt lat="47.62879" lon="6.05813">
        <ele>224.69</ele>
        <time>2018-01-24T10:11:04Z</time>
      </trkpt>
      <trkpt lat="47.62882" lon="6.05808">
        <ele>224.65</ele>
        <time>2018-01-24T10:11:05Z</time>
      </trkpt>
      <trkpt lat="47.62886" lon="6.05803">
        <ele>224.62</ele>
        <time>2018-01-24T10:11:06Z</time>
      </trkpt>
      <trkpt lat="47.62889" lon="6.05797">
        <ele>224.57</ele>
        <time>2018-01-24T10:11:07Z</time>
      </trkpt>
      <trkpt lat="47.62892" lon="6.05791">
        <ele>224.52</ele>
        <time>2018-01-24T10:11:08Z</time>
      </trkpt>
      <trkpt lat="47.62895" lon="6.05786">
        <ele>224.47</ele>
        <time>2018-01-24T10:11:09Z</time>
      </trkpt>
      <trkpt lat="47.62899" lon="6.05781">
        <ele>224.43</ele>
        <time>2018-01-24T10:11:10Z</time>
      </trkpt>
      <trkpt lat="47.62903" lon="6.05776">
        <ele>224.39</ele>
        <time>2018-01-24T10:11:11Z</time>
      </trkpt>
      <trkpt lat="47.62906" lon="6.0577">
        <ele>224.36</ele>
        <time>2018-01-24T10:11:12Z</time>
      </trkpt>
      <trkpt lat="47.6291" lon="6.05765">
        <ele>224.33</ele>
        <time>2018-01-24T10:11:13Z</time>
      </trkpt>
      <trkpt lat="47.62914" lon="6.05757">
        <ele>224.3</ele>
        <time>2018-01-24T10:11:14Z</time>
      </trkpt>
      <trkpt lat="47.62917" lon="6.05751">
        <ele>224.27</ele>
        <time>2018-01-24T10:11:15Z</time>
      </trkpt>
      <trkpt lat="47.6292" lon="6.05744">
        <ele>224.24</ele>
        <time>2018-01-24T10:11:16Z</time>
      </trkpt>
      <trkpt lat="47.62922" lon="6.05737">
        <ele>224.22</ele>
        <time>2018-01-24T10:11:17Z</time>
      </trkpt>
      <trkpt lat="47.62924" lon="6.0573">
        <ele>224.2</ele>
        <time>2018-01-24T10:11:18Z</time>
      </trkpt>
      <trkpt lat="47.62926" lon="6.05723">
        <ele>224.17</ele>
        <time>2018-01-24T10:11:19Z</time>
      </trkpt>
      <trkpt lat="47.62927" lon="6.05716">
        <ele>224.15</ele>
        <time>2018-01-24T10:11:20Z</time>
      </trkpt>
      <trkpt lat="47.62926" lon="6.05708">
        <ele>224.15</ele>
        <time>2018-01-24T10:11:21Z</time>
      </trkpt>
      <trkpt lat="47.62926" lon="6.05696">
        <ele>224.14</ele>
        <time>2018-01-24T10:11:23Z</time>
      </trkpt>
      <trkpt lat="47.62924" lon="6.05683">
        <ele>224.13</ele>
        <time>2018-01-24T10:11:25Z</time>
      </trkpt>
      <trkpt lat="47.62922" lon="6.05672">
        <ele>224.13</ele>
        <time>2018-01-24T10:11:27Z</time>
      </trkpt>
      <trkpt lat="47.6292" lon="6.05665">
        <ele>224.11</ele>
        <time>2018-01-24T10:11:28Z</time>
      </trkpt>
      <trkpt lat="47.62917" lon="6.05656">
        <ele>224.09</ele>
        <time>2018-01-24T10:11:29Z</time>
      </trkpt>
      <trkpt lat="47.62915" lon="6.05648">
        <ele>224.08</ele>
        <time>2018-01-24T10:11:30Z</time>
      </trkpt>
      <trkpt lat="47.62913" lon="6.05638">
        <ele>224.06</ele>
        <time>2018-01-24T10:11:31Z</time>
      </trkpt>
      <trkpt lat="47.62911" lon="6.05628">
        <ele>224.06</ele>
        <time>2018-01-24T10:11:32Z</time>
      </trkpt>
      <trkpt lat="47.62911" lon="6.05618">
        <ele>224.05</ele>
        <time>2018-01-24T10:11:33Z</time>
      </trkpt>
      <trkpt lat="47.6291" lon="6.05609">
        <ele>224.05</ele>
        <time>2018-01-24T10:11:34Z</time>
      </trkpt>
      <trkpt lat="47.6291" lon="6.056">
        <ele>224.05</ele>
        <time>2018-01-24T10:11:35Z</time>
      </trkpt>
      <trkpt lat="47.62909" lon="6.05591">
        <ele>224.04</ele>
        <time>2018-01-24T10:11:36Z</time>
      </trkpt>
      <trkpt lat="47.62909" lon="6.05581">
        <ele>224.05</ele>
        <time>2018-01-24T10:11:37Z</time>
      </trkpt>
      <trkpt lat="47.62909" lon="6.05572">
        <ele>224.05</ele>
        <time>2018-01-24T10:11:38Z</time>
      </trkpt>
      <trkpt lat="47.62908" lon="6.05562">
        <ele>224.05</ele>
        <time>2018-01-24T10:11:39Z</time>
      </trkpt>
      <trkpt lat="47.62909" lon="6.05553">
        <ele>224.05</ele>
        <time>2018-01-24T10:11:40Z</time>
      </trkpt>
      <trkpt lat="47.62909" lon="6.05544">
        <ele>224.05</ele>
        <time>2018-01-24T10:11:41Z</time>
      </trkpt>
      <trkpt lat="47.6291" lon="6.05535">
        <ele>224.05</ele>
        <time>2018-01-24T10:11:42Z</time>
      </trkpt>
      <trkpt lat="47.62911" lon="6.05526">
        <ele>224.05</ele>
        <time>2018-01-24T10:11:43Z</time>
      </trkpt>
      <trkpt lat="47.62912" lon="6.05517">
        <ele>224.05</ele>
        <time>2018-01-24T10:11:44Z</time>
      </trkpt>
      <trkpt lat="47.62911" lon="6.05506">
        <ele>224.05</ele>
        <time>2018-01-24T10:11:45Z</time>
      </trkpt>
      <trkpt lat="47.6291" lon="6.05498">
        <ele>224.05</ele>
        <time>2018-01-24T10:11:46Z</time>
      </trkpt>
      <trkpt lat="47.62909" lon="6.05488">
        <ele>224.05</ele>
        <time>2018-01-24T10:11:47Z</time>
      </trkpt>
      <trkpt lat="47.62906" lon="6.05478">
        <ele>224.05</ele>
        <time>2018-01-24T10:11:48Z</time>
      </trkpt>
      <trkpt lat="47.62904" lon="6.05469">
        <ele>224.05</ele>
        <time>2018-01-24T10:11:49Z</time>
      </trkpt>
      <trkpt lat="47.62902" lon="6.0546">
        <ele>224.05</ele>
        <time>2018-01-24T10:11:50Z</time>
      </trkpt>
      <trkpt lat="47.62899" lon="6.0545">
        <ele>224.04</ele>
        <time>2018-01-24T10:11:51Z</time>
      </trkpt>
      <trkpt lat="47.62896" lon="6.05441">
        <ele>224.04</ele>
        <time>2018-01-24T10:11:52Z</time>
      </trkpt>
      <trkpt lat="47.62893" lon="6.05432">
        <ele>224.03</ele>
        <time>2018-01-24T10:11:53Z</time>
      </trkpt>
      <trkpt lat="47.62891" lon="6.05425">
        <ele>224.02</ele>
        <time>2018-01-24T10:11:54Z</time>
      </trkpt>
      <trkpt lat="47.62889" lon="6.05418">
        <ele>224.02</ele>
        <time>2018-01-24T10:11:55Z</time>
      </trkpt>
      <trkpt lat="47.62886" lon="6.05411">
        <ele>224.01</ele>
        <time>2018-01-24T10:11:56Z</time>
      </trkpt>
      <trkpt lat="47.62884" lon="6.05405">
        <ele>224.01</ele>
        <time>2018-01-24T10:11:57Z</time>
      </trkpt>
      <trkpt lat="47.62879" lon="6.05394">
        <ele>224</ele>
        <time>2018-01-24T10:11:59Z</time>
      </trkpt>
      <trkpt lat="47.62876" lon="6.05389">
        <ele>224</ele>
        <time>2018-01-24T10:12:00Z</time>
      </trkpt>
      <trkpt lat="47.62874" lon="6.05383">
        <ele>223.99</ele>
        <time>2018-01-24T10:12:01Z</time>
      </trkpt>
      <trkpt lat="47.62871" lon="6.05373">
        <ele>223.98</ele>
        <time>2018-01-24T10:12:03Z</time>
      </trkpt>
      <trkpt lat="47.62869" lon="6.05363">
        <ele>223.98</ele>
        <time>2018-01-24T10:12:05Z</time>
      </trkpt>
      <trkpt lat="47.6287" lon="6.05355">
        <ele>223.98</ele>
        <time>2018-01-24T10:12:07Z</time>
      </trkpt>
      <trkpt lat="47.62871" lon="6.05348">
        <ele>223.98</ele>
        <time>2018-01-24T10:12:09Z</time>
      </trkpt>
      <trkpt lat="47.62869" lon="6.05336">
        <ele>223.97</ele>
        <time>2018-01-24T10:12:11Z</time>
      </trkpt>
      <trkpt lat="47.62869" lon="6.05326">
        <ele>223.96</ele>
        <time>2018-01-24T10:12:13Z</time>
      </trkpt>
      <trkpt lat="47.62868" lon="6.05319">
        <ele>223.95</ele>
        <time>2018-01-24T10:12:15Z</time>
      </trkpt>
      <trkpt lat="47.62867" lon="6.05312">
        <ele>223.95</ele>
        <time>2018-01-24T10:12:17Z</time>
      </trkpt>
      <trkpt lat="47.62867" lon="6.05305">
        <ele>223.94</ele>
        <time>2018-01-24T10:12:19Z</time>
      </trkpt>
      <trkpt lat="47.62867" lon="6.05296">
        <ele>223.93</ele>
        <time>2018-01-24T10:12:21Z</time>
      </trkpt>
      <trkpt lat="47.62866" lon="6.05285">
        <ele>223.92</ele>
        <time>2018-01-24T10:12:23Z</time>
      </trkpt>
      <trkpt lat="47.62865" lon="6.05278">
        <ele>223.92</ele>
        <time>2018-01-24T10:12:24Z</time>
      </trkpt>
      <trkpt lat="47.62863" lon="6.0527">
        <ele>223.91</ele>
        <time>2018-01-24T10:12:25Z</time>
      </trkpt>
      <trkpt lat="47.62862" lon="6.05264">
        <ele>223.91</ele>
        <time>2018-01-24T10:12:26Z</time>
      </trkpt>
      <trkpt lat="47.6286" lon="6.05258">
        <ele>223.9</ele>
        <time>2018-01-24T10:12:27Z</time>
      </trkpt>
      <trkpt lat="47.62857" lon="6.05247">
        <ele>223.89</ele>
        <time>2018-01-24T10:12:29Z</time>
      </trkpt>
      <trkpt lat="47.62855" lon="6.05238">
        <ele>223.88</ele>
        <time>2018-01-24T10:12:31Z</time>
      </trkpt>
      <trkpt lat="47.62853" lon="6.0523">
        <ele>223.88</ele>
        <time>2018-01-24T10:12:32Z</time>
      </trkpt>
      <trkpt lat="47.62851" lon="6.05219">
        <ele>223.87</ele>
        <time>2018-01-24T10:12:34Z</time>
      </trkpt>
      <trkpt lat="47.62849" lon="6.05211">
        <ele>223.85</ele>
        <time>2018-01-24T10:12:35Z</time>
      </trkpt>
      <trkpt lat="47.62847" lon="6.05204">
        <ele>223.82</ele>
        <time>2018-01-24T10:12:36Z</time>
      </trkpt>
      <trkpt lat="47.62845" lon="6.05196">
        <ele>223.81</ele>
        <time>2018-01-24T10:12:37Z</time>
      </trkpt>
      <trkpt lat="47.62843" lon="6.05187">
        <ele>223.8</ele>
        <time>2018-01-24T10:12:38Z</time>
      </trkpt>
      <trkpt lat="47.62841" lon="6.0518">
        <ele>223.79</ele>
        <time>2018-01-24T10:12:39Z</time>
      </trkpt>
      <trkpt lat="47.62837" lon="6.05168">
        <ele>223.78</ele>
        <time>2018-01-24T10:12:40Z</time>
      </trkpt>
      <trkpt lat="47.62834" lon="6.05158">
        <ele>223.77</ele>
        <time>2018-01-24T10:12:41Z</time>
      </trkpt>
      <trkpt lat="47.62832" lon="6.05148">
        <ele>223.76</ele>
        <time>2018-01-24T10:12:42Z</time>
      </trkpt>
      <trkpt lat="47.62831" lon="6.05138">
        <ele>223.75</ele>
        <time>2018-01-24T10:12:43Z</time>
      </trkpt>
      <trkpt lat="47.6283" lon="6.05128">
        <ele>223.74</ele>
        <time>2018-01-24T10:12:44Z</time>
      </trkpt>
      <trkpt lat="47.62829" lon="6.05117">
        <ele>223.73</ele>
        <time>2018-01-24T10:12:45Z</time>
      </trkpt>
      <trkpt lat="47.62829" lon="6.05107">
        <ele>223.73</ele>
        <time>2018-01-24T10:12:46Z</time>
      </trkpt>
      <trkpt lat="47.62827" lon="6.05095">
        <ele>223.72</ele>
        <time>2018-01-24T10:12:47Z</time>
      </trkpt>
      <trkpt lat="47.62824" lon="6.05085">
        <ele>223.72</ele>
        <time>2018-01-24T10:12:48Z</time>
      </trkpt>
      <trkpt lat="47.62822" lon="6.05078">
        <ele>223.71</ele>
        <time>2018-01-24T10:12:49Z</time>
      </trkpt>
      <trkpt lat="47.62821" lon="6.05069">
        <ele>223.71</ele>
        <time>2018-01-24T10:12:50Z</time>
      </trkpt>
      <trkpt lat="47.62819" lon="6.0506">
        <ele>223.71</ele>
        <time>2018-01-24T10:12:51Z</time>
      </trkpt>
      <trkpt lat="47.62817" lon="6.05052">
        <ele>223.71</ele>
        <time>2018-01-24T10:12:52Z</time>
      </trkpt>
      <trkpt lat="47.62815" lon="6.05044">
        <ele>223.71</ele>
        <time>2018-01-24T10:12:53Z</time>
      </trkpt>
      <trkpt lat="47.62813" lon="6.05031">
        <ele>223.7</ele>
        <time>2018-01-24T10:12:55Z</time>
      </trkpt>
      <trkpt lat="47.62812" lon="6.05024">
        <ele>223.7</ele>
        <time>2018-01-24T10:12:56Z</time>
      </trkpt>
      <trkpt lat="47.62809" lon="6.05011">
        <ele>223.69</ele>
        <time>2018-01-24T10:12:58Z</time>
      </trkpt>
      <trkpt lat="47.62806" lon="6.04997">
        <ele>223.68</ele>
        <time>2018-01-24T10:13:00Z</time>
      </trkpt>
      <trkpt lat="47.62806" lon="6.04987">
        <ele>223.67</ele>
        <time>2018-01-24T10:13:02Z</time>
      </trkpt>
      <trkpt lat="47.62806" lon="6.04979">
        <ele>223.67</ele>
        <time>2018-01-24T10:13:04Z</time>
      </trkpt>
      <trkpt lat="47.62804" lon="6.04965">
        <ele>223.67</ele>
        <time>2018-01-24T10:13:06Z</time>
      </trkpt>
      <trkpt lat="47.62803" lon="6.04953">
        <ele>223.66</ele>
        <time>2018-01-24T10:13:07Z</time>
      </trkpt>
      <trkpt lat="47.62802" lon="6.04942">
        <ele>223.64</ele>
        <time>2018-01-24T10:13:08Z</time>
      </trkpt>
      <trkpt lat="47.62801" lon="6.04932">
        <ele>223.63</ele>
        <time>2018-01-24T10:13:09Z</time>
      </trkpt>
      <trkpt lat="47.62799" lon="6.04923">
        <ele>223.62</ele>
        <time>2018-01-24T10:13:10Z</time>
      </trkpt>
      <trkpt lat="47.62797" lon="6.04914">
        <ele>223.61</ele>
        <time>2018-01-24T10:13:11Z</time>
      </trkpt>
      <trkpt lat="47.62794" lon="6.04903">
        <ele>223.6</ele>
        <time>2018-01-24T10:13:12Z</time>
      </trkpt>
      <trkpt lat="47.6279" lon="6.04894">
        <ele>223.59</ele>
        <time>2018-01-24T10:13:13Z</time>
      </trkpt>
      <trkpt lat="47.62788" lon="6.04887">
        <ele>223.58</ele>
        <time>2018-01-24T10:13:14Z</time>
      </trkpt>
      <trkpt lat="47.62784" lon="6.04876">
        <ele>223.56</ele>
        <time>2018-01-24T10:13:16Z</time>
      </trkpt>
      <trkpt lat="47.62782" lon="6.04863">
        <ele>223.53</ele>
        <time>2018-01-24T10:13:18Z</time>
      </trkpt>
      <trkpt lat="47.62781" lon="6.0485">
        <ele>223.53</ele>
        <time>2018-01-24T10:13:20Z</time>
      </trkpt>
      <trkpt lat="47.62779" lon="6.0484">
        <ele>223.52</ele>
        <time>2018-01-24T10:13:22Z</time>
      </trkpt>
      <trkpt lat="47.62777" lon="6.04829">
        <ele>223.52</ele>
        <time>2018-01-24T10:13:24Z</time>
      </trkpt>
      <trkpt lat="47.62776" lon="6.04822">
        <ele>223.52</ele>
        <time>2018-01-24T10:13:25Z</time>
      </trkpt>
      <trkpt lat="47.62776" lon="6.0481">
        <ele>223.5</ele>
        <time>2018-01-24T10:13:27Z</time>
      </trkpt>
      <trkpt lat="47.62776" lon="6.04803">
        <ele>223.49</ele>
        <time>2018-01-24T10:13:28Z</time>
      </trkpt>
      <trkpt lat="47.62776" lon="6.04792">
        <ele>223.49</ele>
        <time>2018-01-24T10:13:30Z</time>
      </trkpt>
      <trkpt lat="47.62776" lon="6.0478">
        <ele>223.48</ele>
        <time>2018-01-24T10:13:32Z</time>
      </trkpt>
      <trkpt lat="47.62776" lon="6.04767">
        <ele>223.48</ele>
        <time>2018-01-24T10:13:34Z</time>
      </trkpt>
      <trkpt lat="47.62776" lon="6.04755">
        <ele>223.47</ele>
        <time>2018-01-24T10:13:36Z</time>
      </trkpt>
      <trkpt lat="47.62775" lon="6.04741">
        <ele>223.46</ele>
        <time>2018-01-24T10:13:38Z</time>
      </trkpt>
      <trkpt lat="47.62774" lon="6.0473">
        <ele>223.46</ele>
        <time>2018-01-24T10:13:40Z</time>
      </trkpt>
      <trkpt lat="47.62776" lon="6.0472">
        <ele>223.45</ele>
        <time>2018-01-24T10:13:42Z</time>
      </trkpt>
      <trkpt lat="47.62777" lon="6.04713">
        <ele>223.44</ele>
        <time>2018-01-24T10:13:43Z</time>
      </trkpt>
      <trkpt lat="47.62778" lon="6.04706">
        <ele>223.44</ele>
        <time>2018-01-24T10:13:44Z</time>
      </trkpt>
      <trkpt lat="47.62775" lon="6.04696">
        <ele>223.43</ele>
        <time>2018-01-24T10:13:46Z</time>
      </trkpt>
      <trkpt lat="47.62774" lon="6.04683">
        <ele>223.42</ele>
        <time>2018-01-24T10:13:48Z</time>
      </trkpt>
      <trkpt lat="47.62775" lon="6.04676">
        <ele>223.41</ele>
        <time>2018-01-24T10:13:49Z</time>
      </trkpt>
      <trkpt lat="47.62774" lon="6.04663">
        <ele>223.4</ele>
        <time>2018-01-24T10:13:51Z</time>
      </trkpt>
      <trkpt lat="47.62773" lon="6.04655">
        <ele>223.39</ele>
        <time>2018-01-24T10:13:52Z</time>
      </trkpt>
      <trkpt lat="47.62774" lon="6.04646">
        <ele>223.37</ele>
        <time>2018-01-24T10:13:54Z</time>
      </trkpt>
      <trkpt lat="47.62775" lon="6.04636">
        <ele>223.36</ele>
        <time>2018-01-24T10:13:56Z</time>
      </trkpt>
      <trkpt lat="47.62776" lon="6.04623">
        <ele>223.34</ele>
        <time>2018-01-24T10:13:58Z</time>
      </trkpt>
      <trkpt lat="47.62777" lon="6.04612">
        <ele>223.25</ele>
        <time>2018-01-24T10:14:00Z</time>
      </trkpt>
      <trkpt lat="47.62777" lon="6.04599">
        <ele>223.09</ele>
        <time>2018-01-24T10:14:02Z</time>
      </trkpt>
      <trkpt lat="47.62778" lon="6.04587">
        <ele>222.96</ele>
        <time>2018-01-24T10:14:04Z</time>
      </trkpt>
      <trkpt lat="47.62777" lon="6.04574">
        <ele>222.86</ele>
        <time>2018-01-24T10:14:06Z</time>
      </trkpt>
      <trkpt lat="47.62777" lon="6.04562">
        <ele>222.78</ele>
        <time>2018-01-24T10:14:08Z</time>
      </trkpt>
      <trkpt lat="47.62779" lon="6.0455">
        <ele>222.72</ele>
        <time>2018-01-24T10:14:10Z</time>
      </trkpt>
      <trkpt lat="47.6278" lon="6.04539">
        <ele>222.67</ele>
        <time>2018-01-24T10:14:12Z</time>
      </trkpt>
      <trkpt lat="47.6278" lon="6.04527">
        <ele>222.62</ele>
        <time>2018-01-24T10:14:14Z</time>
      </trkpt>
      <trkpt lat="47.6278" lon="6.04515">
        <ele>222.58</ele>
        <time>2018-01-24T10:14:16Z</time>
      </trkpt>
      <trkpt lat="47.62781" lon="6.04502">
        <ele>222.53</ele>
        <time>2018-01-24T10:14:18Z</time>
      </trkpt>
      <trkpt lat="47.62781" lon="6.04488">
        <ele>222.49</ele>
        <time>2018-01-24T10:14:20Z</time>
      </trkpt>
      <trkpt lat="47.62782" lon="6.04482">
        <ele>222.46</ele>
        <time>2018-01-24T10:14:21Z</time>
      </trkpt>
      <trkpt lat="47.62783" lon="6.04468">
        <ele>222.42</ele>
        <time>2018-01-24T10:14:23Z</time>
      </trkpt>
      <trkpt lat="47.62783" lon="6.04455">
        <ele>222.38</ele>
        <time>2018-01-24T10:14:25Z</time>
      </trkpt>
      <trkpt lat="47.62784" lon="6.04442">
        <ele>222.33</ele>
        <time>2018-01-24T10:14:27Z</time>
      </trkpt>
      <trkpt lat="47.62785" lon="6.0443">
        <ele>222.3</ele>
        <time>2018-01-24T10:14:29Z</time>
      </trkpt>
      <trkpt lat="47.62786" lon="6.04418">
        <ele>222.26</ele>
        <time>2018-01-24T10:14:31Z</time>
      </trkpt>
      <trkpt lat="47.62787" lon="6.04407">
        <ele>222.23</ele>
        <time>2018-01-24T10:14:33Z</time>
      </trkpt>
      <trkpt lat="47.62789" lon="6.04396">
        <ele>222.19</ele>
        <time>2018-01-24T10:14:35Z</time>
      </trkpt>
      <trkpt lat="47.62791" lon="6.04384">
        <ele>222.14</ele>
        <time>2018-01-24T10:14:37Z</time>
      </trkpt>
      <trkpt lat="47.62793" lon="6.04372">
        <ele>222.09</ele>
        <time>2018-01-24T10:14:39Z</time>
      </trkpt>
      <trkpt lat="47.62796" lon="6.04361">
        <ele>222.02</ele>
        <time>2018-01-24T10:14:41Z</time>
      </trkpt>
      <trkpt lat="47.62799" lon="6.0435">
        <ele>221.93</ele>
        <time>2018-01-24T10:14:43Z</time>
      </trkpt>
      <trkpt lat="47.62803" lon="6.04339">
        <ele>221.86</ele>
        <time>2018-01-24T10:14:45Z</time>
      </trkpt>
      <trkpt lat="47.62806" lon="6.04328">
        <ele>221.79</ele>
        <time>2018-01-24T10:14:47Z</time>
      </trkpt>
      <trkpt lat="47.6281" lon="6.04317">
        <ele>221.72</ele>
        <time>2018-01-24T10:14:49Z</time>
      </trkpt>
      <trkpt lat="47.62815" lon="6.04307">
        <ele>221.65</ele>
        <time>2018-01-24T10:14:51Z</time>
      </trkpt>
      <trkpt lat="47.62819" lon="6.04298">
        <ele>221.6</ele>
        <time>2018-01-24T10:14:53Z</time>
      </trkpt>
      <trkpt lat="47.62823" lon="6.04288">
        <ele>221.55</ele>
        <time>2018-01-24T10:14:55Z</time>
      </trkpt>
      <trkpt lat="47.62827" lon="6.04278">
        <ele>221.5</ele>
        <time>2018-01-24T10:14:57Z</time>
      </trkpt>
      <trkpt lat="47.62832" lon="6.0427">
        <ele>221.48</ele>
        <time>2018-01-24T10:14:59Z</time>
      </trkpt>
      <trkpt lat="47.62836" lon="6.0426">
        <ele>221.44</ele>
        <time>2018-01-24T10:15:01Z</time>
      </trkpt>
      <trkpt lat="47.62841" lon="6.04251">
        <ele>221.4</ele>
        <time>2018-01-24T10:15:03Z</time>
      </trkpt>
      <trkpt lat="47.62845" lon="6.04242">
        <ele>221.37</ele>
        <time>2018-01-24T10:15:05Z</time>
      </trkpt>
      <trkpt lat="47.6285" lon="6.04232">
        <ele>221.34</ele>
        <time>2018-01-24T10:15:07Z</time>
      </trkpt>
      <trkpt lat="47.62853" lon="6.04224">
        <ele>221.32</ele>
        <time>2018-01-24T10:15:09Z</time>
      </trkpt>
      <trkpt lat="47.62858" lon="6.04215">
        <ele>221.31</ele>
        <time>2018-01-24T10:15:11Z</time>
      </trkpt>
      <trkpt lat="47.62862" lon="6.04206">
        <ele>221.29</ele>
        <time>2018-01-24T10:15:13Z</time>
      </trkpt>
      <trkpt lat="47.62866" lon="6.04197">
        <ele>221.23</ele>
        <time>2018-01-24T10:15:15Z</time>
      </trkpt>
      <trkpt lat="47.6287" lon="6.04187">
        <ele>221.17</ele>
        <time>2018-01-24T10:15:17Z</time>
      </trkpt>
      <trkpt lat="47.62875" lon="6.04177">
        <ele>221.13</ele>
        <time>2018-01-24T10:15:19Z</time>
      </trkpt>
      <trkpt lat="47.6288" lon="6.04167">
        <ele>221.1</ele>
        <time>2018-01-24T10:15:21Z</time>
      </trkpt>
      <trkpt lat="47.62884" lon="6.04157">
        <ele>221.06</ele>
        <time>2018-01-24T10:15:23Z</time>
      </trkpt>
      <trkpt lat="47.62888" lon="6.04146">
        <ele>221.04</ele>
        <time>2018-01-24T10:15:25Z</time>
      </trkpt>
      <trkpt lat="47.62893" lon="6.04136">
        <ele>221.01</ele>
        <time>2018-01-24T10:15:27Z</time>
      </trkpt>
      <trkpt lat="47.62898" lon="6.04127">
        <ele>220.98</ele>
        <time>2018-01-24T10:15:29Z</time>
      </trkpt>
      <trkpt lat="47.62903" lon="6.04116">
        <ele>220.95</ele>
        <time>2018-01-24T10:15:31Z</time>
      </trkpt>
      <trkpt lat="47.62908" lon="6.04106">
        <ele>220.93</ele>
        <time>2018-01-24T10:15:33Z</time>
      </trkpt>
      <trkpt lat="47.62913" lon="6.04095">
        <ele>220.9</ele>
        <time>2018-01-24T10:15:35Z</time>
      </trkpt>
      <trkpt lat="47.62917" lon="6.04085">
        <ele>220.87</ele>
        <time>2018-01-24T10:15:37Z</time>
      </trkpt>
      <trkpt lat="47.6292" lon="6.04079">
        <ele>220.85</ele>
        <time>2018-01-24T10:15:38Z</time>
      </trkpt>
      <trkpt lat="47.62923" lon="6.04074">
        <ele>220.84</ele>
        <time>2018-01-24T10:15:39Z</time>
      </trkpt>
      <trkpt lat="47.62926" lon="6.04069">
        <ele>220.82</ele>
        <time>2018-01-24T10:15:40Z</time>
      </trkpt>
      <trkpt lat="47.62929" lon="6.04063">
        <ele>220.8</ele>
        <time>2018-01-24T10:15:41Z</time>
      </trkpt>
      <trkpt lat="47.62935" lon="6.04053">
        <ele>220.76</ele>
        <time>2018-01-24T10:15:43Z</time>
      </trkpt>
      <trkpt lat="47.62938" lon="6.04048">
        <ele>220.73</ele>
        <time>2018-01-24T10:15:44Z</time>
      </trkpt>
      <trkpt lat="47.62941" lon="6.04043">
        <ele>220.7</ele>
        <time>2018-01-24T10:15:45Z</time>
      </trkpt>
      <trkpt lat="47.62945" lon="6.04038">
        <ele>220.66</ele>
        <time>2018-01-24T10:15:46Z</time>
      </trkpt>
      <trkpt lat="47.62949" lon="6.04033">
        <ele>220.63</ele>
        <time>2018-01-24T10:15:47Z</time>
      </trkpt>
      <trkpt lat="47.62952" lon="6.04028">
        <ele>220.6</ele>
        <time>2018-01-24T10:15:48Z</time>
      </trkpt>
      <trkpt lat="47.62956" lon="6.04024">
        <ele>220.57</ele>
        <time>2018-01-24T10:15:49Z</time>
      </trkpt>
      <trkpt lat="47.6296" lon="6.04019">
        <ele>220.55</ele>
        <time>2018-01-24T10:15:50Z</time>
      </trkpt>
      <trkpt lat="47.62964" lon="6.04014">
        <ele>220.52</ele>
        <time>2018-01-24T10:15:51Z</time>
      </trkpt>
      <trkpt lat="47.62967" lon="6.04009">
        <ele>220.5</ele>
        <time>2018-01-24T10:15:52Z</time>
      </trkpt>
      <trkpt lat="47.62971" lon="6.04005">
        <ele>220.48</ele>
        <time>2018-01-24T10:15:53Z</time>
      </trkpt>
      <trkpt lat="47.62975" lon="6.04">
        <ele>220.46</ele>
        <time>2018-01-24T10:15:54Z</time>
      </trkpt>
      <trkpt lat="47.62979" lon="6.03995">
        <ele>220.44</ele>
        <time>2018-01-24T10:15:55Z</time>
      </trkpt>
      <trkpt lat="47.62983" lon="6.03991">
        <ele>220.4</ele>
        <time>2018-01-24T10:15:56Z</time>
      </trkpt>
      <trkpt lat="47.62987" lon="6.03987">
        <ele>220.37</ele>
        <time>2018-01-24T10:15:57Z</time>
      </trkpt>
      <trkpt lat="47.6299" lon="6.03983">
        <ele>220.33</ele>
        <time>2018-01-24T10:15:58Z</time>
      </trkpt>
      <trkpt lat="47.62994" lon="6.03979">
        <ele>220.3</ele>
        <time>2018-01-24T10:15:59Z</time>
      </trkpt>
      <trkpt lat="47.62998" lon="6.03975">
        <ele>220.27</ele>
        <time>2018-01-24T10:16:00Z</time>
      </trkpt>
      <trkpt lat="47.63001" lon="6.0397">
        <ele>220.24</ele>
        <time>2018-01-24T10:16:01Z</time>
      </trkpt>
      <trkpt lat="47.63008" lon="6.03962">
        <ele>220.19</ele>
        <time>2018-01-24T10:16:03Z</time>
      </trkpt>
      <trkpt lat="47.63016" lon="6.03955">
        <ele>220.11</ele>
        <time>2018-01-24T10:16:05Z</time>
      </trkpt>
      <trkpt lat="47.63023" lon="6.03949">
        <ele>220.04</ele>
        <time>2018-01-24T10:16:07Z</time>
      </trkpt>
      <trkpt lat="47.63031" lon="6.03946">
        <ele>219.95</ele>
        <time>2018-01-24T10:16:09Z</time>
      </trkpt>
      <trkpt lat="47.63036" lon="6.03946">
        <ele>219.91</ele>
        <time>2018-01-24T10:16:10Z</time>
      </trkpt>
      <trkpt lat="47.6304" lon="6.03945">
        <ele>219.87</ele>
        <time>2018-01-24T10:16:11Z</time>
      </trkpt>
      <trkpt lat="47.63045" lon="6.03946">
        <ele>219.84</ele>
        <time>2018-01-24T10:16:12Z</time>
      </trkpt>
      <trkpt lat="47.63054" lon="6.03946">
        <ele>219.78</ele>
        <time>2018-01-24T10:16:14Z</time>
      </trkpt>
      <trkpt lat="47.63063" lon="6.03947">
        <ele>219.73</ele>
        <time>2018-01-24T10:16:16Z</time>
      </trkpt>
      <trkpt lat="47.63068" lon="6.03949">
        <ele>219.71</ele>
        <time>2018-01-24T10:16:17Z</time>
      </trkpt>
      <trkpt lat="47.63076" lon="6.03951">
        <ele>219.64</ele>
        <time>2018-01-24T10:16:19Z</time>
      </trkpt>
      <trkpt lat="47.63084" lon="6.03954">
        <ele>219.59</ele>
        <time>2018-01-24T10:16:21Z</time>
      </trkpt>
      <trkpt lat="47.63091" lon="6.03957">
        <ele>219.57</ele>
        <time>2018-01-24T10:16:23Z</time>
      </trkpt>
      <trkpt lat="47.63097" lon="6.03961">
        <ele>219.56</ele>
        <time>2018-01-24T10:16:25Z</time>
      </trkpt>
      <trkpt lat="47.63102" lon="6.03966">
        <ele>219.55</ele>
        <time>2018-01-24T10:16:27Z</time>
      </trkpt>
      <trkpt lat="47.63109" lon="6.03972">
        <ele>219.52</ele>
        <time>2018-01-24T10:16:29Z</time>
      </trkpt>
      <trkpt lat="47.63115" lon="6.03978">
        <ele>219.35</ele>
        <time>2018-01-24T10:16:31Z</time>
      </trkpt>
      <trkpt lat="47.63122" lon="6.03985">
        <ele>219.17</ele>
        <time>2018-01-24T10:16:33Z</time>
      </trkpt>
      <trkpt lat="47.63127" lon="6.03992">
        <ele>219.04</ele>
        <time>2018-01-24T10:16:35Z</time>
      </trkpt>
      <trkpt lat="47.63135" lon="6.03998">
        <ele>218.96</ele>
        <time>2018-01-24T10:16:37Z</time>
      </trkpt>
      <trkpt lat="47.63141" lon="6.04001">
        <ele>218.94</ele>
        <time>2018-01-24T10:16:39Z</time>
      </trkpt>
      <trkpt lat="47.63147" lon="6.04004">
        <ele>218.93</ele>
        <time>2018-01-24T10:16:41Z</time>
      </trkpt>
      <trkpt lat="47.63154" lon="6.04004">
        <ele>218.91</ele>
        <time>2018-01-24T10:16:43Z</time>
      </trkpt>
      <trkpt lat="47.63161" lon="6.04005">
        <ele>218.86</ele>
        <time>2018-01-24T10:16:45Z</time>
      </trkpt>
      <trkpt lat="47.63169" lon="6.04003">
        <ele>218.82</ele>
        <time>2018-01-24T10:16:47Z</time>
      </trkpt>
      <trkpt lat="47.63176" lon="6.03999">
        <ele>218.77</ele>
        <time>2018-01-24T10:16:49Z</time>
      </trkpt>
      <trkpt lat="47.63183" lon="6.03995">
        <ele>218.7</ele>
        <time>2018-01-24T10:16:51Z</time>
      </trkpt>
      <trkpt lat="47.6319" lon="6.03989">
        <ele>218.61</ele>
        <time>2018-01-24T10:16:53Z</time>
      </trkpt>
      <trkpt lat="47.63198" lon="6.03985">
        <ele>218.51</ele>
        <time>2018-01-24T10:16:55Z</time>
      </trkpt>
      <trkpt lat="47.63205" lon="6.0398">
        <ele>218.43</ele>
        <time>2018-01-24T10:16:57Z</time>
      </trkpt>
      <trkpt lat="47.63212" lon="6.03975">
        <ele>218.41</ele>
        <time>2018-01-24T10:16:59Z</time>
      </trkpt>
      <trkpt lat="47.63218" lon="6.0397">
        <ele>218.35</ele>
        <time>2018-01-24T10:17:01Z</time>
      </trkpt>
      <trkpt lat="47.63225" lon="6.03967">
        <ele>218.32</ele>
        <time>2018-01-24T10:17:03Z</time>
      </trkpt>
      <trkpt lat="47.6323" lon="6.03961">
        <ele>218.31</ele>
        <time>2018-01-24T10:17:05Z</time>
      </trkpt>
      <trkpt lat="47.63236" lon="6.03956">
        <ele>218.25</ele>
        <time>2018-01-24T10:17:07Z</time>
      </trkpt>
      <trkpt lat="47.63243" lon="6.03952">
        <ele>218.11</ele>
        <time>2018-01-24T10:17:09Z</time>
      </trkpt>
      <trkpt lat="47.63251" lon="6.03946">
        <ele>217.99</ele>
        <time>2018-01-24T10:17:11Z</time>
      </trkpt>
      <trkpt lat="47.63256" lon="6.03943">
        <ele>217.94</ele>
        <time>2018-01-24T10:17:12Z</time>
      </trkpt>
      <trkpt lat="47.63262" lon="6.03939">
        <ele>217.88</ele>
        <time>2018-01-24T10:17:13Z</time>
      </trkpt>
      <trkpt lat="47.63268" lon="6.03935">
        <ele>217.83</ele>
        <time>2018-01-24T10:17:14Z</time>
      </trkpt>
      <trkpt lat="47.63274" lon="6.0393">
        <ele>217.78</ele>
        <time>2018-01-24T10:17:15Z</time>
      </trkpt>
      <trkpt lat="47.6328" lon="6.03925">
        <ele>217.73</ele>
        <time>2018-01-24T10:17:16Z</time>
      </trkpt>
      <trkpt lat="47.63286" lon="6.03921">
        <ele>217.69</ele>
        <time>2018-01-24T10:17:17Z</time>
      </trkpt>
      <trkpt lat="47.63292" lon="6.03917">
        <ele>217.65</ele>
        <time>2018-01-24T10:17:18Z</time>
      </trkpt>
      <trkpt lat="47.63298" lon="6.03914">
        <ele>217.6</ele>
        <time>2018-01-24T10:17:19Z</time>
      </trkpt>
      <trkpt lat="47.63304" lon="6.03911">
        <ele>217.54</ele>
        <time>2018-01-24T10:17:20Z</time>
      </trkpt>
      <trkpt lat="47.63309" lon="6.03908">
        <ele>217.49</ele>
        <time>2018-01-24T10:17:21Z</time>
      </trkpt>
      <trkpt lat="47.63315" lon="6.03904">
        <ele>217.43</ele>
        <time>2018-01-24T10:17:22Z</time>
      </trkpt>
      <trkpt lat="47.6332" lon="6.03901">
        <ele>217.37</ele>
        <time>2018-01-24T10:17:23Z</time>
      </trkpt>
      <trkpt lat="47.63325" lon="6.03898">
        <ele>217.31</ele>
        <time>2018-01-24T10:17:24Z</time>
      </trkpt>
      <trkpt lat="47.63329" lon="6.03895">
        <ele>217.26</ele>
        <time>2018-01-24T10:17:25Z</time>
      </trkpt>
      <trkpt lat="47.63334" lon="6.03892">
        <ele>217.23</ele>
        <time>2018-01-24T10:17:26Z</time>
      </trkpt>
      <trkpt lat="47.63338" lon="6.03889">
        <ele>217.21</ele>
        <time>2018-01-24T10:17:27Z</time>
      </trkpt>
      <trkpt lat="47.63342" lon="6.03887">
        <ele>217.2</ele>
        <time>2018-01-24T10:17:28Z</time>
      </trkpt>
      <trkpt lat="47.63351" lon="6.03882">
        <ele>217.16</ele>
        <time>2018-01-24T10:17:30Z</time>
      </trkpt>
      <trkpt lat="47.63358" lon="6.03876">
        <ele>217.12</ele>
        <time>2018-01-24T10:17:32Z</time>
      </trkpt>
      <trkpt lat="47.63365" lon="6.03871">
        <ele>216.97</ele>
        <time>2018-01-24T10:17:34Z</time>
      </trkpt>
      <trkpt lat="47.63371" lon="6.03864">
        <ele>216.86</ele>
        <time>2018-01-24T10:17:36Z</time>
      </trkpt>
      <trkpt lat="47.63377" lon="6.03858">
        <ele>216.81</ele>
        <time>2018-01-24T10:17:38Z</time>
      </trkpt>
      <trkpt lat="47.63383" lon="6.03851">
        <ele>216.8</ele>
        <time>2018-01-24T10:17:40Z</time>
      </trkpt>
      <trkpt lat="47.63388" lon="6.03845">
        <ele>216.8</ele>
        <time>2018-01-24T10:17:42Z</time>
      </trkpt>
      <trkpt lat="47.63393" lon="6.03839">
        <ele>216.79</ele>
        <time>2018-01-24T10:17:44Z</time>
      </trkpt>
      <trkpt lat="47.63398" lon="6.03833">
        <ele>216.78</ele>
        <time>2018-01-24T10:17:46Z</time>
      </trkpt>
      <trkpt lat="47.63403" lon="6.03828">
        <ele>216.76</ele>
        <time>2018-01-24T10:17:48Z</time>
      </trkpt>
      <trkpt lat="47.63409" lon="6.03822">
        <ele>216.72</ele>
        <time>2018-01-24T10:17:50Z</time>
      </trkpt>
      <trkpt lat="47.63415" lon="6.03815">
        <ele>216.68</ele>
        <time>2018-01-24T10:17:52Z</time>
      </trkpt>
      <trkpt lat="47.63421" lon="6.03808">
        <ele>216.63</ele>
        <time>2018-01-24T10:17:54Z</time>
      </trkpt>
      <trkpt lat="47.63426" lon="6.038">
        <ele>216.58</ele>
        <time>2018-01-24T10:17:56Z</time>
      </trkpt>
      <trkpt lat="47.6343" lon="6.03795">
        <ele>216.53</ele>
        <time>2018-01-24T10:17:58Z</time>
      </trkpt>
      <trkpt lat="47.63434" lon="6.0379">
        <ele>216.48</ele>
        <time>2018-01-24T10:18:00Z</time>
      </trkpt>
      <trkpt lat="47.63439" lon="6.03786">
        <ele>216.43</ele>
        <time>2018-01-24T10:18:02Z</time>
      </trkpt>
      <trkpt lat="47.63445" lon="6.03781">
        <ele>216.37</ele>
        <time>2018-01-24T10:18:04Z</time>
      </trkpt>
      <trkpt lat="47.6345" lon="6.03776">
        <ele>216.3</ele>
        <time>2018-01-24T10:18:06Z</time>
      </trkpt>
      <trkpt lat="47.63456" lon="6.03772">
        <ele>216.24</ele>
        <time>2018-01-24T10:18:08Z</time>
      </trkpt>
      <trkpt lat="47.63461" lon="6.03766">
        <ele>216.18</ele>
        <time>2018-01-24T10:18:10Z</time>
      </trkpt>
      <trkpt lat="47.63467" lon="6.03762">
        <ele>216.11</ele>
        <time>2018-01-24T10:18:12Z</time>
      </trkpt>
      <trkpt lat="47.63472" lon="6.03757">
        <ele>216.04</ele>
        <time>2018-01-24T10:18:14Z</time>
      </trkpt>
      <trkpt lat="47.63478" lon="6.03752">
        <ele>215.97</ele>
        <time>2018-01-24T10:18:16Z</time>
      </trkpt>
      <trkpt lat="47.63484" lon="6.03748">
        <ele>215.89</ele>
        <time>2018-01-24T10:18:18Z</time>
      </trkpt>
      <trkpt lat="47.6349" lon="6.03743">
        <ele>215.81</ele>
        <time>2018-01-24T10:18:20Z</time>
      </trkpt>
      <trkpt lat="47.63496" lon="6.03737">
        <ele>215.44</ele>
        <time>2018-01-24T10:18:22Z</time>
      </trkpt>
      <trkpt lat="47.63503" lon="6.0373">
        <ele>214.74</ele>
        <time>2018-01-24T10:18:24Z</time>
      </trkpt>
      <trkpt lat="47.6351" lon="6.03723">
        <ele>214.21</ele>
        <time>2018-01-24T10:18:26Z</time>
      </trkpt>
      <trkpt lat="47.63517" lon="6.03716">
        <ele>213.79</ele>
        <time>2018-01-24T10:18:28Z</time>
      </trkpt>
      <trkpt lat="47.63526" lon="6.0371">
        <ele>213.45</ele>
        <time>2018-01-24T10:18:30Z</time>
      </trkpt>
      <trkpt lat="47.6353" lon="6.03706">
        <ele>213.31</ele>
        <time>2018-01-24T10:18:31Z</time>
      </trkpt>
      <trkpt lat="47.63533" lon="6.03702">
        <ele>213.17</ele>
        <time>2018-01-24T10:18:32Z</time>
      </trkpt>
      <trkpt lat="47.63537" lon="6.03698">
        <ele>213.06</ele>
        <time>2018-01-24T10:18:33Z</time>
      </trkpt>
      <trkpt lat="47.63541" lon="6.03694">
        <ele>212.98</ele>
        <time>2018-01-24T10:18:34Z</time>
      </trkpt>
      <trkpt lat="47.63545" lon="6.03691">
        <ele>212.93</ele>
        <time>2018-01-24T10:18:35Z</time>
      </trkpt>
      <trkpt lat="47.63552" lon="6.03686">
        <ele>212.85</ele>
        <time>2018-01-24T10:18:37Z</time>
      </trkpt>
      <trkpt lat="47.63559" lon="6.03681">
        <ele>212.76</ele>
        <time>2018-01-24T10:18:39Z</time>
      </trkpt>
      <trkpt lat="47.63566" lon="6.03677">
        <ele>212.66</ele>
        <time>2018-01-24T10:18:41Z</time>
      </trkpt>
      <trkpt lat="47.63573" lon="6.03672">
        <ele>212.56</ele>
        <time>2018-01-24T10:18:43Z</time>
      </trkpt>
      <trkpt lat="47.6358" lon="6.03667">
        <ele>212.51</ele>
        <time>2018-01-24T10:18:45Z</time>
      </trkpt>
      <trkpt lat="47.63587" lon="6.03663">
        <ele>212.49</ele>
        <time>2018-01-24T10:18:47Z</time>
      </trkpt>
      <trkpt lat="47.63593" lon="6.03658">
        <ele>212.46</ele>
        <time>2018-01-24T10:18:49Z</time>
      </trkpt>
      <trkpt lat="47.63599" lon="6.03652">
        <ele>212.43</ele>
        <time>2018-01-24T10:18:51Z</time>
      </trkpt>
      <trkpt lat="47.63605" lon="6.03647">
        <ele>212.4</ele>
        <time>2018-01-24T10:18:53Z</time>
      </trkpt>
      <trkpt lat="47.63611" lon="6.03642">
        <ele>212.36</ele>
        <time>2018-01-24T10:18:55Z</time>
      </trkpt>
      <trkpt lat="47.63617" lon="6.03637">
        <ele>212.31</ele>
        <time>2018-01-24T10:18:57Z</time>
      </trkpt>
      <trkpt lat="47.63623" lon="6.03632">
        <ele>212.25</ele>
        <time>2018-01-24T10:18:59Z</time>
      </trkpt>
      <trkpt lat="47.63629" lon="6.03625">
        <ele>212.18</ele>
        <time>2018-01-24T10:19:01Z</time>
      </trkpt>
      <trkpt lat="47.63635" lon="6.03619">
        <ele>212.11</ele>
        <time>2018-01-24T10:19:03Z</time>
      </trkpt>
      <trkpt lat="47.63641" lon="6.03612">
        <ele>212.05</ele>
        <time>2018-01-24T10:19:05Z</time>
      </trkpt>
      <trkpt lat="47.63646" lon="6.03606">
        <ele>212</ele>
        <time>2018-01-24T10:19:07Z</time>
      </trkpt>
      <trkpt lat="47.63652" lon="6.03598">
        <ele>211.95</ele>
        <time>2018-01-24T10:19:09Z</time>
      </trkpt>
      <trkpt lat="47.63657" lon="6.03592">
        <ele>211.92</ele>
        <time>2018-01-24T10:19:11Z</time>
      </trkpt>
      <trkpt lat="47.63662" lon="6.03586">
        <ele>211.9</ele>
        <time>2018-01-24T10:19:13Z</time>
      </trkpt>
      <trkpt lat="47.63667" lon="6.0358">
        <ele>211.88</ele>
        <time>2018-01-24T10:19:15Z</time>
      </trkpt>
      <trkpt lat="47.63672" lon="6.03574">
        <ele>211.85</ele>
        <time>2018-01-24T10:19:17Z</time>
      </trkpt>
      <trkpt lat="47.63677" lon="6.03568">
        <ele>211.82</ele>
        <time>2018-01-24T10:19:19Z</time>
      </trkpt>
      <trkpt lat="47.63682" lon="6.03562">
        <ele>211.79</ele>
        <time>2018-01-24T10:19:21Z</time>
      </trkpt>
      <trkpt lat="47.63686" lon="6.03555">
        <ele>211.75</ele>
        <time>2018-01-24T10:19:23Z</time>
      </trkpt>
      <trkpt lat="47.6369" lon="6.03547">
        <ele>211.72</ele>
        <time>2018-01-24T10:19:25Z</time>
      </trkpt>
      <trkpt lat="47.63694" lon="6.0354">
        <ele>211.67</ele>
        <time>2018-01-24T10:19:27Z</time>
      </trkpt>
      <trkpt lat="47.63698" lon="6.03534">
        <ele>211.63</ele>
        <time>2018-01-24T10:19:29Z</time>
      </trkpt>
      <trkpt lat="47.63705" lon="6.03532">
        <ele>211.59</ele>
        <time>2018-01-24T10:19:31Z</time>
      </trkpt>
      <trkpt lat="47.6371" lon="6.03529">
        <ele>211.57</ele>
        <time>2018-01-24T10:19:33Z</time>
      </trkpt>
      <trkpt lat="47.63715" lon="6.03527">
        <ele>211.54</ele>
        <time>2018-01-24T10:19:35Z</time>
      </trkpt>
      <trkpt lat="47.6372" lon="6.03525">
        <ele>211.5</ele>
        <time>2018-01-24T10:19:37Z</time>
      </trkpt>
      <trkpt lat="47.63725" lon="6.03523">
        <ele>211.46</ele>
        <time>2018-01-24T10:19:39Z</time>
      </trkpt>
      <trkpt lat="47.6373" lon="6.0352">
        <ele>211.43</ele>
        <time>2018-01-24T10:19:41Z</time>
      </trkpt>
      <trkpt lat="47.63734" lon="6.03518">
        <ele>211.4</ele>
        <time>2018-01-24T10:19:43Z</time>
      </trkpt>
      <trkpt lat="47.6374" lon="6.03516">
        <ele>211.36</ele>
        <time>2018-01-24T10:19:46Z</time>
      </trkpt>
      <trkpt lat="47.63746" lon="6.03514">
        <ele>211.32</ele>
        <time>2018-01-24T10:19:49Z</time>
      </trkpt>
      <trkpt lat="47.63751" lon="6.03513">
        <ele>211.3</ele>
        <time>2018-01-24T10:19:52Z</time>
      </trkpt>
      <trkpt lat="47.63757" lon="6.03514">
        <ele>211.29</ele>
        <time>2018-01-24T10:19:55Z</time>
      </trkpt>
      <trkpt lat="47.63763" lon="6.03515">
        <ele>211.3</ele>
        <time>2018-01-24T10:19:58Z</time>
      </trkpt>
      <trkpt lat="47.63768" lon="6.03514">
        <ele>211.33</ele>
        <time>2018-01-24T10:20:00Z</time>
      </trkpt>
      <trkpt lat="47.63776" lon="6.03517">
        <ele>211.36</ele>
        <time>2018-01-24T10:20:02Z</time>
      </trkpt>
      <trkpt lat="47.6378" lon="6.03519">
        <ele>211.4</ele>
        <time>2018-01-24T10:20:04Z</time>
      </trkpt>
      <trkpt lat="47.63785" lon="6.03522">
        <ele>211.44</ele>
        <time>2018-01-24T10:20:06Z</time>
      </trkpt>
      <trkpt lat="47.6379" lon="6.03524">
        <ele>211.48</ele>
        <time>2018-01-24T10:20:08Z</time>
      </trkpt>
      <trkpt lat="47.63796" lon="6.03525">
        <ele>211.52</ele>
        <time>2018-01-24T10:20:10Z</time>
      </trkpt>
      <trkpt lat="47.63802" lon="6.03526">
        <ele>211.57</ele>
        <time>2018-01-24T10:20:12Z</time>
      </trkpt>
      <trkpt lat="47.63808" lon="6.03526">
        <ele>211.61</ele>
        <time>2018-01-24T10:20:14Z</time>
      </trkpt>
      <trkpt lat="47.63814" lon="6.03525">
        <ele>211.66</ele>
        <time>2018-01-24T10:20:16Z</time>
      </trkpt>
      <trkpt lat="47.63823" lon="6.03526">
        <ele>211.71</ele>
        <time>2018-01-24T10:20:18Z</time>
      </trkpt>
      <trkpt lat="47.63828" lon="6.03527">
        <ele>211.77</ele>
        <time>2018-01-24T10:20:20Z</time>
      </trkpt>
      <trkpt lat="47.63833" lon="6.03529">
        <ele>211.83</ele>
        <time>2018-01-24T10:20:22Z</time>
      </trkpt>
      <trkpt lat="47.63838" lon="6.03531">
        <ele>211.9</ele>
        <time>2018-01-24T10:20:24Z</time>
      </trkpt>
      <trkpt lat="47.63844" lon="6.03532">
        <ele>211.98</ele>
        <time>2018-01-24T10:20:26Z</time>
      </trkpt>
      <trkpt lat="47.6385" lon="6.03533">
        <ele>212.08</ele>
        <time>2018-01-24T10:20:28Z</time>
      </trkpt>
      <trkpt lat="47.63856" lon="6.03535">
        <ele>212.18</ele>
        <time>2018-01-24T10:20:30Z</time>
      </trkpt>
      <trkpt lat="47.63862" lon="6.03539">
        <ele>212.29</ele>
        <time>2018-01-24T10:20:32Z</time>
      </trkpt>
      <trkpt lat="47.63867" lon="6.03543">
        <ele>212.41</ele>
        <time>2018-01-24T10:20:34Z</time>
      </trkpt>
      <trkpt lat="47.63872" lon="6.03547">
        <ele>212.53</ele>
        <time>2018-01-24T10:20:36Z</time>
      </trkpt>
      <trkpt lat="47.63876" lon="6.0355">
        <ele>212.65</ele>
        <time>2018-01-24T10:20:38Z</time>
      </trkpt>
      <trkpt lat="47.63881" lon="6.03551">
        <ele>212.78</ele>
        <time>2018-01-24T10:20:40Z</time>
      </trkpt>
      <trkpt lat="47.63887" lon="6.03554">
        <ele>212.92</ele>
        <time>2018-01-24T10:20:42Z</time>
      </trkpt>
      <trkpt lat="47.63891" lon="6.03557">
        <ele>213.05</ele>
        <time>2018-01-24T10:20:44Z</time>
      </trkpt>
      <trkpt lat="47.63896" lon="6.0356">
        <ele>213.18</ele>
        <time>2018-01-24T10:20:46Z</time>
      </trkpt>
      <trkpt lat="47.63901" lon="6.03562">
        <ele>213.32</ele>
        <time>2018-01-24T10:20:48Z</time>
      </trkpt>
      <trkpt lat="47.63907" lon="6.03564">
        <ele>213.46</ele>
        <time>2018-01-24T10:20:50Z</time>
      </trkpt>
      <trkpt lat="47.63914" lon="6.03565">
        <ele>213.61</ele>
        <time>2018-01-24T10:20:52Z</time>
      </trkpt>
      <trkpt lat="47.6392" lon="6.03566">
        <ele>213.75</ele>
        <time>2018-01-24T10:20:54Z</time>
      </trkpt>
      <trkpt lat="47.63927" lon="6.03569">
        <ele>213.9</ele>
        <time>2018-01-24T10:20:56Z</time>
      </trkpt>
      <trkpt lat="47.63933" lon="6.03571">
        <ele>214.04</ele>
        <time>2018-01-24T10:20:58Z</time>
      </trkpt>
      <trkpt lat="47.63941" lon="6.03574">
        <ele>214.19</ele>
        <time>2018-01-24T10:21:00Z</time>
      </trkpt>
      <trkpt lat="47.63949" lon="6.03576">
        <ele>214.33</ele>
        <time>2018-01-24T10:21:02Z</time>
      </trkpt>
      <trkpt lat="47.63956" lon="6.03579">
        <ele>214.47</ele>
        <time>2018-01-24T10:21:04Z</time>
      </trkpt>
      <trkpt lat="47.63962" lon="6.03582">
        <ele>214.62</ele>
        <time>2018-01-24T10:21:06Z</time>
      </trkpt>
      <trkpt lat="47.63967" lon="6.03585">
        <ele>214.77</ele>
        <time>2018-01-24T10:21:08Z</time>
      </trkpt>
      <trkpt lat="47.63973" lon="6.0359">
        <ele>214.9</ele>
        <time>2018-01-24T10:21:10Z</time>
      </trkpt>
      <trkpt lat="47.63978" lon="6.03594">
        <ele>215.02</ele>
        <time>2018-01-24T10:21:12Z</time>
      </trkpt>
      <trkpt lat="47.63983" lon="6.03597">
        <ele>215.13</ele>
        <time>2018-01-24T10:21:14Z</time>
      </trkpt>
      <trkpt lat="47.63988" lon="6.036">
        <ele>215.24</ele>
        <time>2018-01-24T10:21:16Z</time>
      </trkpt>
      <trkpt lat="47.63993" lon="6.03603">
        <ele>215.35</ele>
        <time>2018-01-24T10:21:18Z</time>
      </trkpt>
      <trkpt lat="47.63997" lon="6.03608">
        <ele>215.44</ele>
        <time>2018-01-24T10:21:20Z</time>
      </trkpt>
      <trkpt lat="47.64002" lon="6.03612">
        <ele>215.58</ele>
        <time>2018-01-24T10:21:23Z</time>
      </trkpt>
      <trkpt lat="47.64008" lon="6.03614">
        <ele>215.85</ele>
        <time>2018-01-24T10:21:41Z</time>
      </trkpt>
      <trkpt lat="47.64013" lon="6.03617">
        <ele>215.97</ele>
        <time>2018-01-24T10:21:44Z</time>
      </trkpt>
      <trkpt lat="47.64018" lon="6.0362">
        <ele>216.06</ele>
        <time>2018-01-24T10:21:46Z</time>
      </trkpt>
      <trkpt lat="47.64023" lon="6.03624">
        <ele>216.14</ele>
        <time>2018-01-24T10:21:48Z</time>
      </trkpt>
      <trkpt lat="47.6403" lon="6.0363">
        <ele>216.23</ele>
        <time>2018-01-24T10:21:50Z</time>
      </trkpt>
      <trkpt lat="47.64035" lon="6.03635">
        <ele>216.31</ele>
        <time>2018-01-24T10:21:52Z</time>
      </trkpt>
      <trkpt lat="47.6404" lon="6.0364">
        <ele>216.38</ele>
        <time>2018-01-24T10:21:54Z</time>
      </trkpt>
      <trkpt lat="47.64046" lon="6.03645">
        <ele>216.46</ele>
        <time>2018-01-24T10:21:56Z</time>
      </trkpt>
      <trkpt lat="47.64051" lon="6.03649">
        <ele>216.52</ele>
        <time>2018-01-24T10:21:58Z</time>
      </trkpt>
      <trkpt lat="47.64058" lon="6.03653">
        <ele>216.58</ele>
        <time>2018-01-24T10:22:00Z</time>
      </trkpt>
      <trkpt lat="47.64064" lon="6.03656">
        <ele>216.64</ele>
        <time>2018-01-24T10:22:02Z</time>
      </trkpt>
      <trkpt lat="47.64071" lon="6.0366">
        <ele>216.69</ele>
        <time>2018-01-24T10:22:04Z</time>
      </trkpt>
      <trkpt lat="47.64076" lon="6.03662">
        <ele>216.85</ele>
        <time>2018-01-24T10:22:05Z</time>
      </trkpt>
      <trkpt lat="47.64081" lon="6.03664">
        <ele>217.02</ele>
        <time>2018-01-24T10:22:06Z</time>
      </trkpt>
      <trkpt lat="47.64085" lon="6.03665">
        <ele>217.14</ele>
        <time>2018-01-24T10:22:07Z</time>
      </trkpt>
      <trkpt lat="47.6409" lon="6.03667">
        <ele>217.24</ele>
        <time>2018-01-24T10:22:08Z</time>
      </trkpt>
      <trkpt lat="47.64094" lon="6.03668">
        <ele>217.31</ele>
        <time>2018-01-24T10:22:09Z</time>
      </trkpt>
      <trkpt lat="47.64099" lon="6.03669">
        <ele>217.32</ele>
        <time>2018-01-24T10:22:10Z</time>
      </trkpt>
      <trkpt lat="47.64104" lon="6.03671">
        <ele>217.29</ele>
        <time>2018-01-24T10:22:11Z</time>
      </trkpt>
      <trkpt lat="47.64108" lon="6.03673">
        <ele>217.25</ele>
        <time>2018-01-24T10:22:12Z</time>
      </trkpt>
      <trkpt lat="47.64115" lon="6.03674">
        <ele>217.25</ele>
        <time>2018-01-24T10:22:13Z</time>
      </trkpt>
      <trkpt lat="47.64125" lon="6.03675">
        <ele>217.29</ele>
        <time>2018-01-24T10:22:15Z</time>
      </trkpt>
      <trkpt lat="47.64131" lon="6.03676">
        <ele>217.34</ele>
        <time>2018-01-24T10:22:16Z</time>
      </trkpt>
      <trkpt lat="47.64136" lon="6.03676">
        <ele>217.41</ele>
        <time>2018-01-24T10:22:17Z</time>
      </trkpt>
      <trkpt lat="47.64144" lon="6.03677">
        <ele>217.58</ele>
        <time>2018-01-24T10:22:19Z</time>
      </trkpt>
      <trkpt lat="47.64153" lon="6.03677">
        <ele>217.79</ele>
        <time>2018-01-24T10:22:21Z</time>
      </trkpt>
      <trkpt lat="47.64162" lon="6.03678">
        <ele>217.96</ele>
        <time>2018-01-24T10:22:23Z</time>
      </trkpt>
      <trkpt lat="47.64167" lon="6.03679">
        <ele>218.05</ele>
        <time>2018-01-24T10:22:24Z</time>
      </trkpt>
      <trkpt lat="47.64173" lon="6.0368">
        <ele>218.12</ele>
        <time>2018-01-24T10:22:25Z</time>
      </trkpt>
      <trkpt lat="47.64178" lon="6.0368">
        <ele>218.18</ele>
        <time>2018-01-24T10:22:26Z</time>
      </trkpt>
      <trkpt lat="47.64183" lon="6.03681">
        <ele>218.25</ele>
        <time>2018-01-24T10:22:27Z</time>
      </trkpt>
      <trkpt lat="47.64189" lon="6.03681">
        <ele>218.33</ele>
        <time>2018-01-24T10:22:28Z</time>
      </trkpt>
      <trkpt lat="47.64194" lon="6.03682">
        <ele>218.43</ele>
        <time>2018-01-24T10:22:29Z</time>
      </trkpt>
      <trkpt lat="47.64199" lon="6.03683">
        <ele>218.53</ele>
        <time>2018-01-24T10:22:30Z</time>
      </trkpt>
      <trkpt lat="47.64204" lon="6.03684">
        <ele>218.63</ele>
        <time>2018-01-24T10:22:31Z</time>
      </trkpt>
      <trkpt lat="47.64212" lon="6.03687">
        <ele>218.76</ele>
        <time>2018-01-24T10:22:33Z</time>
      </trkpt>
      <trkpt lat="47.6422" lon="6.03689">
        <ele>218.85</ele>
        <time>2018-01-24T10:22:35Z</time>
      </trkpt>
      <trkpt lat="47.64225" lon="6.0369">
        <ele>218.88</ele>
        <time>2018-01-24T10:22:36Z</time>
      </trkpt>
      <trkpt lat="47.6423" lon="6.03692">
        <ele>218.91</ele>
        <time>2018-01-24T10:22:37Z</time>
      </trkpt>
      <trkpt lat="47.64234" lon="6.03694">
        <ele>218.95</ele>
        <time>2018-01-24T10:22:38Z</time>
      </trkpt>
      <trkpt lat="47.64239" lon="6.03695">
        <ele>218.99</ele>
        <time>2018-01-24T10:22:39Z</time>
      </trkpt>
      <trkpt lat="47.64244" lon="6.03696">
        <ele>219.04</ele>
        <time>2018-01-24T10:22:40Z</time>
      </trkpt>
      <trkpt lat="47.64249" lon="6.03697">
        <ele>219.07</ele>
        <time>2018-01-24T10:22:41Z</time>
      </trkpt>
      <trkpt lat="47.64254" lon="6.03697">
        <ele>219.11</ele>
        <time>2018-01-24T10:22:42Z</time>
      </trkpt>
      <trkpt lat="47.64258" lon="6.03699">
        <ele>219.15</ele>
        <time>2018-01-24T10:22:43Z</time>
      </trkpt>
      <trkpt lat="47.64263" lon="6.03701">
        <ele>219.2</ele>
        <time>2018-01-24T10:22:44Z</time>
      </trkpt>
      <trkpt lat="47.64267" lon="6.03702">
        <ele>219.24</ele>
        <time>2018-01-24T10:22:45Z</time>
      </trkpt>
      <trkpt lat="47.64276" lon="6.03705">
        <ele>219.33</ele>
        <time>2018-01-24T10:22:47Z</time>
      </trkpt>
      <trkpt lat="47.64284" lon="6.03707">
        <ele>219.44</ele>
        <time>2018-01-24T10:22:49Z</time>
      </trkpt>
      <trkpt lat="47.64292" lon="6.03708">
        <ele>219.51</ele>
        <time>2018-01-24T10:22:51Z</time>
      </trkpt>
      <trkpt lat="47.64299" lon="6.03708">
        <ele>219.6</ele>
        <time>2018-01-24T10:22:53Z</time>
      </trkpt>
      <trkpt lat="47.64307" lon="6.03707">
        <ele>219.74</ele>
        <time>2018-01-24T10:22:55Z</time>
      </trkpt>
      <trkpt lat="47.64314" lon="6.03706">
        <ele>219.84</ele>
        <time>2018-01-24T10:22:57Z</time>
      </trkpt>
      <trkpt lat="47.64322" lon="6.03706">
        <ele>219.92</ele>
        <time>2018-01-24T10:22:59Z</time>
      </trkpt>
      <trkpt lat="47.6433" lon="6.03706">
        <ele>219.98</ele>
        <time>2018-01-24T10:23:01Z</time>
      </trkpt>
      <trkpt lat="47.64338" lon="6.03704">
        <ele>220</ele>
        <time>2018-01-24T10:23:03Z</time>
      </trkpt>
      <trkpt lat="47.64346" lon="6.03703">
        <ele>220.01</ele>
        <time>2018-01-24T10:23:05Z</time>
      </trkpt>
      <trkpt lat="47.64354" lon="6.03702">
        <ele>220</ele>
        <time>2018-01-24T10:23:07Z</time>
      </trkpt>
      <trkpt lat="47.64359" lon="6.037">
        <ele>219.99</ele>
        <time>2018-01-24T10:23:08Z</time>
      </trkpt>
      <trkpt lat="47.64363" lon="6.03698">
        <ele>219.99</ele>
        <time>2018-01-24T10:23:09Z</time>
      </trkpt>
      <trkpt lat="47.64368" lon="6.03696">
        <ele>219.99</ele>
        <time>2018-01-24T10:23:10Z</time>
      </trkpt>
      <trkpt lat="47.64374" lon="6.03694">
        <ele>220</ele>
        <time>2018-01-24T10:23:11Z</time>
      </trkpt>
      <trkpt lat="47.64379" lon="6.03691">
        <ele>219.96</ele>
        <time>2018-01-24T10:23:12Z</time>
      </trkpt>
      <trkpt lat="47.64384" lon="6.03687">
        <ele>219.93</ele>
        <time>2018-01-24T10:23:13Z</time>
      </trkpt>
      <trkpt lat="47.64388" lon="6.03682">
        <ele>219.9</ele>
        <time>2018-01-24T10:23:14Z</time>
      </trkpt>
      <trkpt lat="47.64391" lon="6.03677">
        <ele>219.85</ele>
        <time>2018-01-24T10:23:15Z</time>
      </trkpt>
      <trkpt lat="47.64392" lon="6.03669">
        <ele>219.79</ele>
        <time>2018-01-24T10:23:16Z</time>
      </trkpt>
      <trkpt lat="47.64394" lon="6.03662">
        <ele>219.7</ele>
        <time>2018-01-24T10:23:17Z</time>
      </trkpt>
      <trkpt lat="47.64396" lon="6.03651">
        <ele>219.61</ele>
        <time>2018-01-24T10:23:18Z</time>
      </trkpt>
      <trkpt lat="47.64399" lon="6.03641">
        <ele>219.51</ele>
        <time>2018-01-24T10:23:19Z</time>
      </trkpt>
      <trkpt lat="47.64404" lon="6.03633">
        <ele>219.43</ele>
        <time>2018-01-24T10:23:20Z</time>
      </trkpt>
      <trkpt lat="47.64409" lon="6.03626">
        <ele>219.32</ele>
        <time>2018-01-24T10:23:21Z</time>
      </trkpt>
      <trkpt lat="47.64416" lon="6.03621">
        <ele>219.19</ele>
        <time>2018-01-24T10:23:22Z</time>
      </trkpt>
      <trkpt lat="47.64424" lon="6.0362">
        <ele>219.05</ele>
        <time>2018-01-24T10:23:23Z</time>
      </trkpt>
      <trkpt lat="47.64431" lon="6.0362">
        <ele>218.92</ele>
        <time>2018-01-24T10:23:24Z</time>
      </trkpt>
      <trkpt lat="47.64438" lon="6.03622">
        <ele>218.77</ele>
        <time>2018-01-24T10:23:25Z</time>
      </trkpt>
      <trkpt lat="47.64444" lon="6.03624">
        <ele>218.61</ele>
        <time>2018-01-24T10:23:26Z</time>
      </trkpt>
      <trkpt lat="47.64451" lon="6.03625">
        <ele>218.45</ele>
        <time>2018-01-24T10:23:27Z</time>
      </trkpt>
      <trkpt lat="47.64458" lon="6.03625">
        <ele>218.31</ele>
        <time>2018-01-24T10:23:28Z</time>
      </trkpt>
      <trkpt lat="47.64464" lon="6.03626">
        <ele>218.21</ele>
        <time>2018-01-24T10:23:29Z</time>
      </trkpt>
      <trkpt lat="47.6447" lon="6.03625">
        <ele>218.13</ele>
        <time>2018-01-24T10:23:30Z</time>
      </trkpt>
      <trkpt lat="47.64476" lon="6.03625">
        <ele>218.03</ele>
        <time>2018-01-24T10:23:31Z</time>
      </trkpt>
      <trkpt lat="47.64482" lon="6.03624">
        <ele>217.95</ele>
        <time>2018-01-24T10:23:32Z</time>
      </trkpt>
      <trkpt lat="47.64488" lon="6.03623">
        <ele>217.87</ele>
        <time>2018-01-24T10:23:33Z</time>
      </trkpt>
      <trkpt lat="47.64494" lon="6.03623">
        <ele>217.79</ele>
        <time>2018-01-24T10:23:34Z</time>
      </trkpt>
      <trkpt lat="47.645" lon="6.03622">
        <ele>217.7</ele>
        <time>2018-01-24T10:23:35Z</time>
      </trkpt>
      <trkpt lat="47.64506" lon="6.03621">
        <ele>217.61</ele>
        <time>2018-01-24T10:23:36Z</time>
      </trkpt>
      <trkpt lat="47.64511" lon="6.0362">
        <ele>217.51</ele>
        <time>2018-01-24T10:23:37Z</time>
      </trkpt>
      <trkpt lat="47.64517" lon="6.03618">
        <ele>217.45</ele>
        <time>2018-01-24T10:23:38Z</time>
      </trkpt>
      <trkpt lat="47.64523" lon="6.03616">
        <ele>217.42</ele>
        <time>2018-01-24T10:23:39Z</time>
      </trkpt>
      <trkpt lat="47.64528" lon="6.03614">
        <ele>217.36</ele>
        <time>2018-01-24T10:23:40Z</time>
      </trkpt>
      <trkpt lat="47.64533" lon="6.03611">
        <ele>217.29</ele>
        <time>2018-01-24T10:23:41Z</time>
      </trkpt>
      <trkpt lat="47.64538" lon="6.03609">
        <ele>217.22</ele>
        <time>2018-01-24T10:23:42Z</time>
      </trkpt>
      <trkpt lat="47.64544" lon="6.03605">
        <ele>217.15</ele>
        <time>2018-01-24T10:23:43Z</time>
      </trkpt>
      <trkpt lat="47.64549" lon="6.03602">
        <ele>217.12</ele>
        <time>2018-01-24T10:23:44Z</time>
      </trkpt>
      <trkpt lat="47.64554" lon="6.03598">
        <ele>217.09</ele>
        <time>2018-01-24T10:23:45Z</time>
      </trkpt>
      <trkpt lat="47.64558" lon="6.03593">
        <ele>217.06</ele>
        <time>2018-01-24T10:23:46Z</time>
      </trkpt>
      <trkpt lat="47.64564" lon="6.03585">
        <ele>217.01</ele>
        <time>2018-01-24T10:23:48Z</time>
      </trkpt>
      <trkpt lat="47.6457" lon="6.03578">
        <ele>216.99</ele>
        <time>2018-01-24T10:23:50Z</time>
      </trkpt>
      <trkpt lat="47.64575" lon="6.03571">
        <ele>217</ele>
        <time>2018-01-24T10:23:52Z</time>
      </trkpt>
      <trkpt lat="47.64581" lon="6.03563">
        <ele>217.03</ele>
        <time>2018-01-24T10:23:54Z</time>
      </trkpt>
      <trkpt lat="47.64587" lon="6.03556">
        <ele>216.92</ele>
        <time>2018-01-24T10:23:56Z</time>
      </trkpt>
      <trkpt lat="47.64594" lon="6.03548">
        <ele>216.66</ele>
        <time>2018-01-24T10:23:58Z</time>
      </trkpt>
      <trkpt lat="47.64601" lon="6.0354">
        <ele>216.37</ele>
        <time>2018-01-24T10:24:00Z</time>
      </trkpt>
      <trkpt lat="47.64609" lon="6.03532">
        <ele>216.09</ele>
        <time>2018-01-24T10:24:02Z</time>
      </trkpt>
      <trkpt lat="47.64612" lon="6.03529">
        <ele>215.95</ele>
        <time>2018-01-24T10:24:03Z</time>
      </trkpt>
      <trkpt lat="47.64616" lon="6.03525">
        <ele>215.82</ele>
        <time>2018-01-24T10:24:04Z</time>
      </trkpt>
      <trkpt lat="47.64622" lon="6.03517">
        <ele>215.65</ele>
        <time>2018-01-24T10:24:06Z</time>
      </trkpt>
      <trkpt lat="47.64629" lon="6.03508">
        <ele>215.52</ele>
        <time>2018-01-24T10:24:08Z</time>
      </trkpt>
      <trkpt lat="47.64636" lon="6.035">
        <ele>215.39</ele>
        <time>2018-01-24T10:24:10Z</time>
      </trkpt>
      <trkpt lat="47.64642" lon="6.03491">
        <ele>215.25</ele>
        <time>2018-01-24T10:24:12Z</time>
      </trkpt>
      <trkpt lat="47.64649" lon="6.03483">
        <ele>215.08</ele>
        <time>2018-01-24T10:24:14Z</time>
      </trkpt>
      <trkpt lat="47.64655" lon="6.03474">
        <ele>214.85</ele>
        <time>2018-01-24T10:24:16Z</time>
      </trkpt>
      <trkpt lat="47.64662" lon="6.03466">
        <ele>214.61</ele>
        <time>2018-01-24T10:24:18Z</time>
      </trkpt>
      <trkpt lat="47.64669" lon="6.03459">
        <ele>214.39</ele>
        <time>2018-01-24T10:24:20Z</time>
      </trkpt>
      <trkpt lat="47.64673" lon="6.03455">
        <ele>214.29</ele>
        <time>2018-01-24T10:24:21Z</time>
      </trkpt>
      <trkpt lat="47.64677" lon="6.03451">
        <ele>214.19</ele>
        <time>2018-01-24T10:24:22Z</time>
      </trkpt>
      <trkpt lat="47.64685" lon="6.03446">
        <ele>214.01</ele>
        <time>2018-01-24T10:24:24Z</time>
      </trkpt>
      <trkpt lat="47.64692" lon="6.03441">
        <ele>213.91</ele>
        <time>2018-01-24T10:24:26Z</time>
      </trkpt>
      <trkpt lat="47.64696" lon="6.03437">
        <ele>213.89</ele>
        <time>2018-01-24T10:24:27Z</time>
      </trkpt>
      <trkpt lat="47.64704" lon="6.03432">
        <ele>213.87</ele>
        <time>2018-01-24T10:24:29Z</time>
      </trkpt>
      <trkpt lat="47.64708" lon="6.03428">
        <ele>213.86</ele>
        <time>2018-01-24T10:24:30Z</time>
      </trkpt>
      <trkpt lat="47.64715" lon="6.03424">
        <ele>213.86</ele>
        <time>2018-01-24T10:24:32Z</time>
      </trkpt>
      <trkpt lat="47.64722" lon="6.03419">
        <ele>213.84</ele>
        <time>2018-01-24T10:24:34Z</time>
      </trkpt>
      <trkpt lat="47.64729" lon="6.03415">
        <ele>213.78</ele>
        <time>2018-01-24T10:24:36Z</time>
      </trkpt>
      <trkpt lat="47.64737" lon="6.0341">
        <ele>213.68</ele>
        <time>2018-01-24T10:24:38Z</time>
      </trkpt>
      <trkpt lat="47.64745" lon="6.03404">
        <ele>213.59</ele>
        <time>2018-01-24T10:24:40Z</time>
      </trkpt>
      <trkpt lat="47.64749" lon="6.03402">
        <ele>213.56</ele>
        <time>2018-01-24T10:24:41Z</time>
      </trkpt>
      <trkpt lat="47.64754" lon="6.03399">
        <ele>213.55</ele>
        <time>2018-01-24T10:24:42Z</time>
      </trkpt>
      <trkpt lat="47.64758" lon="6.03396">
        <ele>213.55</ele>
        <time>2018-01-24T10:24:43Z</time>
      </trkpt>
      <trkpt lat="47.64763" lon="6.03393">
        <ele>213.56</ele>
        <time>2018-01-24T10:24:44Z</time>
      </trkpt>
      <trkpt lat="47.64767" lon="6.03391">
        <ele>213.56</ele>
        <time>2018-01-24T10:24:45Z</time>
      </trkpt>
      <trkpt lat="47.64775" lon="6.03386">
        <ele>213.54</ele>
        <time>2018-01-24T10:24:47Z</time>
      </trkpt>
      <trkpt lat="47.64782" lon="6.03382">
        <ele>213.53</ele>
        <time>2018-01-24T10:24:49Z</time>
      </trkpt>
      <trkpt lat="47.64789" lon="6.03378">
        <ele>213.52</ele>
        <time>2018-01-24T10:24:51Z</time>
      </trkpt>
      <trkpt lat="47.64795" lon="6.03375">
        <ele>213.52</ele>
        <time>2018-01-24T10:24:53Z</time>
      </trkpt>
      <trkpt lat="47.64801" lon="6.03371">
        <ele>213.5</ele>
        <time>2018-01-24T10:24:55Z</time>
      </trkpt>
      <trkpt lat="47.64808" lon="6.03367">
        <ele>213.49</ele>
        <time>2018-01-24T10:24:57Z</time>
      </trkpt>
      <trkpt lat="47.64816" lon="6.03363">
        <ele>213.48</ele>
        <time>2018-01-24T10:24:59Z</time>
      </trkpt>
      <trkpt lat="47.64823" lon="6.03359">
        <ele>213.46</ele>
        <time>2018-01-24T10:25:01Z</time>
      </trkpt>
      <trkpt lat="47.64828" lon="6.03357">
        <ele>213.28</ele>
        <time>2018-01-24T10:25:02Z</time>
      </trkpt>
      <trkpt lat="47.64833" lon="6.03354">
        <ele>213.03</ele>
        <time>2018-01-24T10:25:03Z</time>
      </trkpt>
      <trkpt lat="47.64838" lon="6.03351">
        <ele>212.74</ele>
        <time>2018-01-24T10:25:04Z</time>
      </trkpt>
      <trkpt lat="47.64843" lon="6.03348">
        <ele>212.44</ele>
        <time>2018-01-24T10:25:05Z</time>
      </trkpt>
      <trkpt lat="47.64848" lon="6.03345">
        <ele>212.14</ele>
        <time>2018-01-24T10:25:06Z</time>
      </trkpt>
      <trkpt lat="47.64853" lon="6.03341">
        <ele>211.84</ele>
        <time>2018-01-24T10:25:07Z</time>
      </trkpt>
      <trkpt lat="47.64859" lon="6.03338">
        <ele>211.55</ele>
        <time>2018-01-24T10:25:08Z</time>
      </trkpt>
      <trkpt lat="47.64864" lon="6.03334">
        <ele>211.25</ele>
        <time>2018-01-24T10:25:09Z</time>
      </trkpt>
      <trkpt lat="47.64869" lon="6.03331">
        <ele>210.96</ele>
        <time>2018-01-24T10:25:10Z</time>
      </trkpt>
      <trkpt lat="47.64874" lon="6.03329">
        <ele>210.7</ele>
        <time>2018-01-24T10:25:11Z</time>
      </trkpt>
      <trkpt lat="47.64878" lon="6.03326">
        <ele>210.46</ele>
        <time>2018-01-24T10:25:12Z</time>
      </trkpt>
      <trkpt lat="47.64883" lon="6.03323">
        <ele>210.37</ele>
        <time>2018-01-24T10:25:13Z</time>
      </trkpt>
      <trkpt lat="47.64892" lon="6.03319">
        <ele>210.17</ele>
        <time>2018-01-24T10:25:15Z</time>
      </trkpt>
      <trkpt lat="47.649" lon="6.03315">
        <ele>209.81</ele>
        <time>2018-01-24T10:25:17Z</time>
      </trkpt>
      <trkpt lat="47.64904" lon="6.03313">
        <ele>209.74</ele>
        <time>2018-01-24T10:25:18Z</time>
      </trkpt>
      <trkpt lat="47.64912" lon="6.03308">
        <ele>209.52</ele>
        <time>2018-01-24T10:25:20Z</time>
      </trkpt>
      <trkpt lat="47.64919" lon="6.03303">
        <ele>209.41</ele>
        <time>2018-01-24T10:25:22Z</time>
      </trkpt>
      <trkpt lat="47.64927" lon="6.03299">
        <ele>209.35</ele>
        <time>2018-01-24T10:25:24Z</time>
      </trkpt>
      <trkpt lat="47.64935" lon="6.03294">
        <ele>208.84</ele>
        <time>2018-01-24T10:25:26Z</time>
      </trkpt>
      <trkpt lat="47.6494" lon="6.03291">
        <ele>208.55</ele>
        <time>2018-01-24T10:25:27Z</time>
      </trkpt>
      <trkpt lat="47.64944" lon="6.03288">
        <ele>208.26</ele>
        <time>2018-01-24T10:25:28Z</time>
      </trkpt>
      <trkpt lat="47.64949" lon="6.03284">
        <ele>207.95</ele>
        <time>2018-01-24T10:25:29Z</time>
      </trkpt>
      <trkpt lat="47.64953" lon="6.03281">
        <ele>207.69</ele>
        <time>2018-01-24T10:25:30Z</time>
      </trkpt>
      <trkpt lat="47.64957" lon="6.03278">
        <ele>207.6</ele>
        <time>2018-01-24T10:25:31Z</time>
      </trkpt>
      <trkpt lat="47.64965" lon="6.03273">
        <ele>207.53</ele>
        <time>2018-01-24T10:25:33Z</time>
      </trkpt>
      <trkpt lat="47.64969" lon="6.0327">
        <ele>207.5</ele>
        <time>2018-01-24T10:25:34Z</time>
      </trkpt>
      <trkpt lat="47.64975" lon="6.03265">
        <ele>207.46</ele>
        <time>2018-01-24T10:25:36Z</time>
      </trkpt>
      <trkpt lat="47.64983" lon="6.0326">
        <ele>207.41</ele>
        <time>2018-01-24T10:25:38Z</time>
      </trkpt>
      <trkpt lat="47.64989" lon="6.03256">
        <ele>207.37</ele>
        <time>2018-01-24T10:25:40Z</time>
      </trkpt>
      <trkpt lat="47.64993" lon="6.03253">
        <ele>207.34</ele>
        <time>2018-01-24T10:25:41Z</time>
      </trkpt>
      <trkpt lat="47.65" lon="6.03248">
        <ele>207.29</ele>
        <time>2018-01-24T10:25:43Z</time>
      </trkpt>
      <trkpt lat="47.65008" lon="6.03242">
        <ele>207.26</ele>
        <time>2018-01-24T10:25:45Z</time>
      </trkpt>
      <trkpt lat="47.65015" lon="6.03235">
        <ele>207.26</ele>
        <time>2018-01-24T10:25:47Z</time>
      </trkpt>
      <trkpt lat="47.65021" lon="6.03229">
        <ele>207.27</ele>
        <time>2018-01-24T10:25:49Z</time>
      </trkpt>
      <trkpt lat="47.65027" lon="6.0322">
        <ele>207.45</ele>
        <time>2018-01-24T10:25:51Z</time>
      </trkpt>
      <trkpt lat="47.65033" lon="6.0321">
        <ele>207.6</ele>
        <time>2018-01-24T10:25:53Z</time>
      </trkpt>
      <trkpt lat="47.65038" lon="6.03199">
        <ele>207.64</ele>
        <time>2018-01-24T10:25:55Z</time>
      </trkpt>
      <trkpt lat="47.65043" lon="6.03188">
        <ele>207.61</ele>
        <time>2018-01-24T10:25:57Z</time>
      </trkpt>
      <trkpt lat="47.65045" lon="6.03182">
        <ele>207.57</ele>
        <time>2018-01-24T10:25:58Z</time>
      </trkpt>
      <trkpt lat="47.65048" lon="6.03175">
        <ele>207.51</ele>
        <time>2018-01-24T10:25:59Z</time>
      </trkpt>
      <trkpt lat="47.6505" lon="6.03169">
        <ele>207.43</ele>
        <time>2018-01-24T10:26:00Z</time>
      </trkpt>
      <trkpt lat="47.65052" lon="6.03162">
        <ele>207.34</ele>
        <time>2018-01-24T10:26:01Z</time>
      </trkpt>
      <trkpt lat="47.65055" lon="6.03156">
        <ele>207.21</ele>
        <time>2018-01-24T10:26:02Z</time>
      </trkpt>
      <trkpt lat="47.65057" lon="6.03149">
        <ele>207.06</ele>
        <time>2018-01-24T10:26:03Z</time>
      </trkpt>
      <trkpt lat="47.6506" lon="6.03142">
        <ele>206.88</ele>
        <time>2018-01-24T10:26:04Z</time>
      </trkpt>
      <trkpt lat="47.65064" lon="6.03129">
        <ele>206.46</ele>
        <time>2018-01-24T10:26:06Z</time>
      </trkpt>
      <trkpt lat="47.65066" lon="6.03123">
        <ele>206.27</ele>
        <time>2018-01-24T10:26:07Z</time>
      </trkpt>
      <trkpt lat="47.65066" lon="6.03115">
        <ele>205.88</ele>
        <time>2018-01-24T10:26:09Z</time>
      </trkpt>
      <trkpt lat="47.65065" lon="6.03104">
        <ele>205.42</ele>
        <time>2018-01-24T10:26:11Z</time>
      </trkpt>
      <trkpt lat="47.65066" lon="6.03094">
        <ele>204.88</ele>
        <time>2018-01-24T10:26:13Z</time>
      </trkpt>
      <trkpt lat="47.65062" lon="6.03084">
        <ele>204.33</ele>
        <time>2018-01-24T10:26:15Z</time>
      </trkpt>
      <trkpt lat="47.65059" lon="6.03074">
        <ele>204.02</ele>
        <time>2018-01-24T10:26:17Z</time>
      </trkpt>
      <trkpt lat="47.65054" lon="6.03065">
        <ele>203.89</ele>
        <time>2018-01-24T10:26:19Z</time>
      </trkpt>
      <trkpt lat="47.65051" lon="6.03056">
        <ele>203.83</ele>
        <time>2018-01-24T10:26:21Z</time>
      </trkpt>
      <trkpt lat="47.65049" lon="6.03048">
        <ele>203.76</ele>
        <time>2018-01-24T10:26:23Z</time>
      </trkpt>
      <trkpt lat="47.65053" lon="6.0304">
        <ele>204.08</ele>
        <time>2018-01-24T10:27:47Z</time>
      </trkpt>
      <trkpt lat="47.65061" lon="6.03039">
        <ele>204.52</ele>
        <time>2018-01-24T10:28:44Z</time>
      </trkpt>
      <trkpt lat="47.65068" lon="6.03039">
        <ele>204.66</ele>
        <time>2018-01-24T10:28:46Z</time>
      </trkpt>
      <trkpt lat="47.65073" lon="6.03041">
        <ele>204.79</ele>
        <time>2018-01-24T10:28:48Z</time>
      </trkpt>
      <trkpt lat="47.65077" lon="6.03046">
        <ele>204.92</ele>
        <time>2018-01-24T10:28:50Z</time>
      </trkpt>
      <trkpt lat="47.6508" lon="6.03053">
        <ele>205.04</ele>
        <time>2018-01-24T10:28:52Z</time>
      </trkpt>
      <trkpt lat="47.65084" lon="6.03058">
        <ele>205.16</ele>
        <time>2018-01-24T10:28:54Z</time>
      </trkpt>
      <trkpt lat="47.6509" lon="6.03061">
        <ele>205.26</ele>
        <time>2018-01-24T10:28:56Z</time>
      </trkpt>
      <trkpt lat="47.65094" lon="6.03062">
        <ele>205.62</ele>
        <time>2018-01-24T10:28:57Z</time>
      </trkpt>
      <trkpt lat="47.65099" lon="6.03063">
        <ele>206</ele>
        <time>2018-01-24T10:28:58Z</time>
      </trkpt>
      <trkpt lat="47.65107" lon="6.03066">
        <ele>206.43</ele>
        <time>2018-01-24T10:29:00Z</time>
      </trkpt>
      <trkpt lat="47.65114" lon="6.03065">
        <ele>206.51</ele>
        <time>2018-01-24T10:29:02Z</time>
      </trkpt>
      <trkpt lat="47.65121" lon="6.03063">
        <ele>206.55</ele>
        <time>2018-01-24T10:29:04Z</time>
      </trkpt>
      <trkpt lat="47.65128" lon="6.03062">
        <ele>206.59</ele>
        <time>2018-01-24T10:29:06Z</time>
      </trkpt>
      <trkpt lat="47.65134" lon="6.0306">
        <ele>206.63</ele>
        <time>2018-01-24T10:29:08Z</time>
      </trkpt>
      <trkpt lat="47.6514" lon="6.03054">
        <ele>206.66</ele>
        <time>2018-01-24T10:29:10Z</time>
      </trkpt>
      <trkpt lat="47.65145" lon="6.0305">
        <ele>206.69</ele>
        <time>2018-01-24T10:29:12Z</time>
      </trkpt>
      <trkpt lat="47.6515" lon="6.03049">
        <ele>206.72</ele>
        <time>2018-01-24T10:29:14Z</time>
      </trkpt>
      <trkpt lat="47.65155" lon="6.03043">
        <ele>206.74</ele>
        <time>2018-01-24T10:29:16Z</time>
      </trkpt>
      <trkpt lat="47.65161" lon="6.03037">
        <ele>206.75</ele>
        <time>2018-01-24T10:29:18Z</time>
      </trkpt>
      <trkpt lat="47.65166" lon="6.03033">
        <ele>206.76</ele>
        <time>2018-01-24T10:29:20Z</time>
      </trkpt>
      <trkpt lat="47.65172" lon="6.03027">
        <ele>206.79</ele>
        <time>2018-01-24T10:29:22Z</time>
      </trkpt>
      <trkpt lat="47.65178" lon="6.03022">
        <ele>206.8</ele>
        <time>2018-01-24T10:29:24Z</time>
      </trkpt>
      <trkpt lat="47.65186" lon="6.03019">
        <ele>206.81</ele>
        <time>2018-01-24T10:29:26Z</time>
      </trkpt>
      <trkpt lat="47.6519" lon="6.03017">
        <ele>206.81</ele>
        <time>2018-01-24T10:29:27Z</time>
      </trkpt>
      <trkpt lat="47.65198" lon="6.03014">
        <ele>206.79</ele>
        <time>2018-01-24T10:29:29Z</time>
      </trkpt>
      <trkpt lat="47.65206" lon="6.03013">
        <ele>206.76</ele>
        <time>2018-01-24T10:29:31Z</time>
      </trkpt>
      <trkpt lat="47.65214" lon="6.03011">
        <ele>206.73</ele>
        <time>2018-01-24T10:29:33Z</time>
      </trkpt>
      <trkpt lat="47.65222" lon="6.0301">
        <ele>206.71</ele>
        <time>2018-01-24T10:29:35Z</time>
      </trkpt>
      <trkpt lat="47.65231" lon="6.03009">
        <ele>206.69</ele>
        <time>2018-01-24T10:29:37Z</time>
      </trkpt>
      <trkpt lat="47.65239" lon="6.03009">
        <ele>206.69</ele>
        <time>2018-01-24T10:29:39Z</time>
      </trkpt>
      <trkpt lat="47.65247" lon="6.03008">
        <ele>206.68</ele>
        <time>2018-01-24T10:29:41Z</time>
      </trkpt>
      <trkpt lat="47.65256" lon="6.03007">
        <ele>206.68</ele>
        <time>2018-01-24T10:29:43Z</time>
      </trkpt>
      <trkpt lat="47.65264" lon="6.03006">
        <ele>206.68</ele>
        <time>2018-01-24T10:29:45Z</time>
      </trkpt>
      <trkpt lat="47.65272" lon="6.03004">
        <ele>206.68</ele>
        <time>2018-01-24T10:29:47Z</time>
      </trkpt>
      <trkpt lat="47.65281" lon="6.03003">
        <ele>206.68</ele>
        <time>2018-01-24T10:29:49Z</time>
      </trkpt>
      <trkpt lat="47.65289" lon="6.03002">
        <ele>206.67</ele>
        <time>2018-01-24T10:29:51Z</time>
      </trkpt>
      <trkpt lat="47.65296" lon="6.03001">
        <ele>206.66</ele>
        <time>2018-01-24T10:29:53Z</time>
      </trkpt>
      <trkpt lat="47.65303" lon="6.02998">
        <ele>206.66</ele>
        <time>2018-01-24T10:29:55Z</time>
      </trkpt>
      <trkpt lat="47.6531" lon="6.02996">
        <ele>206.65</ele>
        <time>2018-01-24T10:29:57Z</time>
      </trkpt>
      <trkpt lat="47.65317" lon="6.02993">
        <ele>206.65</ele>
        <time>2018-01-24T10:29:59Z</time>
      </trkpt>
      <trkpt lat="47.65323" lon="6.0299">
        <ele>206.65</ele>
        <time>2018-01-24T10:30:01Z</time>
      </trkpt>
      <trkpt lat="47.6533" lon="6.02987">
        <ele>206.64</ele>
        <time>2018-01-24T10:30:03Z</time>
      </trkpt>
      <trkpt lat="47.65336" lon="6.02983">
        <ele>206.65</ele>
        <time>2018-01-24T10:30:05Z</time>
      </trkpt>
      <trkpt lat="47.6534" lon="6.0298">
        <ele>206.66</ele>
        <time>2018-01-24T10:30:06Z</time>
      </trkpt>
      <trkpt lat="47.65348" lon="6.02975">
        <ele>206.69</ele>
        <time>2018-01-24T10:30:08Z</time>
      </trkpt>
      <trkpt lat="47.65357" lon="6.0297">
        <ele>206.71</ele>
        <time>2018-01-24T10:30:10Z</time>
      </trkpt>
      <trkpt lat="47.65364" lon="6.02965">
        <ele>206.73</ele>
        <time>2018-01-24T10:30:12Z</time>
      </trkpt>
      <trkpt lat="47.65369" lon="6.02963">
        <ele>206.75</ele>
        <time>2018-01-24T10:30:13Z</time>
      </trkpt>
      <trkpt lat="47.65374" lon="6.02962">
        <ele>206.77</ele>
        <time>2018-01-24T10:30:14Z</time>
      </trkpt>
      <trkpt lat="47.65378" lon="6.0296">
        <ele>206.78</ele>
        <time>2018-01-24T10:30:15Z</time>
      </trkpt>
      <trkpt lat="47.65383" lon="6.02958">
        <ele>206.79</ele>
        <time>2018-01-24T10:30:16Z</time>
      </trkpt>
      <trkpt lat="47.65387" lon="6.02956">
        <ele>206.8</ele>
        <time>2018-01-24T10:30:17Z</time>
      </trkpt>
      <trkpt lat="47.65392" lon="6.02954">
        <ele>206.8</ele>
        <time>2018-01-24T10:30:18Z</time>
      </trkpt>
      <trkpt lat="47.65396" lon="6.02952">
        <ele>206.81</ele>
        <time>2018-01-24T10:30:19Z</time>
      </trkpt>
      <trkpt lat="47.654" lon="6.02951">
        <ele>206.81</ele>
        <time>2018-01-24T10:30:20Z</time>
      </trkpt>
      <trkpt lat="47.65405" lon="6.02949">
        <ele>206.81</ele>
        <time>2018-01-24T10:30:21Z</time>
      </trkpt>
      <trkpt lat="47.65409" lon="6.02947">
        <ele>206.82</ele>
        <time>2018-01-24T10:30:22Z</time>
      </trkpt>
      <trkpt lat="47.65414" lon="6.02945">
        <ele>206.82</ele>
        <time>2018-01-24T10:30:23Z</time>
      </trkpt>
      <trkpt lat="47.65419" lon="6.02943">
        <ele>206.83</ele>
        <time>2018-01-24T10:30:24Z</time>
      </trkpt>
      <trkpt lat="47.65423" lon="6.02941">
        <ele>206.83</ele>
        <time>2018-01-24T10:30:25Z</time>
      </trkpt>
      <trkpt lat="47.65428" lon="6.02938">
        <ele>206.84</ele>
        <time>2018-01-24T10:30:26Z</time>
      </trkpt>
      <trkpt lat="47.65433" lon="6.02936">
        <ele>206.84</ele>
        <time>2018-01-24T10:30:27Z</time>
      </trkpt>
      <trkpt lat="47.65438" lon="6.02933">
        <ele>206.84</ele>
        <time>2018-01-24T10:30:28Z</time>
      </trkpt>
      <trkpt lat="47.65443" lon="6.02931">
        <ele>206.83</ele>
        <time>2018-01-24T10:30:29Z</time>
      </trkpt>
      <trkpt lat="47.65448" lon="6.02929">
        <ele>206.83</ele>
        <time>2018-01-24T10:30:30Z</time>
      </trkpt>
      <trkpt lat="47.65452" lon="6.02927">
        <ele>206.82</ele>
        <time>2018-01-24T10:30:31Z</time>
      </trkpt>
      <trkpt lat="47.65457" lon="6.02925">
        <ele>206.82</ele>
        <time>2018-01-24T10:30:32Z</time>
      </trkpt>
      <trkpt lat="47.65462" lon="6.02923">
        <ele>206.82</ele>
        <time>2018-01-24T10:30:33Z</time>
      </trkpt>
      <trkpt lat="47.65466" lon="6.02921">
        <ele>206.83</ele>
        <time>2018-01-24T10:30:34Z</time>
      </trkpt>
      <trkpt lat="47.65471" lon="6.02919">
        <ele>206.83</ele>
        <time>2018-01-24T10:30:35Z</time>
      </trkpt>
      <trkpt lat="47.65475" lon="6.02917">
        <ele>206.84</ele>
        <time>2018-01-24T10:30:36Z</time>
      </trkpt>
      <trkpt lat="47.65483" lon="6.02914">
        <ele>206.86</ele>
        <time>2018-01-24T10:30:38Z</time>
      </trkpt>
      <trkpt lat="47.65488" lon="6.02912">
        <ele>206.87</ele>
        <time>2018-01-24T10:30:39Z</time>
      </trkpt>
      <trkpt lat="47.65492" lon="6.0291">
        <ele>206.89</ele>
        <time>2018-01-24T10:30:40Z</time>
      </trkpt>
      <trkpt lat="47.655" lon="6.02906">
        <ele>206.92</ele>
        <time>2018-01-24T10:30:42Z</time>
      </trkpt>
      <trkpt lat="47.65509" lon="6.02903">
        <ele>206.96</ele>
        <time>2018-01-24T10:30:44Z</time>
      </trkpt>
      <trkpt lat="47.65517" lon="6.029">
        <ele>206.97</ele>
        <time>2018-01-24T10:30:46Z</time>
      </trkpt>
      <trkpt lat="47.65522" lon="6.02899">
        <ele>206.97</ele>
        <time>2018-01-24T10:30:47Z</time>
      </trkpt>
      <trkpt lat="47.65527" lon="6.02898">
        <ele>206.97</ele>
        <time>2018-01-24T10:30:48Z</time>
      </trkpt>
      <trkpt lat="47.65531" lon="6.02896">
        <ele>206.97</ele>
        <time>2018-01-24T10:30:49Z</time>
      </trkpt>
      <trkpt lat="47.65536" lon="6.02895">
        <ele>206.97</ele>
        <time>2018-01-24T10:30:50Z</time>
      </trkpt>
      <trkpt lat="47.6554" lon="6.02894">
        <ele>206.96</ele>
        <time>2018-01-24T10:30:51Z</time>
      </trkpt>
      <trkpt lat="47.65545" lon="6.02893">
        <ele>206.96</ele>
        <time>2018-01-24T10:30:52Z</time>
      </trkpt>
      <trkpt lat="47.65553" lon="6.02891">
        <ele>206.97</ele>
        <time>2018-01-24T10:30:54Z</time>
      </trkpt>
      <trkpt lat="47.65562" lon="6.02888">
        <ele>207</ele>
        <time>2018-01-24T10:30:56Z</time>
      </trkpt>
      <trkpt lat="47.65571" lon="6.02886">
        <ele>207.02</ele>
        <time>2018-01-24T10:30:58Z</time>
      </trkpt>
      <trkpt lat="47.65579" lon="6.02884">
        <ele>207.04</ele>
        <time>2018-01-24T10:31:00Z</time>
      </trkpt>
      <trkpt lat="47.65587" lon="6.02882">
        <ele>207.06</ele>
        <time>2018-01-24T10:31:02Z</time>
      </trkpt>
      <trkpt lat="47.65596" lon="6.0288">
        <ele>207.09</ele>
        <time>2018-01-24T10:31:04Z</time>
      </trkpt>
      <trkpt lat="47.65604" lon="6.02878">
        <ele>207.11</ele>
        <time>2018-01-24T10:31:06Z</time>
      </trkpt>
      <trkpt lat="47.65613" lon="6.02875">
        <ele>207.13</ele>
        <time>2018-01-24T10:31:08Z</time>
      </trkpt>
      <trkpt lat="47.65621" lon="6.02873">
        <ele>207.15</ele>
        <time>2018-01-24T10:31:10Z</time>
      </trkpt>
      <trkpt lat="47.65626" lon="6.02871">
        <ele>207.16</ele>
        <time>2018-01-24T10:31:11Z</time>
      </trkpt>
      <trkpt lat="47.6563" lon="6.0287">
        <ele>207.17</ele>
        <time>2018-01-24T10:31:12Z</time>
      </trkpt>
      <trkpt lat="47.65635" lon="6.02868">
        <ele>207.19</ele>
        <time>2018-01-24T10:31:13Z</time>
      </trkpt>
      <trkpt lat="47.6564" lon="6.02867">
        <ele>207.2</ele>
        <time>2018-01-24T10:31:14Z</time>
      </trkpt>
      <trkpt lat="47.65645" lon="6.02865">
        <ele>207.22</ele>
        <time>2018-01-24T10:31:15Z</time>
      </trkpt>
      <trkpt lat="47.65649" lon="6.02864">
        <ele>207.23</ele>
        <time>2018-01-24T10:31:16Z</time>
      </trkpt>
      <trkpt lat="47.65658" lon="6.02861">
        <ele>207.24</ele>
        <time>2018-01-24T10:31:18Z</time>
      </trkpt>
      <trkpt lat="47.65666" lon="6.02858">
        <ele>207.24</ele>
        <time>2018-01-24T10:31:20Z</time>
      </trkpt>
      <trkpt lat="47.65674" lon="6.02855">
        <ele>207.25</ele>
        <time>2018-01-24T10:31:22Z</time>
      </trkpt>
      <trkpt lat="47.65681" lon="6.02853">
        <ele>207.26</ele>
        <time>2018-01-24T10:31:24Z</time>
      </trkpt>
      <trkpt lat="47.65688" lon="6.0285">
        <ele>207.26</ele>
        <time>2018-01-24T10:31:26Z</time>
      </trkpt>
      <trkpt lat="47.65694" lon="6.02848">
        <ele>207.26</ele>
        <time>2018-01-24T10:31:28Z</time>
      </trkpt>
      <trkpt lat="47.65699" lon="6.02851">
        <ele>207.27</ele>
        <time>2018-01-24T10:31:30Z</time>
      </trkpt>
      <trkpt lat="47.65704" lon="6.02851">
        <ele>207.28</ele>
        <time>2018-01-24T10:31:33Z</time>
      </trkpt>
      <trkpt lat="47.65708" lon="6.02843">
        <ele>207.28</ele>
        <time>2018-01-24T10:31:36Z</time>
      </trkpt>
      <trkpt lat="47.65714" lon="6.02839">
        <ele>207.27</ele>
        <time>2018-01-24T10:31:38Z</time>
      </trkpt>
      <trkpt lat="47.65722" lon="6.02836">
        <ele>207.24</ele>
        <time>2018-01-24T10:31:40Z</time>
      </trkpt>
      <trkpt lat="47.6573" lon="6.02832">
        <ele>207.21</ele>
        <time>2018-01-24T10:31:42Z</time>
      </trkpt>
      <trkpt lat="47.65734" lon="6.0283">
        <ele>207.21</ele>
        <time>2018-01-24T10:31:43Z</time>
      </trkpt>
      <trkpt lat="47.65743" lon="6.02826">
        <ele>207.19</ele>
        <time>2018-01-24T10:31:45Z</time>
      </trkpt>
      <trkpt lat="47.65751" lon="6.02823">
        <ele>207.17</ele>
        <time>2018-01-24T10:31:47Z</time>
      </trkpt>
      <trkpt lat="47.65759" lon="6.02819">
        <ele>207.14</ele>
        <time>2018-01-24T10:31:49Z</time>
      </trkpt>
      <trkpt lat="47.65764" lon="6.02817">
        <ele>207.12</ele>
        <time>2018-01-24T10:31:50Z</time>
      </trkpt>
      <trkpt lat="47.65768" lon="6.02815">
        <ele>207.1</ele>
        <time>2018-01-24T10:31:51Z</time>
      </trkpt>
      <trkpt lat="47.65777" lon="6.02811">
        <ele>207.07</ele>
        <time>2018-01-24T10:31:53Z</time>
      </trkpt>
      <trkpt lat="47.65784" lon="6.02808">
        <ele>207.05</ele>
        <time>2018-01-24T10:31:55Z</time>
      </trkpt>
      <trkpt lat="47.65792" lon="6.02805">
        <ele>207.03</ele>
        <time>2018-01-24T10:31:57Z</time>
      </trkpt>
      <trkpt lat="47.658" lon="6.02801">
        <ele>207.02</ele>
        <time>2018-01-24T10:31:59Z</time>
      </trkpt>
      <trkpt lat="47.65805" lon="6.02798">
        <ele>207.02</ele>
        <time>2018-01-24T10:32:00Z</time>
      </trkpt>
      <trkpt lat="47.65813" lon="6.02794">
        <ele>207.03</ele>
        <time>2018-01-24T10:32:02Z</time>
      </trkpt>
      <trkpt lat="47.65818" lon="6.02792">
        <ele>207.02</ele>
        <time>2018-01-24T10:32:03Z</time>
      </trkpt>
      <trkpt lat="47.65822" lon="6.0279">
        <ele>207.02</ele>
        <time>2018-01-24T10:32:04Z</time>
      </trkpt>
      <trkpt lat="47.65827" lon="6.02788">
        <ele>207.01</ele>
        <time>2018-01-24T10:32:05Z</time>
      </trkpt>
      <trkpt lat="47.65831" lon="6.02785">
        <ele>207</ele>
        <time>2018-01-24T10:32:06Z</time>
      </trkpt>
      <trkpt lat="47.65841" lon="6.02781">
        <ele>206.98</ele>
        <time>2018-01-24T10:32:08Z</time>
      </trkpt>
      <trkpt lat="47.65846" lon="6.02778">
        <ele>206.97</ele>
        <time>2018-01-24T10:32:09Z</time>
      </trkpt>
      <trkpt lat="47.65851" lon="6.02775">
        <ele>206.95</ele>
        <time>2018-01-24T10:32:10Z</time>
      </trkpt>
      <trkpt lat="47.65856" lon="6.02772">
        <ele>206.93</ele>
        <time>2018-01-24T10:32:11Z</time>
      </trkpt>
      <trkpt lat="47.6586" lon="6.0277">
        <ele>206.92</ele>
        <time>2018-01-24T10:32:12Z</time>
      </trkpt>
      <trkpt lat="47.65864" lon="6.02767">
        <ele>206.9</ele>
        <time>2018-01-24T10:32:13Z</time>
      </trkpt>
      <trkpt lat="47.65869" lon="6.02764">
        <ele>206.88</ele>
        <time>2018-01-24T10:32:14Z</time>
      </trkpt>
      <trkpt lat="47.65877" lon="6.02758">
        <ele>206.85</ele>
        <time>2018-01-24T10:32:16Z</time>
      </trkpt>
      <trkpt lat="47.65881" lon="6.02755">
        <ele>206.84</ele>
        <time>2018-01-24T10:32:17Z</time>
      </trkpt>
      <trkpt lat="47.65886" lon="6.02752">
        <ele>206.83</ele>
        <time>2018-01-24T10:32:18Z</time>
      </trkpt>
      <trkpt lat="47.65893" lon="6.02747">
        <ele>206.8</ele>
        <time>2018-01-24T10:32:20Z</time>
      </trkpt>
      <trkpt lat="47.65898" lon="6.02743">
        <ele>206.79</ele>
        <time>2018-01-24T10:32:21Z</time>
      </trkpt>
      <trkpt lat="47.65905" lon="6.02738">
        <ele>206.75</ele>
        <time>2018-01-24T10:32:23Z</time>
      </trkpt>
      <trkpt lat="47.65912" lon="6.02732">
        <ele>206.7</ele>
        <time>2018-01-24T10:32:25Z</time>
      </trkpt>
      <trkpt lat="47.65919" lon="6.02727">
        <ele>206.63</ele>
        <time>2018-01-24T10:32:27Z</time>
      </trkpt>
      <trkpt lat="47.65926" lon="6.02721">
        <ele>206.56</ele>
        <time>2018-01-24T10:32:29Z</time>
      </trkpt>
      <trkpt lat="47.65933" lon="6.02716">
        <ele>206.48</ele>
        <time>2018-01-24T10:32:31Z</time>
      </trkpt>
      <trkpt lat="47.65937" lon="6.02712">
        <ele>206.44</ele>
        <time>2018-01-24T10:32:32Z</time>
      </trkpt>
      <trkpt lat="47.65945" lon="6.02706">
        <ele>206.37</ele>
        <time>2018-01-24T10:32:34Z</time>
      </trkpt>
      <trkpt lat="47.65952" lon="6.02701">
        <ele>206.3</ele>
        <time>2018-01-24T10:32:36Z</time>
      </trkpt>
      <trkpt lat="47.65956" lon="6.02698">
        <ele>206.28</ele>
        <time>2018-01-24T10:32:37Z</time>
      </trkpt>
      <trkpt lat="47.6596" lon="6.02695">
        <ele>206.26</ele>
        <time>2018-01-24T10:32:38Z</time>
      </trkpt>
      <trkpt lat="47.65968" lon="6.02689">
        <ele>206.22</ele>
        <time>2018-01-24T10:32:40Z</time>
      </trkpt>
      <trkpt lat="47.65972" lon="6.02686">
        <ele>206.21</ele>
        <time>2018-01-24T10:32:41Z</time>
      </trkpt>
      <trkpt lat="47.65977" lon="6.02683">
        <ele>206.2</ele>
        <time>2018-01-24T10:32:42Z</time>
      </trkpt>
      <trkpt lat="47.65984" lon="6.02677">
        <ele>206.18</ele>
        <time>2018-01-24T10:32:44Z</time>
      </trkpt>
      <trkpt lat="47.6599" lon="6.02672">
        <ele>206.17</ele>
        <time>2018-01-24T10:32:46Z</time>
      </trkpt>
      <trkpt lat="47.65995" lon="6.02667">
        <ele>206.16</ele>
        <time>2018-01-24T10:32:48Z</time>
      </trkpt>
      <trkpt lat="47.66002" lon="6.02662">
        <ele>206.16</ele>
        <time>2018-01-24T10:32:50Z</time>
      </trkpt>
      <trkpt lat="47.66009" lon="6.02657">
        <ele>206.1</ele>
        <time>2018-01-24T10:32:52Z</time>
      </trkpt>
      <trkpt lat="47.66015" lon="6.02654">
        <ele>206.08</ele>
        <time>2018-01-24T10:32:53Z</time>
      </trkpt>
      <trkpt lat="47.6602" lon="6.02651">
        <ele>206.06</ele>
        <time>2018-01-24T10:32:54Z</time>
      </trkpt>
      <trkpt lat="47.66026" lon="6.02648">
        <ele>206.04</ele>
        <time>2018-01-24T10:32:55Z</time>
      </trkpt>
      <trkpt lat="47.66032" lon="6.02644">
        <ele>206.02</ele>
        <time>2018-01-24T10:32:56Z</time>
      </trkpt>
      <trkpt lat="47.66037" lon="6.0264">
        <ele>206</ele>
        <time>2018-01-24T10:32:57Z</time>
      </trkpt>
      <trkpt lat="47.66042" lon="6.02638">
        <ele>205.96</ele>
        <time>2018-01-24T10:32:58Z</time>
      </trkpt>
      <trkpt lat="47.66047" lon="6.02635">
        <ele>205.93</ele>
        <time>2018-01-24T10:32:59Z</time>
      </trkpt>
      <trkpt lat="47.66051" lon="6.02632">
        <ele>205.89</ele>
        <time>2018-01-24T10:33:00Z</time>
      </trkpt>
      <trkpt lat="47.66056" lon="6.02629">
        <ele>205.85</ele>
        <time>2018-01-24T10:33:01Z</time>
      </trkpt>
      <trkpt lat="47.66061" lon="6.02627">
        <ele>205.81</ele>
        <time>2018-01-24T10:33:02Z</time>
      </trkpt>
      <trkpt lat="47.66067" lon="6.02625">
        <ele>205.77</ele>
        <time>2018-01-24T10:33:03Z</time>
      </trkpt>
      <trkpt lat="47.66072" lon="6.02624">
        <ele>205.73</ele>
        <time>2018-01-24T10:33:04Z</time>
      </trkpt>
      <trkpt lat="47.66078" lon="6.02624">
        <ele>205.71</ele>
        <time>2018-01-24T10:33:05Z</time>
      </trkpt>
      <trkpt lat="47.66082" lon="6.02625">
        <ele>205.68</ele>
        <time>2018-01-24T10:33:06Z</time>
      </trkpt>
      <trkpt lat="47.66088" lon="6.02625">
        <ele>205.66</ele>
        <time>2018-01-24T10:33:07Z</time>
      </trkpt>
      <trkpt lat="47.66097" lon="6.02627">
        <ele>205.63</ele>
        <time>2018-01-24T10:33:09Z</time>
      </trkpt>
      <trkpt lat="47.66101" lon="6.02628">
        <ele>205.61</ele>
        <time>2018-01-24T10:33:10Z</time>
      </trkpt>
      <trkpt lat="47.6611" lon="6.02631">
        <ele>205.56</ele>
        <time>2018-01-24T10:33:12Z</time>
      </trkpt>
      <trkpt lat="47.66117" lon="6.02634">
        <ele>205.51</ele>
        <time>2018-01-24T10:33:14Z</time>
      </trkpt>
      <trkpt lat="47.66124" lon="6.02638">
        <ele>205.5</ele>
        <time>2018-01-24T10:33:16Z</time>
      </trkpt>
      <trkpt lat="47.66131" lon="6.02643">
        <ele>205.5</ele>
        <time>2018-01-24T10:33:18Z</time>
      </trkpt>
      <trkpt lat="47.66138" lon="6.02646">
        <ele>205.49</ele>
        <time>2018-01-24T10:33:20Z</time>
      </trkpt>
      <trkpt lat="47.66143" lon="6.0265">
        <ele>205.48</ele>
        <time>2018-01-24T10:33:22Z</time>
      </trkpt>
      <trkpt lat="47.66149" lon="6.02654">
        <ele>205.47</ele>
        <time>2018-01-24T10:33:23Z</time>
      </trkpt>
      <trkpt lat="47.66155" lon="6.02658">
        <ele>205.46</ele>
        <time>2018-01-24T10:33:25Z</time>
      </trkpt>
      <trkpt lat="47.66162" lon="6.02662">
        <ele>205.45</ele>
        <time>2018-01-24T10:33:27Z</time>
      </trkpt>
      <trkpt lat="47.66169" lon="6.02666">
        <ele>205.43</ele>
        <time>2018-01-24T10:33:29Z</time>
      </trkpt>
      <trkpt lat="47.66175" lon="6.02669">
        <ele>205.42</ele>
        <time>2018-01-24T10:33:31Z</time>
      </trkpt>
      <trkpt lat="47.6618" lon="6.02673">
        <ele>205.41</ele>
        <time>2018-01-24T10:33:33Z</time>
      </trkpt>
      <trkpt lat="47.66184" lon="6.02678">
        <ele>205.39</ele>
        <time>2018-01-24T10:33:35Z</time>
      </trkpt>
      <trkpt lat="47.66188" lon="6.02683">
        <ele>205.38</ele>
        <time>2018-01-24T10:33:37Z</time>
      </trkpt>
      <trkpt lat="47.66188" lon="6.02692">
        <ele>205.38</ele>
        <time>2018-01-24T10:33:39Z</time>
      </trkpt>
      <trkpt lat="47.66188" lon="6.027">
        <ele>205.37</ele>
        <time>2018-01-24T10:33:41Z</time>
      </trkpt>
      <trkpt lat="47.66188" lon="6.02708">
        <ele>205.37</ele>
        <time>2018-01-24T10:33:43Z</time>
      </trkpt>
      <trkpt lat="47.66189" lon="6.02717">
        <ele>205.37</ele>
        <time>2018-01-24T10:33:45Z</time>
      </trkpt>
      <trkpt lat="47.66189" lon="6.02727">
        <ele>205.37</ele>
        <time>2018-01-24T10:33:47Z</time>
      </trkpt>
      <trkpt lat="47.6619" lon="6.02738">
        <ele>205.37</ele>
        <time>2018-01-24T10:33:49Z</time>
      </trkpt>
      <trkpt lat="47.66191" lon="6.02747">
        <ele>205.37</ele>
        <time>2018-01-24T10:33:51Z</time>
      </trkpt>
      <trkpt lat="47.66192" lon="6.02756">
        <ele>205.38</ele>
        <time>2018-01-24T10:33:53Z</time>
      </trkpt>
      <trkpt lat="47.66192" lon="6.02765">
        <ele>205.39</ele>
        <time>2018-01-24T10:33:55Z</time>
      </trkpt>
      <trkpt lat="47.66194" lon="6.02775">
        <ele>205.39</ele>
        <time>2018-01-24T10:33:57Z</time>
      </trkpt>
      <trkpt lat="47.66196" lon="6.02785">
        <ele>205.4</ele>
        <time>2018-01-24T10:33:59Z</time>
      </trkpt>
      <trkpt lat="47.66199" lon="6.02794">
        <ele>205.41</ele>
        <time>2018-01-24T10:34:01Z</time>
      </trkpt>
      <trkpt lat="47.66203" lon="6.02804">
        <ele>205.42</ele>
        <time>2018-01-24T10:34:03Z</time>
      </trkpt>
      <trkpt lat="47.66208" lon="6.02811">
        <ele>205.43</ele>
        <time>2018-01-24T10:34:05Z</time>
      </trkpt>
      <trkpt lat="47.66211" lon="6.02819">
        <ele>205.44</ele>
        <time>2018-01-24T10:34:07Z</time>
      </trkpt>
      <trkpt lat="47.66214" lon="6.02826">
        <ele>205.45</ele>
        <time>2018-01-24T10:34:09Z</time>
      </trkpt>
      <trkpt lat="47.66217" lon="6.02833">
        <ele>205.47</ele>
        <time>2018-01-24T10:34:11Z</time>
      </trkpt>
      <trkpt lat="47.66222" lon="6.02839">
        <ele>205.49</ele>
        <time>2018-01-24T10:34:13Z</time>
      </trkpt>
      <trkpt lat="47.66226" lon="6.02846">
        <ele>205.51</ele>
        <time>2018-01-24T10:34:15Z</time>
      </trkpt>
      <trkpt lat="47.66231" lon="6.02852">
        <ele>205.53</ele>
        <time>2018-01-24T10:34:17Z</time>
      </trkpt>
      <trkpt lat="47.66236" lon="6.02857">
        <ele>205.55</ele>
        <time>2018-01-24T10:34:19Z</time>
      </trkpt>
      <trkpt lat="47.6624" lon="6.02863">
        <ele>205.58</ele>
        <time>2018-01-24T10:34:21Z</time>
      </trkpt>
      <trkpt lat="47.66245" lon="6.02869">
        <ele>205.6</ele>
        <time>2018-01-24T10:34:23Z</time>
      </trkpt>
      <trkpt lat="47.6625" lon="6.02875">
        <ele>205.63</ele>
        <time>2018-01-24T10:34:25Z</time>
      </trkpt>
      <trkpt lat="47.66254" lon="6.02881">
        <ele>205.66</ele>
        <time>2018-01-24T10:34:27Z</time>
      </trkpt>
      <trkpt lat="47.6626" lon="6.02887">
        <ele>205.69</ele>
        <time>2018-01-24T10:34:29Z</time>
      </trkpt>
      <trkpt lat="47.66264" lon="6.02894">
        <ele>205.73</ele>
        <time>2018-01-24T10:34:31Z</time>
      </trkpt>
      <trkpt lat="47.66268" lon="6.02899">
        <ele>205.77</ele>
        <time>2018-01-24T10:34:33Z</time>
      </trkpt>
      <trkpt lat="47.66273" lon="6.02904">
        <ele>205.81</ele>
        <time>2018-01-24T10:34:35Z</time>
      </trkpt>
      <trkpt lat="47.66278" lon="6.02911">
        <ele>205.85</ele>
        <time>2018-01-24T10:34:37Z</time>
      </trkpt>
      <trkpt lat="47.66283" lon="6.02918">
        <ele>205.9</ele>
        <time>2018-01-24T10:34:39Z</time>
      </trkpt>
      <trkpt lat="47.66289" lon="6.02925">
        <ele>205.95</ele>
        <time>2018-01-24T10:34:41Z</time>
      </trkpt>
      <trkpt lat="47.66293" lon="6.02929">
        <ele>206</ele>
        <time>2018-01-24T10:34:43Z</time>
      </trkpt>
      <trkpt lat="47.66297" lon="6.02933">
        <ele>206.06</ele>
        <time>2018-01-24T10:34:45Z</time>
      </trkpt>
      <trkpt lat="47.66302" lon="6.02939">
        <ele>206.14</ele>
        <time>2018-01-24T10:34:48Z</time>
      </trkpt>
      <trkpt lat="47.66306" lon="6.02945">
        <ele>206.26</ele>
        <time>2018-01-24T10:34:52Z</time>
      </trkpt>
      <trkpt lat="47.6631" lon="6.02949">
        <ele>206.36</ele>
        <time>2018-01-24T10:34:55Z</time>
      </trkpt>
      <trkpt lat="47.66312" lon="6.02955">
        <ele>206.42</ele>
        <time>2018-01-24T10:34:57Z</time>
      </trkpt>
      <trkpt lat="47.66316" lon="6.02963">
        <ele>206.53</ele>
        <time>2018-01-24T10:35:00Z</time>
      </trkpt>
      <trkpt lat="47.66319" lon="6.02969">
        <ele>206.64</ele>
        <time>2018-01-24T10:35:03Z</time>
      </trkpt>
      <trkpt lat="47.66323" lon="6.02975">
        <ele>206.75</ele>
        <time>2018-01-24T10:35:06Z</time>
      </trkpt>
      <trkpt lat="47.66327" lon="6.02982">
        <ele>206.86</ele>
        <time>2018-01-24T10:35:09Z</time>
      </trkpt>
      <trkpt lat="47.66331" lon="6.02987">
        <ele>206.92</ele>
        <time>2018-01-24T10:35:11Z</time>
      </trkpt>
      <trkpt lat="47.66335" lon="6.02994">
        <ele>207.02</ele>
        <time>2018-01-24T10:35:14Z</time>
      </trkpt>
      <trkpt lat="47.66338" lon="6.03001">
        <ele>207.12</ele>
        <time>2018-01-24T10:35:17Z</time>
      </trkpt>
      <trkpt lat="47.6634" lon="6.03007">
        <ele>207.25</ele>
        <time>2018-01-24T10:35:21Z</time>
      </trkpt>
      <trkpt lat="47.66343" lon="6.03013">
        <ele>207.34</ele>
        <time>2018-01-24T10:35:24Z</time>
      </trkpt>
      <trkpt lat="47.66347" lon="6.03019">
        <ele>207.4</ele>
        <time>2018-01-24T10:35:26Z</time>
      </trkpt>
      <trkpt lat="47.66351" lon="6.03024">
        <ele>207.45</ele>
        <time>2018-01-24T10:35:28Z</time>
      </trkpt>
      <trkpt lat="47.66358" lon="6.0303">
        <ele>207.53</ele>
        <time>2018-01-24T10:35:31Z</time>
      </trkpt>
      <trkpt lat="47.66365" lon="6.03032">
        <ele>207.56</ele>
        <time>2018-01-24T10:35:32Z</time>
      </trkpt>
      <trkpt lat="47.66371" lon="6.03034">
        <ele>207.58</ele>
        <time>2018-01-24T10:35:33Z</time>
      </trkpt>
      <trkpt lat="47.66377" lon="6.0304">
        <ele>207.63</ele>
        <time>2018-01-24T10:35:35Z</time>
      </trkpt>
      <trkpt lat="47.66381" lon="6.03045">
        <ele>207.68</ele>
        <time>2018-01-24T10:35:37Z</time>
      </trkpt>
      <trkpt lat="47.66385" lon="6.03052">
        <ele>207.73</ele>
        <time>2018-01-24T10:35:39Z</time>
      </trkpt>
      <trkpt lat="47.66391" lon="6.03056">
        <ele>207.78</ele>
        <time>2018-01-24T10:35:41Z</time>
      </trkpt>
      <trkpt lat="47.66397" lon="6.03062">
        <ele>208.14</ele>
        <time>2018-01-24T10:35:43Z</time>
      </trkpt>
      <trkpt lat="47.66402" lon="6.03064">
        <ele>208.3</ele>
        <time>2018-01-24T10:35:44Z</time>
      </trkpt>
      <trkpt lat="47.66406" lon="6.03066">
        <ele>208.44</ele>
        <time>2018-01-24T10:35:45Z</time>
      </trkpt>
      <trkpt lat="47.66412" lon="6.03069">
        <ele>208.54</ele>
        <time>2018-01-24T10:35:46Z</time>
      </trkpt>
      <trkpt lat="47.6642" lon="6.03071">
        <ele>208.62</ele>
        <time>2018-01-24T10:35:47Z</time>
      </trkpt>
      <trkpt lat="47.66429" lon="6.03075">
        <ele>208.68</ele>
        <time>2018-01-24T10:35:48Z</time>
      </trkpt>
      <trkpt lat="47.6644" lon="6.03078">
        <ele>208.73</ele>
        <time>2018-01-24T10:35:49Z</time>
      </trkpt>
      <trkpt lat="47.66446" lon="6.03081">
        <ele>208.77</ele>
        <time>2018-01-24T10:35:50Z</time>
      </trkpt>
      <trkpt lat="47.66455" lon="6.03081">
        <ele>208.8</ele>
        <time>2018-01-24T10:35:51Z</time>
      </trkpt>
      <trkpt lat="47.66463" lon="6.03082">
        <ele>208.82</ele>
        <time>2018-01-24T10:35:52Z</time>
      </trkpt>
      <trkpt lat="47.66469" lon="6.03084">
        <ele>208.84</ele>
        <time>2018-01-24T10:35:53Z</time>
      </trkpt>
      <trkpt lat="47.66476" lon="6.03084">
        <ele>208.85</ele>
        <time>2018-01-24T10:35:54Z</time>
      </trkpt>
      <trkpt lat="47.66484" lon="6.03086">
        <ele>208.87</ele>
        <time>2018-01-24T10:35:55Z</time>
      </trkpt>
      <trkpt lat="47.66491" lon="6.03087">
        <ele>208.88</ele>
        <time>2018-01-24T10:35:56Z</time>
      </trkpt>
      <trkpt lat="47.66497" lon="6.03088">
        <ele>208.9</ele>
        <time>2018-01-24T10:35:57Z</time>
      </trkpt>
      <trkpt lat="47.66503" lon="6.03087">
        <ele>208.92</ele>
        <time>2018-01-24T10:35:58Z</time>
      </trkpt>
      <trkpt lat="47.66508" lon="6.03087">
        <ele>208.94</ele>
        <time>2018-01-24T10:35:59Z</time>
      </trkpt>
      <trkpt lat="47.66514" lon="6.03088">
        <ele>208.96</ele>
        <time>2018-01-24T10:36:00Z</time>
      </trkpt>
      <trkpt lat="47.66519" lon="6.03088">
        <ele>208.99</ele>
        <time>2018-01-24T10:36:01Z</time>
      </trkpt>
      <trkpt lat="47.66524" lon="6.03089">
        <ele>209.02</ele>
        <time>2018-01-24T10:36:02Z</time>
      </trkpt>
      <trkpt lat="47.66531" lon="6.0309">
        <ele>209.06</ele>
        <time>2018-01-24T10:36:04Z</time>
      </trkpt>
      <trkpt lat="47.66539" lon="6.03091">
        <ele>209.1</ele>
        <time>2018-01-24T10:36:06Z</time>
      </trkpt>
      <trkpt lat="47.66547" lon="6.03092">
        <ele>209.12</ele>
        <time>2018-01-24T10:36:08Z</time>
      </trkpt>
      <trkpt lat="47.66554" lon="6.03094">
        <ele>209.12</ele>
        <time>2018-01-24T10:36:10Z</time>
      </trkpt>
      <trkpt lat="47.66562" lon="6.03094">
        <ele>209.13</ele>
        <time>2018-01-24T10:36:12Z</time>
      </trkpt>
      <trkpt lat="47.66569" lon="6.03094">
        <ele>209.14</ele>
        <time>2018-01-24T10:36:14Z</time>
      </trkpt>
      <trkpt lat="47.66576" lon="6.03095">
        <ele>209.15</ele>
        <time>2018-01-24T10:36:16Z</time>
      </trkpt>
      <trkpt lat="47.66583" lon="6.03095">
        <ele>209.16</ele>
        <time>2018-01-24T10:36:18Z</time>
      </trkpt>
      <trkpt lat="47.66591" lon="6.03095">
        <ele>209.17</ele>
        <time>2018-01-24T10:36:20Z</time>
      </trkpt>
      <trkpt lat="47.66598" lon="6.03095">
        <ele>209.18</ele>
        <time>2018-01-24T10:36:22Z</time>
      </trkpt>
      <trkpt lat="47.66605" lon="6.03095">
        <ele>209.2</ele>
        <time>2018-01-24T10:36:24Z</time>
      </trkpt>
      <trkpt lat="47.66611" lon="6.03094">
        <ele>209.21</ele>
        <time>2018-01-24T10:36:26Z</time>
      </trkpt>
      <trkpt lat="47.66618" lon="6.03094">
        <ele>209.23</ele>
        <time>2018-01-24T10:36:28Z</time>
      </trkpt>
      <trkpt lat="47.66625" lon="6.03094">
        <ele>209.25</ele>
        <time>2018-01-24T10:36:30Z</time>
      </trkpt>
      <trkpt lat="47.66632" lon="6.03093">
        <ele>209.27</ele>
        <time>2018-01-24T10:36:32Z</time>
      </trkpt>
      <trkpt lat="47.66637" lon="6.03093">
        <ele>209.29</ele>
        <time>2018-01-24T10:36:34Z</time>
      </trkpt>
      <trkpt lat="47.66643" lon="6.03092">
        <ele>209.3</ele>
        <time>2018-01-24T10:36:36Z</time>
      </trkpt>
      <trkpt lat="47.66649" lon="6.03092">
        <ele>209.32</ele>
        <time>2018-01-24T10:36:38Z</time>
      </trkpt>
      <trkpt lat="47.66655" lon="6.03092">
        <ele>209.34</ele>
        <time>2018-01-24T10:36:40Z</time>
      </trkpt>
      <trkpt lat="47.66662" lon="6.03092">
        <ele>209.36</ele>
        <time>2018-01-24T10:36:42Z</time>
      </trkpt>
      <trkpt lat="47.66669" lon="6.03093">
        <ele>209.38</ele>
        <time>2018-01-24T10:36:44Z</time>
      </trkpt>
      <trkpt lat="47.66675" lon="6.03095">
        <ele>209.4</ele>
        <time>2018-01-24T10:36:46Z</time>
      </trkpt>
      <trkpt lat="47.66681" lon="6.03097">
        <ele>209.42</ele>
        <time>2018-01-24T10:36:48Z</time>
      </trkpt>
      <trkpt lat="47.66686" lon="6.03099">
        <ele>209.44</ele>
        <time>2018-01-24T10:36:50Z</time>
      </trkpt>
      <trkpt lat="47.6669" lon="6.03102">
        <ele>209.46</ele>
        <time>2018-01-24T10:36:52Z</time>
      </trkpt>
      <trkpt lat="47.66695" lon="6.03105">
        <ele>209.48</ele>
        <time>2018-01-24T10:36:54Z</time>
      </trkpt>
      <trkpt lat="47.66699" lon="6.03108">
        <ele>209.5</ele>
        <time>2018-01-24T10:36:56Z</time>
      </trkpt>
      <trkpt lat="47.66704" lon="6.03113">
        <ele>209.52</ele>
        <time>2018-01-24T10:36:58Z</time>
      </trkpt>
      <trkpt lat="47.66709" lon="6.03117">
        <ele>209.54</ele>
        <time>2018-01-24T10:37:00Z</time>
      </trkpt>
      <trkpt lat="47.66713" lon="6.03121">
        <ele>209.57</ele>
        <time>2018-01-24T10:37:02Z</time>
      </trkpt>
      <trkpt lat="47.66717" lon="6.03125">
        <ele>209.59</ele>
        <time>2018-01-24T10:37:04Z</time>
      </trkpt>
      <trkpt lat="47.66723" lon="6.03128">
        <ele>209.62</ele>
        <time>2018-01-24T10:37:06Z</time>
      </trkpt>
      <trkpt lat="47.66727" lon="6.03132">
        <ele>209.64</ele>
        <time>2018-01-24T10:37:08Z</time>
      </trkpt>
      <trkpt lat="47.66731" lon="6.03136">
        <ele>209.67</ele>
        <time>2018-01-24T10:37:10Z</time>
      </trkpt>
      <trkpt lat="47.66735" lon="6.0314">
        <ele>209.7</ele>
        <time>2018-01-24T10:37:12Z</time>
      </trkpt>
      <trkpt lat="47.66741" lon="6.03143">
        <ele>209.75</ele>
        <time>2018-01-24T10:37:15Z</time>
      </trkpt>
      <trkpt lat="47.66747" lon="6.03147">
        <ele>209.79</ele>
        <time>2018-01-24T10:37:17Z</time>
      </trkpt>
      <trkpt lat="47.66752" lon="6.03151">
        <ele>209.84</ele>
        <time>2018-01-24T10:37:20Z</time>
      </trkpt>
      <trkpt lat="47.66759" lon="6.03155">
        <ele>209.89</ele>
        <time>2018-01-24T10:37:22Z</time>
      </trkpt>
      <trkpt lat="47.66763" lon="6.03157">
        <ele>209.93</ele>
        <time>2018-01-24T10:37:24Z</time>
      </trkpt>
      <trkpt lat="47.66768" lon="6.03159">
        <ele>210</ele>
        <time>2018-01-24T10:37:27Z</time>
      </trkpt>
      <trkpt lat="47.66774" lon="6.03162">
        <ele>210.07</ele>
        <time>2018-01-24T10:37:30Z</time>
      </trkpt>
      <trkpt lat="47.6678" lon="6.03164">
        <ele>210.13</ele>
        <time>2018-01-24T10:37:33Z</time>
      </trkpt>
      <trkpt lat="47.66786" lon="6.03165">
        <ele>210.2</ele>
        <time>2018-01-24T10:37:36Z</time>
      </trkpt>
      <trkpt lat="47.66793" lon="6.03166">
        <ele>210.26</ele>
        <time>2018-01-24T10:37:39Z</time>
      </trkpt>
      <trkpt lat="47.66799" lon="6.03166">
        <ele>210.32</ele>
        <time>2018-01-24T10:37:42Z</time>
      </trkpt>
      <trkpt lat="47.66804" lon="6.03167">
        <ele>210.36</ele>
        <time>2018-01-24T10:37:44Z</time>
      </trkpt>
      <trkpt lat="47.66811" lon="6.03169">
        <ele>210.42</ele>
        <time>2018-01-24T10:37:47Z</time>
      </trkpt>
      <trkpt lat="47.66817" lon="6.03171">
        <ele>210.47</ele>
        <time>2018-01-24T10:37:50Z</time>
      </trkpt>
      <trkpt lat="47.66822" lon="6.03173">
        <ele>210.5</ele>
        <time>2018-01-24T10:37:52Z</time>
      </trkpt>
      <trkpt lat="47.66828" lon="6.03174">
        <ele>210.53</ele>
        <time>2018-01-24T10:37:54Z</time>
      </trkpt>
      <trkpt lat="47.66833" lon="6.03175">
        <ele>210.58</ele>
        <time>2018-01-24T10:37:57Z</time>
      </trkpt>
      <trkpt lat="47.66839" lon="6.03174">
        <ele>210.63</ele>
        <time>2018-01-24T10:38:00Z</time>
      </trkpt>
      <trkpt lat="47.66844" lon="6.03176">
        <ele>210.69</ele>
        <time>2018-01-24T10:38:03Z</time>
      </trkpt>
      <trkpt lat="47.66849" lon="6.03177">
        <ele>210.72</ele>
        <time>2018-01-24T10:38:05Z</time>
      </trkpt>
      <trkpt lat="47.66855" lon="6.03177">
        <ele>210.76</ele>
        <time>2018-01-24T10:38:07Z</time>
      </trkpt>
      <trkpt lat="47.6686" lon="6.03177">
        <ele>210.79</ele>
        <time>2018-01-24T10:38:09Z</time>
      </trkpt>
      <trkpt lat="47.66865" lon="6.03178">
        <ele>210.83</ele>
        <time>2018-01-24T10:38:11Z</time>
      </trkpt>
      <trkpt lat="47.6687" lon="6.0318">
        <ele>210.86</ele>
        <time>2018-01-24T10:38:13Z</time>
      </trkpt>
      <trkpt lat="47.66876" lon="6.03183">
        <ele>210.89</ele>
        <time>2018-01-24T10:38:15Z</time>
      </trkpt>
      <trkpt lat="47.66882" lon="6.03185">
        <ele>210.93</ele>
        <time>2018-01-24T10:38:17Z</time>
      </trkpt>
      <trkpt lat="47.66889" lon="6.03186">
        <ele>210.98</ele>
        <time>2018-01-24T10:38:20Z</time>
      </trkpt>
      <trkpt lat="47.66894" lon="6.03188">
        <ele>211.05</ele>
        <time>2018-01-24T10:38:23Z</time>
      </trkpt>
      <trkpt lat="47.66899" lon="6.03191">
        <ele>211.1</ele>
        <time>2018-01-24T10:38:25Z</time>
      </trkpt>
      <trkpt lat="47.66904" lon="6.03193">
        <ele>211.16</ele>
        <time>2018-01-24T10:38:27Z</time>
      </trkpt>
      <trkpt lat="47.66909" lon="6.03196">
        <ele>211.28</ele>
        <time>2018-01-24T10:38:31Z</time>
      </trkpt>
      <trkpt lat="47.66913" lon="6.032">
        <ele>211.41</ele>
        <time>2018-01-24T10:38:35Z</time>
      </trkpt>
      <trkpt lat="47.66916" lon="6.03206">
        <ele>211.51</ele>
        <time>2018-01-24T10:38:38Z</time>
      </trkpt>
      <trkpt lat="47.6692" lon="6.03213">
        <ele>211.62</ele>
        <time>2018-01-24T10:38:41Z</time>
      </trkpt>
      <trkpt lat="47.66923" lon="6.03219">
        <ele>211.78</ele>
        <time>2018-01-24T10:38:45Z</time>
      </trkpt>
      <trkpt lat="47.66926" lon="6.03224">
        <ele>211.95</ele>
        <time>2018-01-24T10:38:49Z</time>
      </trkpt>
      <trkpt lat="47.66929" lon="6.03229">
        <ele>212.08</ele>
        <time>2018-01-24T10:38:52Z</time>
      </trkpt>
      <trkpt lat="47.66932" lon="6.03237">
        <ele>212.17</ele>
        <time>2018-01-24T10:38:54Z</time>
      </trkpt>
      <trkpt lat="47.66934" lon="6.03244">
        <ele>212.26</ele>
        <time>2018-01-24T10:38:56Z</time>
      </trkpt>
      <trkpt lat="47.66939" lon="6.03245">
        <ele>212.34</ele>
        <time>2018-01-24T10:38:58Z</time>
      </trkpt>
      <trkpt lat="47.66944" lon="6.03248">
        <ele>212.43</ele>
        <time>2018-01-24T10:39:00Z</time>
      </trkpt>
      <trkpt lat="47.66949" lon="6.03252">
        <ele>212.56</ele>
        <time>2018-01-24T10:39:03Z</time>
      </trkpt>
      <trkpt lat="47.66952" lon="6.03257">
        <ele>212.65</ele>
        <time>2018-01-24T10:39:05Z</time>
      </trkpt>
      <trkpt lat="47.66957" lon="6.03263">
        <ele>212.78</ele>
        <time>2018-01-24T10:39:08Z</time>
      </trkpt>
      <trkpt lat="47.66962" lon="6.03268">
        <ele>212.92</ele>
        <time>2018-01-24T10:39:11Z</time>
      </trkpt>
      <trkpt lat="47.66966" lon="6.03274">
        <ele>213.1</ele>
        <time>2018-01-24T10:39:15Z</time>
      </trkpt>
      <trkpt lat="47.66969" lon="6.03283">
        <ele>213.27</ele>
        <time>2018-01-24T10:39:19Z</time>
      </trkpt>
      <trkpt lat="47.66973" lon="6.03289">
        <ele>213.4</ele>
        <time>2018-01-24T10:39:22Z</time>
      </trkpt>
      <trkpt lat="47.66984" lon="6.03296">
        <ele>213.49</ele>
        <time>2018-01-24T10:39:24Z</time>
      </trkpt>
      <trkpt lat="47.66988" lon="6.033">
        <ele>213.53</ele>
        <time>2018-01-24T10:39:25Z</time>
      </trkpt>
      <trkpt lat="47.6699" lon="6.03308">
        <ele>213.62</ele>
        <time>2018-01-24T10:39:27Z</time>
      </trkpt>
      <trkpt lat="47.66998" lon="6.03316">
        <ele>213.71</ele>
        <time>2018-01-24T10:39:29Z</time>
      </trkpt>
      <trkpt lat="47.67001" lon="6.03321">
        <ele>213.76</ele>
        <time>2018-01-24T10:39:30Z</time>
      </trkpt>
      <trkpt lat="47.67007" lon="6.03327">
        <ele>213.84</ele>
        <time>2018-01-24T10:39:32Z</time>
      </trkpt>
      <trkpt lat="47.67012" lon="6.03333">
        <ele>213.94</ele>
        <time>2018-01-24T10:39:34Z</time>
      </trkpt>
      <trkpt lat="47.67019" lon="6.03341">
        <ele>214.63</ele>
        <time>2018-01-24T10:39:36Z</time>
      </trkpt>
      <trkpt lat="47.67025" lon="6.03351">
        <ele>215.08</ele>
        <time>2018-01-24T10:39:38Z</time>
      </trkpt>
      <trkpt lat="47.67029" lon="6.0336">
        <ele>215.17</ele>
        <time>2018-01-24T10:39:40Z</time>
      </trkpt>
      <trkpt lat="47.67033" lon="6.03369">
        <ele>215.23</ele>
        <time>2018-01-24T10:39:42Z</time>
      </trkpt>
      <trkpt lat="47.67037" lon="6.03376">
        <ele>215.29</ele>
        <time>2018-01-24T10:39:44Z</time>
      </trkpt>
      <trkpt lat="47.67041" lon="6.03379">
        <ele>215.32</ele>
        <time>2018-01-24T10:39:45Z</time>
      </trkpt>
      <trkpt lat="47.67045" lon="6.03384">
        <ele>215.35</ele>
        <time>2018-01-24T10:39:46Z</time>
      </trkpt>
      <trkpt lat="47.67049" lon="6.03389">
        <ele>215.39</ele>
        <time>2018-01-24T10:39:47Z</time>
      </trkpt>
      <trkpt lat="47.67053" lon="6.03396">
        <ele>215.46</ele>
        <time>2018-01-24T10:39:49Z</time>
      </trkpt>
      <trkpt lat="47.67056" lon="6.03403">
        <ele>215.53</ele>
        <time>2018-01-24T10:39:51Z</time>
      </trkpt>
      <trkpt lat="47.67058" lon="6.03411">
        <ele>215.6</ele>
        <time>2018-01-24T10:39:53Z</time>
      </trkpt>
      <trkpt lat="47.67061" lon="6.03416">
        <ele>215.64</ele>
        <time>2018-01-24T10:39:54Z</time>
      </trkpt>
      <trkpt lat="47.67065" lon="6.03421">
        <ele>215.67</ele>
        <time>2018-01-24T10:39:55Z</time>
      </trkpt>
      <trkpt lat="47.67071" lon="6.03431">
        <ele>215.75</ele>
        <time>2018-01-24T10:39:57Z</time>
      </trkpt>
      <trkpt lat="47.67075" lon="6.03437">
        <ele>215.83</ele>
        <time>2018-01-24T10:39:59Z</time>
      </trkpt>
      <trkpt lat="47.67079" lon="6.03443">
        <ele>215.95</ele>
        <time>2018-01-24T10:40:02Z</time>
      </trkpt>
      <trkpt lat="47.67084" lon="6.03451">
        <ele>216.03</ele>
        <time>2018-01-24T10:40:04Z</time>
      </trkpt>
      <trkpt lat="47.67089" lon="6.03458">
        <ele>216.11</ele>
        <time>2018-01-24T10:40:06Z</time>
      </trkpt>
      <trkpt lat="47.67093" lon="6.03463">
        <ele>216.15</ele>
        <time>2018-01-24T10:40:07Z</time>
      </trkpt>
      <trkpt lat="47.671" lon="6.03471">
        <ele>216.23</ele>
        <time>2018-01-24T10:40:09Z</time>
      </trkpt>
      <trkpt lat="47.67104" lon="6.03477">
        <ele>216.32</ele>
        <time>2018-01-24T10:40:11Z</time>
      </trkpt>
      <trkpt lat="47.67109" lon="6.03482">
        <ele>216.43</ele>
        <time>2018-01-24T10:40:13Z</time>
      </trkpt>
      <trkpt lat="47.67114" lon="6.03489">
        <ele>216.56</ele>
        <time>2018-01-24T10:40:15Z</time>
      </trkpt>
      <trkpt lat="47.67119" lon="6.03496">
        <ele>216.72</ele>
        <time>2018-01-24T10:40:17Z</time>
      </trkpt>
      <trkpt lat="47.67123" lon="6.03504">
        <ele>216.91</ele>
        <time>2018-01-24T10:40:19Z</time>
      </trkpt>
      <trkpt lat="47.67127" lon="6.03511">
        <ele>217.13</ele>
        <time>2018-01-24T10:40:21Z</time>
      </trkpt>
      <trkpt lat="47.67131" lon="6.03517">
        <ele>217.39</ele>
        <time>2018-01-24T10:40:23Z</time>
      </trkpt>
      <trkpt lat="47.67134" lon="6.03522">
        <ele>217.66</ele>
        <time>2018-01-24T10:40:25Z</time>
      </trkpt>
      <trkpt lat="47.67139" lon="6.03528">
        <ele>218.09</ele>
        <time>2018-01-24T10:40:28Z</time>
      </trkpt>
      <trkpt lat="47.67142" lon="6.03534">
        <ele>218.39</ele>
        <time>2018-01-24T10:40:30Z</time>
      </trkpt>
      <trkpt lat="47.67145" lon="6.0354">
        <ele>218.69</ele>
        <time>2018-01-24T10:40:32Z</time>
      </trkpt>
      <trkpt lat="47.67149" lon="6.03546">
        <ele>218.99</ele>
        <time>2018-01-24T10:40:34Z</time>
      </trkpt>
      <trkpt lat="47.67152" lon="6.03553">
        <ele>219.3</ele>
        <time>2018-01-24T10:40:36Z</time>
      </trkpt>
      <trkpt lat="47.67155" lon="6.03559">
        <ele>219.61</ele>
        <time>2018-01-24T10:40:38Z</time>
      </trkpt>
      <trkpt lat="47.67158" lon="6.03564">
        <ele>219.91</ele>
        <time>2018-01-24T10:40:40Z</time>
      </trkpt>
      <trkpt lat="47.67162" lon="6.03569">
        <ele>220.22</ele>
        <time>2018-01-24T10:40:42Z</time>
      </trkpt>
      <trkpt lat="47.67167" lon="6.03574">
        <ele>220.52</ele>
        <time>2018-01-24T10:40:44Z</time>
      </trkpt>
      <trkpt lat="47.67172" lon="6.03581">
        <ele>220.82</ele>
        <time>2018-01-24T10:40:46Z</time>
      </trkpt>
      <trkpt lat="47.67177" lon="6.03587">
        <ele>221.1</ele>
        <time>2018-01-24T10:40:48Z</time>
      </trkpt>
      <trkpt lat="47.67184" lon="6.03596">
        <ele>222.27</ele>
        <time>2018-01-24T10:40:50Z</time>
      </trkpt>
      <trkpt lat="47.67188" lon="6.03601">
        <ele>222.66</ele>
        <time>2018-01-24T10:40:51Z</time>
      </trkpt>
      <trkpt lat="47.6719" lon="6.03608">
        <ele>223.59</ele>
        <time>2018-01-24T10:40:52Z</time>
      </trkpt>
      <trkpt lat="47.67194" lon="6.0362">
        <ele>225.31</ele>
        <time>2018-01-24T10:40:54Z</time>
      </trkpt>
      <trkpt lat="47.67197" lon="6.03626">
        <ele>225.97</ele>
        <time>2018-01-24T10:40:55Z</time>
      </trkpt>
      <trkpt lat="47.672" lon="6.03633">
        <ele>226.51</ele>
        <time>2018-01-24T10:40:56Z</time>
      </trkpt>
      <trkpt lat="47.67203" lon="6.03642">
        <ele>226.95</ele>
        <time>2018-01-24T10:40:57Z</time>
      </trkpt>
      <trkpt lat="47.67207" lon="6.0365">
        <ele>227.33</ele>
        <time>2018-01-24T10:40:58Z</time>
      </trkpt>
      <trkpt lat="47.67211" lon="6.03658">
        <ele>227.65</ele>
        <time>2018-01-24T10:40:59Z</time>
      </trkpt>
      <trkpt lat="47.67214" lon="6.03668">
        <ele>227.91</ele>
        <time>2018-01-24T10:41:00Z</time>
      </trkpt>
      <trkpt lat="47.67218" lon="6.03677">
        <ele>228.12</ele>
        <time>2018-01-24T10:41:01Z</time>
      </trkpt>
      <trkpt lat="47.67223" lon="6.03687">
        <ele>228.29</ele>
        <time>2018-01-24T10:41:02Z</time>
      </trkpt>
      <trkpt lat="47.67228" lon="6.03697">
        <ele>228.43</ele>
        <time>2018-01-24T10:41:03Z</time>
      </trkpt>
      <trkpt lat="47.67233" lon="6.03707">
        <ele>228.54</ele>
        <time>2018-01-24T10:41:04Z</time>
      </trkpt>
      <trkpt lat="47.67239" lon="6.03716">
        <ele>228.65</ele>
        <time>2018-01-24T10:41:05Z</time>
      </trkpt>
      <trkpt lat="47.67245" lon="6.03726">
        <ele>228.74</ele>
        <time>2018-01-24T10:41:06Z</time>
      </trkpt>
      <trkpt lat="47.67251" lon="6.03737">
        <ele>228.85</ele>
        <time>2018-01-24T10:41:07Z</time>
      </trkpt>
      <trkpt lat="47.67257" lon="6.03748">
        <ele>228.94</ele>
        <time>2018-01-24T10:41:08Z</time>
      </trkpt>
      <trkpt lat="47.67263" lon="6.03759">
        <ele>229.03</ele>
        <time>2018-01-24T10:41:09Z</time>
      </trkpt>
      <trkpt lat="47.67269" lon="6.03769">
        <ele>229.13</ele>
        <time>2018-01-24T10:41:10Z</time>
      </trkpt>
      <trkpt lat="47.67275" lon="6.03778">
        <ele>229.11</ele>
        <time>2018-01-24T10:41:11Z</time>
      </trkpt>
      <trkpt lat="47.6728" lon="6.03788">
        <ele>229.01</ele>
        <time>2018-01-24T10:41:12Z</time>
      </trkpt>
      <trkpt lat="47.67285" lon="6.03799">
        <ele>228.9</ele>
        <time>2018-01-24T10:41:13Z</time>
      </trkpt>
      <trkpt lat="47.67292" lon="6.03809">
        <ele>228.76</ele>
        <time>2018-01-24T10:41:14Z</time>
      </trkpt>
      <trkpt lat="47.67298" lon="6.0382">
        <ele>228.63</ele>
        <time>2018-01-24T10:41:15Z</time>
      </trkpt>
      <trkpt lat="47.67305" lon="6.03829">
        <ele>228.45</ele>
        <time>2018-01-24T10:41:16Z</time>
      </trkpt>
      <trkpt lat="47.67313" lon="6.03839">
        <ele>228.31</ele>
        <time>2018-01-24T10:41:17Z</time>
      </trkpt>
      <trkpt lat="47.67319" lon="6.03849">
        <ele>228.21</ele>
        <time>2018-01-24T10:41:18Z</time>
      </trkpt>
      <trkpt lat="47.67328" lon="6.03858">
        <ele>228.13</ele>
        <time>2018-01-24T10:41:19Z</time>
      </trkpt>
      <trkpt lat="47.67334" lon="6.03869">
        <ele>227.98</ele>
        <time>2018-01-24T10:41:20Z</time>
      </trkpt>
      <trkpt lat="47.6734" lon="6.0388">
        <ele>227.8</ele>
        <time>2018-01-24T10:41:21Z</time>
      </trkpt>
      <trkpt lat="47.67346" lon="6.03888">
        <ele>227.66</ele>
        <time>2018-01-24T10:41:22Z</time>
      </trkpt>
      <trkpt lat="47.67353" lon="6.03898">
        <ele>227.56</ele>
        <time>2018-01-24T10:41:23Z</time>
      </trkpt>
      <trkpt lat="47.67359" lon="6.03907">
        <ele>227.53</ele>
        <time>2018-01-24T10:41:24Z</time>
      </trkpt>
      <trkpt lat="47.67366" lon="6.03914">
        <ele>227.43</ele>
        <time>2018-01-24T10:41:25Z</time>
      </trkpt>
      <trkpt lat="47.67372" lon="6.03922">
        <ele>227.25</ele>
        <time>2018-01-24T10:41:26Z</time>
      </trkpt>
      <trkpt lat="47.67378" lon="6.03929">
        <ele>227.05</ele>
        <time>2018-01-24T10:41:27Z</time>
      </trkpt>
      <trkpt lat="47.67384" lon="6.03938">
        <ele>226.94</ele>
        <time>2018-01-24T10:41:28Z</time>
      </trkpt>
      <trkpt lat="47.67389" lon="6.03946">
        <ele>226.97</ele>
        <time>2018-01-24T10:41:29Z</time>
      </trkpt>
      <trkpt lat="47.67395" lon="6.03953">
        <ele>227.08</ele>
        <time>2018-01-24T10:41:30Z</time>
      </trkpt>
      <trkpt lat="47.674" lon="6.0396">
        <ele>227.19</ele>
        <time>2018-01-24T10:41:31Z</time>
      </trkpt>
      <trkpt lat="47.67405" lon="6.03967">
        <ele>227.26</ele>
        <time>2018-01-24T10:41:32Z</time>
      </trkpt>
      <trkpt lat="47.67409" lon="6.03975">
        <ele>227.29</ele>
        <time>2018-01-24T10:41:33Z</time>
      </trkpt>
      <trkpt lat="47.67414" lon="6.03982">
        <ele>227.29</ele>
        <time>2018-01-24T10:41:34Z</time>
      </trkpt>
      <trkpt lat="47.67418" lon="6.03988">
        <ele>227.28</ele>
        <time>2018-01-24T10:41:35Z</time>
      </trkpt>
      <trkpt lat="47.67422" lon="6.03994">
        <ele>227.3</ele>
        <time>2018-01-24T10:41:36Z</time>
      </trkpt>
      <trkpt lat="47.67426" lon="6.04">
        <ele>227.32</ele>
        <time>2018-01-24T10:41:37Z</time>
      </trkpt>
      <trkpt lat="47.67429" lon="6.04007">
        <ele>227.31</ele>
        <time>2018-01-24T10:41:38Z</time>
      </trkpt>
      <trkpt lat="47.67434" lon="6.04017">
        <ele>226.99</ele>
        <time>2018-01-24T10:41:40Z</time>
      </trkpt>
      <trkpt lat="47.6744" lon="6.04026">
        <ele>226.93</ele>
        <time>2018-01-24T10:41:42Z</time>
      </trkpt>
      <trkpt lat="47.67444" lon="6.04033">
        <ele>226.89</ele>
        <time>2018-01-24T10:41:44Z</time>
      </trkpt>
      <trkpt lat="47.67447" lon="6.04039">
        <ele>226.86</ele>
        <time>2018-01-24T10:41:46Z</time>
      </trkpt>
      <trkpt lat="47.67449" lon="6.04045">
        <ele>226.84</ele>
        <time>2018-01-24T10:41:48Z</time>
      </trkpt>
      <trkpt lat="47.67455" lon="6.04053">
        <ele>226.84</ele>
        <time>2018-01-24T10:41:50Z</time>
      </trkpt>
      <trkpt lat="47.6746" lon="6.04061">
        <ele>226.85</ele>
        <time>2018-01-24T10:41:52Z</time>
      </trkpt>
      <trkpt lat="47.67466" lon="6.04069">
        <ele>226.86</ele>
        <time>2018-01-24T10:41:54Z</time>
      </trkpt>
      <trkpt lat="47.67472" lon="6.04077">
        <ele>226.92</ele>
        <time>2018-01-24T10:41:56Z</time>
      </trkpt>
      <trkpt lat="47.67478" lon="6.04086">
        <ele>227.03</ele>
        <time>2018-01-24T10:41:58Z</time>
      </trkpt>
      <trkpt lat="47.67485" lon="6.04094">
        <ele>227.32</ele>
        <time>2018-01-24T10:42:00Z</time>
      </trkpt>
      <trkpt lat="47.67488" lon="6.04099">
        <ele>227.43</ele>
        <time>2018-01-24T10:42:01Z</time>
      </trkpt>
      <trkpt lat="47.67492" lon="6.04104">
        <ele>227.49</ele>
        <time>2018-01-24T10:42:02Z</time>
      </trkpt>
      <trkpt lat="47.67495" lon="6.04109">
        <ele>227.5</ele>
        <time>2018-01-24T10:42:03Z</time>
      </trkpt>
      <trkpt lat="47.67498" lon="6.04115">
        <ele>227.49</ele>
        <time>2018-01-24T10:42:04Z</time>
      </trkpt>
      <trkpt lat="47.67502" lon="6.0412">
        <ele>227.49</ele>
        <time>2018-01-24T10:42:05Z</time>
      </trkpt>
      <trkpt lat="47.67505" lon="6.04124">
        <ele>227.49</ele>
        <time>2018-01-24T10:42:06Z</time>
      </trkpt>
      <trkpt lat="47.67512" lon="6.04131">
        <ele>227.56</ele>
        <time>2018-01-24T10:42:08Z</time>
      </trkpt>
      <trkpt lat="47.67518" lon="6.04139">
        <ele>227.59</ele>
        <time>2018-01-24T10:42:10Z</time>
      </trkpt>
      <trkpt lat="47.67524" lon="6.04145">
        <ele>227.62</ele>
        <time>2018-01-24T10:42:12Z</time>
      </trkpt>
      <trkpt lat="47.67529" lon="6.04152">
        <ele>227.64</ele>
        <time>2018-01-24T10:42:14Z</time>
      </trkpt>
      <trkpt lat="47.67533" lon="6.04159">
        <ele>227.66</ele>
        <time>2018-01-24T10:42:16Z</time>
      </trkpt>
      <trkpt lat="47.67539" lon="6.04165">
        <ele>227.67</ele>
        <time>2018-01-24T10:42:18Z</time>
      </trkpt>
      <trkpt lat="47.67545" lon="6.04169">
        <ele>227.67</ele>
        <time>2018-01-24T10:42:20Z</time>
      </trkpt>
      <trkpt lat="47.67552" lon="6.04174">
        <ele>227.66</ele>
        <time>2018-01-24T10:42:22Z</time>
      </trkpt>
      <trkpt lat="47.67559" lon="6.04179">
        <ele>227.66</ele>
        <time>2018-01-24T10:42:24Z</time>
      </trkpt>
      <trkpt lat="47.67564" lon="6.04189">
        <ele>227.66</ele>
        <time>2018-01-24T10:42:26Z</time>
      </trkpt>
      <trkpt lat="47.67571" lon="6.04195">
        <ele>227.66</ele>
        <time>2018-01-24T10:42:28Z</time>
      </trkpt>
      <trkpt lat="47.67577" lon="6.04202">
        <ele>227.69</ele>
        <time>2018-01-24T10:42:30Z</time>
      </trkpt>
      <trkpt lat="47.67584" lon="6.04209">
        <ele>227.76</ele>
        <time>2018-01-24T10:42:32Z</time>
      </trkpt>
      <trkpt lat="47.67588" lon="6.04213">
        <ele>227.8</ele>
        <time>2018-01-24T10:42:33Z</time>
      </trkpt>
      <trkpt lat="47.67592" lon="6.04218">
        <ele>227.87</ele>
        <time>2018-01-24T10:42:34Z</time>
      </trkpt>
      <trkpt lat="47.67596" lon="6.04223">
        <ele>227.97</ele>
        <time>2018-01-24T10:42:35Z</time>
      </trkpt>
      <trkpt lat="47.67602" lon="6.04232">
        <ele>228.2</ele>
        <time>2018-01-24T10:42:37Z</time>
      </trkpt>
      <trkpt lat="47.67609" lon="6.04239">
        <ele>228.38</ele>
        <time>2018-01-24T10:42:39Z</time>
      </trkpt>
      <trkpt lat="47.67615" lon="6.04247">
        <ele>228.44</ele>
        <time>2018-01-24T10:42:41Z</time>
      </trkpt>
      <trkpt lat="47.6762" lon="6.04256">
        <ele>228.47</ele>
        <time>2018-01-24T10:42:43Z</time>
      </trkpt>
      <trkpt lat="47.67626" lon="6.04265">
        <ele>228.7</ele>
        <time>2018-01-24T10:42:45Z</time>
      </trkpt>
      <trkpt lat="47.6763" lon="6.04272">
        <ele>228.75</ele>
        <time>2018-01-24T10:42:47Z</time>
      </trkpt>
      <trkpt lat="47.67635" lon="6.0428">
        <ele>228.78</ele>
        <time>2018-01-24T10:42:49Z</time>
      </trkpt>
      <trkpt lat="47.6764" lon="6.04291">
        <ele>228.81</ele>
        <time>2018-01-24T10:42:51Z</time>
      </trkpt>
      <trkpt lat="47.67645" lon="6.043">
        <ele>228.83</ele>
        <time>2018-01-24T10:42:53Z</time>
      </trkpt>
      <trkpt lat="47.67649" lon="6.04308">
        <ele>228.83</ele>
        <time>2018-01-24T10:42:55Z</time>
      </trkpt>
      <trkpt lat="47.67656" lon="6.04317">
        <ele>228.81</ele>
        <time>2018-01-24T10:42:57Z</time>
      </trkpt>
      <trkpt lat="47.67661" lon="6.04325">
        <ele>228.77</ele>
        <time>2018-01-24T10:42:59Z</time>
      </trkpt>
      <trkpt lat="47.67668" lon="6.04331">
        <ele>228.72</ele>
        <time>2018-01-24T10:43:01Z</time>
      </trkpt>
      <trkpt lat="47.67676" lon="6.04337">
        <ele>228.65</ele>
        <time>2018-01-24T10:43:03Z</time>
      </trkpt>
      <trkpt lat="47.67683" lon="6.04344">
        <ele>228.55</ele>
        <time>2018-01-24T10:43:05Z</time>
      </trkpt>
      <trkpt lat="47.6769" lon="6.0435">
        <ele>228.43</ele>
        <time>2018-01-24T10:43:07Z</time>
      </trkpt>
      <trkpt lat="47.67694" lon="6.04354">
        <ele>228.37</ele>
        <time>2018-01-24T10:43:08Z</time>
      </trkpt>
      <trkpt lat="47.67698" lon="6.04358">
        <ele>228.29</ele>
        <time>2018-01-24T10:43:09Z</time>
      </trkpt>
      <trkpt lat="47.67707" lon="6.04365">
        <ele>227.62</ele>
        <time>2018-01-24T10:43:11Z</time>
      </trkpt>
      <trkpt lat="47.67712" lon="6.0437">
        <ele>226.96</ele>
        <time>2018-01-24T10:43:12Z</time>
      </trkpt>
      <trkpt lat="47.67721" lon="6.04375">
        <ele>226.39</ele>
        <time>2018-01-24T10:43:13Z</time>
      </trkpt>
      <trkpt lat="47.67729" lon="6.0438">
        <ele>225.97</ele>
        <time>2018-01-24T10:43:14Z</time>
      </trkpt>
      <trkpt lat="47.67736" lon="6.04385">
        <ele>225.68</ele>
        <time>2018-01-24T10:43:15Z</time>
      </trkpt>
      <trkpt lat="47.67744" lon="6.04388">
        <ele>225.49</ele>
        <time>2018-01-24T10:43:16Z</time>
      </trkpt>
      <trkpt lat="47.67751" lon="6.0439">
        <ele>225.3</ele>
        <time>2018-01-24T10:43:17Z</time>
      </trkpt>
      <trkpt lat="47.67758" lon="6.04393">
        <ele>225.1</ele>
        <time>2018-01-24T10:43:18Z</time>
      </trkpt>
      <trkpt lat="47.67764" lon="6.04395">
        <ele>224.9</ele>
        <time>2018-01-24T10:43:19Z</time>
      </trkpt>
      <trkpt lat="47.6777" lon="6.04399">
        <ele>224.71</ele>
        <time>2018-01-24T10:43:20Z</time>
      </trkpt>
      <trkpt lat="47.67775" lon="6.04401">
        <ele>224.53</ele>
        <time>2018-01-24T10:43:21Z</time>
      </trkpt>
      <trkpt lat="47.67781" lon="6.04404">
        <ele>224.34</ele>
        <time>2018-01-24T10:43:22Z</time>
      </trkpt>
      <trkpt lat="47.67788" lon="6.04406">
        <ele>224.05</ele>
        <time>2018-01-24T10:43:23Z</time>
      </trkpt>
      <trkpt lat="47.67796" lon="6.04409">
        <ele>223.73</ele>
        <time>2018-01-24T10:43:24Z</time>
      </trkpt>
      <trkpt lat="47.67805" lon="6.04411">
        <ele>223.36</ele>
        <time>2018-01-24T10:43:25Z</time>
      </trkpt>
      <trkpt lat="47.67814" lon="6.04414">
        <ele>223</ele>
        <time>2018-01-24T10:43:26Z</time>
      </trkpt>
      <trkpt lat="47.67823" lon="6.04415">
        <ele>222.69</ele>
        <time>2018-01-24T10:43:27Z</time>
      </trkpt>
      <trkpt lat="47.67831" lon="6.04418">
        <ele>222.45</ele>
        <time>2018-01-24T10:43:28Z</time>
      </trkpt>
      <trkpt lat="47.67839" lon="6.0442">
        <ele>222.36</ele>
        <time>2018-01-24T10:43:29Z</time>
      </trkpt>
      <trkpt lat="47.67847" lon="6.04421">
        <ele>222.27</ele>
        <time>2018-01-24T10:43:30Z</time>
      </trkpt>
      <trkpt lat="47.67854" lon="6.04422">
        <ele>222.17</ele>
        <time>2018-01-24T10:43:31Z</time>
      </trkpt>
      <trkpt lat="47.67861" lon="6.04423">
        <ele>222.08</ele>
        <time>2018-01-24T10:43:32Z</time>
      </trkpt>
      <trkpt lat="47.67867" lon="6.04424">
        <ele>221.97</ele>
        <time>2018-01-24T10:43:33Z</time>
      </trkpt>
      <trkpt lat="47.67874" lon="6.04425">
        <ele>221.87</ele>
        <time>2018-01-24T10:43:34Z</time>
      </trkpt>
      <trkpt lat="47.6788" lon="6.04426">
        <ele>221.75</ele>
        <time>2018-01-24T10:43:35Z</time>
      </trkpt>
      <trkpt lat="47.67886" lon="6.04426">
        <ele>221.62</ele>
        <time>2018-01-24T10:43:36Z</time>
      </trkpt>
      <trkpt lat="47.67892" lon="6.04426">
        <ele>221.49</ele>
        <time>2018-01-24T10:43:37Z</time>
      </trkpt>
      <trkpt lat="47.67897" lon="6.04426">
        <ele>221.35</ele>
        <time>2018-01-24T10:43:38Z</time>
      </trkpt>
      <trkpt lat="47.67903" lon="6.04427">
        <ele>221.22</ele>
        <time>2018-01-24T10:43:39Z</time>
      </trkpt>
      <trkpt lat="47.67909" lon="6.04427">
        <ele>221.12</ele>
        <time>2018-01-24T10:43:40Z</time>
      </trkpt>
      <trkpt lat="47.67914" lon="6.04428">
        <ele>221.06</ele>
        <time>2018-01-24T10:43:41Z</time>
      </trkpt>
      <trkpt lat="47.6792" lon="6.04428">
        <ele>220.98</ele>
        <time>2018-01-24T10:43:42Z</time>
      </trkpt>
      <trkpt lat="47.67926" lon="6.04428">
        <ele>220.88</ele>
        <time>2018-01-24T10:43:43Z</time>
      </trkpt>
      <trkpt lat="47.67931" lon="6.04429">
        <ele>220.79</ele>
        <time>2018-01-24T10:43:44Z</time>
      </trkpt>
      <trkpt lat="47.67936" lon="6.04431">
        <ele>220.71</ele>
        <time>2018-01-24T10:43:45Z</time>
      </trkpt>
      <trkpt lat="47.67941" lon="6.04431">
        <ele>220.64</ele>
        <time>2018-01-24T10:43:46Z</time>
      </trkpt>
      <trkpt lat="47.67946" lon="6.04431">
        <ele>220.58</ele>
        <time>2018-01-24T10:43:47Z</time>
      </trkpt>
      <trkpt lat="47.6795" lon="6.04431">
        <ele>220.55</ele>
        <time>2018-01-24T10:43:48Z</time>
      </trkpt>
      <trkpt lat="47.67955" lon="6.04431">
        <ele>220.52</ele>
        <time>2018-01-24T10:43:49Z</time>
      </trkpt>
      <trkpt lat="47.67963" lon="6.04432">
        <ele>220.2</ele>
        <time>2018-01-24T10:43:51Z</time>
      </trkpt>
      <trkpt lat="47.67972" lon="6.04432">
        <ele>219.94</ele>
        <time>2018-01-24T10:43:53Z</time>
      </trkpt>
      <trkpt lat="47.67977" lon="6.04431">
        <ele>219.93</ele>
        <time>2018-01-24T10:43:54Z</time>
      </trkpt>
      <trkpt lat="47.67982" lon="6.0443">
        <ele>219.93</ele>
        <time>2018-01-24T10:43:55Z</time>
      </trkpt>
      <trkpt lat="47.67988" lon="6.04428">
        <ele>219.92</ele>
        <time>2018-01-24T10:43:56Z</time>
      </trkpt>
      <trkpt lat="47.67994" lon="6.04427">
        <ele>219.88</ele>
        <time>2018-01-24T10:43:57Z</time>
      </trkpt>
      <trkpt lat="47.67999" lon="6.04426">
        <ele>219.79</ele>
        <time>2018-01-24T10:43:58Z</time>
      </trkpt>
      <trkpt lat="47.68005" lon="6.04426">
        <ele>219.76</ele>
        <time>2018-01-24T10:43:59Z</time>
      </trkpt>
      <trkpt lat="47.68009" lon="6.04424">
        <ele>219.73</ele>
        <time>2018-01-24T10:44:00Z</time>
      </trkpt>
      <trkpt lat="47.68018" lon="6.0442">
        <ele>219.62</ele>
        <time>2018-01-24T10:44:02Z</time>
      </trkpt>
      <trkpt lat="47.68022" lon="6.04418">
        <ele>219.58</ele>
        <time>2018-01-24T10:44:03Z</time>
      </trkpt>
      <trkpt lat="47.68028" lon="6.04416">
        <ele>219.56</ele>
        <time>2018-01-24T10:44:04Z</time>
      </trkpt>
      <trkpt lat="47.68033" lon="6.04415">
        <ele>219.55</ele>
        <time>2018-01-24T10:44:05Z</time>
      </trkpt>
      <trkpt lat="47.68038" lon="6.04413">
        <ele>219.51</ele>
        <time>2018-01-24T10:44:06Z</time>
      </trkpt>
      <trkpt lat="47.68043" lon="6.0441">
        <ele>219.44</ele>
        <time>2018-01-24T10:44:07Z</time>
      </trkpt>
      <trkpt lat="47.68047" lon="6.04406">
        <ele>219.38</ele>
        <time>2018-01-24T10:44:08Z</time>
      </trkpt>
      <trkpt lat="47.68051" lon="6.04402">
        <ele>219.32</ele>
        <time>2018-01-24T10:44:09Z</time>
      </trkpt>
      <trkpt lat="47.68058" lon="6.04398">
        <ele>219.29</ele>
        <time>2018-01-24T10:44:11Z</time>
      </trkpt>
      <trkpt lat="47.68064" lon="6.04395">
        <ele>219.27</ele>
        <time>2018-01-24T10:44:13Z</time>
      </trkpt>
      <trkpt lat="47.6807" lon="6.04396">
        <ele>219.23</ele>
        <time>2018-01-24T10:44:15Z</time>
      </trkpt>
      <trkpt lat="47.68076" lon="6.04395">
        <ele>219.19</ele>
        <time>2018-01-24T10:44:17Z</time>
      </trkpt>
      <trkpt lat="47.68082" lon="6.04391">
        <ele>219.14</ele>
        <time>2018-01-24T10:44:19Z</time>
      </trkpt>
      <trkpt lat="47.68089" lon="6.04389">
        <ele>219.07</ele>
        <time>2018-01-24T10:44:21Z</time>
      </trkpt>
      <trkpt lat="47.68096" lon="6.04389">
        <ele>218.72</ele>
        <time>2018-01-24T10:44:23Z</time>
      </trkpt>
      <trkpt lat="47.68104" lon="6.04389">
        <ele>218.08</ele>
        <time>2018-01-24T10:44:25Z</time>
      </trkpt>
      <trkpt lat="47.68112" lon="6.04387">
        <ele>217.64</ele>
        <time>2018-01-24T10:44:27Z</time>
      </trkpt>
      <trkpt lat="47.6812" lon="6.04384">
        <ele>217.33</ele>
        <time>2018-01-24T10:44:29Z</time>
      </trkpt>
      <trkpt lat="47.68128" lon="6.04381">
        <ele>217.12</ele>
        <time>2018-01-24T10:44:31Z</time>
      </trkpt>
      <trkpt lat="47.68137" lon="6.04378">
        <ele>216.97</ele>
        <time>2018-01-24T10:44:33Z</time>
      </trkpt>
      <trkpt lat="47.68145" lon="6.04375">
        <ele>216.88</ele>
        <time>2018-01-24T10:44:35Z</time>
      </trkpt>
      <trkpt lat="47.68152" lon="6.04372">
        <ele>216.81</ele>
        <time>2018-01-24T10:44:37Z</time>
      </trkpt>
      <trkpt lat="47.6816" lon="6.04369">
        <ele>216.77</ele>
        <time>2018-01-24T10:44:39Z</time>
      </trkpt>
      <trkpt lat="47.68167" lon="6.04366">
        <ele>216.76</ele>
        <time>2018-01-24T10:44:41Z</time>
      </trkpt>
      <trkpt lat="47.68176" lon="6.04363">
        <ele>216.75</ele>
        <time>2018-01-24T10:44:43Z</time>
      </trkpt>
      <trkpt lat="47.68182" lon="6.04361">
        <ele>216.73</ele>
        <time>2018-01-24T10:44:45Z</time>
      </trkpt>
      <trkpt lat="47.68189" lon="6.04357">
        <ele>216.63</ele>
        <time>2018-01-24T10:44:47Z</time>
      </trkpt>
      <trkpt lat="47.68193" lon="6.04354">
        <ele>216.53</ele>
        <time>2018-01-24T10:44:48Z</time>
      </trkpt>
      <trkpt lat="47.682" lon="6.04348">
        <ele>216.34</ele>
        <time>2018-01-24T10:44:50Z</time>
      </trkpt>
      <trkpt lat="47.68204" lon="6.04345">
        <ele>216.25</ele>
        <time>2018-01-24T10:44:51Z</time>
      </trkpt>
      <trkpt lat="47.68212" lon="6.0434">
        <ele>216.07</ele>
        <time>2018-01-24T10:44:53Z</time>
      </trkpt>
      <trkpt lat="47.6822" lon="6.04335">
        <ele>215.91</ele>
        <time>2018-01-24T10:44:55Z</time>
      </trkpt>
      <trkpt lat="47.68227" lon="6.04331">
        <ele>215.78</ele>
        <time>2018-01-24T10:44:57Z</time>
      </trkpt>
      <trkpt lat="47.68235" lon="6.04326">
        <ele>215.67</ele>
        <time>2018-01-24T10:44:59Z</time>
      </trkpt>
      <trkpt lat="47.68242" lon="6.04323">
        <ele>215.57</ele>
        <time>2018-01-24T10:45:01Z</time>
      </trkpt>
      <trkpt lat="47.6825" lon="6.04319">
        <ele>215.47</ele>
        <time>2018-01-24T10:45:03Z</time>
      </trkpt>
      <trkpt lat="47.68257" lon="6.04315">
        <ele>215.38</ele>
        <time>2018-01-24T10:45:05Z</time>
      </trkpt>
      <trkpt lat="47.68264" lon="6.04309">
        <ele>215.32</ele>
        <time>2018-01-24T10:45:07Z</time>
      </trkpt>
      <trkpt lat="47.68271" lon="6.04302">
        <ele>215.29</ele>
        <time>2018-01-24T10:45:09Z</time>
      </trkpt>
      <trkpt lat="47.68277" lon="6.04294">
        <ele>215.23</ele>
        <time>2018-01-24T10:45:11Z</time>
      </trkpt>
      <trkpt lat="47.6828" lon="6.04285">
        <ele>215.16</ele>
        <time>2018-01-24T10:45:13Z</time>
      </trkpt>
      <trkpt lat="47.68282" lon="6.04279">
        <ele>215.13</ele>
        <time>2018-01-24T10:45:14Z</time>
      </trkpt>
      <trkpt lat="47.68281" lon="6.04267">
        <ele>215.02</ele>
        <time>2018-01-24T10:45:16Z</time>
      </trkpt>
      <trkpt lat="47.6828" lon="6.04255">
        <ele>214.99</ele>
        <time>2018-01-24T10:45:18Z</time>
      </trkpt>
      <trkpt lat="47.68279" lon="6.04246">
        <ele>214.97</ele>
        <time>2018-01-24T10:45:20Z</time>
      </trkpt>
      <trkpt lat="47.68277" lon="6.04235">
        <ele>214.94</ele>
        <time>2018-01-24T10:45:22Z</time>
      </trkpt>
      <trkpt lat="47.68275" lon="6.04224">
        <ele>214.92</ele>
        <time>2018-01-24T10:45:24Z</time>
      </trkpt>
      <trkpt lat="47.68272" lon="6.04214">
        <ele>214.9</ele>
        <time>2018-01-24T10:45:26Z</time>
      </trkpt>
      <trkpt lat="47.68269" lon="6.04204">
        <ele>214.88</ele>
        <time>2018-01-24T10:45:28Z</time>
      </trkpt>
      <trkpt lat="47.68266" lon="6.04193">
        <ele>214.86</ele>
        <time>2018-01-24T10:45:30Z</time>
      </trkpt>
      <trkpt lat="47.68263" lon="6.04184">
        <ele>214.84</ele>
        <time>2018-01-24T10:45:32Z</time>
      </trkpt>
      <trkpt lat="47.68259" lon="6.04176">
        <ele>214.83</ele>
        <time>2018-01-24T10:45:34Z</time>
      </trkpt>
      <trkpt lat="47.68255" lon="6.0417">
        <ele>214.81</ele>
        <time>2018-01-24T10:45:36Z</time>
      </trkpt>
      <trkpt lat="47.6825" lon="6.04164">
        <ele>214.79</ele>
        <time>2018-01-24T10:45:38Z</time>
      </trkpt>
      <trkpt lat="47.68245" lon="6.0416">
        <ele>214.77</ele>
        <time>2018-01-24T10:45:40Z</time>
      </trkpt>
      <trkpt lat="47.68241" lon="6.04152">
        <ele>214.76</ele>
        <time>2018-01-24T10:45:42Z</time>
      </trkpt>
      <trkpt lat="47.68239" lon="6.04144">
        <ele>214.74</ele>
        <time>2018-01-24T10:45:44Z</time>
      </trkpt>
      <trkpt lat="47.68238" lon="6.04136">
        <ele>214.71</ele>
        <time>2018-01-24T10:45:47Z</time>
      </trkpt>
      <trkpt lat="47.68238" lon="6.04127">
        <ele>214.68</ele>
        <time>2018-01-24T10:45:50Z</time>
      </trkpt>
      <trkpt lat="47.6824" lon="6.04117">
        <ele>214.66</ele>
        <time>2018-01-24T10:45:53Z</time>
      </trkpt>
      <trkpt lat="47.6824" lon="6.04109">
        <ele>214.64</ele>
        <time>2018-01-24T10:45:55Z</time>
      </trkpt>
      <trkpt lat="47.6824" lon="6.04101">
        <ele>214.62</ele>
        <time>2018-01-24T10:45:57Z</time>
      </trkpt>
      <trkpt lat="47.68241" lon="6.04093">
        <ele>214.61</ele>
        <time>2018-01-24T10:45:59Z</time>
      </trkpt>
      <trkpt lat="47.68242" lon="6.04081">
        <ele>214.56</ele>
        <time>2018-01-24T10:46:01Z</time>
      </trkpt>
      <trkpt lat="47.68243" lon="6.04068">
        <ele>214.48</ele>
        <time>2018-01-24T10:46:03Z</time>
      </trkpt>
      <trkpt lat="47.68244" lon="6.04061">
        <ele>214.44</ele>
        <time>2018-01-24T10:46:04Z</time>
      </trkpt>
      <trkpt lat="47.68244" lon="6.04053">
        <ele>214.41</ele>
        <time>2018-01-24T10:46:05Z</time>
      </trkpt>
      <trkpt lat="47.68245" lon="6.04045">
        <ele>214.38</ele>
        <time>2018-01-24T10:46:06Z</time>
      </trkpt>
      <trkpt lat="47.68246" lon="6.04036">
        <ele>214.35</ele>
        <time>2018-01-24T10:46:07Z</time>
      </trkpt>
      <trkpt lat="47.68247" lon="6.04028">
        <ele>214.33</ele>
        <time>2018-01-24T10:46:08Z</time>
      </trkpt>
      <trkpt lat="47.68248" lon="6.0402">
        <ele>214.31</ele>
        <time>2018-01-24T10:46:09Z</time>
      </trkpt>
      <trkpt lat="47.68249" lon="6.04012">
        <ele>214.28</ele>
        <time>2018-01-24T10:46:10Z</time>
      </trkpt>
      <trkpt lat="47.6825" lon="6.04004">
        <ele>214.26</ele>
        <time>2018-01-24T10:46:11Z</time>
      </trkpt>
      <trkpt lat="47.68252" lon="6.03997">
        <ele>214.24</ele>
        <time>2018-01-24T10:46:12Z</time>
      </trkpt>
      <trkpt lat="47.68254" lon="6.0399">
        <ele>214.22</ele>
        <time>2018-01-24T10:46:13Z</time>
      </trkpt>
      <trkpt lat="47.68256" lon="6.03983">
        <ele>214.2</ele>
        <time>2018-01-24T10:46:14Z</time>
      </trkpt>
      <trkpt lat="47.68255" lon="6.03975">
        <ele>214.2</ele>
        <time>2018-01-24T10:46:15Z</time>
      </trkpt>
      <trkpt lat="47.68255" lon="6.03968">
        <ele>214.19</ele>
        <time>2018-01-24T10:46:16Z</time>
      </trkpt>
      <trkpt lat="47.68253" lon="6.03961">
        <ele>214.18</ele>
        <time>2018-01-24T10:46:17Z</time>
      </trkpt>
      <trkpt lat="47.68251" lon="6.03953">
        <ele>214.16</ele>
        <time>2018-01-24T10:46:18Z</time>
      </trkpt>
      <trkpt lat="47.68248" lon="6.03946">
        <ele>214.15</ele>
        <time>2018-01-24T10:46:19Z</time>
      </trkpt>
      <trkpt lat="47.68245" lon="6.03939">
        <ele>214.14</ele>
        <time>2018-01-24T10:46:20Z</time>
      </trkpt>
      <trkpt lat="47.68241" lon="6.03929">
        <ele>214.12</ele>
        <time>2018-01-24T10:46:22Z</time>
      </trkpt>
      <trkpt lat="47.68236" lon="6.03922">
        <ele>214.11</ele>
        <time>2018-01-24T10:46:24Z</time>
      </trkpt>
      <trkpt lat="47.68232" lon="6.03917">
        <ele>214.11</ele>
        <time>2018-01-24T10:46:27Z</time>
      </trkpt>
      <trkpt lat="47.68236" lon="6.03924">
        <ele>214.23</ele>
        <time>2018-01-24T10:47:33Z</time>
      </trkpt>
      <trkpt lat="47.68241" lon="6.03931">
        <ele>214.23</ele>
        <time>2018-01-24T10:47:35Z</time>
      </trkpt>
      <trkpt lat="47.68245" lon="6.03937">
        <ele>214.22</ele>
        <time>2018-01-24T10:47:37Z</time>
      </trkpt>
      <trkpt lat="47.68248" lon="6.03943">
        <ele>214.21</ele>
        <time>2018-01-24T10:47:39Z</time>
      </trkpt>
      <trkpt lat="47.68251" lon="6.03949">
        <ele>214.21</ele>
        <time>2018-01-24T10:47:41Z</time>
      </trkpt>
      <trkpt lat="47.68254" lon="6.03957">
        <ele>214.2</ele>
        <time>2018-01-24T10:47:43Z</time>
      </trkpt>
      <trkpt lat="47.68255" lon="6.03965">
        <ele>214.18</ele>
        <time>2018-01-24T10:47:45Z</time>
      </trkpt>
      <trkpt lat="47.68255" lon="6.03972">
        <ele>214.17</ele>
        <time>2018-01-24T10:47:47Z</time>
      </trkpt>
      <trkpt lat="47.68256" lon="6.03982">
        <ele>214.14</ele>
        <time>2018-01-24T10:47:50Z</time>
      </trkpt>
      <trkpt lat="47.68253" lon="6.03991">
        <ele>214.11</ele>
        <time>2018-01-24T10:47:53Z</time>
      </trkpt>
      <trkpt lat="47.6825" lon="6.03998">
        <ele>214.09</ele>
        <time>2018-01-24T10:47:55Z</time>
      </trkpt>
      <trkpt lat="47.68247" lon="6.04006">
        <ele>214.07</ele>
        <time>2018-01-24T10:47:57Z</time>
      </trkpt>
      <trkpt lat="47.68244" lon="6.04014">
        <ele>214.04</ele>
        <time>2018-01-24T10:47:59Z</time>
      </trkpt>
      <trkpt lat="47.68243" lon="6.04022">
        <ele>214.01</ele>
        <time>2018-01-24T10:48:01Z</time>
      </trkpt>
      <trkpt lat="47.68241" lon="6.04031">
        <ele>213.98</ele>
        <time>2018-01-24T10:48:03Z</time>
      </trkpt>
      <trkpt lat="47.6824" lon="6.0404">
        <ele>213.96</ele>
        <time>2018-01-24T10:48:05Z</time>
      </trkpt>
      <trkpt lat="47.68239" lon="6.04049">
        <ele>213.93</ele>
        <time>2018-01-24T10:48:07Z</time>
      </trkpt>
      <trkpt lat="47.6824" lon="6.04057">
        <ele>213.91</ele>
        <time>2018-01-24T10:48:09Z</time>
      </trkpt>
      <trkpt lat="47.6824" lon="6.04064">
        <ele>213.88</ele>
        <time>2018-01-24T10:48:11Z</time>
      </trkpt>
      <trkpt lat="47.68239" lon="6.04072">
        <ele>213.86</ele>
        <time>2018-01-24T10:48:13Z</time>
      </trkpt>
      <trkpt lat="47.68238" lon="6.04079">
        <ele>213.84</ele>
        <time>2018-01-24T10:48:15Z</time>
      </trkpt>
      <trkpt lat="47.68238" lon="6.04089">
        <ele>213.82</ele>
        <time>2018-01-24T10:48:18Z</time>
      </trkpt>
      <trkpt lat="47.68236" lon="6.04098">
        <ele>213.79</ele>
        <time>2018-01-24T10:48:21Z</time>
      </trkpt>
      <trkpt lat="47.68235" lon="6.04107">
        <ele>213.78</ele>
        <time>2018-01-24T10:48:24Z</time>
      </trkpt>
      <trkpt lat="47.68235" lon="6.04114">
        <ele>213.77</ele>
        <time>2018-01-24T10:48:26Z</time>
      </trkpt>
      <trkpt lat="47.68235" lon="6.04122">
        <ele>213.76</ele>
        <time>2018-01-24T10:48:28Z</time>
      </trkpt>
      <trkpt lat="47.68235" lon="6.0413">
        <ele>213.76</ele>
        <time>2018-01-24T10:48:30Z</time>
      </trkpt>
      <trkpt lat="47.68234" lon="6.04139">
        <ele>213.75</ele>
        <time>2018-01-24T10:48:32Z</time>
      </trkpt>
      <trkpt lat="47.68236" lon="6.04152">
        <ele>213.71</ele>
        <time>2018-01-24T10:48:34Z</time>
      </trkpt>
      <trkpt lat="47.6824" lon="6.04165">
        <ele>213.67</ele>
        <time>2018-01-24T10:48:36Z</time>
      </trkpt>
      <trkpt lat="47.68243" lon="6.0417">
        <ele>213.64</ele>
        <time>2018-01-24T10:48:37Z</time>
      </trkpt>
      <trkpt lat="47.68246" lon="6.04175">
        <ele>213.61</ele>
        <time>2018-01-24T10:48:38Z</time>
      </trkpt>
      <trkpt lat="47.68253" lon="6.04183">
        <ele>213.56</ele>
        <time>2018-01-24T10:48:40Z</time>
      </trkpt>
      <trkpt lat="47.68258" lon="6.04192">
        <ele>213.49</ele>
        <time>2018-01-24T10:48:42Z</time>
      </trkpt>
      <trkpt lat="47.6826" lon="6.04204">
        <ele>213.41</ele>
        <time>2018-01-24T10:48:44Z</time>
      </trkpt>
      <trkpt lat="47.68261" lon="6.04216">
        <ele>213.33</ele>
        <time>2018-01-24T10:48:46Z</time>
      </trkpt>
      <trkpt lat="47.68263" lon="6.04223">
        <ele>213.29</ele>
        <time>2018-01-24T10:48:47Z</time>
      </trkpt>
      <trkpt lat="47.68265" lon="6.04229">
        <ele>213.23</ele>
        <time>2018-01-24T10:48:48Z</time>
      </trkpt>
      <trkpt lat="47.68268" lon="6.04241">
        <ele>213.13</ele>
        <time>2018-01-24T10:48:50Z</time>
      </trkpt>
      <trkpt lat="47.68269" lon="6.04253">
        <ele>213.03</ele>
        <time>2018-01-24T10:48:52Z</time>
      </trkpt>
      <trkpt lat="47.6827" lon="6.04265">
        <ele>212.91</ele>
        <time>2018-01-24T10:48:54Z</time>
      </trkpt>
      <trkpt lat="47.68271" lon="6.04277">
        <ele>212.81</ele>
        <time>2018-01-24T10:48:56Z</time>
      </trkpt>
      <trkpt lat="47.68275" lon="6.04286">
        <ele>212.78</ele>
        <time>2018-01-24T10:48:58Z</time>
      </trkpt>
      <trkpt lat="47.68284" lon="6.04289">
        <ele>212.71</ele>
        <time>2018-01-24T10:49:00Z</time>
      </trkpt>
      <trkpt lat="47.68291" lon="6.04284">
        <ele>212.69</ele>
        <time>2018-01-24T10:49:02Z</time>
      </trkpt>
      <trkpt lat="47.68299" lon="6.04276">
        <ele>212.63</ele>
        <time>2018-01-24T10:49:04Z</time>
      </trkpt>
      <trkpt lat="47.68307" lon="6.0427">
        <ele>212.59</ele>
        <time>2018-01-24T10:49:06Z</time>
      </trkpt>
      <trkpt lat="47.68311" lon="6.04267">
        <ele>212.57</ele>
        <time>2018-01-24T10:49:07Z</time>
      </trkpt>
      <trkpt lat="47.68316" lon="6.04264">
        <ele>212.56</ele>
        <time>2018-01-24T10:49:08Z</time>
      </trkpt>
      <trkpt lat="47.6832" lon="6.04261">
        <ele>212.55</ele>
        <time>2018-01-24T10:49:09Z</time>
      </trkpt>
      <trkpt lat="47.68325" lon="6.04258">
        <ele>212.55</ele>
        <time>2018-01-24T10:49:10Z</time>
      </trkpt>
      <trkpt lat="47.68329" lon="6.04256">
        <ele>212.54</ele>
        <time>2018-01-24T10:49:11Z</time>
      </trkpt>
      <trkpt lat="47.68338" lon="6.04253">
        <ele>212.51</ele>
        <time>2018-01-24T10:49:13Z</time>
      </trkpt>
      <trkpt lat="47.68347" lon="6.04253">
        <ele>212.47</ele>
        <time>2018-01-24T10:49:15Z</time>
      </trkpt>
      <trkpt lat="47.68355" lon="6.04253">
        <ele>212.44</ele>
        <time>2018-01-24T10:49:17Z</time>
      </trkpt>
      <trkpt lat="47.68363" lon="6.04253">
        <ele>212.41</ele>
        <time>2018-01-24T10:49:19Z</time>
      </trkpt>
      <trkpt lat="47.68371" lon="6.04252">
        <ele>212.37</ele>
        <time>2018-01-24T10:49:21Z</time>
      </trkpt>
      <trkpt lat="47.68378" lon="6.0425">
        <ele>212.35</ele>
        <time>2018-01-24T10:49:23Z</time>
      </trkpt>
      <trkpt lat="47.68386" lon="6.04252">
        <ele>212.35</ele>
        <time>2018-01-24T10:49:25Z</time>
      </trkpt>
      <trkpt lat="47.68389" lon="6.0426">
        <ele>212.34</ele>
        <time>2018-01-24T10:49:27Z</time>
      </trkpt>
      <trkpt lat="47.68389" lon="6.04267">
        <ele>212.34</ele>
        <time>2018-01-24T10:49:29Z</time>
      </trkpt>
      <trkpt lat="47.68389" lon="6.04277">
        <ele>212.33</ele>
        <time>2018-01-24T10:49:31Z</time>
      </trkpt>
      <trkpt lat="47.6839" lon="6.04285">
        <ele>212.32</ele>
        <time>2018-01-24T10:49:33Z</time>
      </trkpt>
      <trkpt lat="47.6839" lon="6.04294">
        <ele>212.32</ele>
        <time>2018-01-24T10:49:35Z</time>
      </trkpt>
      <trkpt lat="47.68391" lon="6.04304">
        <ele>212.32</ele>
        <time>2018-01-24T10:49:37Z</time>
      </trkpt>
      <trkpt lat="47.68392" lon="6.04313">
        <ele>212.31</ele>
        <time>2018-01-24T10:49:39Z</time>
      </trkpt>
      <trkpt lat="47.68392" lon="6.04322">
        <ele>212.31</ele>
        <time>2018-01-24T10:49:41Z</time>
      </trkpt>
      <trkpt lat="47.68392" lon="6.0433">
        <ele>212.31</ele>
        <time>2018-01-24T10:49:43Z</time>
      </trkpt>
      <trkpt lat="47.68393" lon="6.04337">
        <ele>212.32</ele>
        <time>2018-01-24T10:49:45Z</time>
      </trkpt>
      <trkpt lat="47.68393" lon="6.04345">
        <ele>212.32</ele>
        <time>2018-01-24T10:49:47Z</time>
      </trkpt>
      <trkpt lat="47.68393" lon="6.04353">
        <ele>212.32</ele>
        <time>2018-01-24T10:49:49Z</time>
      </trkpt>
      <trkpt lat="47.68393" lon="6.04361">
        <ele>212.33</ele>
        <time>2018-01-24T10:49:51Z</time>
      </trkpt>
      <trkpt lat="47.68393" lon="6.04369">
        <ele>212.33</ele>
        <time>2018-01-24T10:49:53Z</time>
      </trkpt>
      <trkpt lat="47.68394" lon="6.04377">
        <ele>212.33</ele>
        <time>2018-01-24T10:49:55Z</time>
      </trkpt>
      <trkpt lat="47.68394" lon="6.04384">
        <ele>212.34</ele>
        <time>2018-01-24T10:49:57Z</time>
      </trkpt>
      <trkpt lat="47.68394" lon="6.04392">
        <ele>212.35</ele>
        <time>2018-01-24T10:49:59Z</time>
      </trkpt>
      <trkpt lat="47.68394" lon="6.044">
        <ele>212.35</ele>
        <time>2018-01-24T10:50:01Z</time>
      </trkpt>
      <trkpt lat="47.68394" lon="6.04407">
        <ele>212.36</ele>
        <time>2018-01-24T10:50:03Z</time>
      </trkpt>
      <trkpt lat="47.68394" lon="6.04415">
        <ele>212.37</ele>
        <time>2018-01-24T10:50:05Z</time>
      </trkpt>
      <trkpt lat="47.68394" lon="6.04423">
        <ele>212.37</ele>
        <time>2018-01-24T10:50:07Z</time>
      </trkpt>
      <trkpt lat="47.68395" lon="6.0443">
        <ele>212.38</ele>
        <time>2018-01-24T10:50:09Z</time>
      </trkpt>
      <trkpt lat="47.68398" lon="6.04436">
        <ele>212.39</ele>
        <time>2018-01-24T10:50:11Z</time>
      </trkpt>
      <trkpt lat="47.68402" lon="6.04437">
        <ele>212.4</ele>
        <time>2018-01-24T10:50:14Z</time>
      </trkpt>
      <trkpt lat="47.68407" lon="6.04437">
        <ele>212.41</ele>
        <time>2018-01-24T10:50:16Z</time>
      </trkpt>
      <trkpt lat="47.68412" lon="6.04436">
        <ele>212.42</ele>
        <time>2018-01-24T10:50:18Z</time>
      </trkpt>
      <trkpt lat="47.68416" lon="6.04436">
        <ele>212.43</ele>
        <time>2018-01-24T10:50:20Z</time>
      </trkpt>
      <trkpt lat="47.68423" lon="6.04437">
        <ele>212.45</ele>
        <time>2018-01-24T10:50:23Z</time>
      </trkpt>
      <trkpt lat="47.6843" lon="6.04436">
        <ele>212.46</ele>
        <time>2018-01-24T10:50:26Z</time>
      </trkpt>
      <trkpt lat="47.68435" lon="6.04435">
        <ele>212.48</ele>
        <time>2018-01-24T10:50:29Z</time>
      </trkpt>
      <trkpt lat="47.6844" lon="6.04435">
        <ele>212.49</ele>
        <time>2018-01-24T10:50:32Z</time>
      </trkpt>
      <trkpt lat="47.68446" lon="6.04435">
        <ele>212.5</ele>
        <time>2018-01-24T10:50:35Z</time>
      </trkpt>
      <trkpt lat="47.68451" lon="6.04435">
        <ele>212.5</ele>
        <time>2018-01-24T10:50:37Z</time>
      </trkpt>
      <trkpt lat="47.68456" lon="6.04435">
        <ele>212.51</ele>
        <time>2018-01-24T10:50:40Z</time>
      </trkpt>
      <trkpt lat="47.68462" lon="6.04437">
        <ele>212.51</ele>
        <time>2018-01-24T10:50:43Z</time>
      </trkpt>
      <trkpt lat="47.68468" lon="6.04436">
        <ele>212.51</ele>
        <time>2018-01-24T10:50:45Z</time>
      </trkpt>
      <trkpt lat="47.68473" lon="6.04436">
        <ele>212.51</ele>
        <time>2018-01-24T10:50:47Z</time>
      </trkpt>
      <trkpt lat="47.68478" lon="6.04437">
        <ele>212.52</ele>
        <time>2018-01-24T10:50:49Z</time>
      </trkpt>
      <trkpt lat="47.68483" lon="6.04437">
        <ele>212.52</ele>
        <time>2018-01-24T10:50:51Z</time>
      </trkpt>
      <trkpt lat="47.68488" lon="6.04442">
        <ele>212.52</ele>
        <time>2018-01-24T10:50:54Z</time>
      </trkpt>
      <trkpt lat="47.68493" lon="6.04446">
        <ele>212.52</ele>
        <time>2018-01-24T10:50:57Z</time>
      </trkpt>
      <trkpt lat="47.68499" lon="6.04445">
        <ele>212.53</ele>
        <time>2018-01-24T10:51:00Z</time>
      </trkpt>
      <trkpt lat="47.68505" lon="6.04446">
        <ele>212.53</ele>
        <time>2018-01-24T10:51:03Z</time>
      </trkpt>
      <trkpt lat="47.68511" lon="6.0445">
        <ele>212.54</ele>
        <time>2018-01-24T10:51:06Z</time>
      </trkpt>
      <trkpt lat="47.68517" lon="6.04454">
        <ele>212.56</ele>
        <time>2018-01-24T10:51:09Z</time>
      </trkpt>
      <trkpt lat="47.68522" lon="6.04458">
        <ele>212.58</ele>
        <time>2018-01-24T10:51:12Z</time>
      </trkpt>
      <trkpt lat="47.68528" lon="6.04461">
        <ele>212.6</ele>
        <time>2018-01-24T10:51:15Z</time>
      </trkpt>
      <trkpt lat="47.68533" lon="6.04464">
        <ele>212.63</ele>
        <time>2018-01-24T10:51:18Z</time>
      </trkpt>
      <trkpt lat="47.68537" lon="6.04467">
        <ele>212.65</ele>
        <time>2018-01-24T10:51:21Z</time>
      </trkpt>
      <trkpt lat="47.68541" lon="6.0447">
        <ele>212.68</ele>
        <time>2018-01-24T10:51:24Z</time>
      </trkpt>
      <trkpt lat="47.68546" lon="6.04473">
        <ele>212.71</ele>
        <time>2018-01-24T10:51:27Z</time>
      </trkpt>
      <trkpt lat="47.68551" lon="6.04478">
        <ele>212.73</ele>
        <time>2018-01-24T10:51:29Z</time>
      </trkpt>
      <trkpt lat="47.68555" lon="6.04485">
        <ele>212.77</ele>
        <time>2018-01-24T10:51:32Z</time>
      </trkpt>
      <trkpt lat="47.6856" lon="6.04488">
        <ele>212.81</ele>
        <time>2018-01-24T10:51:35Z</time>
      </trkpt>
      <trkpt lat="47.68565" lon="6.0449">
        <ele>212.84</ele>
        <time>2018-01-24T10:51:38Z</time>
      </trkpt>
      <trkpt lat="47.6857" lon="6.04493">
        <ele>212.9</ele>
        <time>2018-01-24T10:51:42Z</time>
      </trkpt>
      <trkpt lat="47.68574" lon="6.04498">
        <ele>212.95</ele>
        <time>2018-01-24T10:51:46Z</time>
      </trkpt>
      <trkpt lat="47.68578" lon="6.04502">
        <ele>213</ele>
        <time>2018-01-24T10:51:49Z</time>
      </trkpt>
      <trkpt lat="47.68582" lon="6.04508">
        <ele>213.07</ele>
        <time>2018-01-24T10:51:53Z</time>
      </trkpt>
      <trkpt lat="47.68587" lon="6.04511">
        <ele>213.1</ele>
        <time>2018-01-24T10:51:55Z</time>
      </trkpt>
      <trkpt lat="47.68591" lon="6.04513">
        <ele>213.13</ele>
        <time>2018-01-24T10:51:57Z</time>
      </trkpt>
      <trkpt lat="47.68596" lon="6.04516">
        <ele>213.19</ele>
        <time>2018-01-24T10:52:00Z</time>
      </trkpt>
      <trkpt lat="47.68601" lon="6.04518">
        <ele>213.24</ele>
        <time>2018-01-24T10:52:03Z</time>
      </trkpt>
      <trkpt lat="47.68606" lon="6.04521">
        <ele>213.33</ele>
        <time>2018-01-24T10:52:07Z</time>
      </trkpt>
      <trkpt lat="47.68612" lon="6.04525">
        <ele>213.41</ele>
        <time>2018-01-24T10:52:11Z</time>
      </trkpt>
      <trkpt lat="47.68616" lon="6.04529">
        <ele>213.48</ele>
        <time>2018-01-24T10:52:14Z</time>
      </trkpt>
      <trkpt lat="47.6862" lon="6.04532">
        <ele>213.56</ele>
        <time>2018-01-24T10:52:17Z</time>
      </trkpt>
      <trkpt lat="47.68624" lon="6.04539">
        <ele>213.63</ele>
        <time>2018-01-24T10:52:20Z</time>
      </trkpt>
      <trkpt lat="47.68624" lon="6.04545">
        <ele>213.69</ele>
        <time>2018-01-24T10:52:22Z</time>
      </trkpt>
      <trkpt lat="47.68625" lon="6.04553">
        <ele>213.82</ele>
        <time>2018-01-24T10:52:27Z</time>
      </trkpt>
      <trkpt lat="47.68627" lon="6.04559">
        <ele>213.94</ele>
        <time>2018-01-24T10:52:35Z</time>
      </trkpt>
    </trkseg>
  </trk>
</gpx>